<?xml version="1.0" encoding="UTF-8" standalone="no" ?>
<gpx xmlns="http://www.topografix.com/GPX/1/1" xmlns:xsi="http://www.w3.org/2001/XMLSchema-instance" xsi:schemaLocation="http://www.topografix.com/GPX/1/1 http://www.topografix.com/GPX/1/1/gpx.xsd" version="1.1" creator="VisuGPX - https://www.visugpx.com">
  <metadata>
    <name>Balade du 27 novembre 2011</name>
    <desc><![CDATA[Temps couvert au début puis grand ciel bleu, mais froid !]]></desc>
  </metadata>
  <trk>
    <name><![CDATA[2011-11-27 11:08]]></name>
    <trkseg>
      <trkpt lat="43.62441" lon="3.83794">
        <ele>91.94</ele>
        <time>2011-11-27T10:08:34Z</time>
      </trkpt>
      <trkpt lat="43.62425" lon="3.83797">
        <ele>70.31</ele>
        <time>2011-11-27T10:10:08Z</time>
      </trkpt>
      <trkpt lat="43.62415" lon="3.83805">
        <ele>47.24</ele>
        <time>2011-11-27T10:10:24Z</time>
      </trkpt>
      <trkpt lat="43.62426" lon="3.83796">
        <ele>75.6</ele>
        <time>2011-11-27T10:11:18Z</time>
      </trkpt>
      <trkpt lat="43.62429" lon="3.8379">
        <ele>76.56</ele>
        <time>2011-11-27T10:11:21Z</time>
      </trkpt>
      <trkpt lat="43.62443" lon="3.83793">
        <ele>78.97</ele>
        <time>2011-11-27T10:11:25Z</time>
      </trkpt>
      <trkpt lat="43.62448" lon="3.83797">
        <ele>78.97</ele>
        <time>2011-11-27T10:11:26Z</time>
      </trkpt>
      <trkpt lat="43.62505" lon="3.83842">
        <ele>78</ele>
        <time>2011-11-27T10:11:35Z</time>
      </trkpt>
      <trkpt lat="43.62509" lon="3.83849">
        <ele>77.52</ele>
        <time>2011-11-27T10:11:36Z</time>
      </trkpt>
      <trkpt lat="43.62513" lon="3.83858">
        <ele>77.52</ele>
        <time>2011-11-27T10:11:37Z</time>
      </trkpt>
      <trkpt lat="43.62516" lon="3.83866">
        <ele>77.52</ele>
        <time>2011-11-27T10:11:38Z</time>
      </trkpt>
      <trkpt lat="43.62517" lon="3.83875">
        <ele>77.04</ele>
        <time>2011-11-27T10:11:39Z</time>
      </trkpt>
      <trkpt lat="43.62518" lon="3.83884">
        <ele>77.04</ele>
        <time>2011-11-27T10:11:40Z</time>
      </trkpt>
      <trkpt lat="43.62518" lon="3.83893">
        <ele>77.04</ele>
        <time>2011-11-27T10:11:41Z</time>
      </trkpt>
      <trkpt lat="43.62518" lon="3.839">
        <ele>77.04</ele>
        <time>2011-11-27T10:11:42Z</time>
      </trkpt>
      <trkpt lat="43.62519" lon="3.83906">
        <ele>77.04</ele>
        <time>2011-11-27T10:11:43Z</time>
      </trkpt>
      <trkpt lat="43.6252" lon="3.83909">
        <ele>77.04</ele>
        <time>2011-11-27T10:11:44Z</time>
      </trkpt>
      <trkpt lat="43.62524" lon="3.83909">
        <ele>76.56</ele>
        <time>2011-11-27T10:11:45Z</time>
      </trkpt>
      <trkpt lat="43.62529" lon="3.83904">
        <ele>75.6</ele>
        <time>2011-11-27T10:11:46Z</time>
      </trkpt>
      <trkpt lat="43.62538" lon="3.839">
        <ele>76.08</ele>
        <time>2011-11-27T10:11:47Z</time>
      </trkpt>
      <trkpt lat="43.62548" lon="3.83897">
        <ele>76.56</ele>
        <time>2011-11-27T10:11:48Z</time>
      </trkpt>
      <trkpt lat="43.62558" lon="3.83894">
        <ele>75.6</ele>
        <time>2011-11-27T10:11:49Z</time>
      </trkpt>
      <trkpt lat="43.62578" lon="3.8389">
        <ele>73.68</ele>
        <time>2011-11-27T10:11:51Z</time>
      </trkpt>
      <trkpt lat="43.62588" lon="3.8389">
        <ele>72.72</ele>
        <time>2011-11-27T10:11:52Z</time>
      </trkpt>
      <trkpt lat="43.62598" lon="3.83893">
        <ele>72.24</ele>
        <time>2011-11-27T10:11:53Z</time>
      </trkpt>
      <trkpt lat="43.62607" lon="3.83895">
        <ele>71.76</ele>
        <time>2011-11-27T10:11:54Z</time>
      </trkpt>
      <trkpt lat="43.62617" lon="3.83895">
        <ele>70.79</ele>
        <time>2011-11-27T10:11:55Z</time>
      </trkpt>
      <trkpt lat="43.62626" lon="3.83892">
        <ele>70.31</ele>
        <time>2011-11-27T10:11:56Z</time>
      </trkpt>
      <trkpt lat="43.62634" lon="3.83888">
        <ele>69.83</ele>
        <time>2011-11-27T10:11:57Z</time>
      </trkpt>
      <trkpt lat="43.62642" lon="3.83886">
        <ele>69.35</ele>
        <time>2011-11-27T10:11:58Z</time>
      </trkpt>
      <trkpt lat="43.6265" lon="3.83887">
        <ele>68.87</ele>
        <time>2011-11-27T10:11:59Z</time>
      </trkpt>
      <trkpt lat="43.62658" lon="3.8389">
        <ele>68.39</ele>
        <time>2011-11-27T10:12:00Z</time>
      </trkpt>
      <trkpt lat="43.62665" lon="3.83898">
        <ele>67.91</ele>
        <time>2011-11-27T10:12:01Z</time>
      </trkpt>
      <trkpt lat="43.62672" lon="3.83909">
        <ele>67.91</ele>
        <time>2011-11-27T10:12:02Z</time>
      </trkpt>
      <trkpt lat="43.6268" lon="3.8392">
        <ele>67.43</ele>
        <time>2011-11-27T10:12:03Z</time>
      </trkpt>
      <trkpt lat="43.62797" lon="3.84066">
        <ele>63.1</ele>
        <time>2011-11-27T10:12:17Z</time>
      </trkpt>
      <trkpt lat="43.62914" lon="3.84158">
        <ele>60.7</ele>
        <time>2011-11-27T10:12:26Z</time>
      </trkpt>
      <trkpt lat="43.6302" lon="3.842">
        <ele>59.74</ele>
        <time>2011-11-27T10:12:35Z</time>
      </trkpt>
      <trkpt lat="43.63063" lon="3.84219">
        <ele>58.78</ele>
        <time>2011-11-27T10:12:42Z</time>
      </trkpt>
      <trkpt lat="43.63072" lon="3.84229">
        <ele>58.78</ele>
        <time>2011-11-27T10:12:48Z</time>
      </trkpt>
      <trkpt lat="43.63075" lon="3.84236">
        <ele>58.78</ele>
        <time>2011-11-27T10:12:49Z</time>
      </trkpt>
      <trkpt lat="43.63089" lon="3.84265">
        <ele>58.3</ele>
        <time>2011-11-27T10:12:52Z</time>
      </trkpt>
      <trkpt lat="43.63096" lon="3.84274">
        <ele>57.82</ele>
        <time>2011-11-27T10:12:53Z</time>
      </trkpt>
      <trkpt lat="43.63104" lon="3.84281">
        <ele>57.82</ele>
        <time>2011-11-27T10:12:54Z</time>
      </trkpt>
      <trkpt lat="43.63113" lon="3.84285">
        <ele>57.82</ele>
        <time>2011-11-27T10:12:55Z</time>
      </trkpt>
      <trkpt lat="43.63122" lon="3.84287">
        <ele>57.34</ele>
        <time>2011-11-27T10:12:56Z</time>
      </trkpt>
      <trkpt lat="43.6313" lon="3.84286">
        <ele>57.34</ele>
        <time>2011-11-27T10:12:57Z</time>
      </trkpt>
      <trkpt lat="43.63137" lon="3.84284">
        <ele>56.86</ele>
        <time>2011-11-27T10:12:58Z</time>
      </trkpt>
      <trkpt lat="43.63141" lon="3.84282">
        <ele>56.86</ele>
        <time>2011-11-27T10:12:59Z</time>
      </trkpt>
      <trkpt lat="43.63145" lon="3.8428">
        <ele>56.86</ele>
        <time>2011-11-27T10:13:00Z</time>
      </trkpt>
      <trkpt lat="43.63147" lon="3.84279">
        <ele>56.37</ele>
        <time>2011-11-27T10:13:01Z</time>
      </trkpt>
      <trkpt lat="43.63158" lon="3.84272">
        <ele>56.37</ele>
        <time>2011-11-27T10:13:05Z</time>
      </trkpt>
      <trkpt lat="43.63166" lon="3.84271">
        <ele>56.37</ele>
        <time>2011-11-27T10:13:06Z</time>
      </trkpt>
      <trkpt lat="43.63176" lon="3.84271">
        <ele>56.37</ele>
        <time>2011-11-27T10:13:07Z</time>
      </trkpt>
      <trkpt lat="43.63186" lon="3.84274">
        <ele>56.86</ele>
        <time>2011-11-27T10:13:08Z</time>
      </trkpt>
      <trkpt lat="43.63197" lon="3.84278">
        <ele>56.86</ele>
        <time>2011-11-27T10:13:09Z</time>
      </trkpt>
      <trkpt lat="43.63209" lon="3.84283">
        <ele>56.37</ele>
        <time>2011-11-27T10:13:10Z</time>
      </trkpt>
      <trkpt lat="43.63373" lon="3.84333">
        <ele>57.34</ele>
        <time>2011-11-27T10:13:22Z</time>
      </trkpt>
      <trkpt lat="43.63528" lon="3.84406">
        <ele>56.86</ele>
        <time>2011-11-27T10:13:34Z</time>
      </trkpt>
      <trkpt lat="43.63597" lon="3.84445">
        <ele>54.93</ele>
        <time>2011-11-27T10:13:42Z</time>
      </trkpt>
      <trkpt lat="43.63694" lon="3.84511">
        <ele>58.78</ele>
        <time>2011-11-27T10:13:55Z</time>
      </trkpt>
      <trkpt lat="43.63781" lon="3.846">
        <ele>59.26</ele>
        <time>2011-11-27T10:14:04Z</time>
      </trkpt>
      <trkpt lat="43.63808" lon="3.84632">
        <ele>58.78</ele>
        <time>2011-11-27T10:14:07Z</time>
      </trkpt>
      <trkpt lat="43.63814" lon="3.84644">
        <ele>58.78</ele>
        <time>2011-11-27T10:14:08Z</time>
      </trkpt>
      <trkpt lat="43.63819" lon="3.84656">
        <ele>58.78</ele>
        <time>2011-11-27T10:14:09Z</time>
      </trkpt>
      <trkpt lat="43.63832" lon="3.84696">
        <ele>58.3</ele>
        <time>2011-11-27T10:14:12Z</time>
      </trkpt>
      <trkpt lat="43.63838" lon="3.84708">
        <ele>58.3</ele>
        <time>2011-11-27T10:14:13Z</time>
      </trkpt>
      <trkpt lat="43.63906" lon="3.84748">
        <ele>59.74</ele>
        <time>2011-11-27T10:14:19Z</time>
      </trkpt>
      <trkpt lat="43.6392" lon="3.84745">
        <ele>61.66</ele>
        <time>2011-11-27T10:14:20Z</time>
      </trkpt>
      <trkpt lat="43.6402" lon="3.84748">
        <ele>67.91</ele>
        <time>2011-11-27T10:14:29Z</time>
      </trkpt>
      <trkpt lat="43.64048" lon="3.8475">
        <ele>68.39</ele>
        <time>2011-11-27T10:14:32Z</time>
      </trkpt>
      <trkpt lat="43.64057" lon="3.84754">
        <ele>68.87</ele>
        <time>2011-11-27T10:14:33Z</time>
      </trkpt>
      <trkpt lat="43.64076" lon="3.84764">
        <ele>68.87</ele>
        <time>2011-11-27T10:14:35Z</time>
      </trkpt>
      <trkpt lat="43.64086" lon="3.84766">
        <ele>69.35</ele>
        <time>2011-11-27T10:14:36Z</time>
      </trkpt>
      <trkpt lat="43.64096" lon="3.84764">
        <ele>69.35</ele>
        <time>2011-11-27T10:14:37Z</time>
      </trkpt>
      <trkpt lat="43.64105" lon="3.84759">
        <ele>69.83</ele>
        <time>2011-11-27T10:14:38Z</time>
      </trkpt>
      <trkpt lat="43.64112" lon="3.84752">
        <ele>69.83</ele>
        <time>2011-11-27T10:14:39Z</time>
      </trkpt>
      <trkpt lat="43.64118" lon="3.84741">
        <ele>69.83</ele>
        <time>2011-11-27T10:14:40Z</time>
      </trkpt>
      <trkpt lat="43.6412" lon="3.84728">
        <ele>69.35</ele>
        <time>2011-11-27T10:14:41Z</time>
      </trkpt>
      <trkpt lat="43.64121" lon="3.84715">
        <ele>68.39</ele>
        <time>2011-11-27T10:14:42Z</time>
      </trkpt>
      <trkpt lat="43.6412" lon="3.84702">
        <ele>68.39</ele>
        <time>2011-11-27T10:14:43Z</time>
      </trkpt>
      <trkpt lat="43.64117" lon="3.8469">
        <ele>67.43</ele>
        <time>2011-11-27T10:14:44Z</time>
      </trkpt>
      <trkpt lat="43.64112" lon="3.84679">
        <ele>66.95</ele>
        <time>2011-11-27T10:14:45Z</time>
      </trkpt>
      <trkpt lat="43.64105" lon="3.8467">
        <ele>65.99</ele>
        <time>2011-11-27T10:14:46Z</time>
      </trkpt>
      <trkpt lat="43.64095" lon="3.84663">
        <ele>65.51</ele>
        <time>2011-11-27T10:14:47Z</time>
      </trkpt>
      <trkpt lat="43.64087" lon="3.84656">
        <ele>65.03</ele>
        <time>2011-11-27T10:14:48Z</time>
      </trkpt>
      <trkpt lat="43.6408" lon="3.84647">
        <ele>65.03</ele>
        <time>2011-11-27T10:14:49Z</time>
      </trkpt>
      <trkpt lat="43.64076" lon="3.84638">
        <ele>64.55</ele>
        <time>2011-11-27T10:14:50Z</time>
      </trkpt>
      <trkpt lat="43.64074" lon="3.84629">
        <ele>64.55</ele>
        <time>2011-11-27T10:14:51Z</time>
      </trkpt>
      <trkpt lat="43.64074" lon="3.84621">
        <ele>64.55</ele>
        <time>2011-11-27T10:14:52Z</time>
      </trkpt>
      <trkpt lat="43.64076" lon="3.84613">
        <ele>65.03</ele>
        <time>2011-11-27T10:14:53Z</time>
      </trkpt>
      <trkpt lat="43.64078" lon="3.84606">
        <ele>65.03</ele>
        <time>2011-11-27T10:14:54Z</time>
      </trkpt>
      <trkpt lat="43.6408" lon="3.84599">
        <ele>65.03</ele>
        <time>2011-11-27T10:14:55Z</time>
      </trkpt>
      <trkpt lat="43.64083" lon="3.84592">
        <ele>65.03</ele>
        <time>2011-11-27T10:14:56Z</time>
      </trkpt>
      <trkpt lat="43.64086" lon="3.84587">
        <ele>65.51</ele>
        <time>2011-11-27T10:14:57Z</time>
      </trkpt>
      <trkpt lat="43.64088" lon="3.84585">
        <ele>65.51</ele>
        <time>2011-11-27T10:14:58Z</time>
      </trkpt>
      <trkpt lat="43.64091" lon="3.84585">
        <ele>65.51</ele>
        <time>2011-11-27T10:14:59Z</time>
      </trkpt>
      <trkpt lat="43.64094" lon="3.84587">
        <ele>65.51</ele>
        <time>2011-11-27T10:15:00Z</time>
      </trkpt>
      <trkpt lat="43.64096" lon="3.8459">
        <ele>65.51</ele>
        <time>2011-11-27T10:15:01Z</time>
      </trkpt>
      <trkpt lat="43.64097" lon="3.84593">
        <ele>65.51</ele>
        <time>2011-11-27T10:15:02Z</time>
      </trkpt>
      <trkpt lat="43.64098" lon="3.84596">
        <ele>65.51</ele>
        <time>2011-11-27T10:15:03Z</time>
      </trkpt>
      <trkpt lat="43.64104" lon="3.84607">
        <ele>65.99</ele>
        <time>2011-11-27T10:15:15Z</time>
      </trkpt>
      <trkpt lat="43.64107" lon="3.84614">
        <ele>64.55</ele>
        <time>2011-11-27T10:17:38Z</time>
      </trkpt>
      <trkpt lat="43.64112" lon="3.84615">
        <ele>65.03</ele>
        <time>2011-11-27T10:17:58Z</time>
      </trkpt>
      <trkpt lat="43.64108" lon="3.84623">
        <ele>39.55</ele>
        <time>2011-11-27T10:19:03Z</time>
      </trkpt>
      <trkpt lat="43.64108" lon="3.84621">
        <ele>50.61</ele>
        <time>2011-11-27T10:20:17Z</time>
      </trkpt>
      <trkpt lat="43.64113" lon="3.84626">
        <ele>46.76</ele>
        <time>2011-11-27T10:21:04Z</time>
      </trkpt>
      <trkpt lat="43.64117" lon="3.84624">
        <ele>49.16</ele>
        <time>2011-11-27T10:21:24Z</time>
      </trkpt>
      <trkpt lat="43.64119" lon="3.84624">
        <ele>50.13</ele>
        <time>2011-11-27T10:21:25Z</time>
      </trkpt>
      <trkpt lat="43.64121" lon="3.84625">
        <ele>51.57</ele>
        <time>2011-11-27T10:21:26Z</time>
      </trkpt>
      <trkpt lat="43.64124" lon="3.84625">
        <ele>52.53</ele>
        <time>2011-11-27T10:21:27Z</time>
      </trkpt>
      <trkpt lat="43.64127" lon="3.84624">
        <ele>53.49</ele>
        <time>2011-11-27T10:21:28Z</time>
      </trkpt>
      <trkpt lat="43.64129" lon="3.84623">
        <ele>54.45</ele>
        <time>2011-11-27T10:21:29Z</time>
      </trkpt>
      <trkpt lat="43.64132" lon="3.84622">
        <ele>54.93</ele>
        <time>2011-11-27T10:21:30Z</time>
      </trkpt>
      <trkpt lat="43.64135" lon="3.84619">
        <ele>55.89</ele>
        <time>2011-11-27T10:21:31Z</time>
      </trkpt>
      <trkpt lat="43.64137" lon="3.84615">
        <ele>56.37</ele>
        <time>2011-11-27T10:21:32Z</time>
      </trkpt>
      <trkpt lat="43.64138" lon="3.8461">
        <ele>56.86</ele>
        <time>2011-11-27T10:21:33Z</time>
      </trkpt>
      <trkpt lat="43.64138" lon="3.84605">
        <ele>57.82</ele>
        <time>2011-11-27T10:21:34Z</time>
      </trkpt>
      <trkpt lat="43.64136" lon="3.84599">
        <ele>58.3</ele>
        <time>2011-11-27T10:21:35Z</time>
      </trkpt>
      <trkpt lat="43.64134" lon="3.84593">
        <ele>58.78</ele>
        <time>2011-11-27T10:21:36Z</time>
      </trkpt>
      <trkpt lat="43.64127" lon="3.84577">
        <ele>60.7</ele>
        <time>2011-11-27T10:21:40Z</time>
      </trkpt>
      <trkpt lat="43.64122" lon="3.84576">
        <ele>60.22</ele>
        <time>2011-11-27T10:21:41Z</time>
      </trkpt>
      <trkpt lat="43.64116" lon="3.84577">
        <ele>60.22</ele>
        <time>2011-11-27T10:21:42Z</time>
      </trkpt>
      <trkpt lat="43.64099" lon="3.84577">
        <ele>61.18</ele>
        <time>2011-11-27T10:21:45Z</time>
      </trkpt>
      <trkpt lat="43.64095" lon="3.84576">
        <ele>61.18</ele>
        <time>2011-11-27T10:21:46Z</time>
      </trkpt>
      <trkpt lat="43.64093" lon="3.84576">
        <ele>61.66</ele>
        <time>2011-11-27T10:21:47Z</time>
      </trkpt>
      <trkpt lat="43.64091" lon="3.84577">
        <ele>61.66</ele>
        <time>2011-11-27T10:21:48Z</time>
      </trkpt>
      <trkpt lat="43.64087" lon="3.8458">
        <ele>62.14</ele>
        <time>2011-11-27T10:21:49Z</time>
      </trkpt>
      <trkpt lat="43.64083" lon="3.84587">
        <ele>62.14</ele>
        <time>2011-11-27T10:21:50Z</time>
      </trkpt>
      <trkpt lat="43.64079" lon="3.84597">
        <ele>62.14</ele>
        <time>2011-11-27T10:21:51Z</time>
      </trkpt>
      <trkpt lat="43.64076" lon="3.84608">
        <ele>62.14</ele>
        <time>2011-11-27T10:21:52Z</time>
      </trkpt>
      <trkpt lat="43.64073" lon="3.8462">
        <ele>62.14</ele>
        <time>2011-11-27T10:21:53Z</time>
      </trkpt>
      <trkpt lat="43.64062" lon="3.84664">
        <ele>62.62</ele>
        <time>2011-11-27T10:21:59Z</time>
      </trkpt>
      <trkpt lat="43.64051" lon="3.8468">
        <ele>63.1</ele>
        <time>2011-11-27T10:22:01Z</time>
      </trkpt>
      <trkpt lat="43.64046" lon="3.84691">
        <ele>63.1</ele>
        <time>2011-11-27T10:22:02Z</time>
      </trkpt>
      <trkpt lat="43.64042" lon="3.84703">
        <ele>63.1</ele>
        <time>2011-11-27T10:22:03Z</time>
      </trkpt>
      <trkpt lat="43.64041" lon="3.84717">
        <ele>63.58</ele>
        <time>2011-11-27T10:22:04Z</time>
      </trkpt>
      <trkpt lat="43.64041" lon="3.84732">
        <ele>64.55</ele>
        <time>2011-11-27T10:22:05Z</time>
      </trkpt>
      <trkpt lat="43.64044" lon="3.84745">
        <ele>65.03</ele>
        <time>2011-11-27T10:22:06Z</time>
      </trkpt>
      <trkpt lat="43.6405" lon="3.84756">
        <ele>65.03</ele>
        <time>2011-11-27T10:22:07Z</time>
      </trkpt>
      <trkpt lat="43.6406" lon="3.84764">
        <ele>65.51</ele>
        <time>2011-11-27T10:22:08Z</time>
      </trkpt>
      <trkpt lat="43.6407" lon="3.84769">
        <ele>66.47</ele>
        <time>2011-11-27T10:22:09Z</time>
      </trkpt>
      <trkpt lat="43.64081" lon="3.84771">
        <ele>66.95</ele>
        <time>2011-11-27T10:22:10Z</time>
      </trkpt>
      <trkpt lat="43.64091" lon="3.84771">
        <ele>67.43</ele>
        <time>2011-11-27T10:22:11Z</time>
      </trkpt>
      <trkpt lat="43.64103" lon="3.84767">
        <ele>67.43</ele>
        <time>2011-11-27T10:22:12Z</time>
      </trkpt>
      <trkpt lat="43.64115" lon="3.84764">
        <ele>67.43</ele>
        <time>2011-11-27T10:22:13Z</time>
      </trkpt>
      <trkpt lat="43.6413" lon="3.84763">
        <ele>67.43</ele>
        <time>2011-11-27T10:22:14Z</time>
      </trkpt>
      <trkpt lat="43.64145" lon="3.84763">
        <ele>67.43</ele>
        <time>2011-11-27T10:22:15Z</time>
      </trkpt>
      <trkpt lat="43.64212" lon="3.84766">
        <ele>67.91</ele>
        <time>2011-11-27T10:22:19Z</time>
      </trkpt>
      <trkpt lat="43.64227" lon="3.84771">
        <ele>68.39</ele>
        <time>2011-11-27T10:22:20Z</time>
      </trkpt>
      <trkpt lat="43.64242" lon="3.8478">
        <ele>68.87</ele>
        <time>2011-11-27T10:22:21Z</time>
      </trkpt>
      <trkpt lat="43.64255" lon="3.84789">
        <ele>69.83</ele>
        <time>2011-11-27T10:22:22Z</time>
      </trkpt>
      <trkpt lat="43.64267" lon="3.84801">
        <ele>71.27</ele>
        <time>2011-11-27T10:22:23Z</time>
      </trkpt>
      <trkpt lat="43.64279" lon="3.84814">
        <ele>72.72</ele>
        <time>2011-11-27T10:22:24Z</time>
      </trkpt>
      <trkpt lat="43.6429" lon="3.84828">
        <ele>74.16</ele>
        <time>2011-11-27T10:22:25Z</time>
      </trkpt>
      <trkpt lat="43.64301" lon="3.84843">
        <ele>75.12</ele>
        <time>2011-11-27T10:22:26Z</time>
      </trkpt>
      <trkpt lat="43.64311" lon="3.8486">
        <ele>75.6</ele>
        <time>2011-11-27T10:22:27Z</time>
      </trkpt>
      <trkpt lat="43.6432" lon="3.84878">
        <ele>76.56</ele>
        <time>2011-11-27T10:22:28Z</time>
      </trkpt>
      <trkpt lat="43.64329" lon="3.84898">
        <ele>78</ele>
        <time>2011-11-27T10:22:29Z</time>
      </trkpt>
      <trkpt lat="43.64336" lon="3.8492">
        <ele>78.97</ele>
        <time>2011-11-27T10:22:30Z</time>
      </trkpt>
      <trkpt lat="43.64343" lon="3.84944">
        <ele>79.93</ele>
        <time>2011-11-27T10:22:31Z</time>
      </trkpt>
      <trkpt lat="43.64414" lon="3.85105">
        <ele>79.93</ele>
        <time>2011-11-27T10:22:38Z</time>
      </trkpt>
      <trkpt lat="43.64504" lon="3.85254">
        <ele>77.52</ele>
        <time>2011-11-27T10:22:46Z</time>
      </trkpt>
      <trkpt lat="43.64628" lon="3.85399">
        <ele>75.12</ele>
        <time>2011-11-27T10:22:56Z</time>
      </trkpt>
      <trkpt lat="43.64791" lon="3.85497">
        <ele>68.39</ele>
        <time>2011-11-27T10:23:07Z</time>
      </trkpt>
      <trkpt lat="43.64898" lon="3.85607">
        <ele>63.1</ele>
        <time>2011-11-27T10:23:15Z</time>
      </trkpt>
      <trkpt lat="43.64978" lon="3.85785">
        <ele>63.58</ele>
        <time>2011-11-27T10:23:24Z</time>
      </trkpt>
      <trkpt lat="43.65035" lon="3.86028">
        <ele>60.22</ele>
        <time>2011-11-27T10:23:34Z</time>
      </trkpt>
      <trkpt lat="43.65064" lon="3.86329">
        <ele>50.61</ele>
        <time>2011-11-27T10:23:46Z</time>
      </trkpt>
      <trkpt lat="43.65076" lon="3.86512">
        <ele>48.2</ele>
        <time>2011-11-27T10:23:55Z</time>
      </trkpt>
      <trkpt lat="43.65076" lon="3.86538">
        <ele>48.2</ele>
        <time>2011-11-27T10:23:57Z</time>
      </trkpt>
      <trkpt lat="43.65073" lon="3.86551">
        <ele>48.2</ele>
        <time>2011-11-27T10:23:58Z</time>
      </trkpt>
      <trkpt lat="43.65067" lon="3.86563">
        <ele>48.2</ele>
        <time>2011-11-27T10:23:59Z</time>
      </trkpt>
      <trkpt lat="43.65055" lon="3.86588">
        <ele>49.16</ele>
        <time>2011-11-27T10:24:01Z</time>
      </trkpt>
      <trkpt lat="43.65053" lon="3.86603">
        <ele>49.16</ele>
        <time>2011-11-27T10:24:02Z</time>
      </trkpt>
      <trkpt lat="43.65053" lon="3.86618">
        <ele>50.13</ele>
        <time>2011-11-27T10:24:03Z</time>
      </trkpt>
      <trkpt lat="43.65057" lon="3.86632">
        <ele>50.61</ele>
        <time>2011-11-27T10:24:04Z</time>
      </trkpt>
      <trkpt lat="43.65063" lon="3.86645">
        <ele>51.09</ele>
        <time>2011-11-27T10:24:05Z</time>
      </trkpt>
      <trkpt lat="43.6507" lon="3.86656">
        <ele>51.09</ele>
        <time>2011-11-27T10:24:06Z</time>
      </trkpt>
      <trkpt lat="43.65078" lon="3.86667">
        <ele>51.09</ele>
        <time>2011-11-27T10:24:07Z</time>
      </trkpt>
      <trkpt lat="43.65085" lon="3.8668">
        <ele>51.09</ele>
        <time>2011-11-27T10:24:08Z</time>
      </trkpt>
      <trkpt lat="43.65091" lon="3.86695">
        <ele>51.09</ele>
        <time>2011-11-27T10:24:09Z</time>
      </trkpt>
      <trkpt lat="43.65095" lon="3.86714">
        <ele>51.09</ele>
        <time>2011-11-27T10:24:10Z</time>
      </trkpt>
      <trkpt lat="43.65097" lon="3.86737">
        <ele>51.09</ele>
        <time>2011-11-27T10:24:11Z</time>
      </trkpt>
      <trkpt lat="43.651" lon="3.86763">
        <ele>51.57</ele>
        <time>2011-11-27T10:24:12Z</time>
      </trkpt>
      <trkpt lat="43.65138" lon="3.86949">
        <ele>51.09</ele>
        <time>2011-11-27T10:24:18Z</time>
      </trkpt>
      <trkpt lat="43.65232" lon="3.87166">
        <ele>50.61</ele>
        <time>2011-11-27T10:24:26Z</time>
      </trkpt>
      <trkpt lat="43.65262" lon="3.87204">
        <ele>51.09</ele>
        <time>2011-11-27T10:24:28Z</time>
      </trkpt>
      <trkpt lat="43.65277" lon="3.87219">
        <ele>51.57</ele>
        <time>2011-11-27T10:24:29Z</time>
      </trkpt>
      <trkpt lat="43.65334" lon="3.87269">
        <ele>53.97</ele>
        <time>2011-11-27T10:24:34Z</time>
      </trkpt>
      <trkpt lat="43.65339" lon="3.87278">
        <ele>54.45</ele>
        <time>2011-11-27T10:24:35Z</time>
      </trkpt>
      <trkpt lat="43.65342" lon="3.87291">
        <ele>54.45</ele>
        <time>2011-11-27T10:24:36Z</time>
      </trkpt>
      <trkpt lat="43.65349" lon="3.87322">
        <ele>54.93</ele>
        <time>2011-11-27T10:24:38Z</time>
      </trkpt>
      <trkpt lat="43.65357" lon="3.87338">
        <ele>55.41</ele>
        <time>2011-11-27T10:24:39Z</time>
      </trkpt>
      <trkpt lat="43.65367" lon="3.87354">
        <ele>55.89</ele>
        <time>2011-11-27T10:24:40Z</time>
      </trkpt>
      <trkpt lat="43.65379" lon="3.8737">
        <ele>56.37</ele>
        <time>2011-11-27T10:24:41Z</time>
      </trkpt>
      <trkpt lat="43.65392" lon="3.87384">
        <ele>56.86</ele>
        <time>2011-11-27T10:24:42Z</time>
      </trkpt>
      <trkpt lat="43.65405" lon="3.87397">
        <ele>57.34</ele>
        <time>2011-11-27T10:24:43Z</time>
      </trkpt>
      <trkpt lat="43.65441" lon="3.87427">
        <ele>58.3</ele>
        <time>2011-11-27T10:24:46Z</time>
      </trkpt>
      <trkpt lat="43.65454" lon="3.87433">
        <ele>58.78</ele>
        <time>2011-11-27T10:24:47Z</time>
      </trkpt>
      <trkpt lat="43.65467" lon="3.87435">
        <ele>59.74</ele>
        <time>2011-11-27T10:24:48Z</time>
      </trkpt>
      <trkpt lat="43.65478" lon="3.87434">
        <ele>60.22</ele>
        <time>2011-11-27T10:24:49Z</time>
      </trkpt>
      <trkpt lat="43.65489" lon="3.8743">
        <ele>60.22</ele>
        <time>2011-11-27T10:24:50Z</time>
      </trkpt>
      <trkpt lat="43.65497" lon="3.8742">
        <ele>60.7</ele>
        <time>2011-11-27T10:24:51Z</time>
      </trkpt>
      <trkpt lat="43.65504" lon="3.87405">
        <ele>60.7</ele>
        <time>2011-11-27T10:24:52Z</time>
      </trkpt>
      <trkpt lat="43.65506" lon="3.87388">
        <ele>61.18</ele>
        <time>2011-11-27T10:24:53Z</time>
      </trkpt>
      <trkpt lat="43.65506" lon="3.87369">
        <ele>61.18</ele>
        <time>2011-11-27T10:24:54Z</time>
      </trkpt>
      <trkpt lat="43.65506" lon="3.87349">
        <ele>60.7</ele>
        <time>2011-11-27T10:24:55Z</time>
      </trkpt>
      <trkpt lat="43.65511" lon="3.87257">
        <ele>58.78</ele>
        <time>2011-11-27T10:25:00Z</time>
      </trkpt>
      <trkpt lat="43.65515" lon="3.87242">
        <ele>58.3</ele>
        <time>2011-11-27T10:25:01Z</time>
      </trkpt>
      <trkpt lat="43.65521" lon="3.87227">
        <ele>57.34</ele>
        <time>2011-11-27T10:25:02Z</time>
      </trkpt>
      <trkpt lat="43.65528" lon="3.87212">
        <ele>56.86</ele>
        <time>2011-11-27T10:25:03Z</time>
      </trkpt>
      <trkpt lat="43.65537" lon="3.87196">
        <ele>55.89</ele>
        <time>2011-11-27T10:25:04Z</time>
      </trkpt>
      <trkpt lat="43.65624" lon="3.87068">
        <ele>51.09</ele>
        <time>2011-11-27T10:25:11Z</time>
      </trkpt>
      <trkpt lat="43.65774" lon="3.86931">
        <ele>51.57</ele>
        <time>2011-11-27T10:25:19Z</time>
      </trkpt>
      <trkpt lat="43.65901" lon="3.86794">
        <ele>51.09</ele>
        <time>2011-11-27T10:25:26Z</time>
      </trkpt>
      <trkpt lat="43.6604" lon="3.86648">
        <ele>54.45</ele>
        <time>2011-11-27T10:25:35Z</time>
      </trkpt>
      <trkpt lat="43.66059" lon="3.8664">
        <ele>55.41</ele>
        <time>2011-11-27T10:25:36Z</time>
      </trkpt>
      <trkpt lat="43.66078" lon="3.86635">
        <ele>56.37</ele>
        <time>2011-11-27T10:25:37Z</time>
      </trkpt>
      <trkpt lat="43.66096" lon="3.86631">
        <ele>57.34</ele>
        <time>2011-11-27T10:25:38Z</time>
      </trkpt>
      <trkpt lat="43.66114" lon="3.86629">
        <ele>58.3</ele>
        <time>2011-11-27T10:25:39Z</time>
      </trkpt>
      <trkpt lat="43.66132" lon="3.86629">
        <ele>59.26</ele>
        <time>2011-11-27T10:25:40Z</time>
      </trkpt>
      <trkpt lat="43.66372" lon="3.86638">
        <ele>65.51</ele>
        <time>2011-11-27T10:25:53Z</time>
      </trkpt>
      <trkpt lat="43.6658" lon="3.86619">
        <ele>60.22</ele>
        <time>2011-11-27T10:26:03Z</time>
      </trkpt>
      <trkpt lat="43.66621" lon="3.86621">
        <ele>58.78</ele>
        <time>2011-11-27T10:26:05Z</time>
      </trkpt>
      <trkpt lat="43.66641" lon="3.86627">
        <ele>58.3</ele>
        <time>2011-11-27T10:26:06Z</time>
      </trkpt>
      <trkpt lat="43.6666" lon="3.86637">
        <ele>58.3</ele>
        <time>2011-11-27T10:26:07Z</time>
      </trkpt>
      <trkpt lat="43.66679" lon="3.86649">
        <ele>57.34</ele>
        <time>2011-11-27T10:26:08Z</time>
      </trkpt>
      <trkpt lat="43.66697" lon="3.86664">
        <ele>57.34</ele>
        <time>2011-11-27T10:26:09Z</time>
      </trkpt>
      <trkpt lat="43.66713" lon="3.86682">
        <ele>56.86</ele>
        <time>2011-11-27T10:26:10Z</time>
      </trkpt>
      <trkpt lat="43.66729" lon="3.86702">
        <ele>57.34</ele>
        <time>2011-11-27T10:26:11Z</time>
      </trkpt>
      <trkpt lat="43.66743" lon="3.86722">
        <ele>57.34</ele>
        <time>2011-11-27T10:26:12Z</time>
      </trkpt>
      <trkpt lat="43.66838" lon="3.86823">
        <ele>60.7</ele>
        <time>2011-11-27T10:26:18Z</time>
      </trkpt>
      <trkpt lat="43.66856" lon="3.86833">
        <ele>60.7</ele>
        <time>2011-11-27T10:26:19Z</time>
      </trkpt>
      <trkpt lat="43.66875" lon="3.8684">
        <ele>61.18</ele>
        <time>2011-11-27T10:26:20Z</time>
      </trkpt>
      <trkpt lat="43.66895" lon="3.86846">
        <ele>60.7</ele>
        <time>2011-11-27T10:26:21Z</time>
      </trkpt>
      <trkpt lat="43.66915" lon="3.86849">
        <ele>60.7</ele>
        <time>2011-11-27T10:26:22Z</time>
      </trkpt>
      <trkpt lat="43.66934" lon="3.86849">
        <ele>60.7</ele>
        <time>2011-11-27T10:26:23Z</time>
      </trkpt>
      <trkpt lat="43.66954" lon="3.86847">
        <ele>60.22</ele>
        <time>2011-11-27T10:26:24Z</time>
      </trkpt>
      <trkpt lat="43.66973" lon="3.86843">
        <ele>59.74</ele>
        <time>2011-11-27T10:26:25Z</time>
      </trkpt>
      <trkpt lat="43.66992" lon="3.86839">
        <ele>59.74</ele>
        <time>2011-11-27T10:26:26Z</time>
      </trkpt>
      <trkpt lat="43.6728" lon="3.86769">
        <ele>61.66</ele>
        <time>2011-11-27T10:26:41Z</time>
      </trkpt>
      <trkpt lat="43.67417" lon="3.86773">
        <ele>63.58</ele>
        <time>2011-11-27T10:26:49Z</time>
      </trkpt>
      <trkpt lat="43.67433" lon="3.86773">
        <ele>63.58</ele>
        <time>2011-11-27T10:26:50Z</time>
      </trkpt>
      <trkpt lat="43.67448" lon="3.8677">
        <ele>63.58</ele>
        <time>2011-11-27T10:26:51Z</time>
      </trkpt>
      <trkpt lat="43.67463" lon="3.86765">
        <ele>63.1</ele>
        <time>2011-11-27T10:26:52Z</time>
      </trkpt>
      <trkpt lat="43.67584" lon="3.86716">
        <ele>61.18</ele>
        <time>2011-11-27T10:27:01Z</time>
      </trkpt>
      <trkpt lat="43.67627" lon="3.8672">
        <ele>61.18</ele>
        <time>2011-11-27T10:27:05Z</time>
      </trkpt>
      <trkpt lat="43.67634" lon="3.86725">
        <ele>61.18</ele>
        <time>2011-11-27T10:27:06Z</time>
      </trkpt>
      <trkpt lat="43.6764" lon="3.86732">
        <ele>61.18</ele>
        <time>2011-11-27T10:27:07Z</time>
      </trkpt>
      <trkpt lat="43.67654" lon="3.86751">
        <ele>61.66</ele>
        <time>2011-11-27T10:27:09Z</time>
      </trkpt>
      <trkpt lat="43.67662" lon="3.86757">
        <ele>62.14</ele>
        <time>2011-11-27T10:27:10Z</time>
      </trkpt>
      <trkpt lat="43.67672" lon="3.86761">
        <ele>62.14</ele>
        <time>2011-11-27T10:27:11Z</time>
      </trkpt>
      <trkpt lat="43.67682" lon="3.86762">
        <ele>62.62</ele>
        <time>2011-11-27T10:27:12Z</time>
      </trkpt>
      <trkpt lat="43.67692" lon="3.86759">
        <ele>62.62</ele>
        <time>2011-11-27T10:27:13Z</time>
      </trkpt>
      <trkpt lat="43.677" lon="3.86753">
        <ele>62.62</ele>
        <time>2011-11-27T10:27:14Z</time>
      </trkpt>
      <trkpt lat="43.67707" lon="3.86743">
        <ele>62.62</ele>
        <time>2011-11-27T10:27:15Z</time>
      </trkpt>
      <trkpt lat="43.67715" lon="3.86734">
        <ele>63.1</ele>
        <time>2011-11-27T10:27:16Z</time>
      </trkpt>
      <trkpt lat="43.67724" lon="3.86726">
        <ele>63.1</ele>
        <time>2011-11-27T10:27:17Z</time>
      </trkpt>
      <trkpt lat="43.67733" lon="3.8672">
        <ele>63.1</ele>
        <time>2011-11-27T10:27:18Z</time>
      </trkpt>
      <trkpt lat="43.67744" lon="3.86717">
        <ele>63.1</ele>
        <time>2011-11-27T10:27:19Z</time>
      </trkpt>
      <trkpt lat="43.67756" lon="3.86716">
        <ele>63.1</ele>
        <time>2011-11-27T10:27:20Z</time>
      </trkpt>
      <trkpt lat="43.6777" lon="3.86715">
        <ele>63.1</ele>
        <time>2011-11-27T10:27:21Z</time>
      </trkpt>
      <trkpt lat="43.67862" lon="3.86673">
        <ele>63.1</ele>
        <time>2011-11-27T10:27:26Z</time>
      </trkpt>
      <trkpt lat="43.67991" lon="3.86601">
        <ele>61.66</ele>
        <time>2011-11-27T10:27:31Z</time>
      </trkpt>
      <trkpt lat="43.68163" lon="3.86523">
        <ele>60.22</ele>
        <time>2011-11-27T10:27:38Z</time>
      </trkpt>
      <trkpt lat="43.68267" lon="3.86466">
        <ele>60.7</ele>
        <time>2011-11-27T10:27:43Z</time>
      </trkpt>
      <trkpt lat="43.68283" lon="3.86451">
        <ele>61.18</ele>
        <time>2011-11-27T10:27:44Z</time>
      </trkpt>
      <trkpt lat="43.68297" lon="3.86435">
        <ele>61.18</ele>
        <time>2011-11-27T10:27:45Z</time>
      </trkpt>
      <trkpt lat="43.68308" lon="3.86419">
        <ele>61.18</ele>
        <time>2011-11-27T10:27:46Z</time>
      </trkpt>
      <trkpt lat="43.68316" lon="3.86401">
        <ele>61.18</ele>
        <time>2011-11-27T10:27:47Z</time>
      </trkpt>
      <trkpt lat="43.68322" lon="3.86383">
        <ele>61.66</ele>
        <time>2011-11-27T10:27:48Z</time>
      </trkpt>
      <trkpt lat="43.68328" lon="3.86367">
        <ele>61.18</ele>
        <time>2011-11-27T10:27:49Z</time>
      </trkpt>
      <trkpt lat="43.68335" lon="3.86353">
        <ele>61.18</ele>
        <time>2011-11-27T10:27:50Z</time>
      </trkpt>
      <trkpt lat="43.68343" lon="3.86343">
        <ele>61.18</ele>
        <time>2011-11-27T10:27:51Z</time>
      </trkpt>
      <trkpt lat="43.68352" lon="3.86337">
        <ele>61.18</ele>
        <time>2011-11-27T10:27:52Z</time>
      </trkpt>
      <trkpt lat="43.6836" lon="3.86335">
        <ele>61.18</ele>
        <time>2011-11-27T10:27:53Z</time>
      </trkpt>
      <trkpt lat="43.68369" lon="3.86338">
        <ele>61.66</ele>
        <time>2011-11-27T10:27:54Z</time>
      </trkpt>
      <trkpt lat="43.68379" lon="3.86343">
        <ele>61.66</ele>
        <time>2011-11-27T10:27:55Z</time>
      </trkpt>
      <trkpt lat="43.68391" lon="3.86347">
        <ele>61.66</ele>
        <time>2011-11-27T10:27:56Z</time>
      </trkpt>
      <trkpt lat="43.68507" lon="3.86379">
        <ele>62.62</ele>
        <time>2011-11-27T10:28:05Z</time>
      </trkpt>
      <trkpt lat="43.68593" lon="3.86396">
        <ele>61.66</ele>
        <time>2011-11-27T10:28:12Z</time>
      </trkpt>
      <trkpt lat="43.68663" lon="3.86389">
        <ele>62.62</ele>
        <time>2011-11-27T10:28:19Z</time>
      </trkpt>
      <trkpt lat="43.68671" lon="3.86385">
        <ele>62.62</ele>
        <time>2011-11-27T10:28:20Z</time>
      </trkpt>
      <trkpt lat="43.6868" lon="3.8638">
        <ele>63.1</ele>
        <time>2011-11-27T10:28:21Z</time>
      </trkpt>
      <trkpt lat="43.6879" lon="3.8633">
        <ele>65.03</ele>
        <time>2011-11-27T10:28:31Z</time>
      </trkpt>
      <trkpt lat="43.68935" lon="3.86279">
        <ele>67.91</ele>
        <time>2011-11-27T10:28:44Z</time>
      </trkpt>
      <trkpt lat="43.6903" lon="3.86272">
        <ele>69.35</ele>
        <time>2011-11-27T10:28:52Z</time>
      </trkpt>
      <trkpt lat="43.69173" lon="3.86278">
        <ele>71.76</ele>
        <time>2011-11-27T10:29:04Z</time>
      </trkpt>
      <trkpt lat="43.69292" lon="3.86255">
        <ele>70.31</ele>
        <time>2011-11-27T10:29:15Z</time>
      </trkpt>
      <trkpt lat="43.69362" lon="3.8625">
        <ele>70.31</ele>
        <time>2011-11-27T10:29:24Z</time>
      </trkpt>
      <trkpt lat="43.69366" lon="3.86251">
        <ele>70.31</ele>
        <time>2011-11-27T10:29:34Z</time>
      </trkpt>
      <trkpt lat="43.69397" lon="3.8625">
        <ele>69.35</ele>
        <time>2011-11-27T10:29:42Z</time>
      </trkpt>
      <trkpt lat="43.695" lon="3.86253">
        <ele>69.35</ele>
        <time>2011-11-27T10:29:53Z</time>
      </trkpt>
      <trkpt lat="43.69591" lon="3.86268">
        <ele>71.27</ele>
        <time>2011-11-27T10:30:04Z</time>
      </trkpt>
      <trkpt lat="43.6969" lon="3.86286">
        <ele>70.79</ele>
        <time>2011-11-27T10:30:18Z</time>
      </trkpt>
      <trkpt lat="43.69715" lon="3.8629">
        <ele>72.24</ele>
        <time>2011-11-27T10:30:27Z</time>
      </trkpt>
      <trkpt lat="43.69711" lon="3.86285">
        <ele>77.52</ele>
        <time>2011-11-27T10:30:45Z</time>
      </trkpt>
      <trkpt lat="43.69731" lon="3.86288">
        <ele>78.97</ele>
        <time>2011-11-27T10:31:07Z</time>
      </trkpt>
      <trkpt lat="43.69787" lon="3.86298">
        <ele>77.52</ele>
        <time>2011-11-27T10:31:15Z</time>
      </trkpt>
      <trkpt lat="43.69795" lon="3.86296">
        <ele>77.52</ele>
        <time>2011-11-27T10:31:16Z</time>
      </trkpt>
      <trkpt lat="43.69802" lon="3.86294">
        <ele>77.52</ele>
        <time>2011-11-27T10:31:17Z</time>
      </trkpt>
      <trkpt lat="43.6989" lon="3.86243">
        <ele>74.64</ele>
        <time>2011-11-27T10:31:29Z</time>
      </trkpt>
      <trkpt lat="43.69915" lon="3.86234">
        <ele>74.64</ele>
        <time>2011-11-27T10:31:32Z</time>
      </trkpt>
      <trkpt lat="43.69925" lon="3.86232">
        <ele>74.64</ele>
        <time>2011-11-27T10:31:33Z</time>
      </trkpt>
      <trkpt lat="43.69935" lon="3.86232">
        <ele>74.16</ele>
        <time>2011-11-27T10:31:34Z</time>
      </trkpt>
      <trkpt lat="43.69946" lon="3.86233">
        <ele>73.2</ele>
        <time>2011-11-27T10:31:35Z</time>
      </trkpt>
      <trkpt lat="43.69956" lon="3.86236">
        <ele>72.72</ele>
        <time>2011-11-27T10:31:36Z</time>
      </trkpt>
      <trkpt lat="43.70071" lon="3.86255">
        <ele>71.76</ele>
        <time>2011-11-27T10:31:48Z</time>
      </trkpt>
      <trkpt lat="43.70081" lon="3.86259">
        <ele>71.76</ele>
        <time>2011-11-27T10:31:49Z</time>
      </trkpt>
      <trkpt lat="43.70169" lon="3.86308">
        <ele>71.27</ele>
        <time>2011-11-27T10:31:58Z</time>
      </trkpt>
      <trkpt lat="43.70219" lon="3.86379">
        <ele>70.79</ele>
        <time>2011-11-27T10:32:07Z</time>
      </trkpt>
      <trkpt lat="43.70255" lon="3.86475">
        <ele>71.27</ele>
        <time>2011-11-27T10:32:15Z</time>
      </trkpt>
      <trkpt lat="43.70293" lon="3.86578">
        <ele>71.76</ele>
        <time>2011-11-27T10:32:24Z</time>
      </trkpt>
      <trkpt lat="43.70357" lon="3.86727">
        <ele>72.72</ele>
        <time>2011-11-27T10:32:33Z</time>
      </trkpt>
      <trkpt lat="43.70379" lon="3.86756">
        <ele>72.72</ele>
        <time>2011-11-27T10:32:35Z</time>
      </trkpt>
      <trkpt lat="43.70392" lon="3.86769">
        <ele>72.72</ele>
        <time>2011-11-27T10:32:36Z</time>
      </trkpt>
      <trkpt lat="43.70407" lon="3.8678">
        <ele>72.72</ele>
        <time>2011-11-27T10:32:37Z</time>
      </trkpt>
      <trkpt lat="43.70424" lon="3.86791">
        <ele>72.72</ele>
        <time>2011-11-27T10:32:38Z</time>
      </trkpt>
      <trkpt lat="43.70442" lon="3.86799">
        <ele>72.72</ele>
        <time>2011-11-27T10:32:39Z</time>
      </trkpt>
      <trkpt lat="43.70461" lon="3.86805">
        <ele>72.72</ele>
        <time>2011-11-27T10:32:40Z</time>
      </trkpt>
      <trkpt lat="43.7048" lon="3.86809">
        <ele>72.72</ele>
        <time>2011-11-27T10:32:41Z</time>
      </trkpt>
      <trkpt lat="43.705" lon="3.8681">
        <ele>73.2</ele>
        <time>2011-11-27T10:32:42Z</time>
      </trkpt>
      <trkpt lat="43.7052" lon="3.86809">
        <ele>73.2</ele>
        <time>2011-11-27T10:32:43Z</time>
      </trkpt>
      <trkpt lat="43.70542" lon="3.86806">
        <ele>73.2</ele>
        <time>2011-11-27T10:32:44Z</time>
      </trkpt>
      <trkpt lat="43.70566" lon="3.86802">
        <ele>73.2</ele>
        <time>2011-11-27T10:32:45Z</time>
      </trkpt>
      <trkpt lat="43.70752" lon="3.86792">
        <ele>74.64</ele>
        <time>2011-11-27T10:32:52Z</time>
      </trkpt>
      <trkpt lat="43.70947" lon="3.86772">
        <ele>73.2</ele>
        <time>2011-11-27T10:33:00Z</time>
      </trkpt>
      <trkpt lat="43.71117" lon="3.86731">
        <ele>73.68</ele>
        <time>2011-11-27T10:33:08Z</time>
      </trkpt>
      <trkpt lat="43.71253" lon="3.867">
        <ele>73.2</ele>
        <time>2011-11-27T10:33:16Z</time>
      </trkpt>
      <trkpt lat="43.71494" lon="3.86664">
        <ele>73.68</ele>
        <time>2011-11-27T10:33:29Z</time>
      </trkpt>
      <trkpt lat="43.71626" lon="3.86707">
        <ele>74.64</ele>
        <time>2011-11-27T10:33:36Z</time>
      </trkpt>
      <trkpt lat="43.71813" lon="3.86806">
        <ele>77.52</ele>
        <time>2011-11-27T10:33:46Z</time>
      </trkpt>
      <trkpt lat="43.71939" lon="3.86864">
        <ele>78.48</ele>
        <time>2011-11-27T10:33:52Z</time>
      </trkpt>
      <trkpt lat="43.72059" lon="3.86907">
        <ele>79.93</ele>
        <time>2011-11-27T10:33:58Z</time>
      </trkpt>
      <trkpt lat="43.72081" lon="3.86908">
        <ele>80.89</ele>
        <time>2011-11-27T10:33:59Z</time>
      </trkpt>
      <trkpt lat="43.72102" lon="3.86906">
        <ele>81.37</ele>
        <time>2011-11-27T10:34:00Z</time>
      </trkpt>
      <trkpt lat="43.72122" lon="3.869">
        <ele>81.85</ele>
        <time>2011-11-27T10:34:01Z</time>
      </trkpt>
      <trkpt lat="43.72142" lon="3.86891">
        <ele>82.33</ele>
        <time>2011-11-27T10:34:02Z</time>
      </trkpt>
      <trkpt lat="43.72161" lon="3.86881">
        <ele>82.81</ele>
        <time>2011-11-27T10:34:03Z</time>
      </trkpt>
      <trkpt lat="43.72235" lon="3.86855">
        <ele>83.29</ele>
        <time>2011-11-27T10:34:07Z</time>
      </trkpt>
      <trkpt lat="43.72256" lon="3.86855">
        <ele>82.33</ele>
        <time>2011-11-27T10:34:08Z</time>
      </trkpt>
      <trkpt lat="43.72415" lon="3.86881">
        <ele>78.48</ele>
        <time>2011-11-27T10:34:15Z</time>
      </trkpt>
      <trkpt lat="43.7263" lon="3.86951">
        <ele>82.33</ele>
        <time>2011-11-27T10:34:26Z</time>
      </trkpt>
      <trkpt lat="43.72737" lon="3.87007">
        <ele>84.73</ele>
        <time>2011-11-27T10:34:32Z</time>
      </trkpt>
      <trkpt lat="43.72754" lon="3.87009">
        <ele>85.21</ele>
        <time>2011-11-27T10:34:33Z</time>
      </trkpt>
      <trkpt lat="43.7277" lon="3.8701">
        <ele>86.18</ele>
        <time>2011-11-27T10:34:34Z</time>
      </trkpt>
      <trkpt lat="43.72809" lon="3.87009">
        <ele>87.62</ele>
        <time>2011-11-27T10:34:37Z</time>
      </trkpt>
      <trkpt lat="43.72819" lon="3.87012">
        <ele>88.1</ele>
        <time>2011-11-27T10:34:38Z</time>
      </trkpt>
      <trkpt lat="43.72828" lon="3.87016">
        <ele>88.58</ele>
        <time>2011-11-27T10:34:39Z</time>
      </trkpt>
      <trkpt lat="43.72836" lon="3.87019">
        <ele>88.58</ele>
        <time>2011-11-27T10:34:40Z</time>
      </trkpt>
      <trkpt lat="43.72845" lon="3.8702">
        <ele>89.06</ele>
        <time>2011-11-27T10:34:41Z</time>
      </trkpt>
      <trkpt lat="43.72853" lon="3.87016">
        <ele>89.06</ele>
        <time>2011-11-27T10:34:42Z</time>
      </trkpt>
      <trkpt lat="43.72862" lon="3.87008">
        <ele>89.54</ele>
        <time>2011-11-27T10:34:43Z</time>
      </trkpt>
      <trkpt lat="43.72873" lon="3.87">
        <ele>89.54</ele>
        <time>2011-11-27T10:34:44Z</time>
      </trkpt>
      <trkpt lat="43.72886" lon="3.86993">
        <ele>90.02</ele>
        <time>2011-11-27T10:34:45Z</time>
      </trkpt>
      <trkpt lat="43.72899" lon="3.86988">
        <ele>90.02</ele>
        <time>2011-11-27T10:34:46Z</time>
      </trkpt>
      <trkpt lat="43.72914" lon="3.86985">
        <ele>90.5</ele>
        <time>2011-11-27T10:34:47Z</time>
      </trkpt>
      <trkpt lat="43.73003" lon="3.86968">
        <ele>90.02</ele>
        <time>2011-11-27T10:34:54Z</time>
      </trkpt>
      <trkpt lat="43.73014" lon="3.86969">
        <ele>89.54</ele>
        <time>2011-11-27T10:34:55Z</time>
      </trkpt>
      <trkpt lat="43.73023" lon="3.86973">
        <ele>89.54</ele>
        <time>2011-11-27T10:34:56Z</time>
      </trkpt>
      <trkpt lat="43.7304" lon="3.86979">
        <ele>89.54</ele>
        <time>2011-11-27T10:34:58Z</time>
      </trkpt>
      <trkpt lat="43.73048" lon="3.86978">
        <ele>89.06</ele>
        <time>2011-11-27T10:34:59Z</time>
      </trkpt>
      <trkpt lat="43.73056" lon="3.86972">
        <ele>88.58</ele>
        <time>2011-11-27T10:35:00Z</time>
      </trkpt>
      <trkpt lat="43.73063" lon="3.86963">
        <ele>88.1</ele>
        <time>2011-11-27T10:35:01Z</time>
      </trkpt>
      <trkpt lat="43.7307" lon="3.86951">
        <ele>87.62</ele>
        <time>2011-11-27T10:35:02Z</time>
      </trkpt>
      <trkpt lat="43.73079" lon="3.8694">
        <ele>87.14</ele>
        <time>2011-11-27T10:35:03Z</time>
      </trkpt>
      <trkpt lat="43.7309" lon="3.86929">
        <ele>86.66</ele>
        <time>2011-11-27T10:35:04Z</time>
      </trkpt>
      <trkpt lat="43.73104" lon="3.86919">
        <ele>86.18</ele>
        <time>2011-11-27T10:35:05Z</time>
      </trkpt>
      <trkpt lat="43.73119" lon="3.86908">
        <ele>85.21</ele>
        <time>2011-11-27T10:35:06Z</time>
      </trkpt>
      <trkpt lat="43.73317" lon="3.86779">
        <ele>82.81</ele>
        <time>2011-11-27T10:35:17Z</time>
      </trkpt>
      <trkpt lat="43.73434" lon="3.86746">
        <ele>83.29</ele>
        <time>2011-11-27T10:35:22Z</time>
      </trkpt>
      <trkpt lat="43.73636" lon="3.86735">
        <ele>82.33</ele>
        <time>2011-11-27T10:35:29Z</time>
      </trkpt>
      <trkpt lat="43.73828" lon="3.86697">
        <ele>81.85</ele>
        <time>2011-11-27T10:35:36Z</time>
      </trkpt>
      <trkpt lat="43.74026" lon="3.8657">
        <ele>84.25</ele>
        <time>2011-11-27T10:35:44Z</time>
      </trkpt>
      <trkpt lat="43.74169" lon="3.86471">
        <ele>88.1</ele>
        <time>2011-11-27T10:35:51Z</time>
      </trkpt>
      <trkpt lat="43.74268" lon="3.86376">
        <ele>86.66</ele>
        <time>2011-11-27T10:35:58Z</time>
      </trkpt>
      <trkpt lat="43.74366" lon="3.86281">
        <ele>86.18</ele>
        <time>2011-11-27T10:36:06Z</time>
      </trkpt>
      <trkpt lat="43.74513" lon="3.86139">
        <ele>85.21</ele>
        <time>2011-11-27T10:36:16Z</time>
      </trkpt>
      <trkpt lat="43.74687" lon="3.85975">
        <ele>85.69</ele>
        <time>2011-11-27T10:36:26Z</time>
      </trkpt>
      <trkpt lat="43.74778" lon="3.85894">
        <ele>87.14</ele>
        <time>2011-11-27T10:36:33Z</time>
      </trkpt>
      <trkpt lat="43.7484" lon="3.85865">
        <ele>87.14</ele>
        <time>2011-11-27T10:36:37Z</time>
      </trkpt>
      <trkpt lat="43.74858" lon="3.85862">
        <ele>87.62</ele>
        <time>2011-11-27T10:36:38Z</time>
      </trkpt>
      <trkpt lat="43.74876" lon="3.85861">
        <ele>88.1</ele>
        <time>2011-11-27T10:36:39Z</time>
      </trkpt>
      <trkpt lat="43.74894" lon="3.85861">
        <ele>88.1</ele>
        <time>2011-11-27T10:36:40Z</time>
      </trkpt>
      <trkpt lat="43.74912" lon="3.85863">
        <ele>88.58</ele>
        <time>2011-11-27T10:36:41Z</time>
      </trkpt>
      <trkpt lat="43.7493" lon="3.85866">
        <ele>88.58</ele>
        <time>2011-11-27T10:36:42Z</time>
      </trkpt>
      <trkpt lat="43.75158" lon="3.85911">
        <ele>89.54</ele>
        <time>2011-11-27T10:36:54Z</time>
      </trkpt>
      <trkpt lat="43.75315" lon="3.85942">
        <ele>91.46</ele>
        <time>2011-11-27T10:37:01Z</time>
      </trkpt>
      <trkpt lat="43.75579" lon="3.85995">
        <ele>94.83</ele>
        <time>2011-11-27T10:37:14Z</time>
      </trkpt>
      <trkpt lat="43.75726" lon="3.86064">
        <ele>95.31</ele>
        <time>2011-11-27T10:37:22Z</time>
      </trkpt>
      <trkpt lat="43.75934" lon="3.86203">
        <ele>98.19</ele>
        <time>2011-11-27T10:37:35Z</time>
      </trkpt>
      <trkpt lat="43.76057" lon="3.86285">
        <ele>99.63</ele>
        <time>2011-11-27T10:37:45Z</time>
      </trkpt>
      <trkpt lat="43.76104" lon="3.86319">
        <ele>100.11</ele>
        <time>2011-11-27T10:37:52Z</time>
      </trkpt>
      <trkpt lat="43.76114" lon="3.86335">
        <ele>100.11</ele>
        <time>2011-11-27T10:38:01Z</time>
      </trkpt>
      <trkpt lat="43.76117" lon="3.86343">
        <ele>100.6</ele>
        <time>2011-11-27T10:38:02Z</time>
      </trkpt>
      <trkpt lat="43.76123" lon="3.86358">
        <ele>100.6</ele>
        <time>2011-11-27T10:38:04Z</time>
      </trkpt>
      <trkpt lat="43.76128" lon="3.86363">
        <ele>100.6</ele>
        <time>2011-11-27T10:38:05Z</time>
      </trkpt>
      <trkpt lat="43.76134" lon="3.86367">
        <ele>100.6</ele>
        <time>2011-11-27T10:38:06Z</time>
      </trkpt>
      <trkpt lat="43.76141" lon="3.86367">
        <ele>100.6</ele>
        <time>2011-11-27T10:38:07Z</time>
      </trkpt>
      <trkpt lat="43.76149" lon="3.86366">
        <ele>100.6</ele>
        <time>2011-11-27T10:38:08Z</time>
      </trkpt>
      <trkpt lat="43.76158" lon="3.86364">
        <ele>101.08</ele>
        <time>2011-11-27T10:38:09Z</time>
      </trkpt>
      <trkpt lat="43.76167" lon="3.86364">
        <ele>101.08</ele>
        <time>2011-11-27T10:38:10Z</time>
      </trkpt>
      <trkpt lat="43.76177" lon="3.86367">
        <ele>101.08</ele>
        <time>2011-11-27T10:38:11Z</time>
      </trkpt>
      <trkpt lat="43.76185" lon="3.8637">
        <ele>101.08</ele>
        <time>2011-11-27T10:38:12Z</time>
      </trkpt>
      <trkpt lat="43.76192" lon="3.86375">
        <ele>101.08</ele>
        <time>2011-11-27T10:38:13Z</time>
      </trkpt>
      <trkpt lat="43.76201" lon="3.86381">
        <ele>101.08</ele>
        <time>2011-11-27T10:38:14Z</time>
      </trkpt>
      <trkpt lat="43.76324" lon="3.86462">
        <ele>100.6</ele>
        <time>2011-11-27T10:38:27Z</time>
      </trkpt>
      <trkpt lat="43.76462" lon="3.86554">
        <ele>102.52</ele>
        <time>2011-11-27T10:38:40Z</time>
      </trkpt>
      <trkpt lat="43.76563" lon="3.86622">
        <ele>104.92</ele>
        <time>2011-11-27T10:38:50Z</time>
      </trkpt>
      <trkpt lat="43.76577" lon="3.86632">
        <ele>105.88</ele>
        <time>2011-11-27T10:38:56Z</time>
      </trkpt>
      <trkpt lat="43.76583" lon="3.86638">
        <ele>105.88</ele>
        <time>2011-11-27T10:38:58Z</time>
      </trkpt>
      <trkpt lat="43.76589" lon="3.86646">
        <ele>106.36</ele>
        <time>2011-11-27T10:39:00Z</time>
      </trkpt>
      <trkpt lat="43.76593" lon="3.86649">
        <ele>106.36</ele>
        <time>2011-11-27T10:39:01Z</time>
      </trkpt>
      <trkpt lat="43.76598" lon="3.8665">
        <ele>106.36</ele>
        <time>2011-11-27T10:39:02Z</time>
      </trkpt>
      <trkpt lat="43.76604" lon="3.86652">
        <ele>106.84</ele>
        <time>2011-11-27T10:39:03Z</time>
      </trkpt>
      <trkpt lat="43.76611" lon="3.86655">
        <ele>106.84</ele>
        <time>2011-11-27T10:39:04Z</time>
      </trkpt>
      <trkpt lat="43.76618" lon="3.86659">
        <ele>106.84</ele>
        <time>2011-11-27T10:39:05Z</time>
      </trkpt>
      <trkpt lat="43.76672" lon="3.86695">
        <ele>107.81</ele>
        <time>2011-11-27T10:39:13Z</time>
      </trkpt>
      <trkpt lat="43.76724" lon="3.8672">
        <ele>109.73</ele>
        <time>2011-11-27T10:39:21Z</time>
      </trkpt>
      <trkpt lat="43.76793" lon="3.86746">
        <ele>111.17</ele>
        <time>2011-11-27T10:39:31Z</time>
      </trkpt>
      <trkpt lat="43.76855" lon="3.86769">
        <ele>112.61</ele>
        <time>2011-11-27T10:39:43Z</time>
      </trkpt>
      <trkpt lat="43.76929" lon="3.86795">
        <ele>110.69</ele>
        <time>2011-11-27T10:39:53Z</time>
      </trkpt>
      <trkpt lat="43.76996" lon="3.86821">
        <ele>110.21</ele>
        <time>2011-11-27T10:40:03Z</time>
      </trkpt>
      <trkpt lat="43.77057" lon="3.86843">
        <ele>109.25</ele>
        <time>2011-11-27T10:40:12Z</time>
      </trkpt>
      <trkpt lat="43.77145" lon="3.86875">
        <ele>109.73</ele>
        <time>2011-11-27T10:40:20Z</time>
      </trkpt>
      <trkpt lat="43.77249" lon="3.86913">
        <ele>113.09</ele>
        <time>2011-11-27T10:40:30Z</time>
      </trkpt>
      <trkpt lat="43.77344" lon="3.86946">
        <ele>116.94</ele>
        <time>2011-11-27T10:40:39Z</time>
      </trkpt>
      <trkpt lat="43.77384" lon="3.86956">
        <ele>117.9</ele>
        <time>2011-11-27T10:40:44Z</time>
      </trkpt>
      <trkpt lat="43.77388" lon="3.86958">
        <ele>117.9</ele>
        <time>2011-11-27T10:40:45Z</time>
      </trkpt>
      <trkpt lat="43.7739" lon="3.86961">
        <ele>118.38</ele>
        <time>2011-11-27T10:40:46Z</time>
      </trkpt>
      <trkpt lat="43.77391" lon="3.86963">
        <ele>118.38</ele>
        <time>2011-11-27T10:40:47Z</time>
      </trkpt>
      <trkpt lat="43.77392" lon="3.86967">
        <ele>118.38</ele>
        <time>2011-11-27T10:40:48Z</time>
      </trkpt>
      <trkpt lat="43.77394" lon="3.86973">
        <ele>118.38</ele>
        <time>2011-11-27T10:40:49Z</time>
      </trkpt>
      <trkpt lat="43.77396" lon="3.86982">
        <ele>118.86</ele>
        <time>2011-11-27T10:40:50Z</time>
      </trkpt>
      <trkpt lat="43.77398" lon="3.86992">
        <ele>118.86</ele>
        <time>2011-11-27T10:40:51Z</time>
      </trkpt>
      <trkpt lat="43.774" lon="3.87001">
        <ele>118.86</ele>
        <time>2011-11-27T10:40:52Z</time>
      </trkpt>
      <trkpt lat="43.77404" lon="3.87011">
        <ele>118.86</ele>
        <time>2011-11-27T10:40:53Z</time>
      </trkpt>
      <trkpt lat="43.7741" lon="3.8702">
        <ele>118.86</ele>
        <time>2011-11-27T10:40:54Z</time>
      </trkpt>
      <trkpt lat="43.77418" lon="3.87026">
        <ele>118.86</ele>
        <time>2011-11-27T10:40:55Z</time>
      </trkpt>
      <trkpt lat="43.77426" lon="3.87029">
        <ele>118.86</ele>
        <time>2011-11-27T10:40:56Z</time>
      </trkpt>
      <trkpt lat="43.77435" lon="3.87029">
        <ele>118.86</ele>
        <time>2011-11-27T10:40:57Z</time>
      </trkpt>
      <trkpt lat="43.77443" lon="3.87025">
        <ele>118.86</ele>
        <time>2011-11-27T10:40:58Z</time>
      </trkpt>
      <trkpt lat="43.77451" lon="3.87018">
        <ele>118.38</ele>
        <time>2011-11-27T10:40:59Z</time>
      </trkpt>
      <trkpt lat="43.77457" lon="3.87007">
        <ele>118.38</ele>
        <time>2011-11-27T10:41:00Z</time>
      </trkpt>
      <trkpt lat="43.77461" lon="3.86994">
        <ele>118.38</ele>
        <time>2011-11-27T10:41:01Z</time>
      </trkpt>
      <trkpt lat="43.77462" lon="3.8698">
        <ele>118.38</ele>
        <time>2011-11-27T10:41:02Z</time>
      </trkpt>
      <trkpt lat="43.7746" lon="3.86965">
        <ele>118.38</ele>
        <time>2011-11-27T10:41:03Z</time>
      </trkpt>
      <trkpt lat="43.77456" lon="3.8695">
        <ele>117.9</ele>
        <time>2011-11-27T10:41:04Z</time>
      </trkpt>
      <trkpt lat="43.77453" lon="3.86935">
        <ele>117.42</ele>
        <time>2011-11-27T10:41:05Z</time>
      </trkpt>
      <trkpt lat="43.77452" lon="3.86918">
        <ele>116.94</ele>
        <time>2011-11-27T10:41:06Z</time>
      </trkpt>
      <trkpt lat="43.77453" lon="3.869">
        <ele>116.94</ele>
        <time>2011-11-27T10:41:07Z</time>
      </trkpt>
      <trkpt lat="43.77456" lon="3.8688">
        <ele>116.94</ele>
        <time>2011-11-27T10:41:08Z</time>
      </trkpt>
      <trkpt lat="43.7746" lon="3.86858">
        <ele>116.94</ele>
        <time>2011-11-27T10:41:09Z</time>
      </trkpt>
      <trkpt lat="43.77464" lon="3.86837">
        <ele>116.94</ele>
        <time>2011-11-27T10:41:10Z</time>
      </trkpt>
      <trkpt lat="43.77518" lon="3.8666">
        <ele>115.5</ele>
        <time>2011-11-27T10:41:17Z</time>
      </trkpt>
      <trkpt lat="43.77651" lon="3.86225">
        <ele>114.05</ele>
        <time>2011-11-27T10:41:32Z</time>
      </trkpt>
      <trkpt lat="43.77764" lon="3.85853">
        <ele>122.22</ele>
        <time>2011-11-27T10:41:45Z</time>
      </trkpt>
      <trkpt lat="43.77773" lon="3.85832">
        <ele>122.22</ele>
        <time>2011-11-27T10:41:46Z</time>
      </trkpt>
      <trkpt lat="43.77784" lon="3.85813">
        <ele>122.71</ele>
        <time>2011-11-27T10:41:47Z</time>
      </trkpt>
      <trkpt lat="43.77798" lon="3.85795">
        <ele>122.71</ele>
        <time>2011-11-27T10:41:48Z</time>
      </trkpt>
      <trkpt lat="43.77903" lon="3.85681">
        <ele>123.19</ele>
        <time>2011-11-27T10:41:55Z</time>
      </trkpt>
      <trkpt lat="43.77916" lon="3.85671">
        <ele>123.19</ele>
        <time>2011-11-27T10:41:56Z</time>
      </trkpt>
      <trkpt lat="43.7793" lon="3.85665">
        <ele>123.67</ele>
        <time>2011-11-27T10:41:57Z</time>
      </trkpt>
      <trkpt lat="43.77946" lon="3.8567">
        <ele>123.67</ele>
        <time>2011-11-27T10:41:58Z</time>
      </trkpt>
      <trkpt lat="43.77962" lon="3.85674">
        <ele>123.19</ele>
        <time>2011-11-27T10:41:59Z</time>
      </trkpt>
      <trkpt lat="43.77981" lon="3.85681">
        <ele>123.19</ele>
        <time>2011-11-27T10:42:00Z</time>
      </trkpt>
      <trkpt lat="43.78001" lon="3.85691">
        <ele>123.19</ele>
        <time>2011-11-27T10:42:01Z</time>
      </trkpt>
      <trkpt lat="43.78022" lon="3.85701">
        <ele>123.19</ele>
        <time>2011-11-27T10:42:02Z</time>
      </trkpt>
      <trkpt lat="43.78241" lon="3.85778">
        <ele>123.67</ele>
        <time>2011-11-27T10:42:12Z</time>
      </trkpt>
      <trkpt lat="43.78405" lon="3.8581">
        <ele>124.63</ele>
        <time>2011-11-27T10:42:20Z</time>
      </trkpt>
      <trkpt lat="43.78424" lon="3.85809">
        <ele>125.11</ele>
        <time>2011-11-27T10:42:21Z</time>
      </trkpt>
      <trkpt lat="43.78443" lon="3.85805">
        <ele>124.63</ele>
        <time>2011-11-27T10:42:22Z</time>
      </trkpt>
      <trkpt lat="43.78635" lon="3.85758">
        <ele>126.55</ele>
        <time>2011-11-27T10:42:32Z</time>
      </trkpt>
      <trkpt lat="43.78833" lon="3.85709">
        <ele>128.95</ele>
        <time>2011-11-27T10:42:44Z</time>
      </trkpt>
      <trkpt lat="43.7897" lon="3.85664">
        <ele>132.8</ele>
        <time>2011-11-27T10:42:54Z</time>
      </trkpt>
      <trkpt lat="43.78998" lon="3.85642">
        <ele>132.32</ele>
        <time>2011-11-27T10:42:56Z</time>
      </trkpt>
      <trkpt lat="43.7901" lon="3.85628">
        <ele>132.32</ele>
        <time>2011-11-27T10:42:57Z</time>
      </trkpt>
      <trkpt lat="43.79022" lon="3.85612">
        <ele>132.32</ele>
        <time>2011-11-27T10:42:58Z</time>
      </trkpt>
      <trkpt lat="43.79033" lon="3.85595">
        <ele>131.84</ele>
        <time>2011-11-27T10:42:59Z</time>
      </trkpt>
      <trkpt lat="43.79043" lon="3.85576">
        <ele>132.32</ele>
        <time>2011-11-27T10:43:00Z</time>
      </trkpt>
      <trkpt lat="43.79051" lon="3.85555">
        <ele>132.32</ele>
        <time>2011-11-27T10:43:01Z</time>
      </trkpt>
      <trkpt lat="43.79058" lon="3.85533">
        <ele>132.32</ele>
        <time>2011-11-27T10:43:02Z</time>
      </trkpt>
      <trkpt lat="43.79064" lon="3.85509">
        <ele>132.8</ele>
        <time>2011-11-27T10:43:03Z</time>
      </trkpt>
      <trkpt lat="43.79069" lon="3.85483">
        <ele>132.8</ele>
        <time>2011-11-27T10:43:04Z</time>
      </trkpt>
      <trkpt lat="43.79072" lon="3.85457">
        <ele>132.8</ele>
        <time>2011-11-27T10:43:05Z</time>
      </trkpt>
      <trkpt lat="43.79074" lon="3.85431">
        <ele>132.32</ele>
        <time>2011-11-27T10:43:06Z</time>
      </trkpt>
      <trkpt lat="43.79087" lon="3.85233">
        <ele>133.28</ele>
        <time>2011-11-27T10:43:14Z</time>
      </trkpt>
      <trkpt lat="43.791" lon="3.85029">
        <ele>134.24</ele>
        <time>2011-11-27T10:43:21Z</time>
      </trkpt>
      <trkpt lat="43.79097" lon="3.85001">
        <ele>134.72</ele>
        <time>2011-11-27T10:43:22Z</time>
      </trkpt>
      <trkpt lat="43.79092" lon="3.84973">
        <ele>134.72</ele>
        <time>2011-11-27T10:43:23Z</time>
      </trkpt>
      <trkpt lat="43.79032" lon="3.84749">
        <ele>135.68</ele>
        <time>2011-11-27T10:43:30Z</time>
      </trkpt>
      <trkpt lat="43.78916" lon="3.84306">
        <ele>142.41</ele>
        <time>2011-11-27T10:43:44Z</time>
      </trkpt>
      <trkpt lat="43.78845" lon="3.83903">
        <ele>153.95</ele>
        <time>2011-11-27T10:43:56Z</time>
      </trkpt>
      <trkpt lat="43.78788" lon="3.83572">
        <ele>164.52</ele>
        <time>2011-11-27T10:44:07Z</time>
      </trkpt>
      <trkpt lat="43.78785" lon="3.83545">
        <ele>165</ele>
        <time>2011-11-27T10:44:08Z</time>
      </trkpt>
      <trkpt lat="43.78785" lon="3.83519">
        <ele>165.48</ele>
        <time>2011-11-27T10:44:09Z</time>
      </trkpt>
      <trkpt lat="43.78788" lon="3.83491">
        <ele>166.45</ele>
        <time>2011-11-27T10:44:10Z</time>
      </trkpt>
      <trkpt lat="43.78793" lon="3.83462">
        <ele>166.93</ele>
        <time>2011-11-27T10:44:11Z</time>
      </trkpt>
      <trkpt lat="43.78798" lon="3.83432">
        <ele>167.89</ele>
        <time>2011-11-27T10:44:12Z</time>
      </trkpt>
      <trkpt lat="43.78828" lon="3.83188">
        <ele>174.14</ele>
        <time>2011-11-27T10:44:20Z</time>
      </trkpt>
      <trkpt lat="43.78858" lon="3.83027">
        <ele>178.94</ele>
        <time>2011-11-27T10:44:26Z</time>
      </trkpt>
      <trkpt lat="43.78912" lon="3.82868">
        <ele>183.75</ele>
        <time>2011-11-27T10:44:32Z</time>
      </trkpt>
      <trkpt lat="43.79004" lon="3.82611">
        <ele>192.4</ele>
        <time>2011-11-27T10:44:41Z</time>
      </trkpt>
      <trkpt lat="43.79051" lon="3.82355">
        <ele>200.09</ele>
        <time>2011-11-27T10:44:49Z</time>
      </trkpt>
      <trkpt lat="43.79099" lon="3.82081">
        <ele>208.26</ele>
        <time>2011-11-27T10:44:58Z</time>
      </trkpt>
      <trkpt lat="43.79111" lon="3.81785">
        <ele>215.95</ele>
        <time>2011-11-27T10:45:08Z</time>
      </trkpt>
      <trkpt lat="43.79109" lon="3.81468">
        <ele>222.68</ele>
        <time>2011-11-27T10:45:17Z</time>
      </trkpt>
      <trkpt lat="43.79079" lon="3.81124">
        <ele>232.78</ele>
        <time>2011-11-27T10:45:27Z</time>
      </trkpt>
      <trkpt lat="43.79036" lon="3.80911">
        <ele>240.47</ele>
        <time>2011-11-27T10:45:34Z</time>
      </trkpt>
      <trkpt lat="43.79026" lon="3.80889">
        <ele>241.91</ele>
        <time>2011-11-27T10:45:35Z</time>
      </trkpt>
      <trkpt lat="43.79016" lon="3.80869">
        <ele>242.87</ele>
        <time>2011-11-27T10:45:36Z</time>
      </trkpt>
      <trkpt lat="43.79003" lon="3.80851">
        <ele>243.35</ele>
        <time>2011-11-27T10:45:37Z</time>
      </trkpt>
      <trkpt lat="43.78988" lon="3.80834">
        <ele>243.35</ele>
        <time>2011-11-27T10:45:38Z</time>
      </trkpt>
      <trkpt lat="43.78971" lon="3.80818">
        <ele>243.35</ele>
        <time>2011-11-27T10:45:39Z</time>
      </trkpt>
      <trkpt lat="43.78918" lon="3.80762">
        <ele>244.79</ele>
        <time>2011-11-27T10:45:43Z</time>
      </trkpt>
      <trkpt lat="43.78908" lon="3.80746">
        <ele>245.27</ele>
        <time>2011-11-27T10:45:44Z</time>
      </trkpt>
      <trkpt lat="43.78899" lon="3.80728">
        <ele>245.75</ele>
        <time>2011-11-27T10:45:45Z</time>
      </trkpt>
      <trkpt lat="43.78892" lon="3.80708">
        <ele>247.2</ele>
        <time>2011-11-27T10:45:46Z</time>
      </trkpt>
      <trkpt lat="43.78886" lon="3.80689">
        <ele>248.16</ele>
        <time>2011-11-27T10:45:47Z</time>
      </trkpt>
      <trkpt lat="43.78879" lon="3.80672">
        <ele>249.12</ele>
        <time>2011-11-27T10:45:48Z</time>
      </trkpt>
      <trkpt lat="43.78871" lon="3.80657">
        <ele>250.08</ele>
        <time>2011-11-27T10:45:49Z</time>
      </trkpt>
      <trkpt lat="43.78861" lon="3.80647">
        <ele>251.52</ele>
        <time>2011-11-27T10:45:50Z</time>
      </trkpt>
      <trkpt lat="43.7885" lon="3.80641">
        <ele>251.52</ele>
        <time>2011-11-27T10:45:51Z</time>
      </trkpt>
      <trkpt lat="43.78839" lon="3.80635">
        <ele>251.52</ele>
        <time>2011-11-27T10:45:52Z</time>
      </trkpt>
      <trkpt lat="43.78813" lon="3.8062">
        <ele>251.52</ele>
        <time>2011-11-27T10:45:55Z</time>
      </trkpt>
      <trkpt lat="43.78809" lon="3.80614">
        <ele>251.52</ele>
        <time>2011-11-27T10:45:56Z</time>
      </trkpt>
      <trkpt lat="43.78807" lon="3.80607">
        <ele>251.04</ele>
        <time>2011-11-27T10:45:57Z</time>
      </trkpt>
      <trkpt lat="43.78808" lon="3.80599">
        <ele>250.08</ele>
        <time>2011-11-27T10:45:58Z</time>
      </trkpt>
      <trkpt lat="43.78813" lon="3.80591">
        <ele>249.6</ele>
        <time>2011-11-27T10:45:59Z</time>
      </trkpt>
      <trkpt lat="43.7882" lon="3.80585">
        <ele>249.6</ele>
        <time>2011-11-27T10:46:00Z</time>
      </trkpt>
      <trkpt lat="43.78831" lon="3.8058">
        <ele>249.6</ele>
        <time>2011-11-27T10:46:01Z</time>
      </trkpt>
      <trkpt lat="43.78842" lon="3.80576">
        <ele>249.12</ele>
        <time>2011-11-27T10:46:02Z</time>
      </trkpt>
      <trkpt lat="43.78853" lon="3.80574">
        <ele>248.16</ele>
        <time>2011-11-27T10:46:03Z</time>
      </trkpt>
      <trkpt lat="43.78865" lon="3.80574">
        <ele>247.2</ele>
        <time>2011-11-27T10:46:04Z</time>
      </trkpt>
      <trkpt lat="43.78876" lon="3.80577">
        <ele>246.23</ele>
        <time>2011-11-27T10:46:05Z</time>
      </trkpt>
      <trkpt lat="43.78886" lon="3.80582">
        <ele>245.27</ele>
        <time>2011-11-27T10:46:06Z</time>
      </trkpt>
      <trkpt lat="43.78896" lon="3.80588">
        <ele>244.31</ele>
        <time>2011-11-27T10:46:07Z</time>
      </trkpt>
      <trkpt lat="43.78905" lon="3.80595">
        <ele>243.83</ele>
        <time>2011-11-27T10:46:08Z</time>
      </trkpt>
      <trkpt lat="43.78912" lon="3.80601">
        <ele>242.87</ele>
        <time>2011-11-27T10:46:09Z</time>
      </trkpt>
      <trkpt lat="43.78919" lon="3.80602">
        <ele>242.39</ele>
        <time>2011-11-27T10:46:10Z</time>
      </trkpt>
      <trkpt lat="43.78925" lon="3.80599">
        <ele>241.91</ele>
        <time>2011-11-27T10:46:11Z</time>
      </trkpt>
      <trkpt lat="43.78928" lon="3.80592">
        <ele>241.43</ele>
        <time>2011-11-27T10:46:12Z</time>
      </trkpt>
      <trkpt lat="43.78927" lon="3.80582">
        <ele>240.95</ele>
        <time>2011-11-27T10:46:13Z</time>
      </trkpt>
      <trkpt lat="43.7892" lon="3.80572">
        <ele>240.47</ele>
        <time>2011-11-27T10:46:14Z</time>
      </trkpt>
      <trkpt lat="43.7891" lon="3.80562">
        <ele>239.99</ele>
        <time>2011-11-27T10:46:15Z</time>
      </trkpt>
      <trkpt lat="43.78899" lon="3.8055">
        <ele>240.47</ele>
        <time>2011-11-27T10:46:16Z</time>
      </trkpt>
      <trkpt lat="43.78884" lon="3.80535">
        <ele>240.47</ele>
        <time>2011-11-27T10:46:17Z</time>
      </trkpt>
      <trkpt lat="43.78854" lon="3.80497">
        <ele>239.02</ele>
        <time>2011-11-27T10:46:19Z</time>
      </trkpt>
      <trkpt lat="43.78842" lon="3.80476">
        <ele>238.06</ele>
        <time>2011-11-27T10:46:20Z</time>
      </trkpt>
      <trkpt lat="43.78833" lon="3.80456">
        <ele>237.1</ele>
        <time>2011-11-27T10:46:21Z</time>
      </trkpt>
      <trkpt lat="43.78826" lon="3.8044">
        <ele>236.62</ele>
        <time>2011-11-27T10:46:22Z</time>
      </trkpt>
      <trkpt lat="43.78822" lon="3.80427">
        <ele>235.66</ele>
        <time>2011-11-27T10:46:23Z</time>
      </trkpt>
      <trkpt lat="43.78821" lon="3.80416">
        <ele>235.18</ele>
        <time>2011-11-27T10:46:24Z</time>
      </trkpt>
      <trkpt lat="43.78823" lon="3.80407">
        <ele>234.7</ele>
        <time>2011-11-27T10:46:25Z</time>
      </trkpt>
      <trkpt lat="43.78828" lon="3.80402">
        <ele>234.22</ele>
        <time>2011-11-27T10:46:26Z</time>
      </trkpt>
      <trkpt lat="43.78835" lon="3.804">
        <ele>234.22</ele>
        <time>2011-11-27T10:46:27Z</time>
      </trkpt>
      <trkpt lat="43.78844" lon="3.80402">
        <ele>233.74</ele>
        <time>2011-11-27T10:46:28Z</time>
      </trkpt>
      <trkpt lat="43.78858" lon="3.80413">
        <ele>233.26</ele>
        <time>2011-11-27T10:46:29Z</time>
      </trkpt>
      <trkpt lat="43.78873" lon="3.80428">
        <ele>232.78</ele>
        <time>2011-11-27T10:46:30Z</time>
      </trkpt>
      <trkpt lat="43.7889" lon="3.80445">
        <ele>231.81</ele>
        <time>2011-11-27T10:46:31Z</time>
      </trkpt>
      <trkpt lat="43.78975" lon="3.80551">
        <ele>225.09</ele>
        <time>2011-11-27T10:46:37Z</time>
      </trkpt>
      <trkpt lat="43.78986" lon="3.80558">
        <ele>224.12</ele>
        <time>2011-11-27T10:46:38Z</time>
      </trkpt>
      <trkpt lat="43.78999" lon="3.80559">
        <ele>223.16</ele>
        <time>2011-11-27T10:46:39Z</time>
      </trkpt>
      <trkpt lat="43.7901" lon="3.80556">
        <ele>222.2</ele>
        <time>2011-11-27T10:46:40Z</time>
      </trkpt>
      <trkpt lat="43.79022" lon="3.80547">
        <ele>221.72</ele>
        <time>2011-11-27T10:46:41Z</time>
      </trkpt>
      <trkpt lat="43.79032" lon="3.80531">
        <ele>220.76</ele>
        <time>2011-11-27T10:46:42Z</time>
      </trkpt>
      <trkpt lat="43.79044" lon="3.80513">
        <ele>219.8</ele>
        <time>2011-11-27T10:46:43Z</time>
      </trkpt>
      <trkpt lat="43.79103" lon="3.80419">
        <ele>214.03</ele>
        <time>2011-11-27T10:46:48Z</time>
      </trkpt>
      <trkpt lat="43.79115" lon="3.80404">
        <ele>213.07</ele>
        <time>2011-11-27T10:46:49Z</time>
      </trkpt>
      <trkpt lat="43.79129" lon="3.80391">
        <ele>212.11</ele>
        <time>2011-11-27T10:46:50Z</time>
      </trkpt>
      <trkpt lat="43.79145" lon="3.80379">
        <ele>211.63</ele>
        <time>2011-11-27T10:46:51Z</time>
      </trkpt>
      <trkpt lat="43.79163" lon="3.80368">
        <ele>210.67</ele>
        <time>2011-11-27T10:46:52Z</time>
      </trkpt>
      <trkpt lat="43.79308" lon="3.80267">
        <ele>202.98</ele>
        <time>2011-11-27T10:47:00Z</time>
      </trkpt>
      <trkpt lat="43.79321" lon="3.80253">
        <ele>202.01</ele>
        <time>2011-11-27T10:47:01Z</time>
      </trkpt>
      <trkpt lat="43.79334" lon="3.80235">
        <ele>200.57</ele>
        <time>2011-11-27T10:47:02Z</time>
      </trkpt>
      <trkpt lat="43.79345" lon="3.80216">
        <ele>199.61</ele>
        <time>2011-11-27T10:47:03Z</time>
      </trkpt>
      <trkpt lat="43.79354" lon="3.80194">
        <ele>198.65</ele>
        <time>2011-11-27T10:47:04Z</time>
      </trkpt>
      <trkpt lat="43.79362" lon="3.8017">
        <ele>197.69</ele>
        <time>2011-11-27T10:47:05Z</time>
      </trkpt>
      <trkpt lat="43.79369" lon="3.80145">
        <ele>196.73</ele>
        <time>2011-11-27T10:47:06Z</time>
      </trkpt>
      <trkpt lat="43.79373" lon="3.80119">
        <ele>195.77</ele>
        <time>2011-11-27T10:47:07Z</time>
      </trkpt>
      <trkpt lat="43.79376" lon="3.80092">
        <ele>194.8</ele>
        <time>2011-11-27T10:47:08Z</time>
      </trkpt>
      <trkpt lat="43.79377" lon="3.80064">
        <ele>193.84</ele>
        <time>2011-11-27T10:47:09Z</time>
      </trkpt>
      <trkpt lat="43.79375" lon="3.80036">
        <ele>192.88</ele>
        <time>2011-11-27T10:47:10Z</time>
      </trkpt>
      <trkpt lat="43.79372" lon="3.80006">
        <ele>191.92</ele>
        <time>2011-11-27T10:47:11Z</time>
      </trkpt>
      <trkpt lat="43.79366" lon="3.79974">
        <ele>191.44</ele>
        <time>2011-11-27T10:47:12Z</time>
      </trkpt>
      <trkpt lat="43.79328" lon="3.79759">
        <ele>190</ele>
        <time>2011-11-27T10:47:18Z</time>
      </trkpt>
      <trkpt lat="43.79318" lon="3.79727">
        <ele>190</ele>
        <time>2011-11-27T10:47:19Z</time>
      </trkpt>
      <trkpt lat="43.79305" lon="3.79697">
        <ele>190</ele>
        <time>2011-11-27T10:47:20Z</time>
      </trkpt>
      <trkpt lat="43.7929" lon="3.79669">
        <ele>190.48</ele>
        <time>2011-11-27T10:47:21Z</time>
      </trkpt>
      <trkpt lat="43.79273" lon="3.79642">
        <ele>190.96</ele>
        <time>2011-11-27T10:47:22Z</time>
      </trkpt>
      <trkpt lat="43.79256" lon="3.79617">
        <ele>190.96</ele>
        <time>2011-11-27T10:47:23Z</time>
      </trkpt>
      <trkpt lat="43.79211" lon="3.79544">
        <ele>190.96</ele>
        <time>2011-11-27T10:47:26Z</time>
      </trkpt>
      <trkpt lat="43.79201" lon="3.79518">
        <ele>190.96</ele>
        <time>2011-11-27T10:47:27Z</time>
      </trkpt>
      <trkpt lat="43.79193" lon="3.79491">
        <ele>190.96</ele>
        <time>2011-11-27T10:47:28Z</time>
      </trkpt>
      <trkpt lat="43.79188" lon="3.79461">
        <ele>190.96</ele>
        <time>2011-11-27T10:47:29Z</time>
      </trkpt>
      <trkpt lat="43.79185" lon="3.79431">
        <ele>190.96</ele>
        <time>2011-11-27T10:47:30Z</time>
      </trkpt>
      <trkpt lat="43.79186" lon="3.79399">
        <ele>191.44</ele>
        <time>2011-11-27T10:47:31Z</time>
      </trkpt>
      <trkpt lat="43.7919" lon="3.79367">
        <ele>191.44</ele>
        <time>2011-11-27T10:47:32Z</time>
      </trkpt>
      <trkpt lat="43.79196" lon="3.79334">
        <ele>191.44</ele>
        <time>2011-11-27T10:47:33Z</time>
      </trkpt>
      <trkpt lat="43.79204" lon="3.79299">
        <ele>191.92</ele>
        <time>2011-11-27T10:47:34Z</time>
      </trkpt>
      <trkpt lat="43.79244" lon="3.79095">
        <ele>190</ele>
        <time>2011-11-27T10:47:40Z</time>
      </trkpt>
      <trkpt lat="43.79244" lon="3.79059">
        <ele>190</ele>
        <time>2011-11-27T10:47:41Z</time>
      </trkpt>
      <trkpt lat="43.79242" lon="3.79021">
        <ele>189.52</ele>
        <time>2011-11-27T10:47:42Z</time>
      </trkpt>
      <trkpt lat="43.79225" lon="3.78831">
        <ele>190</ele>
        <time>2011-11-27T10:47:47Z</time>
      </trkpt>
      <trkpt lat="43.79226" lon="3.78797">
        <ele>190.48</ele>
        <time>2011-11-27T10:47:48Z</time>
      </trkpt>
      <trkpt lat="43.7923" lon="3.78763">
        <ele>190.96</ele>
        <time>2011-11-27T10:47:49Z</time>
      </trkpt>
      <trkpt lat="43.79236" lon="3.78729">
        <ele>191.92</ele>
        <time>2011-11-27T10:47:50Z</time>
      </trkpt>
      <trkpt lat="43.79245" lon="3.78695">
        <ele>192.4</ele>
        <time>2011-11-27T10:47:51Z</time>
      </trkpt>
      <trkpt lat="43.79256" lon="3.7866">
        <ele>193.36</ele>
        <time>2011-11-27T10:47:52Z</time>
      </trkpt>
      <trkpt lat="43.79268" lon="3.78625">
        <ele>193.84</ele>
        <time>2011-11-27T10:47:53Z</time>
      </trkpt>
      <trkpt lat="43.79339" lon="3.78449">
        <ele>194.32</ele>
        <time>2011-11-27T10:47:59Z</time>
      </trkpt>
      <trkpt lat="43.79427" lon="3.78341">
        <ele>193.36</ele>
        <time>2011-11-27T10:48:04Z</time>
      </trkpt>
      <trkpt lat="43.79457" lon="3.78298">
        <ele>193.36</ele>
        <time>2011-11-27T10:48:06Z</time>
      </trkpt>
      <trkpt lat="43.79468" lon="3.78275">
        <ele>193.36</ele>
        <time>2011-11-27T10:48:07Z</time>
      </trkpt>
      <trkpt lat="43.79476" lon="3.78251">
        <ele>193.36</ele>
        <time>2011-11-27T10:48:08Z</time>
      </trkpt>
      <trkpt lat="43.7948" lon="3.78226">
        <ele>193.36</ele>
        <time>2011-11-27T10:48:09Z</time>
      </trkpt>
      <trkpt lat="43.79478" lon="3.78199">
        <ele>193.36</ele>
        <time>2011-11-27T10:48:10Z</time>
      </trkpt>
      <trkpt lat="43.79473" lon="3.7817">
        <ele>193.36</ele>
        <time>2011-11-27T10:48:11Z</time>
      </trkpt>
      <trkpt lat="43.79468" lon="3.7814">
        <ele>193.36</ele>
        <time>2011-11-27T10:48:12Z</time>
      </trkpt>
      <trkpt lat="43.79464" lon="3.78109">
        <ele>193.36</ele>
        <time>2011-11-27T10:48:13Z</time>
      </trkpt>
      <trkpt lat="43.79464" lon="3.78076">
        <ele>193.84</ele>
        <time>2011-11-27T10:48:14Z</time>
      </trkpt>
      <trkpt lat="43.79466" lon="3.78043">
        <ele>193.84</ele>
        <time>2011-11-27T10:48:15Z</time>
      </trkpt>
      <trkpt lat="43.7947" lon="3.78009">
        <ele>194.32</ele>
        <time>2011-11-27T10:48:16Z</time>
      </trkpt>
      <trkpt lat="43.79505" lon="3.77815">
        <ele>193.36</ele>
        <time>2011-11-27T10:48:23Z</time>
      </trkpt>
      <trkpt lat="43.79532" lon="3.77722">
        <ele>192.88</ele>
        <time>2011-11-27T10:48:27Z</time>
      </trkpt>
      <trkpt lat="43.79535" lon="3.77698">
        <ele>192.88</ele>
        <time>2011-11-27T10:48:28Z</time>
      </trkpt>
      <trkpt lat="43.79536" lon="3.77673">
        <ele>192.88</ele>
        <time>2011-11-27T10:48:29Z</time>
      </trkpt>
      <trkpt lat="43.79534" lon="3.77647">
        <ele>192.88</ele>
        <time>2011-11-27T10:48:30Z</time>
      </trkpt>
      <trkpt lat="43.79529" lon="3.77618">
        <ele>192.4</ele>
        <time>2011-11-27T10:48:31Z</time>
      </trkpt>
      <trkpt lat="43.79523" lon="3.77586">
        <ele>191.92</ele>
        <time>2011-11-27T10:48:32Z</time>
      </trkpt>
      <trkpt lat="43.79479" lon="3.77359">
        <ele>189.04</ele>
        <time>2011-11-27T10:48:38Z</time>
      </trkpt>
      <trkpt lat="43.7941" lon="3.77033">
        <ele>185.67</ele>
        <time>2011-11-27T10:48:47Z</time>
      </trkpt>
      <trkpt lat="43.79393" lon="3.76827">
        <ele>185.67</ele>
        <time>2011-11-27T10:48:53Z</time>
      </trkpt>
      <trkpt lat="43.79387" lon="3.76796">
        <ele>185.67</ele>
        <time>2011-11-27T10:48:54Z</time>
      </trkpt>
      <trkpt lat="43.79377" lon="3.76764">
        <ele>186.15</ele>
        <time>2011-11-27T10:48:55Z</time>
      </trkpt>
      <trkpt lat="43.79365" lon="3.76732">
        <ele>186.15</ele>
        <time>2011-11-27T10:48:56Z</time>
      </trkpt>
      <trkpt lat="43.79352" lon="3.767">
        <ele>186.15</ele>
        <time>2011-11-27T10:48:57Z</time>
      </trkpt>
      <trkpt lat="43.7922" lon="3.76328">
        <ele>188.08</ele>
        <time>2011-11-27T10:49:08Z</time>
      </trkpt>
      <trkpt lat="43.79134" lon="3.76143">
        <ele>187.11</ele>
        <time>2011-11-27T10:49:14Z</time>
      </trkpt>
      <trkpt lat="43.79118" lon="3.76119">
        <ele>187.59</ele>
        <time>2011-11-27T10:49:15Z</time>
      </trkpt>
      <trkpt lat="43.79099" lon="3.76097">
        <ele>188.08</ele>
        <time>2011-11-27T10:49:16Z</time>
      </trkpt>
      <trkpt lat="43.79079" lon="3.76079">
        <ele>188.08</ele>
        <time>2011-11-27T10:49:17Z</time>
      </trkpt>
      <trkpt lat="43.79058" lon="3.76064">
        <ele>188.56</ele>
        <time>2011-11-27T10:49:18Z</time>
      </trkpt>
      <trkpt lat="43.79034" lon="3.7605">
        <ele>189.52</ele>
        <time>2011-11-27T10:49:19Z</time>
      </trkpt>
      <trkpt lat="43.7901" lon="3.76037">
        <ele>190.48</ele>
        <time>2011-11-27T10:49:20Z</time>
      </trkpt>
      <trkpt lat="43.78879" lon="3.75933">
        <ele>194.8</ele>
        <time>2011-11-27T10:49:26Z</time>
      </trkpt>
      <trkpt lat="43.78772" lon="3.75854">
        <ele>198.65</ele>
        <time>2011-11-27T10:49:32Z</time>
      </trkpt>
      <trkpt lat="43.78642" lon="3.75788">
        <ele>204.42</ele>
        <time>2011-11-27T10:49:41Z</time>
      </trkpt>
      <trkpt lat="43.78598" lon="3.75756">
        <ele>206.34</ele>
        <time>2011-11-27T10:49:45Z</time>
      </trkpt>
      <trkpt lat="43.7859" lon="3.75746">
        <ele>206.82</ele>
        <time>2011-11-27T10:49:46Z</time>
      </trkpt>
      <trkpt lat="43.78584" lon="3.75734">
        <ele>207.3</ele>
        <time>2011-11-27T10:49:47Z</time>
      </trkpt>
      <trkpt lat="43.78578" lon="3.7572">
        <ele>207.78</ele>
        <time>2011-11-27T10:49:48Z</time>
      </trkpt>
      <trkpt lat="43.78573" lon="3.75704">
        <ele>208.26</ele>
        <time>2011-11-27T10:49:49Z</time>
      </trkpt>
      <trkpt lat="43.78527" lon="3.75558">
        <ele>208.26</ele>
        <time>2011-11-27T10:49:57Z</time>
      </trkpt>
      <trkpt lat="43.78524" lon="3.75537">
        <ele>208.74</ele>
        <time>2011-11-27T10:49:58Z</time>
      </trkpt>
      <trkpt lat="43.78498" lon="3.75379">
        <ele>209.7</ele>
        <time>2011-11-27T10:50:06Z</time>
      </trkpt>
      <trkpt lat="43.78469" lon="3.75207">
        <ele>208.26</ele>
        <time>2011-11-27T10:50:14Z</time>
      </trkpt>
      <trkpt lat="43.7843" lon="3.75041">
        <ele>212.11</ele>
        <time>2011-11-27T10:50:20Z</time>
      </trkpt>
      <trkpt lat="43.78428" lon="3.75017">
        <ele>212.59</ele>
        <time>2011-11-27T10:50:21Z</time>
      </trkpt>
      <trkpt lat="43.78429" lon="3.74992">
        <ele>213.07</ele>
        <time>2011-11-27T10:50:22Z</time>
      </trkpt>
      <trkpt lat="43.78433" lon="3.74968">
        <ele>213.07</ele>
        <time>2011-11-27T10:50:23Z</time>
      </trkpt>
      <trkpt lat="43.78439" lon="3.74944">
        <ele>213.07</ele>
        <time>2011-11-27T10:50:24Z</time>
      </trkpt>
      <trkpt lat="43.78448" lon="3.74922">
        <ele>212.11</ele>
        <time>2011-11-27T10:50:25Z</time>
      </trkpt>
      <trkpt lat="43.78459" lon="3.74899">
        <ele>211.15</ele>
        <time>2011-11-27T10:50:26Z</time>
      </trkpt>
      <trkpt lat="43.78479" lon="3.7485">
        <ele>209.22</ele>
        <time>2011-11-27T10:50:28Z</time>
      </trkpt>
      <trkpt lat="43.78487" lon="3.74821">
        <ele>208.26</ele>
        <time>2011-11-27T10:50:29Z</time>
      </trkpt>
      <trkpt lat="43.78493" lon="3.74788">
        <ele>207.78</ele>
        <time>2011-11-27T10:50:30Z</time>
      </trkpt>
      <trkpt lat="43.78534" lon="3.74566">
        <ele>206.82</ele>
        <time>2011-11-27T10:50:36Z</time>
      </trkpt>
      <trkpt lat="43.78636" lon="3.74203">
        <ele>206.82</ele>
        <time>2011-11-27T10:50:45Z</time>
      </trkpt>
      <trkpt lat="43.78689" lon="3.74097">
        <ele>207.3</ele>
        <time>2011-11-27T10:50:49Z</time>
      </trkpt>
      <trkpt lat="43.78702" lon="3.74081">
        <ele>207.3</ele>
        <time>2011-11-27T10:50:50Z</time>
      </trkpt>
      <trkpt lat="43.78717" lon="3.74065">
        <ele>206.82</ele>
        <time>2011-11-27T10:50:51Z</time>
      </trkpt>
      <trkpt lat="43.78733" lon="3.7405">
        <ele>206.34</ele>
        <time>2011-11-27T10:50:52Z</time>
      </trkpt>
      <trkpt lat="43.7875" lon="3.74038">
        <ele>205.86</ele>
        <time>2011-11-27T10:50:53Z</time>
      </trkpt>
      <trkpt lat="43.78768" lon="3.74027">
        <ele>205.38</ele>
        <time>2011-11-27T10:50:54Z</time>
      </trkpt>
      <trkpt lat="43.78788" lon="3.74017">
        <ele>204.9</ele>
        <time>2011-11-27T10:50:55Z</time>
      </trkpt>
      <trkpt lat="43.78827" lon="3.73993">
        <ele>202.98</ele>
        <time>2011-11-27T10:50:57Z</time>
      </trkpt>
      <trkpt lat="43.78846" lon="3.73977">
        <ele>202.01</ele>
        <time>2011-11-27T10:50:58Z</time>
      </trkpt>
      <trkpt lat="43.78921" lon="3.73897">
        <ele>198.17</ele>
        <time>2011-11-27T10:51:03Z</time>
      </trkpt>
      <trkpt lat="43.7893" lon="3.73879">
        <ele>197.21</ele>
        <time>2011-11-27T10:51:04Z</time>
      </trkpt>
      <trkpt lat="43.78936" lon="3.7386">
        <ele>196.73</ele>
        <time>2011-11-27T10:51:05Z</time>
      </trkpt>
      <trkpt lat="43.7894" lon="3.7384">
        <ele>196.25</ele>
        <time>2011-11-27T10:51:06Z</time>
      </trkpt>
      <trkpt lat="43.78943" lon="3.7382">
        <ele>196.25</ele>
        <time>2011-11-27T10:51:07Z</time>
      </trkpt>
      <trkpt lat="43.78944" lon="3.738">
        <ele>195.77</ele>
        <time>2011-11-27T10:51:08Z</time>
      </trkpt>
      <trkpt lat="43.78945" lon="3.73779">
        <ele>195.77</ele>
        <time>2011-11-27T10:51:09Z</time>
      </trkpt>
      <trkpt lat="43.78952" lon="3.73698">
        <ele>194.8</ele>
        <time>2011-11-27T10:51:14Z</time>
      </trkpt>
      <trkpt lat="43.78957" lon="3.73688">
        <ele>194.8</ele>
        <time>2011-11-27T10:51:15Z</time>
      </trkpt>
      <trkpt lat="43.78964" lon="3.73679">
        <ele>194.8</ele>
        <time>2011-11-27T10:51:16Z</time>
      </trkpt>
      <trkpt lat="43.78973" lon="3.73672">
        <ele>194.8</ele>
        <time>2011-11-27T10:51:17Z</time>
      </trkpt>
      <trkpt lat="43.78983" lon="3.73667">
        <ele>194.32</ele>
        <time>2011-11-27T10:51:18Z</time>
      </trkpt>
      <trkpt lat="43.78996" lon="3.73665">
        <ele>194.8</ele>
        <time>2011-11-27T10:51:19Z</time>
      </trkpt>
      <trkpt lat="43.7901" lon="3.73665">
        <ele>194.32</ele>
        <time>2011-11-27T10:51:20Z</time>
      </trkpt>
      <trkpt lat="43.79026" lon="3.73665">
        <ele>194.32</ele>
        <time>2011-11-27T10:51:21Z</time>
      </trkpt>
      <trkpt lat="43.79166" lon="3.73677">
        <ele>192.4</ele>
        <time>2011-11-27T10:51:28Z</time>
      </trkpt>
      <trkpt lat="43.79307" lon="3.7375">
        <ele>190</ele>
        <time>2011-11-27T10:51:35Z</time>
      </trkpt>
      <trkpt lat="43.7946" lon="3.73903">
        <ele>187.59</ele>
        <time>2011-11-27T10:51:42Z</time>
      </trkpt>
      <trkpt lat="43.7959" lon="3.73985">
        <ele>185.67</ele>
        <time>2011-11-27T10:51:48Z</time>
      </trkpt>
      <trkpt lat="43.79727" lon="3.73997">
        <ele>188.08</ele>
        <time>2011-11-27T10:51:54Z</time>
      </trkpt>
      <trkpt lat="43.79855" lon="3.73945">
        <ele>196.73</ele>
        <time>2011-11-27T10:52:00Z</time>
      </trkpt>
      <trkpt lat="43.80067" lon="3.73824">
        <ele>205.86</ele>
        <time>2011-11-27T10:52:11Z</time>
      </trkpt>
      <trkpt lat="43.80212" lon="3.73792">
        <ele>205.38</ele>
        <time>2011-11-27T10:52:18Z</time>
      </trkpt>
      <trkpt lat="43.80366" lon="3.73811">
        <ele>201.05</ele>
        <time>2011-11-27T10:52:25Z</time>
      </trkpt>
      <trkpt lat="43.80537" lon="3.73874">
        <ele>195.77</ele>
        <time>2011-11-27T10:52:33Z</time>
      </trkpt>
      <trkpt lat="43.80743" lon="3.74061">
        <ele>188.56</ele>
        <time>2011-11-27T10:52:44Z</time>
      </trkpt>
      <trkpt lat="43.80856" lon="3.74154">
        <ele>185.19</ele>
        <time>2011-11-27T10:52:51Z</time>
      </trkpt>
      <trkpt lat="43.80875" lon="3.74161">
        <ele>185.19</ele>
        <time>2011-11-27T10:52:52Z</time>
      </trkpt>
      <trkpt lat="43.80894" lon="3.74166">
        <ele>184.71</ele>
        <time>2011-11-27T10:52:53Z</time>
      </trkpt>
      <trkpt lat="43.80914" lon="3.74168">
        <ele>184.23</ele>
        <time>2011-11-27T10:52:54Z</time>
      </trkpt>
      <trkpt lat="43.80934" lon="3.74166">
        <ele>183.75</ele>
        <time>2011-11-27T10:52:55Z</time>
      </trkpt>
      <trkpt lat="43.80954" lon="3.74162">
        <ele>183.27</ele>
        <time>2011-11-27T10:52:56Z</time>
      </trkpt>
      <trkpt lat="43.80973" lon="3.74157">
        <ele>182.79</ele>
        <time>2011-11-27T10:52:57Z</time>
      </trkpt>
      <trkpt lat="43.80993" lon="3.7415">
        <ele>182.79</ele>
        <time>2011-11-27T10:52:58Z</time>
      </trkpt>
      <trkpt lat="43.81063" lon="3.74132">
        <ele>181.35</ele>
        <time>2011-11-27T10:53:02Z</time>
      </trkpt>
      <trkpt lat="43.8108" lon="3.74132">
        <ele>180.87</ele>
        <time>2011-11-27T10:53:03Z</time>
      </trkpt>
      <trkpt lat="43.81096" lon="3.74134">
        <ele>180.87</ele>
        <time>2011-11-27T10:53:04Z</time>
      </trkpt>
      <trkpt lat="43.81113" lon="3.74139">
        <ele>180.38</ele>
        <time>2011-11-27T10:53:05Z</time>
      </trkpt>
      <trkpt lat="43.81128" lon="3.74146">
        <ele>179.9</ele>
        <time>2011-11-27T10:53:06Z</time>
      </trkpt>
      <trkpt lat="43.81142" lon="3.74155">
        <ele>179.9</ele>
        <time>2011-11-27T10:53:07Z</time>
      </trkpt>
      <trkpt lat="43.81156" lon="3.74166">
        <ele>179.42</ele>
        <time>2011-11-27T10:53:08Z</time>
      </trkpt>
      <trkpt lat="43.81169" lon="3.74179">
        <ele>178.94</ele>
        <time>2011-11-27T10:53:09Z</time>
      </trkpt>
      <trkpt lat="43.8118" lon="3.74193">
        <ele>177.98</ele>
        <time>2011-11-27T10:53:10Z</time>
      </trkpt>
      <trkpt lat="43.81191" lon="3.7421">
        <ele>177.98</ele>
        <time>2011-11-27T10:53:11Z</time>
      </trkpt>
      <trkpt lat="43.812" lon="3.74228">
        <ele>177.98</ele>
        <time>2011-11-27T10:53:12Z</time>
      </trkpt>
      <trkpt lat="43.81209" lon="3.74246">
        <ele>177.98</ele>
        <time>2011-11-27T10:53:13Z</time>
      </trkpt>
      <trkpt lat="43.81259" lon="3.74345">
        <ele>179.42</ele>
        <time>2011-11-27T10:53:18Z</time>
      </trkpt>
      <trkpt lat="43.81273" lon="3.74362">
        <ele>179.9</ele>
        <time>2011-11-27T10:53:19Z</time>
      </trkpt>
      <trkpt lat="43.81288" lon="3.74375">
        <ele>180.38</ele>
        <time>2011-11-27T10:53:20Z</time>
      </trkpt>
      <trkpt lat="43.81305" lon="3.74386">
        <ele>180.87</ele>
        <time>2011-11-27T10:53:21Z</time>
      </trkpt>
      <trkpt lat="43.81323" lon="3.7439">
        <ele>181.35</ele>
        <time>2011-11-27T10:53:22Z</time>
      </trkpt>
      <trkpt lat="43.81341" lon="3.74391">
        <ele>181.83</ele>
        <time>2011-11-27T10:53:23Z</time>
      </trkpt>
      <trkpt lat="43.81359" lon="3.74388">
        <ele>182.31</ele>
        <time>2011-11-27T10:53:24Z</time>
      </trkpt>
      <trkpt lat="43.81378" lon="3.74383">
        <ele>182.79</ele>
        <time>2011-11-27T10:53:25Z</time>
      </trkpt>
      <trkpt lat="43.81397" lon="3.74377">
        <ele>183.75</ele>
        <time>2011-11-27T10:53:26Z</time>
      </trkpt>
      <trkpt lat="43.8156" lon="3.74344">
        <ele>190</ele>
        <time>2011-11-27T10:53:34Z</time>
      </trkpt>
      <trkpt lat="43.81581" lon="3.74347">
        <ele>190.96</ele>
        <time>2011-11-27T10:53:35Z</time>
      </trkpt>
      <trkpt lat="43.81602" lon="3.74354">
        <ele>191.92</ele>
        <time>2011-11-27T10:53:36Z</time>
      </trkpt>
      <trkpt lat="43.81623" lon="3.74364">
        <ele>192.4</ele>
        <time>2011-11-27T10:53:37Z</time>
      </trkpt>
      <trkpt lat="43.81644" lon="3.74375">
        <ele>193.36</ele>
        <time>2011-11-27T10:53:38Z</time>
      </trkpt>
      <trkpt lat="43.81787" lon="3.74451">
        <ele>199.61</ele>
        <time>2011-11-27T10:53:45Z</time>
      </trkpt>
      <trkpt lat="43.81807" lon="3.74456">
        <ele>200.57</ele>
        <time>2011-11-27T10:53:46Z</time>
      </trkpt>
      <trkpt lat="43.81828" lon="3.74459">
        <ele>201.53</ele>
        <time>2011-11-27T10:53:47Z</time>
      </trkpt>
      <trkpt lat="43.81848" lon="3.74458">
        <ele>202.49</ele>
        <time>2011-11-27T10:53:48Z</time>
      </trkpt>
      <trkpt lat="43.81868" lon="3.74456">
        <ele>203.46</ele>
        <time>2011-11-27T10:53:49Z</time>
      </trkpt>
      <trkpt lat="43.81889" lon="3.74452">
        <ele>204.42</ele>
        <time>2011-11-27T10:53:50Z</time>
      </trkpt>
      <trkpt lat="43.81953" lon="3.74449">
        <ele>207.3</ele>
        <time>2011-11-27T10:53:53Z</time>
      </trkpt>
      <trkpt lat="43.81974" lon="3.74453">
        <ele>208.26</ele>
        <time>2011-11-27T10:53:54Z</time>
      </trkpt>
      <trkpt lat="43.8215" lon="3.74462">
        <ele>215.47</ele>
        <time>2011-11-27T10:54:02Z</time>
      </trkpt>
      <trkpt lat="43.82423" lon="3.74464">
        <ele>219.32</ele>
        <time>2011-11-27T10:54:14Z</time>
      </trkpt>
      <trkpt lat="43.82733" lon="3.7449">
        <ele>216.91</ele>
        <time>2011-11-27T10:54:26Z</time>
      </trkpt>
      <trkpt lat="43.8296" lon="3.74511">
        <ele>218.84</ele>
        <time>2011-11-27T10:54:34Z</time>
      </trkpt>
      <trkpt lat="43.83052" lon="3.74513">
        <ele>221.72</ele>
        <time>2011-11-27T10:54:38Z</time>
      </trkpt>
      <trkpt lat="43.83074" lon="3.74507">
        <ele>222.2</ele>
        <time>2011-11-27T10:54:39Z</time>
      </trkpt>
      <trkpt lat="43.83095" lon="3.74498">
        <ele>222.68</ele>
        <time>2011-11-27T10:54:40Z</time>
      </trkpt>
      <trkpt lat="43.83115" lon="3.74484">
        <ele>223.16</ele>
        <time>2011-11-27T10:54:41Z</time>
      </trkpt>
      <trkpt lat="43.83136" lon="3.74468">
        <ele>223.16</ele>
        <time>2011-11-27T10:54:42Z</time>
      </trkpt>
      <trkpt lat="43.83156" lon="3.74449">
        <ele>223.64</ele>
        <time>2011-11-27T10:54:43Z</time>
      </trkpt>
      <trkpt lat="43.83286" lon="3.74318">
        <ele>228.93</ele>
        <time>2011-11-27T10:54:49Z</time>
      </trkpt>
      <trkpt lat="43.83371" lon="3.74252">
        <ele>233.74</ele>
        <time>2011-11-27T10:54:53Z</time>
      </trkpt>
      <trkpt lat="43.83394" lon="3.74242">
        <ele>234.7</ele>
        <time>2011-11-27T10:54:54Z</time>
      </trkpt>
      <trkpt lat="43.83418" lon="3.74236">
        <ele>235.66</ele>
        <time>2011-11-27T10:54:55Z</time>
      </trkpt>
      <trkpt lat="43.83444" lon="3.74235">
        <ele>236.62</ele>
        <time>2011-11-27T10:54:56Z</time>
      </trkpt>
      <trkpt lat="43.8347" lon="3.74237">
        <ele>238.06</ele>
        <time>2011-11-27T10:54:57Z</time>
      </trkpt>
      <trkpt lat="43.83495" lon="3.74242">
        <ele>239.02</ele>
        <time>2011-11-27T10:54:58Z</time>
      </trkpt>
      <trkpt lat="43.8352" lon="3.74251">
        <ele>239.99</ele>
        <time>2011-11-27T10:54:59Z</time>
      </trkpt>
      <trkpt lat="43.83544" lon="3.74262">
        <ele>241.43</ele>
        <time>2011-11-27T10:55:00Z</time>
      </trkpt>
      <trkpt lat="43.8367" lon="3.7434">
        <ele>246.72</ele>
        <time>2011-11-27T10:55:06Z</time>
      </trkpt>
      <trkpt lat="43.83853" lon="3.74423">
        <ele>254.41</ele>
        <time>2011-11-27T10:55:15Z</time>
      </trkpt>
      <trkpt lat="43.84008" lon="3.74416">
        <ele>262.1</ele>
        <time>2011-11-27T10:55:21Z</time>
      </trkpt>
      <trkpt lat="43.84174" lon="3.74338">
        <ele>274.59</ele>
        <time>2011-11-27T10:55:27Z</time>
      </trkpt>
      <trkpt lat="43.84462" lon="3.7418">
        <ele>297.67</ele>
        <time>2011-11-27T10:55:37Z</time>
      </trkpt>
      <trkpt lat="43.8476" lon="3.74021">
        <ele>319.3</ele>
        <time>2011-11-27T10:55:48Z</time>
      </trkpt>
      <trkpt lat="43.84924" lon="3.73994">
        <ele>328.91</ele>
        <time>2011-11-27T10:55:55Z</time>
      </trkpt>
      <trkpt lat="43.85053" lon="3.74045">
        <ele>330.83</ele>
        <time>2011-11-27T10:56:01Z</time>
      </trkpt>
      <trkpt lat="43.85324" lon="3.74186">
        <ele>314.01</ele>
        <time>2011-11-27T10:56:15Z</time>
      </trkpt>
      <trkpt lat="43.85521" lon="3.74221">
        <ele>296.22</ele>
        <time>2011-11-27T10:56:24Z</time>
      </trkpt>
      <trkpt lat="43.85775" lon="3.74186">
        <ele>273.63</ele>
        <time>2011-11-27T10:56:35Z</time>
      </trkpt>
      <trkpt lat="43.8591" lon="3.74198">
        <ele>261.62</ele>
        <time>2011-11-27T10:56:41Z</time>
      </trkpt>
      <trkpt lat="43.86026" lon="3.74271">
        <ele>249.12</ele>
        <time>2011-11-27T10:56:47Z</time>
      </trkpt>
      <trkpt lat="43.86142" lon="3.74319">
        <ele>238.06</ele>
        <time>2011-11-27T10:56:53Z</time>
      </trkpt>
      <trkpt lat="43.86254" lon="3.74296">
        <ele>228.45</ele>
        <time>2011-11-27T10:56:59Z</time>
      </trkpt>
      <trkpt lat="43.86367" lon="3.74215">
        <ele>221.72</ele>
        <time>2011-11-27T10:57:05Z</time>
      </trkpt>
      <trkpt lat="43.86513" lon="3.74108">
        <ele>216.91</ele>
        <time>2011-11-27T10:57:14Z</time>
      </trkpt>
      <trkpt lat="43.86635" lon="3.74036">
        <ele>213.55</ele>
        <time>2011-11-27T10:57:22Z</time>
      </trkpt>
      <trkpt lat="43.86754" lon="3.74044">
        <ele>209.7</ele>
        <time>2011-11-27T10:57:29Z</time>
      </trkpt>
      <trkpt lat="43.86893" lon="3.74132">
        <ele>204.42</ele>
        <time>2011-11-27T10:57:38Z</time>
      </trkpt>
      <trkpt lat="43.8705" lon="3.74211">
        <ele>198.17</ele>
        <time>2011-11-27T10:57:48Z</time>
      </trkpt>
      <trkpt lat="43.87198" lon="3.74249">
        <ele>193.36</ele>
        <time>2011-11-27T10:57:57Z</time>
      </trkpt>
      <trkpt lat="43.87389" lon="3.74237">
        <ele>188.56</ele>
        <time>2011-11-27T10:58:08Z</time>
      </trkpt>
      <trkpt lat="43.87589" lon="3.74189">
        <ele>185.67</ele>
        <time>2011-11-27T10:58:20Z</time>
      </trkpt>
      <trkpt lat="43.87687" lon="3.74228">
        <ele>182.79</ele>
        <time>2011-11-27T10:58:26Z</time>
      </trkpt>
      <trkpt lat="43.87703" lon="3.74242">
        <ele>181.83</ele>
        <time>2011-11-27T10:58:27Z</time>
      </trkpt>
      <trkpt lat="43.87719" lon="3.74258">
        <ele>181.35</ele>
        <time>2011-11-27T10:58:28Z</time>
      </trkpt>
      <trkpt lat="43.87733" lon="3.74276">
        <ele>180.38</ele>
        <time>2011-11-27T10:58:29Z</time>
      </trkpt>
      <trkpt lat="43.87746" lon="3.74295">
        <ele>179.9</ele>
        <time>2011-11-27T10:58:30Z</time>
      </trkpt>
      <trkpt lat="43.87757" lon="3.74315">
        <ele>178.94</ele>
        <time>2011-11-27T10:58:31Z</time>
      </trkpt>
      <trkpt lat="43.87768" lon="3.74336">
        <ele>178.46</ele>
        <time>2011-11-27T10:58:32Z</time>
      </trkpt>
      <trkpt lat="43.87777" lon="3.74358">
        <ele>177.5</ele>
        <time>2011-11-27T10:58:33Z</time>
      </trkpt>
      <trkpt lat="43.87821" lon="3.74434">
        <ele>175.1</ele>
        <time>2011-11-27T10:58:37Z</time>
      </trkpt>
      <trkpt lat="43.87835" lon="3.7445">
        <ele>174.62</ele>
        <time>2011-11-27T10:58:38Z</time>
      </trkpt>
      <trkpt lat="43.8785" lon="3.74464">
        <ele>174.14</ele>
        <time>2011-11-27T10:58:39Z</time>
      </trkpt>
      <trkpt lat="43.87866" lon="3.74477">
        <ele>173.17</ele>
        <time>2011-11-27T10:58:40Z</time>
      </trkpt>
      <trkpt lat="43.87883" lon="3.74487">
        <ele>172.69</ele>
        <time>2011-11-27T10:58:41Z</time>
      </trkpt>
      <trkpt lat="43.87901" lon="3.74494">
        <ele>171.73</ele>
        <time>2011-11-27T10:58:42Z</time>
      </trkpt>
      <trkpt lat="43.87919" lon="3.74498">
        <ele>171.25</ele>
        <time>2011-11-27T10:58:43Z</time>
      </trkpt>
      <trkpt lat="43.87937" lon="3.745">
        <ele>170.77</ele>
        <time>2011-11-27T10:58:44Z</time>
      </trkpt>
      <trkpt lat="43.87955" lon="3.74501">
        <ele>170.29</ele>
        <time>2011-11-27T10:58:45Z</time>
      </trkpt>
      <trkpt lat="43.87973" lon="3.74499">
        <ele>169.81</ele>
        <time>2011-11-27T10:58:46Z</time>
      </trkpt>
      <trkpt lat="43.87991" lon="3.74496">
        <ele>169.33</ele>
        <time>2011-11-27T10:58:47Z</time>
      </trkpt>
      <trkpt lat="43.8801" lon="3.74491">
        <ele>168.37</ele>
        <time>2011-11-27T10:58:48Z</time>
      </trkpt>
      <trkpt lat="43.88176" lon="3.74404">
        <ele>162.6</ele>
        <time>2011-11-27T10:58:57Z</time>
      </trkpt>
      <trkpt lat="43.88276" lon="3.7427">
        <ele>158.75</ele>
        <time>2011-11-27T10:59:04Z</time>
      </trkpt>
      <trkpt lat="43.88405" lon="3.74086">
        <ele>152.51</ele>
        <time>2011-11-27T10:59:14Z</time>
      </trkpt>
      <trkpt lat="43.88513" lon="3.74041">
        <ele>149.14</ele>
        <time>2011-11-27T10:59:20Z</time>
      </trkpt>
      <trkpt lat="43.8865" lon="3.74051">
        <ele>143.85</ele>
        <time>2011-11-27T10:59:28Z</time>
      </trkpt>
      <trkpt lat="43.88797" lon="3.74046">
        <ele>139.53</ele>
        <time>2011-11-27T10:59:38Z</time>
      </trkpt>
      <trkpt lat="43.88905" lon="3.73986">
        <ele>135.68</ele>
        <time>2011-11-27T10:59:48Z</time>
      </trkpt>
      <trkpt lat="43.88931" lon="3.73968">
        <ele>135.68</ele>
        <time>2011-11-27T10:59:53Z</time>
      </trkpt>
      <trkpt lat="43.88937" lon="3.73966">
        <ele>135.68</ele>
        <time>2011-11-27T10:59:54Z</time>
      </trkpt>
      <trkpt lat="43.89003" lon="3.73946">
        <ele>135.68</ele>
        <time>2011-11-27T11:00:01Z</time>
      </trkpt>
      <trkpt lat="43.89137" lon="3.73902">
        <ele>138.09</ele>
        <time>2011-11-27T11:00:12Z</time>
      </trkpt>
      <trkpt lat="43.89224" lon="3.73876">
        <ele>138.57</ele>
        <time>2011-11-27T11:00:21Z</time>
      </trkpt>
      <trkpt lat="43.89288" lon="3.73855">
        <ele>139.53</ele>
        <time>2011-11-27T11:00:31Z</time>
      </trkpt>
      <trkpt lat="43.89379" lon="3.73826">
        <ele>143.37</ele>
        <time>2011-11-27T11:00:42Z</time>
      </trkpt>
      <trkpt lat="43.89493" lon="3.73787">
        <ele>145.78</ele>
        <time>2011-11-27T11:00:55Z</time>
      </trkpt>
      <trkpt lat="43.89622" lon="3.73748">
        <ele>143.85</ele>
        <time>2011-11-27T11:01:09Z</time>
      </trkpt>
      <trkpt lat="43.89763" lon="3.73704">
        <ele>142.41</ele>
        <time>2011-11-27T11:01:24Z</time>
      </trkpt>
      <trkpt lat="43.8987" lon="3.73673">
        <ele>142.41</ele>
        <time>2011-11-27T11:01:36Z</time>
      </trkpt>
      <trkpt lat="43.89879" lon="3.73673">
        <ele>142.41</ele>
        <time>2011-11-27T11:01:37Z</time>
      </trkpt>
      <trkpt lat="43.89888" lon="3.73675">
        <ele>141.93</ele>
        <time>2011-11-27T11:01:38Z</time>
      </trkpt>
      <trkpt lat="43.89897" lon="3.73679">
        <ele>141.93</ele>
        <time>2011-11-27T11:01:39Z</time>
      </trkpt>
      <trkpt lat="43.89905" lon="3.73684">
        <ele>141.93</ele>
        <time>2011-11-27T11:01:40Z</time>
      </trkpt>
      <trkpt lat="43.89912" lon="3.73688">
        <ele>141.93</ele>
        <time>2011-11-27T11:01:41Z</time>
      </trkpt>
      <trkpt lat="43.8992" lon="3.73688">
        <ele>141.93</ele>
        <time>2011-11-27T11:01:42Z</time>
      </trkpt>
      <trkpt lat="43.89937" lon="3.73688">
        <ele>142.41</ele>
        <time>2011-11-27T11:01:44Z</time>
      </trkpt>
      <trkpt lat="43.89946" lon="3.7369">
        <ele>142.41</ele>
        <time>2011-11-27T11:01:45Z</time>
      </trkpt>
      <trkpt lat="43.90075" lon="3.73724">
        <ele>143.37</ele>
        <time>2011-11-27T11:01:58Z</time>
      </trkpt>
      <trkpt lat="43.90174" lon="3.73751">
        <ele>143.85</ele>
        <time>2011-11-27T11:02:08Z</time>
      </trkpt>
      <trkpt lat="43.90291" lon="3.73782">
        <ele>145.78</ele>
        <time>2011-11-27T11:02:20Z</time>
      </trkpt>
      <trkpt lat="43.90419" lon="3.73804">
        <ele>146.74</ele>
        <time>2011-11-27T11:02:32Z</time>
      </trkpt>
      <trkpt lat="43.9043" lon="3.73801">
        <ele>147.22</ele>
        <time>2011-11-27T11:02:33Z</time>
      </trkpt>
      <trkpt lat="43.90559" lon="3.73763">
        <ele>148.18</ele>
        <time>2011-11-27T11:02:43Z</time>
      </trkpt>
      <trkpt lat="43.90675" lon="3.73752">
        <ele>147.7</ele>
        <time>2011-11-27T11:02:50Z</time>
      </trkpt>
      <trkpt lat="43.90807" lon="3.73774">
        <ele>146.26</ele>
        <time>2011-11-27T11:02:56Z</time>
      </trkpt>
      <trkpt lat="43.90844" lon="3.73774">
        <ele>145.78</ele>
        <time>2011-11-27T11:02:58Z</time>
      </trkpt>
      <trkpt lat="43.90862" lon="3.73768">
        <ele>145.3</ele>
        <time>2011-11-27T11:02:59Z</time>
      </trkpt>
      <trkpt lat="43.90881" lon="3.73757">
        <ele>144.82</ele>
        <time>2011-11-27T11:03:00Z</time>
      </trkpt>
      <trkpt lat="43.909" lon="3.73743">
        <ele>144.34</ele>
        <time>2011-11-27T11:03:01Z</time>
      </trkpt>
      <trkpt lat="43.90919" lon="3.73727">
        <ele>144.34</ele>
        <time>2011-11-27T11:03:02Z</time>
      </trkpt>
      <trkpt lat="43.91007" lon="3.73663">
        <ele>143.37</ele>
        <time>2011-11-27T11:03:07Z</time>
      </trkpt>
      <trkpt lat="43.91026" lon="3.73656">
        <ele>143.37</ele>
        <time>2011-11-27T11:03:08Z</time>
      </trkpt>
      <trkpt lat="43.91045" lon="3.7365">
        <ele>143.37</ele>
        <time>2011-11-27T11:03:09Z</time>
      </trkpt>
      <trkpt lat="43.91065" lon="3.73647">
        <ele>143.85</ele>
        <time>2011-11-27T11:03:10Z</time>
      </trkpt>
      <trkpt lat="43.91085" lon="3.73648">
        <ele>143.85</ele>
        <time>2011-11-27T11:03:11Z</time>
      </trkpt>
      <trkpt lat="43.91106" lon="3.73651">
        <ele>143.85</ele>
        <time>2011-11-27T11:03:12Z</time>
      </trkpt>
      <trkpt lat="43.91127" lon="3.73656">
        <ele>143.85</ele>
        <time>2011-11-27T11:03:13Z</time>
      </trkpt>
      <trkpt lat="43.91147" lon="3.73662">
        <ele>144.82</ele>
        <time>2011-11-27T11:03:14Z</time>
      </trkpt>
      <trkpt lat="43.91248" lon="3.73733">
        <ele>145.3</ele>
        <time>2011-11-27T11:03:20Z</time>
      </trkpt>
      <trkpt lat="43.91322" lon="3.738">
        <ele>146.74</ele>
        <time>2011-11-27T11:03:25Z</time>
      </trkpt>
      <trkpt lat="43.91337" lon="3.73807">
        <ele>146.74</ele>
        <time>2011-11-27T11:03:26Z</time>
      </trkpt>
      <trkpt lat="43.91353" lon="3.73809">
        <ele>146.74</ele>
        <time>2011-11-27T11:03:27Z</time>
      </trkpt>
      <trkpt lat="43.91371" lon="3.73809">
        <ele>146.26</ele>
        <time>2011-11-27T11:03:28Z</time>
      </trkpt>
      <trkpt lat="43.91391" lon="3.73806">
        <ele>144.82</ele>
        <time>2011-11-27T11:03:29Z</time>
      </trkpt>
      <trkpt lat="43.9141" lon="3.73798">
        <ele>144.82</ele>
        <time>2011-11-27T11:03:30Z</time>
      </trkpt>
      <trkpt lat="43.9143" lon="3.73787">
        <ele>145.78</ele>
        <time>2011-11-27T11:03:31Z</time>
      </trkpt>
      <trkpt lat="43.91449" lon="3.73773">
        <ele>145.78</ele>
        <time>2011-11-27T11:03:32Z</time>
      </trkpt>
      <trkpt lat="43.91467" lon="3.73761">
        <ele>146.26</ele>
        <time>2011-11-27T11:03:33Z</time>
      </trkpt>
      <trkpt lat="43.91516" lon="3.73719">
        <ele>145.78</ele>
        <time>2011-11-27T11:03:36Z</time>
      </trkpt>
      <trkpt lat="43.91529" lon="3.737">
        <ele>145.78</ele>
        <time>2011-11-27T11:03:37Z</time>
      </trkpt>
      <trkpt lat="43.91541" lon="3.73677">
        <ele>145.78</ele>
        <time>2011-11-27T11:03:38Z</time>
      </trkpt>
      <trkpt lat="43.91636" lon="3.73474">
        <ele>145.3</ele>
        <time>2011-11-27T11:03:46Z</time>
      </trkpt>
      <trkpt lat="43.91672" lon="3.73374">
        <ele>145.3</ele>
        <time>2011-11-27T11:03:50Z</time>
      </trkpt>
      <trkpt lat="43.91676" lon="3.73347">
        <ele>145.78</ele>
        <time>2011-11-27T11:03:51Z</time>
      </trkpt>
      <trkpt lat="43.91679" lon="3.73318">
        <ele>146.26</ele>
        <time>2011-11-27T11:03:52Z</time>
      </trkpt>
      <trkpt lat="43.91688" lon="3.73208">
        <ele>147.7</ele>
        <time>2011-11-27T11:03:56Z</time>
      </trkpt>
      <trkpt lat="43.91685" lon="3.7318">
        <ele>148.18</ele>
        <time>2011-11-27T11:03:57Z</time>
      </trkpt>
      <trkpt lat="43.9168" lon="3.73152">
        <ele>148.18</ele>
        <time>2011-11-27T11:03:58Z</time>
      </trkpt>
      <trkpt lat="43.9162" lon="3.72928">
        <ele>148.66</ele>
        <time>2011-11-27T11:04:06Z</time>
      </trkpt>
      <trkpt lat="43.9158" lon="3.7283">
        <ele>144.34</ele>
        <time>2011-11-27T11:04:11Z</time>
      </trkpt>
      <trkpt lat="43.91575" lon="3.72815">
        <ele>143.37</ele>
        <time>2011-11-27T11:04:12Z</time>
      </trkpt>
      <trkpt lat="43.91574" lon="3.728">
        <ele>143.85</ele>
        <time>2011-11-27T11:04:13Z</time>
      </trkpt>
      <trkpt lat="43.91575" lon="3.72786">
        <ele>144.34</ele>
        <time>2011-11-27T11:04:14Z</time>
      </trkpt>
      <trkpt lat="43.9158" lon="3.72773">
        <ele>144.82</ele>
        <time>2011-11-27T11:04:15Z</time>
      </trkpt>
      <trkpt lat="43.91587" lon="3.72762">
        <ele>145.3</ele>
        <time>2011-11-27T11:04:16Z</time>
      </trkpt>
      <trkpt lat="43.91597" lon="3.72753">
        <ele>146.26</ele>
        <time>2011-11-27T11:04:17Z</time>
      </trkpt>
      <trkpt lat="43.9161" lon="3.7275">
        <ele>147.22</ele>
        <time>2011-11-27T11:04:18Z</time>
      </trkpt>
      <trkpt lat="43.91625" lon="3.72751">
        <ele>147.7</ele>
        <time>2011-11-27T11:04:19Z</time>
      </trkpt>
      <trkpt lat="43.91643" lon="3.72756">
        <ele>148.18</ele>
        <time>2011-11-27T11:04:20Z</time>
      </trkpt>
      <trkpt lat="43.91662" lon="3.72762">
        <ele>148.18</ele>
        <time>2011-11-27T11:04:21Z</time>
      </trkpt>
      <trkpt lat="43.9168" lon="3.72767">
        <ele>148.66</ele>
        <time>2011-11-27T11:04:22Z</time>
      </trkpt>
      <trkpt lat="43.91754" lon="3.72788">
        <ele>148.18</ele>
        <time>2011-11-27T11:04:27Z</time>
      </trkpt>
      <trkpt lat="43.91769" lon="3.72789">
        <ele>147.7</ele>
        <time>2011-11-27T11:04:28Z</time>
      </trkpt>
      <trkpt lat="43.91783" lon="3.72786">
        <ele>147.7</ele>
        <time>2011-11-27T11:04:29Z</time>
      </trkpt>
      <trkpt lat="43.91799" lon="3.72778">
        <ele>147.7</ele>
        <time>2011-11-27T11:04:30Z</time>
      </trkpt>
      <trkpt lat="43.91813" lon="3.72768">
        <ele>147.7</ele>
        <time>2011-11-27T11:04:31Z</time>
      </trkpt>
      <trkpt lat="43.91827" lon="3.72757">
        <ele>147.22</ele>
        <time>2011-11-27T11:04:32Z</time>
      </trkpt>
      <trkpt lat="43.91839" lon="3.72743">
        <ele>146.74</ele>
        <time>2011-11-27T11:04:33Z</time>
      </trkpt>
      <trkpt lat="43.9185" lon="3.72728">
        <ele>146.74</ele>
        <time>2011-11-27T11:04:34Z</time>
      </trkpt>
      <trkpt lat="43.9186" lon="3.72712">
        <ele>146.26</ele>
        <time>2011-11-27T11:04:35Z</time>
      </trkpt>
      <trkpt lat="43.91868" lon="3.72696">
        <ele>145.78</ele>
        <time>2011-11-27T11:04:36Z</time>
      </trkpt>
      <trkpt lat="43.91908" lon="3.7264">
        <ele>145.78</ele>
        <time>2011-11-27T11:04:40Z</time>
      </trkpt>
      <trkpt lat="43.9192" lon="3.7263">
        <ele>145.78</ele>
        <time>2011-11-27T11:04:41Z</time>
      </trkpt>
      <trkpt lat="43.91932" lon="3.72621">
        <ele>145.78</ele>
        <time>2011-11-27T11:04:42Z</time>
      </trkpt>
      <trkpt lat="43.92042" lon="3.72554">
        <ele>145.3</ele>
        <time>2011-11-27T11:04:51Z</time>
      </trkpt>
      <trkpt lat="43.92053" lon="3.7255">
        <ele>145.3</ele>
        <time>2011-11-27T11:04:52Z</time>
      </trkpt>
      <trkpt lat="43.92063" lon="3.72549">
        <ele>145.3</ele>
        <time>2011-11-27T11:04:53Z</time>
      </trkpt>
      <trkpt lat="43.92073" lon="3.72551">
        <ele>146.26</ele>
        <time>2011-11-27T11:04:54Z</time>
      </trkpt>
      <trkpt lat="43.92084" lon="3.72556">
        <ele>146.26</ele>
        <time>2011-11-27T11:04:55Z</time>
      </trkpt>
      <trkpt lat="43.92095" lon="3.7256">
        <ele>146.26</ele>
        <time>2011-11-27T11:04:56Z</time>
      </trkpt>
      <trkpt lat="43.92107" lon="3.72562">
        <ele>146.26</ele>
        <time>2011-11-27T11:04:57Z</time>
      </trkpt>
      <trkpt lat="43.92118" lon="3.72561">
        <ele>146.26</ele>
        <time>2011-11-27T11:04:58Z</time>
      </trkpt>
      <trkpt lat="43.9213" lon="3.72555">
        <ele>145.78</ele>
        <time>2011-11-27T11:04:59Z</time>
      </trkpt>
      <trkpt lat="43.9214" lon="3.72548">
        <ele>145.78</ele>
        <time>2011-11-27T11:05:00Z</time>
      </trkpt>
      <trkpt lat="43.92148" lon="3.7254">
        <ele>145.78</ele>
        <time>2011-11-27T11:05:01Z</time>
      </trkpt>
      <trkpt lat="43.92156" lon="3.72532">
        <ele>145.78</ele>
        <time>2011-11-27T11:05:02Z</time>
      </trkpt>
      <trkpt lat="43.92182" lon="3.72496">
        <ele>145.3</ele>
        <time>2011-11-27T11:05:06Z</time>
      </trkpt>
      <trkpt lat="43.92186" lon="3.72486">
        <ele>144.82</ele>
        <time>2011-11-27T11:05:07Z</time>
      </trkpt>
      <trkpt lat="43.9219" lon="3.72476">
        <ele>144.82</ele>
        <time>2011-11-27T11:05:08Z</time>
      </trkpt>
      <trkpt lat="43.92193" lon="3.72467">
        <ele>144.34</ele>
        <time>2011-11-27T11:05:09Z</time>
      </trkpt>
      <trkpt lat="43.92194" lon="3.7246">
        <ele>144.34</ele>
        <time>2011-11-27T11:05:10Z</time>
      </trkpt>
      <trkpt lat="43.92195" lon="3.72455">
        <ele>144.34</ele>
        <time>2011-11-27T11:05:11Z</time>
      </trkpt>
      <trkpt lat="43.922" lon="3.72401">
        <ele>145.78</ele>
        <time>2011-11-27T11:05:22Z</time>
      </trkpt>
      <trkpt lat="43.92199" lon="3.72385">
        <ele>148.18</ele>
        <time>2011-11-27T11:05:33Z</time>
      </trkpt>
      <trkpt lat="43.9221" lon="3.72343">
        <ele>146.26</ele>
        <time>2011-11-27T11:05:40Z</time>
      </trkpt>
      <trkpt lat="43.92213" lon="3.72336">
        <ele>145.78</ele>
        <time>2011-11-27T11:05:41Z</time>
      </trkpt>
      <trkpt lat="43.92217" lon="3.7233">
        <ele>145.3</ele>
        <time>2011-11-27T11:05:42Z</time>
      </trkpt>
      <trkpt lat="43.9222" lon="3.72324">
        <ele>145.3</ele>
        <time>2011-11-27T11:05:43Z</time>
      </trkpt>
      <trkpt lat="43.92224" lon="3.72319">
        <ele>145.3</ele>
        <time>2011-11-27T11:05:44Z</time>
      </trkpt>
      <trkpt lat="43.92228" lon="3.72313">
        <ele>145.3</ele>
        <time>2011-11-27T11:05:45Z</time>
      </trkpt>
      <trkpt lat="43.92232" lon="3.72308">
        <ele>145.3</ele>
        <time>2011-11-27T11:05:46Z</time>
      </trkpt>
      <trkpt lat="43.92244" lon="3.72293">
        <ele>144.82</ele>
        <time>2011-11-27T11:05:49Z</time>
      </trkpt>
      <trkpt lat="43.9225" lon="3.7229">
        <ele>144.82</ele>
        <time>2011-11-27T11:05:50Z</time>
      </trkpt>
      <trkpt lat="43.92256" lon="3.72288">
        <ele>144.82</ele>
        <time>2011-11-27T11:05:51Z</time>
      </trkpt>
      <trkpt lat="43.92327" lon="3.72264">
        <ele>145.3</ele>
        <time>2011-11-27T11:06:01Z</time>
      </trkpt>
      <trkpt lat="43.92334" lon="3.72258">
        <ele>145.78</ele>
        <time>2011-11-27T11:06:02Z</time>
      </trkpt>
      <trkpt lat="43.92342" lon="3.7225">
        <ele>146.26</ele>
        <time>2011-11-27T11:06:03Z</time>
      </trkpt>
      <trkpt lat="43.92365" lon="3.72224">
        <ele>146.26</ele>
        <time>2011-11-27T11:06:06Z</time>
      </trkpt>
      <trkpt lat="43.92371" lon="3.72213">
        <ele>146.26</ele>
        <time>2011-11-27T11:06:07Z</time>
      </trkpt>
      <trkpt lat="43.92435" lon="3.72098">
        <ele>145.78</ele>
        <time>2011-11-27T11:06:16Z</time>
      </trkpt>
      <trkpt lat="43.92503" lon="3.71952">
        <ele>147.22</ele>
        <time>2011-11-27T11:06:26Z</time>
      </trkpt>
      <trkpt lat="43.92581" lon="3.71689">
        <ele>149.62</ele>
        <time>2011-11-27T11:06:42Z</time>
      </trkpt>
      <trkpt lat="43.92636" lon="3.71589">
        <ele>149.62</ele>
        <time>2011-11-27T11:06:50Z</time>
      </trkpt>
      <trkpt lat="43.9265" lon="3.71569">
        <ele>149.62</ele>
        <time>2011-11-27T11:06:52Z</time>
      </trkpt>
      <trkpt lat="43.92658" lon="3.7156">
        <ele>149.62</ele>
        <time>2011-11-27T11:06:53Z</time>
      </trkpt>
      <trkpt lat="43.92741" lon="3.71489">
        <ele>150.58</ele>
        <time>2011-11-27T11:07:02Z</time>
      </trkpt>
      <trkpt lat="43.92842" lon="3.71409">
        <ele>152.03</ele>
        <time>2011-11-27T11:07:13Z</time>
      </trkpt>
      <trkpt lat="43.92881" lon="3.7138">
        <ele>153.47</ele>
        <time>2011-11-27T11:07:20Z</time>
      </trkpt>
      <trkpt lat="43.92957" lon="3.71319">
        <ele>153.95</ele>
        <time>2011-11-27T11:07:31Z</time>
      </trkpt>
      <trkpt lat="43.93009" lon="3.71278">
        <ele>154.91</ele>
        <time>2011-11-27T11:07:38Z</time>
      </trkpt>
      <trkpt lat="43.93117" lon="3.71189">
        <ele>155.87</ele>
        <time>2011-11-27T11:07:50Z</time>
      </trkpt>
      <trkpt lat="43.93206" lon="3.7112">
        <ele>155.39</ele>
        <time>2011-11-27T11:08:01Z</time>
      </trkpt>
      <trkpt lat="43.93213" lon="3.71119">
        <ele>155.39</ele>
        <time>2011-11-27T11:08:02Z</time>
      </trkpt>
      <trkpt lat="43.93219" lon="3.7112">
        <ele>155.39</ele>
        <time>2011-11-27T11:08:03Z</time>
      </trkpt>
      <trkpt lat="43.93226" lon="3.71122">
        <ele>155.87</ele>
        <time>2011-11-27T11:08:04Z</time>
      </trkpt>
      <trkpt lat="43.93233" lon="3.71123">
        <ele>155.87</ele>
        <time>2011-11-27T11:08:05Z</time>
      </trkpt>
      <trkpt lat="43.93241" lon="3.71122">
        <ele>155.87</ele>
        <time>2011-11-27T11:08:06Z</time>
      </trkpt>
      <trkpt lat="43.93249" lon="3.71118">
        <ele>156.35</ele>
        <time>2011-11-27T11:08:07Z</time>
      </trkpt>
      <trkpt lat="43.93254" lon="3.7111">
        <ele>156.35</ele>
        <time>2011-11-27T11:08:08Z</time>
      </trkpt>
      <trkpt lat="43.93258" lon="3.711">
        <ele>156.35</ele>
        <time>2011-11-27T11:08:09Z</time>
      </trkpt>
      <trkpt lat="43.9326" lon="3.71089">
        <ele>156.35</ele>
        <time>2011-11-27T11:08:10Z</time>
      </trkpt>
      <trkpt lat="43.93264" lon="3.71079">
        <ele>156.35</ele>
        <time>2011-11-27T11:08:11Z</time>
      </trkpt>
      <trkpt lat="43.93268" lon="3.71071">
        <ele>156.35</ele>
        <time>2011-11-27T11:08:12Z</time>
      </trkpt>
      <trkpt lat="43.93274" lon="3.71065">
        <ele>156.83</ele>
        <time>2011-11-27T11:08:13Z</time>
      </trkpt>
      <trkpt lat="43.93347" lon="3.71007">
        <ele>160.2</ele>
        <time>2011-11-27T11:08:26Z</time>
      </trkpt>
      <trkpt lat="43.93367" lon="3.70988">
        <ele>160.2</ele>
        <time>2011-11-27T11:08:30Z</time>
      </trkpt>
      <trkpt lat="43.93371" lon="3.70983">
        <ele>160.2</ele>
        <time>2011-11-27T11:08:31Z</time>
      </trkpt>
      <trkpt lat="43.93375" lon="3.70976">
        <ele>160.2</ele>
        <time>2011-11-27T11:08:32Z</time>
      </trkpt>
      <trkpt lat="43.93377" lon="3.70969">
        <ele>160.2</ele>
        <time>2011-11-27T11:08:33Z</time>
      </trkpt>
      <trkpt lat="43.9338" lon="3.70961">
        <ele>160.2</ele>
        <time>2011-11-27T11:08:34Z</time>
      </trkpt>
      <trkpt lat="43.93381" lon="3.70954">
        <ele>160.68</ele>
        <time>2011-11-27T11:08:35Z</time>
      </trkpt>
      <trkpt lat="43.93395" lon="3.70895">
        <ele>164.04</ele>
        <time>2011-11-27T11:08:45Z</time>
      </trkpt>
      <trkpt lat="43.93404" lon="3.70851">
        <ele>166.45</ele>
        <time>2011-11-27T11:08:53Z</time>
      </trkpt>
      <trkpt lat="43.93422" lon="3.70755">
        <ele>166.93</ele>
        <time>2011-11-27T11:09:04Z</time>
      </trkpt>
      <trkpt lat="43.93426" lon="3.70702">
        <ele>168.85</ele>
        <time>2011-11-27T11:09:11Z</time>
      </trkpt>
      <trkpt lat="43.93419" lon="3.70701">
        <ele>168.85</ele>
        <time>2011-11-27T11:09:12Z</time>
      </trkpt>
      <trkpt lat="43.93412" lon="3.70699">
        <ele>167.89</ele>
        <time>2011-11-27T11:09:13Z</time>
      </trkpt>
      <trkpt lat="43.93365" lon="3.70681">
        <ele>168.85</ele>
        <time>2011-11-27T11:09:20Z</time>
      </trkpt>
      <trkpt lat="43.9336" lon="3.70677">
        <ele>169.33</ele>
        <time>2011-11-27T11:09:21Z</time>
      </trkpt>
      <trkpt lat="43.93357" lon="3.70674">
        <ele>169.33</ele>
        <time>2011-11-27T11:09:22Z</time>
      </trkpt>
      <trkpt lat="43.93354" lon="3.70669">
        <ele>168.85</ele>
        <time>2011-11-27T11:09:23Z</time>
      </trkpt>
      <trkpt lat="43.93352" lon="3.70662">
        <ele>167.89</ele>
        <time>2011-11-27T11:09:24Z</time>
      </trkpt>
      <trkpt lat="43.9335" lon="3.70654">
        <ele>167.41</ele>
        <time>2011-11-27T11:09:25Z</time>
      </trkpt>
      <trkpt lat="43.93351" lon="3.70643">
        <ele>166.93</ele>
        <time>2011-11-27T11:09:26Z</time>
      </trkpt>
      <trkpt lat="43.93348" lon="3.70634">
        <ele>165.96</ele>
        <time>2011-11-27T11:09:27Z</time>
      </trkpt>
      <trkpt lat="43.93344" lon="3.70625">
        <ele>165.48</ele>
        <time>2011-11-27T11:09:28Z</time>
      </trkpt>
      <trkpt lat="43.93337" lon="3.70608">
        <ele>164.04</ele>
        <time>2011-11-27T11:09:30Z</time>
      </trkpt>
      <trkpt lat="43.93334" lon="3.70598">
        <ele>163.56</ele>
        <time>2011-11-27T11:09:31Z</time>
      </trkpt>
      <trkpt lat="43.93333" lon="3.70589">
        <ele>163.56</ele>
        <time>2011-11-27T11:09:32Z</time>
      </trkpt>
      <trkpt lat="43.9333" lon="3.70559">
        <ele>163.56</ele>
        <time>2011-11-27T11:09:39Z</time>
      </trkpt>
      <trkpt lat="43.9333" lon="3.70554">
        <ele>165</ele>
        <time>2011-11-27T11:09:55Z</time>
      </trkpt>
      <trkpt lat="43.93323" lon="3.70548">
        <ele>165</ele>
        <time>2011-11-27T11:10:00Z</time>
      </trkpt>
      <trkpt lat="43.93317" lon="3.70546">
        <ele>165</ele>
        <time>2011-11-27T11:10:01Z</time>
      </trkpt>
      <trkpt lat="43.93309" lon="3.70543">
        <ele>164.04</ele>
        <time>2011-11-27T11:10:02Z</time>
      </trkpt>
      <trkpt lat="43.93219" lon="3.70509">
        <ele>158.75</ele>
        <time>2011-11-27T11:10:12Z</time>
      </trkpt>
      <trkpt lat="43.93209" lon="3.70502">
        <ele>158.75</ele>
        <time>2011-11-27T11:10:13Z</time>
      </trkpt>
      <trkpt lat="43.932" lon="3.70494">
        <ele>158.75</ele>
        <time>2011-11-27T11:10:14Z</time>
      </trkpt>
      <trkpt lat="43.93192" lon="3.70486">
        <ele>158.27</ele>
        <time>2011-11-27T11:10:15Z</time>
      </trkpt>
      <trkpt lat="43.93185" lon="3.70477">
        <ele>158.27</ele>
        <time>2011-11-27T11:10:16Z</time>
      </trkpt>
      <trkpt lat="43.93179" lon="3.70468">
        <ele>157.79</ele>
        <time>2011-11-27T11:10:17Z</time>
      </trkpt>
      <trkpt lat="43.93175" lon="3.70461">
        <ele>157.31</ele>
        <time>2011-11-27T11:10:18Z</time>
      </trkpt>
      <trkpt lat="43.93171" lon="3.70455">
        <ele>157.31</ele>
        <time>2011-11-27T11:10:19Z</time>
      </trkpt>
      <trkpt lat="43.93169" lon="3.70449">
        <ele>156.83</ele>
        <time>2011-11-27T11:10:20Z</time>
      </trkpt>
      <trkpt lat="43.93169" lon="3.70443">
        <ele>156.83</ele>
        <time>2011-11-27T11:10:21Z</time>
      </trkpt>
      <trkpt lat="43.93169" lon="3.70436">
        <ele>156.35</ele>
        <time>2011-11-27T11:10:22Z</time>
      </trkpt>
      <trkpt lat="43.93168" lon="3.70429">
        <ele>155.87</ele>
        <time>2011-11-27T11:10:23Z</time>
      </trkpt>
      <trkpt lat="43.93165" lon="3.70425">
        <ele>156.35</ele>
        <time>2011-11-27T11:10:24Z</time>
      </trkpt>
      <trkpt lat="43.93161" lon="3.70423">
        <ele>155.87</ele>
        <time>2011-11-27T11:10:25Z</time>
      </trkpt>
      <trkpt lat="43.93156" lon="3.70422">
        <ele>155.87</ele>
        <time>2011-11-27T11:10:26Z</time>
      </trkpt>
      <trkpt lat="43.9315" lon="3.70421">
        <ele>155.87</ele>
        <time>2011-11-27T11:10:27Z</time>
      </trkpt>
      <trkpt lat="43.93145" lon="3.70416">
        <ele>156.35</ele>
        <time>2011-11-27T11:10:28Z</time>
      </trkpt>
      <trkpt lat="43.9314" lon="3.70408">
        <ele>155.87</ele>
        <time>2011-11-27T11:10:29Z</time>
      </trkpt>
      <trkpt lat="43.93136" lon="3.70399">
        <ele>155.87</ele>
        <time>2011-11-27T11:10:30Z</time>
      </trkpt>
      <trkpt lat="43.93073" lon="3.70295">
        <ele>155.39</ele>
        <time>2011-11-27T11:10:40Z</time>
      </trkpt>
      <trkpt lat="43.93039" lon="3.70242">
        <ele>155.39</ele>
        <time>2011-11-27T11:10:46Z</time>
      </trkpt>
      <trkpt lat="43.93033" lon="3.7024">
        <ele>154.91</ele>
        <time>2011-11-27T11:10:47Z</time>
      </trkpt>
      <trkpt lat="43.93027" lon="3.70241">
        <ele>154.91</ele>
        <time>2011-11-27T11:10:48Z</time>
      </trkpt>
      <trkpt lat="43.9302" lon="3.70245">
        <ele>154.43</ele>
        <time>2011-11-27T11:10:49Z</time>
      </trkpt>
      <trkpt lat="43.93012" lon="3.70251">
        <ele>153.95</ele>
        <time>2011-11-27T11:10:50Z</time>
      </trkpt>
      <trkpt lat="43.92933" lon="3.7032">
        <ele>152.51</ele>
        <time>2011-11-27T11:10:59Z</time>
      </trkpt>
      <trkpt lat="43.92922" lon="3.70325">
        <ele>152.99</ele>
        <time>2011-11-27T11:11:00Z</time>
      </trkpt>
      <trkpt lat="43.92911" lon="3.70329">
        <ele>153.47</ele>
        <time>2011-11-27T11:11:01Z</time>
      </trkpt>
      <trkpt lat="43.92899" lon="3.70331">
        <ele>153.95</ele>
        <time>2011-11-27T11:11:02Z</time>
      </trkpt>
      <trkpt lat="43.92888" lon="3.70333">
        <ele>154.43</ele>
        <time>2011-11-27T11:11:03Z</time>
      </trkpt>
      <trkpt lat="43.92787" lon="3.70337">
        <ele>156.35</ele>
        <time>2011-11-27T11:11:14Z</time>
      </trkpt>
      <trkpt lat="43.92782" lon="3.70337">
        <ele>156.35</ele>
        <time>2011-11-27T11:11:21Z</time>
      </trkpt>
      <trkpt lat="43.92784" lon="3.70337">
        <ele>158.27</ele>
        <time>2011-11-27T11:11:54Z</time>
      </trkpt>
      <trkpt lat="43.92792" lon="3.70336">
        <ele>161.16</ele>
        <time>2011-11-27T11:13:58Z</time>
      </trkpt>
      <trkpt lat="43.92793" lon="3.7034">
        <ele>160.2</ele>
        <time>2011-11-27T11:14:06Z</time>
      </trkpt>
      <trkpt lat="43.92796" lon="3.70342">
        <ele>159.72</ele>
        <time>2011-11-27T11:14:07Z</time>
      </trkpt>
      <trkpt lat="43.92801" lon="3.70343">
        <ele>159.72</ele>
        <time>2011-11-27T11:14:08Z</time>
      </trkpt>
      <trkpt lat="43.92866" lon="3.70338">
        <ele>159.24</ele>
        <time>2011-11-27T11:14:15Z</time>
      </trkpt>
      <trkpt lat="43.9292" lon="3.7033">
        <ele>157.79</ele>
        <time>2011-11-27T11:14:20Z</time>
      </trkpt>
      <trkpt lat="43.92931" lon="3.70325">
        <ele>157.31</ele>
        <time>2011-11-27T11:14:21Z</time>
      </trkpt>
      <trkpt lat="43.92942" lon="3.70319">
        <ele>156.83</ele>
        <time>2011-11-27T11:14:22Z</time>
      </trkpt>
      <trkpt lat="43.92953" lon="3.70312">
        <ele>156.35</ele>
        <time>2011-11-27T11:14:23Z</time>
      </trkpt>
      <trkpt lat="43.92963" lon="3.70304">
        <ele>156.35</ele>
        <time>2011-11-27T11:14:24Z</time>
      </trkpt>
      <trkpt lat="43.92972" lon="3.70295">
        <ele>156.35</ele>
        <time>2011-11-27T11:14:25Z</time>
      </trkpt>
      <trkpt lat="43.92981" lon="3.70287">
        <ele>155.87</ele>
        <time>2011-11-27T11:14:26Z</time>
      </trkpt>
      <trkpt lat="43.93032" lon="3.70244">
        <ele>155.87</ele>
        <time>2011-11-27T11:14:34Z</time>
      </trkpt>
      <trkpt lat="43.93049" lon="3.70237">
        <ele>155.87</ele>
        <time>2011-11-27T11:14:40Z</time>
      </trkpt>
      <trkpt lat="43.9306" lon="3.70227">
        <ele>155.39</ele>
        <time>2011-11-27T11:14:42Z</time>
      </trkpt>
      <trkpt lat="43.93068" lon="3.70222">
        <ele>154.91</ele>
        <time>2011-11-27T11:14:43Z</time>
      </trkpt>
      <trkpt lat="43.93131" lon="3.70164">
        <ele>153.47</ele>
        <time>2011-11-27T11:14:52Z</time>
      </trkpt>
      <trkpt lat="43.93157" lon="3.70123">
        <ele>154.43</ele>
        <time>2011-11-27T11:14:58Z</time>
      </trkpt>
      <trkpt lat="43.93166" lon="3.70108">
        <ele>154.91</ele>
        <time>2011-11-27T11:15:00Z</time>
      </trkpt>
      <trkpt lat="43.9322" lon="3.70024">
        <ele>154.91</ele>
        <time>2011-11-27T11:15:10Z</time>
      </trkpt>
      <trkpt lat="43.93282" lon="3.69957">
        <ele>154.91</ele>
        <time>2011-11-27T11:15:20Z</time>
      </trkpt>
      <trkpt lat="43.93357" lon="3.69897">
        <ele>155.39</ele>
        <time>2011-11-27T11:15:30Z</time>
      </trkpt>
      <trkpt lat="43.93365" lon="3.69887">
        <ele>154.91</ele>
        <time>2011-11-27T11:15:31Z</time>
      </trkpt>
      <trkpt lat="43.93444" lon="3.69783">
        <ele>154.43</ele>
        <time>2011-11-27T11:15:38Z</time>
      </trkpt>
      <trkpt lat="43.9358" lon="3.69605">
        <ele>156.35</ele>
        <time>2011-11-27T11:15:47Z</time>
      </trkpt>
      <trkpt lat="43.93683" lon="3.69467">
        <ele>158.75</ele>
        <time>2011-11-27T11:15:54Z</time>
      </trkpt>
      <trkpt lat="43.93752" lon="3.69305">
        <ele>160.68</ele>
        <time>2011-11-27T11:16:02Z</time>
      </trkpt>
      <trkpt lat="43.93756" lon="3.69284">
        <ele>160.68</ele>
        <time>2011-11-27T11:16:03Z</time>
      </trkpt>
      <trkpt lat="43.93757" lon="3.69263">
        <ele>160.2</ele>
        <time>2011-11-27T11:16:04Z</time>
      </trkpt>
      <trkpt lat="43.93756" lon="3.69241">
        <ele>160.2</ele>
        <time>2011-11-27T11:16:05Z</time>
      </trkpt>
      <trkpt lat="43.93756" lon="3.69218">
        <ele>160.2</ele>
        <time>2011-11-27T11:16:06Z</time>
      </trkpt>
      <trkpt lat="43.93757" lon="3.69195">
        <ele>160.68</ele>
        <time>2011-11-27T11:16:07Z</time>
      </trkpt>
      <trkpt lat="43.93759" lon="3.69175">
        <ele>160.68</ele>
        <time>2011-11-27T11:16:08Z</time>
      </trkpt>
      <trkpt lat="43.93762" lon="3.69157">
        <ele>161.16</ele>
        <time>2011-11-27T11:16:09Z</time>
      </trkpt>
      <trkpt lat="43.93766" lon="3.69141">
        <ele>160.68</ele>
        <time>2011-11-27T11:16:10Z</time>
      </trkpt>
      <trkpt lat="43.93768" lon="3.69126">
        <ele>160.68</ele>
        <time>2011-11-27T11:16:11Z</time>
      </trkpt>
      <trkpt lat="43.93767" lon="3.69109">
        <ele>160.2</ele>
        <time>2011-11-27T11:16:12Z</time>
      </trkpt>
      <trkpt lat="43.93768" lon="3.69093">
        <ele>160.2</ele>
        <time>2011-11-27T11:16:13Z</time>
      </trkpt>
      <trkpt lat="43.9377" lon="3.69076">
        <ele>160.2</ele>
        <time>2011-11-27T11:16:14Z</time>
      </trkpt>
      <trkpt lat="43.93775" lon="3.69061">
        <ele>160.2</ele>
        <time>2011-11-27T11:16:15Z</time>
      </trkpt>
      <trkpt lat="43.9378" lon="3.69045">
        <ele>159.72</ele>
        <time>2011-11-27T11:16:16Z</time>
      </trkpt>
      <trkpt lat="43.93787" lon="3.6903">
        <ele>159.72</ele>
        <time>2011-11-27T11:16:17Z</time>
      </trkpt>
      <trkpt lat="43.93794" lon="3.69016">
        <ele>159.24</ele>
        <time>2011-11-27T11:16:18Z</time>
      </trkpt>
      <trkpt lat="43.93801" lon="3.69003">
        <ele>158.75</ele>
        <time>2011-11-27T11:16:19Z</time>
      </trkpt>
      <trkpt lat="43.9381" lon="3.68989">
        <ele>158.75</ele>
        <time>2011-11-27T11:16:20Z</time>
      </trkpt>
      <trkpt lat="43.93819" lon="3.68977">
        <ele>158.75</ele>
        <time>2011-11-27T11:16:21Z</time>
      </trkpt>
      <trkpt lat="43.93829" lon="3.68966">
        <ele>158.75</ele>
        <time>2011-11-27T11:16:22Z</time>
      </trkpt>
      <trkpt lat="43.93838" lon="3.68956">
        <ele>158.27</ele>
        <time>2011-11-27T11:16:23Z</time>
      </trkpt>
      <trkpt lat="43.93867" lon="3.68935">
        <ele>158.27</ele>
        <time>2011-11-27T11:16:26Z</time>
      </trkpt>
      <trkpt lat="43.93876" lon="3.6893">
        <ele>157.79</ele>
        <time>2011-11-27T11:16:27Z</time>
      </trkpt>
      <trkpt lat="43.93884" lon="3.68927">
        <ele>158.27</ele>
        <time>2011-11-27T11:16:28Z</time>
      </trkpt>
      <trkpt lat="43.93907" lon="3.68918">
        <ele>159.24</ele>
        <time>2011-11-27T11:16:31Z</time>
      </trkpt>
      <trkpt lat="43.93913" lon="3.68913">
        <ele>159.24</ele>
        <time>2011-11-27T11:16:32Z</time>
      </trkpt>
      <trkpt lat="43.93919" lon="3.68905">
        <ele>159.24</ele>
        <time>2011-11-27T11:16:33Z</time>
      </trkpt>
      <trkpt lat="43.93922" lon="3.68895">
        <ele>159.24</ele>
        <time>2011-11-27T11:16:34Z</time>
      </trkpt>
      <trkpt lat="43.93924" lon="3.68883">
        <ele>158.75</ele>
        <time>2011-11-27T11:16:35Z</time>
      </trkpt>
      <trkpt lat="43.93923" lon="3.68871">
        <ele>159.24</ele>
        <time>2011-11-27T11:16:36Z</time>
      </trkpt>
      <trkpt lat="43.9392" lon="3.68858">
        <ele>159.24</ele>
        <time>2011-11-27T11:16:37Z</time>
      </trkpt>
      <trkpt lat="43.93917" lon="3.68847">
        <ele>159.24</ele>
        <time>2011-11-27T11:16:38Z</time>
      </trkpt>
      <trkpt lat="43.93903" lon="3.68791">
        <ele>162.6</ele>
        <time>2011-11-27T11:16:47Z</time>
      </trkpt>
      <trkpt lat="43.93889" lon="3.687">
        <ele>162.12</ele>
        <time>2011-11-27T11:16:54Z</time>
      </trkpt>
      <trkpt lat="43.93885" lon="3.68611">
        <ele>163.08</ele>
        <time>2011-11-27T11:16:59Z</time>
      </trkpt>
      <trkpt lat="43.93887" lon="3.6859">
        <ele>163.08</ele>
        <time>2011-11-27T11:17:00Z</time>
      </trkpt>
      <trkpt lat="43.93891" lon="3.68569">
        <ele>163.56</ele>
        <time>2011-11-27T11:17:01Z</time>
      </trkpt>
      <trkpt lat="43.93896" lon="3.68549">
        <ele>164.04</ele>
        <time>2011-11-27T11:17:02Z</time>
      </trkpt>
      <trkpt lat="43.93903" lon="3.68529">
        <ele>164.04</ele>
        <time>2011-11-27T11:17:03Z</time>
      </trkpt>
      <trkpt lat="43.9391" lon="3.6851">
        <ele>164.52</ele>
        <time>2011-11-27T11:17:04Z</time>
      </trkpt>
      <trkpt lat="43.93919" lon="3.68492">
        <ele>165.48</ele>
        <time>2011-11-27T11:17:05Z</time>
      </trkpt>
      <trkpt lat="43.93929" lon="3.68474">
        <ele>165.96</ele>
        <time>2011-11-27T11:17:06Z</time>
      </trkpt>
      <trkpt lat="43.93996" lon="3.68377">
        <ele>169.33</ele>
        <time>2011-11-27T11:17:13Z</time>
      </trkpt>
      <trkpt lat="43.94003" lon="3.68363">
        <ele>169.33</ele>
        <time>2011-11-27T11:17:14Z</time>
      </trkpt>
      <trkpt lat="43.94008" lon="3.68348">
        <ele>169.81</ele>
        <time>2011-11-27T11:17:15Z</time>
      </trkpt>
      <trkpt lat="43.94011" lon="3.68333">
        <ele>169.81</ele>
        <time>2011-11-27T11:17:16Z</time>
      </trkpt>
      <trkpt lat="43.9401" lon="3.68318">
        <ele>169.81</ele>
        <time>2011-11-27T11:17:17Z</time>
      </trkpt>
      <trkpt lat="43.94007" lon="3.68303">
        <ele>169.81</ele>
        <time>2011-11-27T11:17:18Z</time>
      </trkpt>
      <trkpt lat="43.94001" lon="3.68286">
        <ele>170.29</ele>
        <time>2011-11-27T11:17:19Z</time>
      </trkpt>
      <trkpt lat="43.93992" lon="3.68264">
        <ele>169.81</ele>
        <time>2011-11-27T11:17:20Z</time>
      </trkpt>
      <trkpt lat="43.93977" lon="3.68238">
        <ele>167.89</ele>
        <time>2011-11-27T11:17:21Z</time>
      </trkpt>
      <trkpt lat="43.93906" lon="3.68057">
        <ele>164.52</ele>
        <time>2011-11-27T11:17:29Z</time>
      </trkpt>
      <trkpt lat="43.93816" lon="3.67858">
        <ele>167.41</ele>
        <time>2011-11-27T11:17:39Z</time>
      </trkpt>
      <trkpt lat="43.93752" lon="3.67606">
        <ele>172.21</ele>
        <time>2011-11-27T11:17:50Z</time>
      </trkpt>
      <trkpt lat="43.93694" lon="3.67422">
        <ele>177.98</ele>
        <time>2011-11-27T11:17:59Z</time>
      </trkpt>
      <trkpt lat="43.93598" lon="3.67276">
        <ele>177.98</ele>
        <time>2011-11-27T11:18:08Z</time>
      </trkpt>
      <trkpt lat="43.93477" lon="3.67134">
        <ele>176.54</ele>
        <time>2011-11-27T11:18:16Z</time>
      </trkpt>
      <trkpt lat="43.93351" lon="3.66963">
        <ele>173.17</ele>
        <time>2011-11-27T11:18:25Z</time>
      </trkpt>
      <trkpt lat="43.93271" lon="3.66851">
        <ele>174.14</ele>
        <time>2011-11-27T11:18:31Z</time>
      </trkpt>
      <trkpt lat="43.93139" lon="3.66753">
        <ele>175.1</ele>
        <time>2011-11-27T11:18:39Z</time>
      </trkpt>
      <trkpt lat="43.92996" lon="3.6664">
        <ele>175.1</ele>
        <time>2011-11-27T11:18:47Z</time>
      </trkpt>
      <trkpt lat="43.92961" lon="3.66614">
        <ele>175.1</ele>
        <time>2011-11-27T11:18:49Z</time>
      </trkpt>
      <trkpt lat="43.92943" lon="3.66605">
        <ele>175.1</ele>
        <time>2011-11-27T11:18:50Z</time>
      </trkpt>
      <trkpt lat="43.92924" lon="3.66599">
        <ele>175.1</ele>
        <time>2011-11-27T11:18:51Z</time>
      </trkpt>
      <trkpt lat="43.92905" lon="3.66597">
        <ele>175.58</ele>
        <time>2011-11-27T11:18:52Z</time>
      </trkpt>
      <trkpt lat="43.92885" lon="3.66597">
        <ele>176.54</ele>
        <time>2011-11-27T11:18:53Z</time>
      </trkpt>
      <trkpt lat="43.92866" lon="3.66599">
        <ele>176.54</ele>
        <time>2011-11-27T11:18:54Z</time>
      </trkpt>
      <trkpt lat="43.92667" lon="3.66615">
        <ele>177.5</ele>
        <time>2011-11-27T11:19:05Z</time>
      </trkpt>
      <trkpt lat="43.92651" lon="3.66609">
        <ele>177.02</ele>
        <time>2011-11-27T11:19:06Z</time>
      </trkpt>
      <trkpt lat="43.92634" lon="3.66599">
        <ele>177.02</ele>
        <time>2011-11-27T11:19:07Z</time>
      </trkpt>
      <trkpt lat="43.92619" lon="3.66586">
        <ele>177.02</ele>
        <time>2011-11-27T11:19:08Z</time>
      </trkpt>
      <trkpt lat="43.92604" lon="3.66571">
        <ele>177.5</ele>
        <time>2011-11-27T11:19:09Z</time>
      </trkpt>
      <trkpt lat="43.92591" lon="3.66554">
        <ele>177.5</ele>
        <time>2011-11-27T11:19:10Z</time>
      </trkpt>
      <trkpt lat="43.92577" lon="3.66537">
        <ele>177.5</ele>
        <time>2011-11-27T11:19:11Z</time>
      </trkpt>
      <trkpt lat="43.92527" lon="3.66451">
        <ele>177.02</ele>
        <time>2011-11-27T11:19:16Z</time>
      </trkpt>
      <trkpt lat="43.92522" lon="3.66435">
        <ele>177.5</ele>
        <time>2011-11-27T11:19:17Z</time>
      </trkpt>
      <trkpt lat="43.92518" lon="3.6642">
        <ele>177.98</ele>
        <time>2011-11-27T11:19:18Z</time>
      </trkpt>
      <trkpt lat="43.92517" lon="3.66407">
        <ele>177.98</ele>
        <time>2011-11-27T11:19:19Z</time>
      </trkpt>
      <trkpt lat="43.92517" lon="3.66395">
        <ele>177.98</ele>
        <time>2011-11-27T11:19:20Z</time>
      </trkpt>
      <trkpt lat="43.92519" lon="3.66384">
        <ele>177.5</ele>
        <time>2011-11-27T11:19:21Z</time>
      </trkpt>
      <trkpt lat="43.92523" lon="3.66375">
        <ele>177.02</ele>
        <time>2011-11-27T11:19:22Z</time>
      </trkpt>
      <trkpt lat="43.92528" lon="3.66367">
        <ele>176.54</ele>
        <time>2011-11-27T11:19:23Z</time>
      </trkpt>
      <trkpt lat="43.92533" lon="3.6636">
        <ele>176.06</ele>
        <time>2011-11-27T11:19:24Z</time>
      </trkpt>
      <trkpt lat="43.92562" lon="3.66318">
        <ele>175.1</ele>
        <time>2011-11-27T11:19:34Z</time>
      </trkpt>
      <trkpt lat="43.92564" lon="3.66313">
        <ele>175.1</ele>
        <time>2011-11-27T11:19:35Z</time>
      </trkpt>
      <trkpt lat="43.92566" lon="3.66307">
        <ele>175.1</ele>
        <time>2011-11-27T11:19:36Z</time>
      </trkpt>
      <trkpt lat="43.92573" lon="3.66287">
        <ele>174.14</ele>
        <time>2011-11-27T11:19:44Z</time>
      </trkpt>
      <trkpt lat="43.9258" lon="3.66265">
        <ele>173.17</ele>
        <time>2011-11-27T11:20:16Z</time>
      </trkpt>
      <trkpt lat="43.92581" lon="3.66262">
        <ele>172.69</ele>
        <time>2011-11-27T11:20:32Z</time>
      </trkpt>
      <trkpt lat="43.92581" lon="3.6626">
        <ele>177.5</ele>
        <time>2011-11-27T11:25:46Z</time>
      </trkpt>
      <trkpt lat="43.92582" lon="3.66257">
        <ele>177.98</ele>
        <time>2011-11-27T11:25:47Z</time>
      </trkpt>
      <trkpt lat="43.92583" lon="3.66251">
        <ele>177.5</ele>
        <time>2011-11-27T11:25:48Z</time>
      </trkpt>
      <trkpt lat="43.92585" lon="3.66244">
        <ele>177.5</ele>
        <time>2011-11-27T11:25:49Z</time>
      </trkpt>
      <trkpt lat="43.92588" lon="3.66236">
        <ele>177.5</ele>
        <time>2011-11-27T11:25:50Z</time>
      </trkpt>
      <trkpt lat="43.92598" lon="3.66218">
        <ele>177.5</ele>
        <time>2011-11-27T11:25:56Z</time>
      </trkpt>
      <trkpt lat="43.92597" lon="3.66214">
        <ele>183.75</ele>
        <time>2011-11-27T11:26:09Z</time>
      </trkpt>
      <trkpt lat="43.92596" lon="3.66213">
        <ele>189.04</ele>
        <time>2011-11-27T11:26:54Z</time>
      </trkpt>
      <trkpt lat="43.92596" lon="3.66212">
        <ele>182.79</ele>
        <time>2011-11-27T11:27:30Z</time>
      </trkpt>
      <trkpt lat="43.92594" lon="3.66212">
        <ele>183.27</ele>
        <time>2011-11-27T11:27:31Z</time>
      </trkpt>
      <trkpt lat="43.92592" lon="3.66214">
        <ele>182.79</ele>
        <time>2011-11-27T11:27:32Z</time>
      </trkpt>
      <trkpt lat="43.9259" lon="3.66218">
        <ele>183.27</ele>
        <time>2011-11-27T11:27:33Z</time>
      </trkpt>
      <trkpt lat="43.92587" lon="3.66226">
        <ele>183.27</ele>
        <time>2011-11-27T11:27:34Z</time>
      </trkpt>
      <trkpt lat="43.92584" lon="3.66237">
        <ele>183.27</ele>
        <time>2011-11-27T11:27:35Z</time>
      </trkpt>
      <trkpt lat="43.9258" lon="3.66249">
        <ele>183.27</ele>
        <time>2011-11-27T11:27:36Z</time>
      </trkpt>
      <trkpt lat="43.92558" lon="3.66318">
        <ele>183.27</ele>
        <time>2011-11-27T11:27:42Z</time>
      </trkpt>
      <trkpt lat="43.92553" lon="3.66329">
        <ele>182.79</ele>
        <time>2011-11-27T11:27:43Z</time>
      </trkpt>
      <trkpt lat="43.92527" lon="3.6637">
        <ele>181.35</ele>
        <time>2011-11-27T11:27:48Z</time>
      </trkpt>
      <trkpt lat="43.92522" lon="3.66374">
        <ele>181.35</ele>
        <time>2011-11-27T11:27:49Z</time>
      </trkpt>
      <trkpt lat="43.92516" lon="3.66376">
        <ele>181.35</ele>
        <time>2011-11-27T11:27:50Z</time>
      </trkpt>
      <trkpt lat="43.9251" lon="3.66376">
        <ele>181.35</ele>
        <time>2011-11-27T11:27:51Z</time>
      </trkpt>
      <trkpt lat="43.92504" lon="3.66373">
        <ele>180.87</ele>
        <time>2011-11-27T11:27:52Z</time>
      </trkpt>
      <trkpt lat="43.92497" lon="3.66367">
        <ele>180.87</ele>
        <time>2011-11-27T11:27:53Z</time>
      </trkpt>
      <trkpt lat="43.9249" lon="3.66358">
        <ele>180.87</ele>
        <time>2011-11-27T11:27:54Z</time>
      </trkpt>
      <trkpt lat="43.92481" lon="3.66348">
        <ele>180.87</ele>
        <time>2011-11-27T11:27:55Z</time>
      </trkpt>
      <trkpt lat="43.92386" lon="3.66245">
        <ele>183.27</ele>
        <time>2011-11-27T11:28:03Z</time>
      </trkpt>
      <trkpt lat="43.9226" lon="3.66146">
        <ele>183.27</ele>
        <time>2011-11-27T11:28:11Z</time>
      </trkpt>
      <trkpt lat="43.92048" lon="3.66055">
        <ele>186.15</ele>
        <time>2011-11-27T11:28:22Z</time>
      </trkpt>
      <trkpt lat="43.91864" lon="3.65967">
        <ele>188.56</ele>
        <time>2011-11-27T11:28:31Z</time>
      </trkpt>
      <trkpt lat="43.91737" lon="3.65881">
        <ele>190.48</ele>
        <time>2011-11-27T11:28:38Z</time>
      </trkpt>
      <trkpt lat="43.91718" lon="3.65873">
        <ele>190.96</ele>
        <time>2011-11-27T11:28:39Z</time>
      </trkpt>
      <trkpt lat="43.91699" lon="3.65868">
        <ele>190.96</ele>
        <time>2011-11-27T11:28:40Z</time>
      </trkpt>
      <trkpt lat="43.91534" lon="3.65821">
        <ele>192.88</ele>
        <time>2011-11-27T11:28:48Z</time>
      </trkpt>
      <trkpt lat="43.91388" lon="3.65743">
        <ele>190.48</ele>
        <time>2011-11-27T11:28:56Z</time>
      </trkpt>
      <trkpt lat="43.91371" lon="3.65728">
        <ele>189.52</ele>
        <time>2011-11-27T11:28:57Z</time>
      </trkpt>
      <trkpt lat="43.91355" lon="3.65711">
        <ele>188.56</ele>
        <time>2011-11-27T11:28:58Z</time>
      </trkpt>
      <trkpt lat="43.91305" lon="3.65659">
        <ele>185.67</ele>
        <time>2011-11-27T11:29:01Z</time>
      </trkpt>
      <trkpt lat="43.91287" lon="3.65646">
        <ele>185.19</ele>
        <time>2011-11-27T11:29:02Z</time>
      </trkpt>
      <trkpt lat="43.91268" lon="3.65635">
        <ele>184.71</ele>
        <time>2011-11-27T11:29:03Z</time>
      </trkpt>
      <trkpt lat="43.91246" lon="3.6563">
        <ele>185.19</ele>
        <time>2011-11-27T11:29:04Z</time>
      </trkpt>
      <trkpt lat="43.91225" lon="3.65625">
        <ele>184.71</ele>
        <time>2011-11-27T11:29:05Z</time>
      </trkpt>
      <trkpt lat="43.91203" lon="3.65621">
        <ele>184.71</ele>
        <time>2011-11-27T11:29:06Z</time>
      </trkpt>
      <trkpt lat="43.91063" lon="3.65597">
        <ele>186.15</ele>
        <time>2011-11-27T11:29:13Z</time>
      </trkpt>
      <trkpt lat="43.91046" lon="3.65588">
        <ele>186.15</ele>
        <time>2011-11-27T11:29:14Z</time>
      </trkpt>
      <trkpt lat="43.90997" lon="3.65558">
        <ele>186.15</ele>
        <time>2011-11-27T11:29:17Z</time>
      </trkpt>
      <trkpt lat="43.9098" lon="3.65554">
        <ele>186.15</ele>
        <time>2011-11-27T11:29:18Z</time>
      </trkpt>
      <trkpt lat="43.90961" lon="3.65551">
        <ele>186.15</ele>
        <time>2011-11-27T11:29:19Z</time>
      </trkpt>
      <trkpt lat="43.90736" lon="3.65543">
        <ele>184.71</ele>
        <time>2011-11-27T11:29:30Z</time>
      </trkpt>
      <trkpt lat="43.90702" lon="3.65546">
        <ele>184.23</ele>
        <time>2011-11-27T11:29:32Z</time>
      </trkpt>
      <trkpt lat="43.90685" lon="3.65552">
        <ele>183.75</ele>
        <time>2011-11-27T11:29:33Z</time>
      </trkpt>
      <trkpt lat="43.90667" lon="3.65561">
        <ele>183.75</ele>
        <time>2011-11-27T11:29:34Z</time>
      </trkpt>
      <trkpt lat="43.90649" lon="3.65573">
        <ele>183.27</ele>
        <time>2011-11-27T11:29:35Z</time>
      </trkpt>
      <trkpt lat="43.90631" lon="3.65586">
        <ele>183.27</ele>
        <time>2011-11-27T11:29:36Z</time>
      </trkpt>
      <trkpt lat="43.90468" lon="3.65735">
        <ele>183.27</ele>
        <time>2011-11-27T11:29:45Z</time>
      </trkpt>
      <trkpt lat="43.90421" lon="3.6578">
        <ele>185.19</ele>
        <time>2011-11-27T11:29:48Z</time>
      </trkpt>
      <trkpt lat="43.90405" lon="3.65792">
        <ele>185.67</ele>
        <time>2011-11-27T11:29:49Z</time>
      </trkpt>
      <trkpt lat="43.90388" lon="3.658">
        <ele>185.67</ele>
        <time>2011-11-27T11:29:50Z</time>
      </trkpt>
      <trkpt lat="43.90371" lon="3.65804">
        <ele>185.67</ele>
        <time>2011-11-27T11:29:51Z</time>
      </trkpt>
      <trkpt lat="43.90353" lon="3.65805">
        <ele>186.15</ele>
        <time>2011-11-27T11:29:52Z</time>
      </trkpt>
      <trkpt lat="43.90334" lon="3.65802">
        <ele>186.15</ele>
        <time>2011-11-27T11:29:53Z</time>
      </trkpt>
      <trkpt lat="43.90316" lon="3.65795">
        <ele>186.15</ele>
        <time>2011-11-27T11:29:54Z</time>
      </trkpt>
      <trkpt lat="43.90298" lon="3.65786">
        <ele>186.15</ele>
        <time>2011-11-27T11:29:55Z</time>
      </trkpt>
      <trkpt lat="43.9028" lon="3.65773">
        <ele>186.63</ele>
        <time>2011-11-27T11:29:56Z</time>
      </trkpt>
      <trkpt lat="43.90262" lon="3.65758">
        <ele>188.08</ele>
        <time>2011-11-27T11:29:57Z</time>
      </trkpt>
      <trkpt lat="43.90246" lon="3.65741">
        <ele>189.04</ele>
        <time>2011-11-27T11:29:58Z</time>
      </trkpt>
      <trkpt lat="43.9023" lon="3.65721">
        <ele>189.52</ele>
        <time>2011-11-27T11:29:59Z</time>
      </trkpt>
      <trkpt lat="43.90216" lon="3.65698">
        <ele>190.48</ele>
        <time>2011-11-27T11:30:00Z</time>
      </trkpt>
      <trkpt lat="43.90203" lon="3.65674">
        <ele>191.92</ele>
        <time>2011-11-27T11:30:01Z</time>
      </trkpt>
      <trkpt lat="43.90191" lon="3.65649">
        <ele>192.4</ele>
        <time>2011-11-27T11:30:02Z</time>
      </trkpt>
      <trkpt lat="43.9018" lon="3.65622">
        <ele>192.88</ele>
        <time>2011-11-27T11:30:03Z</time>
      </trkpt>
      <trkpt lat="43.9017" lon="3.65596">
        <ele>193.84</ele>
        <time>2011-11-27T11:30:04Z</time>
      </trkpt>
      <trkpt lat="43.90101" lon="3.65425">
        <ele>199.61</ele>
        <time>2011-11-27T11:30:11Z</time>
      </trkpt>
      <trkpt lat="43.90088" lon="3.65408">
        <ele>200.57</ele>
        <time>2011-11-27T11:30:12Z</time>
      </trkpt>
      <trkpt lat="43.90074" lon="3.65396">
        <ele>201.05</ele>
        <time>2011-11-27T11:30:13Z</time>
      </trkpt>
      <trkpt lat="43.90058" lon="3.65394">
        <ele>202.01</ele>
        <time>2011-11-27T11:30:14Z</time>
      </trkpt>
      <trkpt lat="43.90043" lon="3.65398">
        <ele>202.49</ele>
        <time>2011-11-27T11:30:15Z</time>
      </trkpt>
      <trkpt lat="43.90027" lon="3.65406">
        <ele>204.9</ele>
        <time>2011-11-27T11:30:16Z</time>
      </trkpt>
      <trkpt lat="43.90012" lon="3.65418">
        <ele>206.34</ele>
        <time>2011-11-27T11:30:17Z</time>
      </trkpt>
      <trkpt lat="43.89995" lon="3.65432">
        <ele>206.82</ele>
        <time>2011-11-27T11:30:18Z</time>
      </trkpt>
      <trkpt lat="43.89879" lon="3.65521">
        <ele>207.3</ele>
        <time>2011-11-27T11:30:25Z</time>
      </trkpt>
      <trkpt lat="43.89864" lon="3.65525">
        <ele>206.82</ele>
        <time>2011-11-27T11:30:26Z</time>
      </trkpt>
      <trkpt lat="43.89846" lon="3.65525">
        <ele>206.82</ele>
        <time>2011-11-27T11:30:27Z</time>
      </trkpt>
      <trkpt lat="43.89827" lon="3.65523">
        <ele>206.34</ele>
        <time>2011-11-27T11:30:28Z</time>
      </trkpt>
      <trkpt lat="43.89808" lon="3.6552">
        <ele>206.34</ele>
        <time>2011-11-27T11:30:29Z</time>
      </trkpt>
      <trkpt lat="43.89791" lon="3.65513">
        <ele>205.86</ele>
        <time>2011-11-27T11:30:30Z</time>
      </trkpt>
      <trkpt lat="43.89775" lon="3.65504">
        <ele>205.86</ele>
        <time>2011-11-27T11:30:31Z</time>
      </trkpt>
      <trkpt lat="43.8976" lon="3.65491">
        <ele>205.38</ele>
        <time>2011-11-27T11:30:32Z</time>
      </trkpt>
      <trkpt lat="43.89746" lon="3.65476">
        <ele>204.9</ele>
        <time>2011-11-27T11:30:33Z</time>
      </trkpt>
      <trkpt lat="43.89734" lon="3.6546">
        <ele>203.94</ele>
        <time>2011-11-27T11:30:34Z</time>
      </trkpt>
      <trkpt lat="43.89724" lon="3.65442">
        <ele>203.46</ele>
        <time>2011-11-27T11:30:35Z</time>
      </trkpt>
      <trkpt lat="43.89715" lon="3.65422">
        <ele>202.98</ele>
        <time>2011-11-27T11:30:36Z</time>
      </trkpt>
      <trkpt lat="43.89707" lon="3.65401">
        <ele>202.49</ele>
        <time>2011-11-27T11:30:37Z</time>
      </trkpt>
      <trkpt lat="43.89702" lon="3.65378">
        <ele>202.01</ele>
        <time>2011-11-27T11:30:38Z</time>
      </trkpt>
      <trkpt lat="43.89698" lon="3.65354">
        <ele>201.53</ele>
        <time>2011-11-27T11:30:39Z</time>
      </trkpt>
      <trkpt lat="43.89686" lon="3.65152">
        <ele>200.57</ele>
        <time>2011-11-27T11:30:47Z</time>
      </trkpt>
      <trkpt lat="43.89683" lon="3.65077">
        <ele>200.57</ele>
        <time>2011-11-27T11:30:50Z</time>
      </trkpt>
      <trkpt lat="43.89679" lon="3.65053">
        <ele>200.57</ele>
        <time>2011-11-27T11:30:51Z</time>
      </trkpt>
      <trkpt lat="43.89672" lon="3.6503">
        <ele>200.57</ele>
        <time>2011-11-27T11:30:52Z</time>
      </trkpt>
      <trkpt lat="43.89663" lon="3.65008">
        <ele>201.05</ele>
        <time>2011-11-27T11:30:53Z</time>
      </trkpt>
      <trkpt lat="43.89651" lon="3.64987">
        <ele>201.05</ele>
        <time>2011-11-27T11:30:54Z</time>
      </trkpt>
      <trkpt lat="43.89635" lon="3.64968">
        <ele>201.05</ele>
        <time>2011-11-27T11:30:55Z</time>
      </trkpt>
      <trkpt lat="43.89617" lon="3.6495">
        <ele>201.53</ele>
        <time>2011-11-27T11:30:56Z</time>
      </trkpt>
      <trkpt lat="43.89598" lon="3.64931">
        <ele>202.49</ele>
        <time>2011-11-27T11:30:57Z</time>
      </trkpt>
      <trkpt lat="43.89488" lon="3.64787">
        <ele>204.9</ele>
        <time>2011-11-27T11:31:03Z</time>
      </trkpt>
      <trkpt lat="43.89371" lon="3.64621">
        <ele>204.42</ele>
        <time>2011-11-27T11:31:10Z</time>
      </trkpt>
      <trkpt lat="43.89344" lon="3.64582">
        <ele>203.46</ele>
        <time>2011-11-27T11:31:12Z</time>
      </trkpt>
      <trkpt lat="43.89333" lon="3.64559">
        <ele>202.49</ele>
        <time>2011-11-27T11:31:13Z</time>
      </trkpt>
      <trkpt lat="43.89326" lon="3.64533">
        <ele>202.01</ele>
        <time>2011-11-27T11:31:14Z</time>
      </trkpt>
      <trkpt lat="43.8932" lon="3.64504">
        <ele>202.01</ele>
        <time>2011-11-27T11:31:15Z</time>
      </trkpt>
      <trkpt lat="43.89313" lon="3.64474">
        <ele>201.53</ele>
        <time>2011-11-27T11:31:16Z</time>
      </trkpt>
      <trkpt lat="43.89265" lon="3.64285">
        <ele>197.69</ele>
        <time>2011-11-27T11:31:23Z</time>
      </trkpt>
      <trkpt lat="43.89255" lon="3.64266">
        <ele>197.21</ele>
        <time>2011-11-27T11:31:24Z</time>
      </trkpt>
      <trkpt lat="43.89242" lon="3.6425">
        <ele>197.21</ele>
        <time>2011-11-27T11:31:25Z</time>
      </trkpt>
      <trkpt lat="43.89225" lon="3.64236">
        <ele>196.73</ele>
        <time>2011-11-27T11:31:26Z</time>
      </trkpt>
      <trkpt lat="43.89207" lon="3.64223">
        <ele>197.21</ele>
        <time>2011-11-27T11:31:27Z</time>
      </trkpt>
      <trkpt lat="43.89187" lon="3.6421">
        <ele>197.69</ele>
        <time>2011-11-27T11:31:28Z</time>
      </trkpt>
      <trkpt lat="43.89106" lon="3.64142">
        <ele>197.69</ele>
        <time>2011-11-27T11:31:33Z</time>
      </trkpt>
      <trkpt lat="43.89096" lon="3.64128">
        <ele>197.69</ele>
        <time>2011-11-27T11:31:34Z</time>
      </trkpt>
      <trkpt lat="43.89088" lon="3.64112">
        <ele>197.21</ele>
        <time>2011-11-27T11:31:35Z</time>
      </trkpt>
      <trkpt lat="43.89084" lon="3.64095">
        <ele>196.73</ele>
        <time>2011-11-27T11:31:36Z</time>
      </trkpt>
      <trkpt lat="43.89083" lon="3.64076">
        <ele>196.25</ele>
        <time>2011-11-27T11:31:37Z</time>
      </trkpt>
      <trkpt lat="43.89083" lon="3.64055">
        <ele>196.25</ele>
        <time>2011-11-27T11:31:38Z</time>
      </trkpt>
      <trkpt lat="43.89086" lon="3.64032">
        <ele>195.77</ele>
        <time>2011-11-27T11:31:39Z</time>
      </trkpt>
      <trkpt lat="43.89091" lon="3.64007">
        <ele>195.77</ele>
        <time>2011-11-27T11:31:40Z</time>
      </trkpt>
      <trkpt lat="43.89098" lon="3.63982">
        <ele>196.25</ele>
        <time>2011-11-27T11:31:41Z</time>
      </trkpt>
      <trkpt lat="43.89107" lon="3.63958">
        <ele>196.73</ele>
        <time>2011-11-27T11:31:42Z</time>
      </trkpt>
      <trkpt lat="43.89117" lon="3.63933">
        <ele>196.73</ele>
        <time>2011-11-27T11:31:43Z</time>
      </trkpt>
      <trkpt lat="43.89166" lon="3.63794">
        <ele>199.13</ele>
        <time>2011-11-27T11:31:49Z</time>
      </trkpt>
      <trkpt lat="43.89169" lon="3.63773">
        <ele>199.13</ele>
        <time>2011-11-27T11:31:50Z</time>
      </trkpt>
      <trkpt lat="43.89169" lon="3.63751">
        <ele>199.13</ele>
        <time>2011-11-27T11:31:51Z</time>
      </trkpt>
      <trkpt lat="43.89167" lon="3.63728">
        <ele>199.61</ele>
        <time>2011-11-27T11:31:52Z</time>
      </trkpt>
      <trkpt lat="43.89162" lon="3.63707">
        <ele>199.13</ele>
        <time>2011-11-27T11:31:53Z</time>
      </trkpt>
      <trkpt lat="43.89155" lon="3.63688">
        <ele>198.65</ele>
        <time>2011-11-27T11:31:54Z</time>
      </trkpt>
      <trkpt lat="43.89145" lon="3.6367">
        <ele>199.13</ele>
        <time>2011-11-27T11:31:55Z</time>
      </trkpt>
      <trkpt lat="43.8913" lon="3.63652">
        <ele>200.09</ele>
        <time>2011-11-27T11:31:56Z</time>
      </trkpt>
      <trkpt lat="43.89115" lon="3.63633">
        <ele>201.05</ele>
        <time>2011-11-27T11:31:57Z</time>
      </trkpt>
      <trkpt lat="43.89019" lon="3.63452">
        <ele>202.98</ele>
        <time>2011-11-27T11:32:05Z</time>
      </trkpt>
      <trkpt lat="43.88972" lon="3.63307">
        <ele>200.57</ele>
        <time>2011-11-27T11:32:11Z</time>
      </trkpt>
      <trkpt lat="43.88969" lon="3.63282">
        <ele>200.57</ele>
        <time>2011-11-27T11:32:12Z</time>
      </trkpt>
      <trkpt lat="43.88968" lon="3.63258">
        <ele>200.09</ele>
        <time>2011-11-27T11:32:13Z</time>
      </trkpt>
      <trkpt lat="43.88969" lon="3.63234">
        <ele>200.09</ele>
        <time>2011-11-27T11:32:14Z</time>
      </trkpt>
      <trkpt lat="43.88972" lon="3.6321">
        <ele>200.09</ele>
        <time>2011-11-27T11:32:15Z</time>
      </trkpt>
      <trkpt lat="43.88978" lon="3.63188">
        <ele>199.61</ele>
        <time>2011-11-27T11:32:16Z</time>
      </trkpt>
      <trkpt lat="43.88986" lon="3.63168">
        <ele>199.13</ele>
        <time>2011-11-27T11:32:17Z</time>
      </trkpt>
      <trkpt lat="43.88997" lon="3.6315">
        <ele>199.13</ele>
        <time>2011-11-27T11:32:18Z</time>
      </trkpt>
      <trkpt lat="43.89011" lon="3.63133">
        <ele>198.65</ele>
        <time>2011-11-27T11:32:19Z</time>
      </trkpt>
      <trkpt lat="43.89027" lon="3.63118">
        <ele>198.65</ele>
        <time>2011-11-27T11:32:20Z</time>
      </trkpt>
      <trkpt lat="43.89045" lon="3.63104">
        <ele>199.13</ele>
        <time>2011-11-27T11:32:21Z</time>
      </trkpt>
      <trkpt lat="43.8918" lon="3.62991">
        <ele>200.09</ele>
        <time>2011-11-27T11:32:29Z</time>
      </trkpt>
      <trkpt lat="43.89192" lon="3.62975">
        <ele>200.09</ele>
        <time>2011-11-27T11:32:30Z</time>
      </trkpt>
      <trkpt lat="43.89202" lon="3.62959">
        <ele>200.57</ele>
        <time>2011-11-27T11:32:31Z</time>
      </trkpt>
      <trkpt lat="43.89208" lon="3.62942">
        <ele>200.57</ele>
        <time>2011-11-27T11:32:32Z</time>
      </trkpt>
      <trkpt lat="43.89211" lon="3.62923">
        <ele>200.57</ele>
        <time>2011-11-27T11:32:33Z</time>
      </trkpt>
      <trkpt lat="43.89213" lon="3.62902">
        <ele>201.05</ele>
        <time>2011-11-27T11:32:34Z</time>
      </trkpt>
      <trkpt lat="43.89214" lon="3.62882">
        <ele>201.05</ele>
        <time>2011-11-27T11:32:35Z</time>
      </trkpt>
      <trkpt lat="43.89215" lon="3.62845">
        <ele>201.53</ele>
        <time>2011-11-27T11:32:37Z</time>
      </trkpt>
      <trkpt lat="43.89212" lon="3.62827">
        <ele>202.01</ele>
        <time>2011-11-27T11:32:38Z</time>
      </trkpt>
      <trkpt lat="43.89207" lon="3.62811">
        <ele>202.01</ele>
        <time>2011-11-27T11:32:39Z</time>
      </trkpt>
      <trkpt lat="43.89198" lon="3.62797">
        <ele>202.49</ele>
        <time>2011-11-27T11:32:40Z</time>
      </trkpt>
      <trkpt lat="43.89183" lon="3.62781">
        <ele>202.49</ele>
        <time>2011-11-27T11:32:41Z</time>
      </trkpt>
      <trkpt lat="43.89167" lon="3.62765">
        <ele>202.49</ele>
        <time>2011-11-27T11:32:42Z</time>
      </trkpt>
      <trkpt lat="43.89059" lon="3.62658">
        <ele>204.42</ele>
        <time>2011-11-27T11:32:49Z</time>
      </trkpt>
      <trkpt lat="43.89045" lon="3.6264">
        <ele>204.9</ele>
        <time>2011-11-27T11:32:51Z</time>
      </trkpt>
      <trkpt lat="43.89042" lon="3.62631">
        <ele>204.9</ele>
        <time>2011-11-27T11:32:52Z</time>
      </trkpt>
      <trkpt lat="43.89042" lon="3.62623">
        <ele>205.38</ele>
        <time>2011-11-27T11:32:53Z</time>
      </trkpt>
      <trkpt lat="43.89043" lon="3.62613">
        <ele>205.38</ele>
        <time>2011-11-27T11:32:54Z</time>
      </trkpt>
      <trkpt lat="43.89045" lon="3.62604">
        <ele>205.38</ele>
        <time>2011-11-27T11:32:55Z</time>
      </trkpt>
      <trkpt lat="43.89047" lon="3.62593">
        <ele>205.86</ele>
        <time>2011-11-27T11:32:56Z</time>
      </trkpt>
      <trkpt lat="43.89049" lon="3.6257">
        <ele>205.86</ele>
        <time>2011-11-27T11:32:58Z</time>
      </trkpt>
      <trkpt lat="43.89049" lon="3.62557">
        <ele>205.86</ele>
        <time>2011-11-27T11:32:59Z</time>
      </trkpt>
      <trkpt lat="43.89046" lon="3.62545">
        <ele>206.34</ele>
        <time>2011-11-27T11:33:00Z</time>
      </trkpt>
      <trkpt lat="43.89041" lon="3.62533">
        <ele>206.34</ele>
        <time>2011-11-27T11:33:01Z</time>
      </trkpt>
      <trkpt lat="43.89034" lon="3.62522">
        <ele>206.82</ele>
        <time>2011-11-27T11:33:02Z</time>
      </trkpt>
      <trkpt lat="43.89026" lon="3.62513">
        <ele>206.82</ele>
        <time>2011-11-27T11:33:03Z</time>
      </trkpt>
      <trkpt lat="43.89016" lon="3.62507">
        <ele>206.82</ele>
        <time>2011-11-27T11:33:04Z</time>
      </trkpt>
      <trkpt lat="43.89005" lon="3.62502">
        <ele>207.3</ele>
        <time>2011-11-27T11:33:05Z</time>
      </trkpt>
      <trkpt lat="43.88994" lon="3.62497">
        <ele>207.3</ele>
        <time>2011-11-27T11:33:06Z</time>
      </trkpt>
      <trkpt lat="43.88871" lon="3.62436">
        <ele>208.26</ele>
        <time>2011-11-27T11:33:19Z</time>
      </trkpt>
      <trkpt lat="43.88838" lon="3.62416">
        <ele>207.78</ele>
        <time>2011-11-27T11:33:23Z</time>
      </trkpt>
      <trkpt lat="43.88831" lon="3.62408">
        <ele>207.78</ele>
        <time>2011-11-27T11:33:24Z</time>
      </trkpt>
      <trkpt lat="43.88827" lon="3.62396">
        <ele>207.78</ele>
        <time>2011-11-27T11:33:25Z</time>
      </trkpt>
      <trkpt lat="43.88824" lon="3.62384">
        <ele>207.78</ele>
        <time>2011-11-27T11:33:26Z</time>
      </trkpt>
      <trkpt lat="43.88822" lon="3.62373">
        <ele>208.26</ele>
        <time>2011-11-27T11:33:27Z</time>
      </trkpt>
      <trkpt lat="43.88821" lon="3.62361">
        <ele>208.26</ele>
        <time>2011-11-27T11:33:28Z</time>
      </trkpt>
      <trkpt lat="43.88821" lon="3.62349">
        <ele>208.74</ele>
        <time>2011-11-27T11:33:29Z</time>
      </trkpt>
      <trkpt lat="43.88821" lon="3.62337">
        <ele>208.74</ele>
        <time>2011-11-27T11:33:30Z</time>
      </trkpt>
      <trkpt lat="43.88816" lon="3.62203">
        <ele>210.19</ele>
        <time>2011-11-27T11:33:41Z</time>
      </trkpt>
      <trkpt lat="43.88821" lon="3.6211">
        <ele>211.15</ele>
        <time>2011-11-27T11:33:47Z</time>
      </trkpt>
      <trkpt lat="43.88819" lon="3.62094">
        <ele>211.15</ele>
        <time>2011-11-27T11:33:48Z</time>
      </trkpt>
      <trkpt lat="43.88815" lon="3.62078">
        <ele>211.63</ele>
        <time>2011-11-27T11:33:49Z</time>
      </trkpt>
      <trkpt lat="43.88799" lon="3.61998">
        <ele>214.03</ele>
        <time>2011-11-27T11:33:54Z</time>
      </trkpt>
      <trkpt lat="43.88795" lon="3.61948">
        <ele>214.99</ele>
        <time>2011-11-27T11:33:57Z</time>
      </trkpt>
      <trkpt lat="43.88792" lon="3.61932">
        <ele>214.51</ele>
        <time>2011-11-27T11:33:58Z</time>
      </trkpt>
      <trkpt lat="43.8875" lon="3.61773">
        <ele>216.91</ele>
        <time>2011-11-27T11:34:07Z</time>
      </trkpt>
      <trkpt lat="43.88687" lon="3.61625">
        <ele>217.88</ele>
        <time>2011-11-27T11:34:15Z</time>
      </trkpt>
      <trkpt lat="43.88676" lon="3.61611">
        <ele>218.36</ele>
        <time>2011-11-27T11:34:16Z</time>
      </trkpt>
      <trkpt lat="43.88663" lon="3.61597">
        <ele>218.36</ele>
        <time>2011-11-27T11:34:17Z</time>
      </trkpt>
      <trkpt lat="43.88647" lon="3.61584">
        <ele>218.84</ele>
        <time>2011-11-27T11:34:18Z</time>
      </trkpt>
      <trkpt lat="43.88631" lon="3.61572">
        <ele>218.84</ele>
        <time>2011-11-27T11:34:19Z</time>
      </trkpt>
      <trkpt lat="43.88512" lon="3.61486">
        <ele>219.8</ele>
        <time>2011-11-27T11:34:27Z</time>
      </trkpt>
      <trkpt lat="43.88499" lon="3.61481">
        <ele>219.8</ele>
        <time>2011-11-27T11:34:28Z</time>
      </trkpt>
      <trkpt lat="43.88485" lon="3.61478">
        <ele>219.32</ele>
        <time>2011-11-27T11:34:29Z</time>
      </trkpt>
      <trkpt lat="43.88404" lon="3.61461">
        <ele>216.91</ele>
        <time>2011-11-27T11:34:35Z</time>
      </trkpt>
      <trkpt lat="43.88392" lon="3.61454">
        <ele>216.43</ele>
        <time>2011-11-27T11:34:36Z</time>
      </trkpt>
      <trkpt lat="43.88379" lon="3.61444">
        <ele>215.47</ele>
        <time>2011-11-27T11:34:37Z</time>
      </trkpt>
      <trkpt lat="43.88366" lon="3.61432">
        <ele>214.99</ele>
        <time>2011-11-27T11:34:38Z</time>
      </trkpt>
      <trkpt lat="43.88353" lon="3.61416">
        <ele>214.03</ele>
        <time>2011-11-27T11:34:39Z</time>
      </trkpt>
      <trkpt lat="43.88336" lon="3.61398">
        <ele>213.55</ele>
        <time>2011-11-27T11:34:40Z</time>
      </trkpt>
      <trkpt lat="43.88162" lon="3.61199">
        <ele>212.11</ele>
        <time>2011-11-27T11:34:50Z</time>
      </trkpt>
      <trkpt lat="43.87955" lon="3.60979">
        <ele>213.55</ele>
        <time>2011-11-27T11:35:01Z</time>
      </trkpt>
      <trkpt lat="43.8775" lon="3.60818">
        <ele>216.43</ele>
        <time>2011-11-27T11:35:12Z</time>
      </trkpt>
      <trkpt lat="43.87571" lon="3.60747">
        <ele>216.43</ele>
        <time>2011-11-27T11:35:21Z</time>
      </trkpt>
      <trkpt lat="43.8754" lon="3.60732">
        <ele>215.95</ele>
        <time>2011-11-27T11:35:23Z</time>
      </trkpt>
      <trkpt lat="43.87526" lon="3.60723">
        <ele>215.95</ele>
        <time>2011-11-27T11:35:24Z</time>
      </trkpt>
      <trkpt lat="43.87513" lon="3.60711">
        <ele>215.95</ele>
        <time>2011-11-27T11:35:25Z</time>
      </trkpt>
      <trkpt lat="43.87501" lon="3.60694">
        <ele>215.95</ele>
        <time>2011-11-27T11:35:26Z</time>
      </trkpt>
      <trkpt lat="43.87488" lon="3.60674">
        <ele>215.95</ele>
        <time>2011-11-27T11:35:27Z</time>
      </trkpt>
      <trkpt lat="43.87475" lon="3.60653">
        <ele>215.95</ele>
        <time>2011-11-27T11:35:28Z</time>
      </trkpt>
      <trkpt lat="43.87372" lon="3.60483">
        <ele>214.03</ele>
        <time>2011-11-27T11:35:36Z</time>
      </trkpt>
      <trkpt lat="43.8732" lon="3.60441">
        <ele>214.51</ele>
        <time>2011-11-27T11:35:41Z</time>
      </trkpt>
      <trkpt lat="43.87251" lon="3.60397">
        <ele>214.99</ele>
        <time>2011-11-27T11:35:49Z</time>
      </trkpt>
      <trkpt lat="43.87172" lon="3.60335">
        <ele>216.91</ele>
        <time>2011-11-27T11:35:57Z</time>
      </trkpt>
      <trkpt lat="43.87068" lon="3.60253">
        <ele>217.88</ele>
        <time>2011-11-27T11:36:09Z</time>
      </trkpt>
      <trkpt lat="43.8699" lon="3.60192">
        <ele>215.47</ele>
        <time>2011-11-27T11:36:17Z</time>
      </trkpt>
      <trkpt lat="43.86898" lon="3.60086">
        <ele>214.99</ele>
        <time>2011-11-27T11:36:26Z</time>
      </trkpt>
      <trkpt lat="43.86863" lon="3.60007">
        <ele>214.99</ele>
        <time>2011-11-27T11:36:33Z</time>
      </trkpt>
      <trkpt lat="43.86831" lon="3.59877">
        <ele>217.88</ele>
        <time>2011-11-27T11:36:42Z</time>
      </trkpt>
      <trkpt lat="43.86799" lon="3.59707">
        <ele>214.99</ele>
        <time>2011-11-27T11:36:50Z</time>
      </trkpt>
      <trkpt lat="43.86757" lon="3.59424">
        <ele>215.95</ele>
        <time>2011-11-27T11:37:02Z</time>
      </trkpt>
      <trkpt lat="43.86713" lon="3.59295">
        <ele>217.4</ele>
        <time>2011-11-27T11:37:09Z</time>
      </trkpt>
      <trkpt lat="43.86699" lon="3.59121">
        <ele>219.8</ele>
        <time>2011-11-27T11:37:17Z</time>
      </trkpt>
      <trkpt lat="43.8668" lon="3.58942">
        <ele>221.24</ele>
        <time>2011-11-27T11:37:25Z</time>
      </trkpt>
      <trkpt lat="43.86673" lon="3.58922">
        <ele>221.72</ele>
        <time>2011-11-27T11:37:26Z</time>
      </trkpt>
      <trkpt lat="43.86664" lon="3.58901">
        <ele>221.72</ele>
        <time>2011-11-27T11:37:27Z</time>
      </trkpt>
      <trkpt lat="43.86573" lon="3.5874">
        <ele>225.57</ele>
        <time>2011-11-27T11:37:35Z</time>
      </trkpt>
      <trkpt lat="43.86512" lon="3.58674">
        <ele>227.49</ele>
        <time>2011-11-27T11:37:40Z</time>
      </trkpt>
      <trkpt lat="43.86459" lon="3.58637">
        <ele>225.09</ele>
        <time>2011-11-27T11:37:45Z</time>
      </trkpt>
      <trkpt lat="43.86452" lon="3.58634">
        <ele>224.12</ele>
        <time>2011-11-27T11:37:46Z</time>
      </trkpt>
      <trkpt lat="43.8643" lon="3.58631">
        <ele>222.2</ele>
        <time>2011-11-27T11:37:49Z</time>
      </trkpt>
      <trkpt lat="43.86355" lon="3.58633">
        <ele>220.28</ele>
        <time>2011-11-27T11:37:56Z</time>
      </trkpt>
      <trkpt lat="43.86273" lon="3.58626">
        <ele>220.76</ele>
        <time>2011-11-27T11:38:01Z</time>
      </trkpt>
      <trkpt lat="43.86105" lon="3.58585">
        <ele>221.72</ele>
        <time>2011-11-27T11:38:10Z</time>
      </trkpt>
      <trkpt lat="43.86024" lon="3.58527">
        <ele>222.2</ele>
        <time>2011-11-27T11:38:17Z</time>
      </trkpt>
      <trkpt lat="43.85965" lon="3.5844">
        <ele>226.53</ele>
        <time>2011-11-27T11:38:25Z</time>
      </trkpt>
      <trkpt lat="43.85923" lon="3.58336">
        <ele>227.49</ele>
        <time>2011-11-27T11:38:32Z</time>
      </trkpt>
      <trkpt lat="43.85913" lon="3.58308">
        <ele>227.97</ele>
        <time>2011-11-27T11:38:34Z</time>
      </trkpt>
      <trkpt lat="43.8591" lon="3.58293">
        <ele>227.49</ele>
        <time>2011-11-27T11:38:35Z</time>
      </trkpt>
      <trkpt lat="43.85897" lon="3.58144">
        <ele>228.45</ele>
        <time>2011-11-27T11:38:42Z</time>
      </trkpt>
      <trkpt lat="43.85868" lon="3.57859">
        <ele>233.26</ele>
        <time>2011-11-27T11:38:53Z</time>
      </trkpt>
      <trkpt lat="43.85861" lon="3.57835">
        <ele>233.74</ele>
        <time>2011-11-27T11:38:54Z</time>
      </trkpt>
      <trkpt lat="43.85852" lon="3.57811">
        <ele>234.22</ele>
        <time>2011-11-27T11:38:55Z</time>
      </trkpt>
      <trkpt lat="43.85756" lon="3.57632">
        <ele>235.18</ele>
        <time>2011-11-27T11:39:03Z</time>
      </trkpt>
      <trkpt lat="43.85537" lon="3.57304">
        <ele>240.47</ele>
        <time>2011-11-27T11:39:18Z</time>
      </trkpt>
      <trkpt lat="43.85394" lon="3.57072">
        <ele>243.35</ele>
        <time>2011-11-27T11:39:29Z</time>
      </trkpt>
      <trkpt lat="43.85359" lon="3.5703">
        <ele>243.83</ele>
        <time>2011-11-27T11:39:32Z</time>
      </trkpt>
      <trkpt lat="43.8535" lon="3.57015">
        <ele>243.83</ele>
        <time>2011-11-27T11:39:33Z</time>
      </trkpt>
      <trkpt lat="43.85344" lon="3.56999">
        <ele>243.83</ele>
        <time>2011-11-27T11:39:34Z</time>
      </trkpt>
      <trkpt lat="43.8534" lon="3.56984">
        <ele>243.83</ele>
        <time>2011-11-27T11:39:35Z</time>
      </trkpt>
      <trkpt lat="43.85341" lon="3.56968">
        <ele>243.35</ele>
        <time>2011-11-27T11:39:36Z</time>
      </trkpt>
      <trkpt lat="43.85343" lon="3.5695">
        <ele>243.35</ele>
        <time>2011-11-27T11:39:37Z</time>
      </trkpt>
      <trkpt lat="43.85347" lon="3.56929">
        <ele>243.35</ele>
        <time>2011-11-27T11:39:38Z</time>
      </trkpt>
      <trkpt lat="43.85374" lon="3.56741">
        <ele>242.87</ele>
        <time>2011-11-27T11:39:46Z</time>
      </trkpt>
      <trkpt lat="43.8538" lon="3.56721">
        <ele>242.87</ele>
        <time>2011-11-27T11:39:47Z</time>
      </trkpt>
      <trkpt lat="43.85387" lon="3.56703">
        <ele>242.87</ele>
        <time>2011-11-27T11:39:48Z</time>
      </trkpt>
      <trkpt lat="43.85395" lon="3.56686">
        <ele>242.87</ele>
        <time>2011-11-27T11:39:49Z</time>
      </trkpt>
      <trkpt lat="43.85404" lon="3.5667">
        <ele>243.35</ele>
        <time>2011-11-27T11:39:50Z</time>
      </trkpt>
      <trkpt lat="43.85412" lon="3.56653">
        <ele>243.35</ele>
        <time>2011-11-27T11:39:51Z</time>
      </trkpt>
      <trkpt lat="43.85417" lon="3.56635">
        <ele>243.35</ele>
        <time>2011-11-27T11:39:52Z</time>
      </trkpt>
      <trkpt lat="43.85421" lon="3.56615">
        <ele>243.83</ele>
        <time>2011-11-27T11:39:53Z</time>
      </trkpt>
      <trkpt lat="43.85423" lon="3.56594">
        <ele>243.83</ele>
        <time>2011-11-27T11:39:54Z</time>
      </trkpt>
      <trkpt lat="43.85425" lon="3.56572">
        <ele>243.83</ele>
        <time>2011-11-27T11:39:55Z</time>
      </trkpt>
      <trkpt lat="43.85435" lon="3.56473">
        <ele>243.35</ele>
        <time>2011-11-27T11:40:02Z</time>
      </trkpt>
      <trkpt lat="43.85437" lon="3.56468">
        <ele>243.35</ele>
        <time>2011-11-27T11:40:03Z</time>
      </trkpt>
      <trkpt lat="43.85439" lon="3.56465">
        <ele>243.35</ele>
        <time>2011-11-27T11:40:04Z</time>
      </trkpt>
      <trkpt lat="43.85443" lon="3.56463">
        <ele>243.35</ele>
        <time>2011-11-27T11:40:05Z</time>
      </trkpt>
      <trkpt lat="43.85448" lon="3.56464">
        <ele>243.35</ele>
        <time>2011-11-27T11:40:06Z</time>
      </trkpt>
      <trkpt lat="43.85453" lon="3.56468">
        <ele>243.35</ele>
        <time>2011-11-27T11:40:07Z</time>
      </trkpt>
      <trkpt lat="43.85458" lon="3.56475">
        <ele>243.35</ele>
        <time>2011-11-27T11:40:08Z</time>
      </trkpt>
      <trkpt lat="43.85462" lon="3.56484">
        <ele>243.83</ele>
        <time>2011-11-27T11:40:09Z</time>
      </trkpt>
      <trkpt lat="43.85464" lon="3.56497">
        <ele>244.31</ele>
        <time>2011-11-27T11:40:10Z</time>
      </trkpt>
      <trkpt lat="43.85465" lon="3.56511">
        <ele>244.79</ele>
        <time>2011-11-27T11:40:11Z</time>
      </trkpt>
      <trkpt lat="43.85466" lon="3.56527">
        <ele>245.27</ele>
        <time>2011-11-27T11:40:12Z</time>
      </trkpt>
      <trkpt lat="43.85466" lon="3.56544">
        <ele>245.75</ele>
        <time>2011-11-27T11:40:13Z</time>
      </trkpt>
      <trkpt lat="43.8547" lon="3.56631">
        <ele>250.08</ele>
        <time>2011-11-27T11:40:19Z</time>
      </trkpt>
      <trkpt lat="43.85473" lon="3.56637">
        <ele>251.52</ele>
        <time>2011-11-27T11:40:20Z</time>
      </trkpt>
      <trkpt lat="43.85477" lon="3.56641">
        <ele>252</ele>
        <time>2011-11-27T11:40:21Z</time>
      </trkpt>
      <trkpt lat="43.85482" lon="3.5664">
        <ele>252.48</ele>
        <time>2011-11-27T11:40:22Z</time>
      </trkpt>
      <trkpt lat="43.85487" lon="3.56635">
        <ele>253.44</ele>
        <time>2011-11-27T11:40:23Z</time>
      </trkpt>
      <trkpt lat="43.85492" lon="3.56627">
        <ele>254.41</ele>
        <time>2011-11-27T11:40:24Z</time>
      </trkpt>
      <trkpt lat="43.85496" lon="3.56615">
        <ele>256.33</ele>
        <time>2011-11-27T11:40:25Z</time>
      </trkpt>
      <trkpt lat="43.85501" lon="3.56601">
        <ele>257.77</ele>
        <time>2011-11-27T11:40:26Z</time>
      </trkpt>
      <trkpt lat="43.85562" lon="3.56501">
        <ele>268.83</ele>
        <time>2011-11-27T11:40:34Z</time>
      </trkpt>
      <trkpt lat="43.85574" lon="3.56483">
        <ele>270.75</ele>
        <time>2011-11-27T11:40:36Z</time>
      </trkpt>
      <trkpt lat="43.85578" lon="3.56472">
        <ele>271.71</ele>
        <time>2011-11-27T11:40:37Z</time>
      </trkpt>
      <trkpt lat="43.85579" lon="3.56461">
        <ele>272.67</ele>
        <time>2011-11-27T11:40:38Z</time>
      </trkpt>
      <trkpt lat="43.85579" lon="3.56448">
        <ele>273.63</ele>
        <time>2011-11-27T11:40:39Z</time>
      </trkpt>
      <trkpt lat="43.85577" lon="3.56434">
        <ele>274.59</ele>
        <time>2011-11-27T11:40:40Z</time>
      </trkpt>
      <trkpt lat="43.85576" lon="3.56421">
        <ele>275.56</ele>
        <time>2011-11-27T11:40:41Z</time>
      </trkpt>
      <trkpt lat="43.85572" lon="3.56383">
        <ele>278.44</ele>
        <time>2011-11-27T11:40:45Z</time>
      </trkpt>
      <trkpt lat="43.85574" lon="3.56379">
        <ele>278.92</ele>
        <time>2011-11-27T11:40:46Z</time>
      </trkpt>
      <trkpt lat="43.85577" lon="3.56378">
        <ele>279.4</ele>
        <time>2011-11-27T11:40:47Z</time>
      </trkpt>
      <trkpt lat="43.85581" lon="3.56379">
        <ele>279.4</ele>
        <time>2011-11-27T11:40:48Z</time>
      </trkpt>
      <trkpt lat="43.85584" lon="3.56384">
        <ele>279.88</ele>
        <time>2011-11-27T11:40:49Z</time>
      </trkpt>
      <trkpt lat="43.85586" lon="3.56391">
        <ele>279.88</ele>
        <time>2011-11-27T11:40:50Z</time>
      </trkpt>
      <trkpt lat="43.85588" lon="3.564">
        <ele>280.36</ele>
        <time>2011-11-27T11:40:51Z</time>
      </trkpt>
      <trkpt lat="43.85589" lon="3.56411">
        <ele>280.36</ele>
        <time>2011-11-27T11:40:52Z</time>
      </trkpt>
      <trkpt lat="43.85592" lon="3.56422">
        <ele>280.84</ele>
        <time>2011-11-27T11:40:53Z</time>
      </trkpt>
      <trkpt lat="43.85595" lon="3.56432">
        <ele>281.32</ele>
        <time>2011-11-27T11:40:54Z</time>
      </trkpt>
      <trkpt lat="43.85608" lon="3.56474">
        <ele>283.25</ele>
        <time>2011-11-27T11:40:59Z</time>
      </trkpt>
      <trkpt lat="43.85608" lon="3.56482">
        <ele>283.25</ele>
        <time>2011-11-27T11:41:00Z</time>
      </trkpt>
      <trkpt lat="43.85606" lon="3.56491">
        <ele>283.73</ele>
        <time>2011-11-27T11:41:01Z</time>
      </trkpt>
      <trkpt lat="43.85601" lon="3.565">
        <ele>284.21</ele>
        <time>2011-11-27T11:41:02Z</time>
      </trkpt>
      <trkpt lat="43.85595" lon="3.56509">
        <ele>284.69</ele>
        <time>2011-11-27T11:41:03Z</time>
      </trkpt>
      <trkpt lat="43.85587" lon="3.56519">
        <ele>285.65</ele>
        <time>2011-11-27T11:41:04Z</time>
      </trkpt>
      <trkpt lat="43.85572" lon="3.5654">
        <ele>287.09</ele>
        <time>2011-11-27T11:41:06Z</time>
      </trkpt>
      <trkpt lat="43.85566" lon="3.56553">
        <ele>287.57</ele>
        <time>2011-11-27T11:41:07Z</time>
      </trkpt>
      <trkpt lat="43.85563" lon="3.56566">
        <ele>288.05</ele>
        <time>2011-11-27T11:41:08Z</time>
      </trkpt>
      <trkpt lat="43.85561" lon="3.56581">
        <ele>288.05</ele>
        <time>2011-11-27T11:41:09Z</time>
      </trkpt>
      <trkpt lat="43.85563" lon="3.56598">
        <ele>288.53</ele>
        <time>2011-11-27T11:41:10Z</time>
      </trkpt>
      <trkpt lat="43.85565" lon="3.56615">
        <ele>288.53</ele>
        <time>2011-11-27T11:41:11Z</time>
      </trkpt>
      <trkpt lat="43.85568" lon="3.56631">
        <ele>288.53</ele>
        <time>2011-11-27T11:41:12Z</time>
      </trkpt>
      <trkpt lat="43.85574" lon="3.56671">
        <ele>289.97</ele>
        <time>2011-11-27T11:41:15Z</time>
      </trkpt>
      <trkpt lat="43.85573" lon="3.56682">
        <ele>290.46</ele>
        <time>2011-11-27T11:41:16Z</time>
      </trkpt>
      <trkpt lat="43.85569" lon="3.56693">
        <ele>290.46</ele>
        <time>2011-11-27T11:41:17Z</time>
      </trkpt>
      <trkpt lat="43.85562" lon="3.56705">
        <ele>291.42</ele>
        <time>2011-11-27T11:41:18Z</time>
      </trkpt>
      <trkpt lat="43.85552" lon="3.56715">
        <ele>292.38</ele>
        <time>2011-11-27T11:41:19Z</time>
      </trkpt>
      <trkpt lat="43.85541" lon="3.56726">
        <ele>293.34</ele>
        <time>2011-11-27T11:41:20Z</time>
      </trkpt>
      <trkpt lat="43.85531" lon="3.56735">
        <ele>293.82</ele>
        <time>2011-11-27T11:41:21Z</time>
      </trkpt>
      <trkpt lat="43.85522" lon="3.56746">
        <ele>294.78</ele>
        <time>2011-11-27T11:41:22Z</time>
      </trkpt>
      <trkpt lat="43.85514" lon="3.56758">
        <ele>295.74</ele>
        <time>2011-11-27T11:41:23Z</time>
      </trkpt>
      <trkpt lat="43.85506" lon="3.56772">
        <ele>296.22</ele>
        <time>2011-11-27T11:41:24Z</time>
      </trkpt>
      <trkpt lat="43.85483" lon="3.56814">
        <ele>299.11</ele>
        <time>2011-11-27T11:41:28Z</time>
      </trkpt>
      <trkpt lat="43.85483" lon="3.5682">
        <ele>299.11</ele>
        <time>2011-11-27T11:41:29Z</time>
      </trkpt>
      <trkpt lat="43.85485" lon="3.56824">
        <ele>300.07</ele>
        <time>2011-11-27T11:41:30Z</time>
      </trkpt>
      <trkpt lat="43.85489" lon="3.56826">
        <ele>300.55</ele>
        <time>2011-11-27T11:41:31Z</time>
      </trkpt>
      <trkpt lat="43.85494" lon="3.56824">
        <ele>300.55</ele>
        <time>2011-11-27T11:41:32Z</time>
      </trkpt>
      <trkpt lat="43.85499" lon="3.56818">
        <ele>301.03</ele>
        <time>2011-11-27T11:41:33Z</time>
      </trkpt>
      <trkpt lat="43.85505" lon="3.56809">
        <ele>301.99</ele>
        <time>2011-11-27T11:41:34Z</time>
      </trkpt>
      <trkpt lat="43.85511" lon="3.56798">
        <ele>302.47</ele>
        <time>2011-11-27T11:41:35Z</time>
      </trkpt>
      <trkpt lat="43.85518" lon="3.56788">
        <ele>303.91</ele>
        <time>2011-11-27T11:41:36Z</time>
      </trkpt>
      <trkpt lat="43.85526" lon="3.56778">
        <ele>305.36</ele>
        <time>2011-11-27T11:41:37Z</time>
      </trkpt>
      <trkpt lat="43.85535" lon="3.5677">
        <ele>306.32</ele>
        <time>2011-11-27T11:41:38Z</time>
      </trkpt>
      <trkpt lat="43.85544" lon="3.56764">
        <ele>307.28</ele>
        <time>2011-11-27T11:41:39Z</time>
      </trkpt>
      <trkpt lat="43.85554" lon="3.56758">
        <ele>308.24</ele>
        <time>2011-11-27T11:41:40Z</time>
      </trkpt>
      <trkpt lat="43.85565" lon="3.56753">
        <ele>309.2</ele>
        <time>2011-11-27T11:41:41Z</time>
      </trkpt>
      <trkpt lat="43.85613" lon="3.5673">
        <ele>314.01</ele>
        <time>2011-11-27T11:41:46Z</time>
      </trkpt>
      <trkpt lat="43.8562" lon="3.56722">
        <ele>315.45</ele>
        <time>2011-11-27T11:41:47Z</time>
      </trkpt>
      <trkpt lat="43.85623" lon="3.56711">
        <ele>316.89</ele>
        <time>2011-11-27T11:41:48Z</time>
      </trkpt>
      <trkpt lat="43.85626" lon="3.56696">
        <ele>319.3</ele>
        <time>2011-11-27T11:41:49Z</time>
      </trkpt>
      <trkpt lat="43.85628" lon="3.56679">
        <ele>321.22</ele>
        <time>2011-11-27T11:41:50Z</time>
      </trkpt>
      <trkpt lat="43.85632" lon="3.56631">
        <ele>324.58</ele>
        <time>2011-11-27T11:41:53Z</time>
      </trkpt>
      <trkpt lat="43.85631" lon="3.56617">
        <ele>326.02</ele>
        <time>2011-11-27T11:41:54Z</time>
      </trkpt>
      <trkpt lat="43.85629" lon="3.56604">
        <ele>326.99</ele>
        <time>2011-11-27T11:41:55Z</time>
      </trkpt>
      <trkpt lat="43.85627" lon="3.56592">
        <ele>327.95</ele>
        <time>2011-11-27T11:41:56Z</time>
      </trkpt>
      <trkpt lat="43.85628" lon="3.56581">
        <ele>328.91</ele>
        <time>2011-11-27T11:41:57Z</time>
      </trkpt>
      <trkpt lat="43.8563" lon="3.56572">
        <ele>329.87</ele>
        <time>2011-11-27T11:41:58Z</time>
      </trkpt>
      <trkpt lat="43.85634" lon="3.56565">
        <ele>330.83</ele>
        <time>2011-11-27T11:41:59Z</time>
      </trkpt>
      <trkpt lat="43.85642" lon="3.56559">
        <ele>331.31</ele>
        <time>2011-11-27T11:42:00Z</time>
      </trkpt>
      <trkpt lat="43.85652" lon="3.56553">
        <ele>332.27</ele>
        <time>2011-11-27T11:42:01Z</time>
      </trkpt>
      <trkpt lat="43.85664" lon="3.56549">
        <ele>333.71</ele>
        <time>2011-11-27T11:42:02Z</time>
      </trkpt>
      <trkpt lat="43.85675" lon="3.56546">
        <ele>334.68</ele>
        <time>2011-11-27T11:42:03Z</time>
      </trkpt>
      <trkpt lat="43.85685" lon="3.56541">
        <ele>335.16</ele>
        <time>2011-11-27T11:42:04Z</time>
      </trkpt>
      <trkpt lat="43.85694" lon="3.56533">
        <ele>336.12</ele>
        <time>2011-11-27T11:42:05Z</time>
      </trkpt>
      <trkpt lat="43.85701" lon="3.56523">
        <ele>336.6</ele>
        <time>2011-11-27T11:42:06Z</time>
      </trkpt>
      <trkpt lat="43.85706" lon="3.56509">
        <ele>337.56</ele>
        <time>2011-11-27T11:42:07Z</time>
      </trkpt>
      <trkpt lat="43.85709" lon="3.56493">
        <ele>338.04</ele>
        <time>2011-11-27T11:42:08Z</time>
      </trkpt>
      <trkpt lat="43.85711" lon="3.56476">
        <ele>339</ele>
        <time>2011-11-27T11:42:09Z</time>
      </trkpt>
      <trkpt lat="43.85711" lon="3.5646">
        <ele>339.96</ele>
        <time>2011-11-27T11:42:10Z</time>
      </trkpt>
      <trkpt lat="43.85712" lon="3.56444">
        <ele>340.92</ele>
        <time>2011-11-27T11:42:11Z</time>
      </trkpt>
      <trkpt lat="43.85714" lon="3.56413">
        <ele>342.85</ele>
        <time>2011-11-27T11:42:13Z</time>
      </trkpt>
      <trkpt lat="43.85716" lon="3.56398">
        <ele>343.81</ele>
        <time>2011-11-27T11:42:14Z</time>
      </trkpt>
      <trkpt lat="43.85721" lon="3.56382">
        <ele>344.77</ele>
        <time>2011-11-27T11:42:15Z</time>
      </trkpt>
      <trkpt lat="43.85731" lon="3.56353">
        <ele>347.17</ele>
        <time>2011-11-27T11:42:17Z</time>
      </trkpt>
      <trkpt lat="43.85736" lon="3.56342">
        <ele>348.62</ele>
        <time>2011-11-27T11:42:18Z</time>
      </trkpt>
      <trkpt lat="43.85742" lon="3.56334">
        <ele>349.58</ele>
        <time>2011-11-27T11:42:19Z</time>
      </trkpt>
      <trkpt lat="43.85746" lon="3.56329">
        <ele>351.02</ele>
        <time>2011-11-27T11:42:20Z</time>
      </trkpt>
      <trkpt lat="43.8575" lon="3.56328">
        <ele>351.5</ele>
        <time>2011-11-27T11:42:21Z</time>
      </trkpt>
      <trkpt lat="43.85752" lon="3.5633">
        <ele>352.46</ele>
        <time>2011-11-27T11:42:22Z</time>
      </trkpt>
      <trkpt lat="43.85754" lon="3.56334">
        <ele>353.42</ele>
        <time>2011-11-27T11:42:23Z</time>
      </trkpt>
      <trkpt lat="43.85754" lon="3.56339">
        <ele>353.9</ele>
        <time>2011-11-27T11:42:24Z</time>
      </trkpt>
      <trkpt lat="43.85753" lon="3.56343">
        <ele>354.38</ele>
        <time>2011-11-27T11:42:25Z</time>
      </trkpt>
      <trkpt lat="43.85746" lon="3.56349">
        <ele>355.34</ele>
        <time>2011-11-27T11:42:30Z</time>
      </trkpt>
      <trkpt lat="43.85746" lon="3.56355">
        <ele>353.42</ele>
        <time>2011-11-27T11:42:48Z</time>
      </trkpt>
      <trkpt lat="43.85736" lon="3.5635">
        <ele>364</ele>
        <time>2011-11-27T11:47:12Z</time>
      </trkpt>
      <trkpt lat="43.8574" lon="3.56352">
        <ele>361.59</ele>
        <time>2011-11-27T11:47:55Z</time>
      </trkpt>
      <trkpt lat="43.8574" lon="3.56397">
        <ele>363.52</ele>
        <time>2011-11-27T11:48:36Z</time>
      </trkpt>
      <trkpt lat="43.85741" lon="3.56518">
        <ele>368.32</ele>
        <time>2011-11-27T11:48:45Z</time>
      </trkpt>
      <trkpt lat="43.85736" lon="3.56569">
        <ele>370.24</ele>
        <time>2011-11-27T11:48:49Z</time>
      </trkpt>
      <trkpt lat="43.85732" lon="3.56581">
        <ele>370.73</ele>
        <time>2011-11-27T11:48:50Z</time>
      </trkpt>
      <trkpt lat="43.85728" lon="3.56592">
        <ele>371.69</ele>
        <time>2011-11-27T11:48:51Z</time>
      </trkpt>
      <trkpt lat="43.85718" lon="3.56618">
        <ele>373.13</ele>
        <time>2011-11-27T11:48:54Z</time>
      </trkpt>
      <trkpt lat="43.85717" lon="3.56627">
        <ele>373.61</ele>
        <time>2011-11-27T11:48:55Z</time>
      </trkpt>
      <trkpt lat="43.85716" lon="3.56639">
        <ele>374.09</ele>
        <time>2011-11-27T11:48:56Z</time>
      </trkpt>
      <trkpt lat="43.85709" lon="3.56763">
        <ele>376.49</ele>
        <time>2011-11-27T11:49:05Z</time>
      </trkpt>
      <trkpt lat="43.85704" lon="3.56799">
        <ele>378.9</ele>
        <time>2011-11-27T11:49:09Z</time>
      </trkpt>
      <trkpt lat="43.85708" lon="3.5681">
        <ele>379.86</ele>
        <time>2011-11-27T11:49:11Z</time>
      </trkpt>
      <trkpt lat="43.85713" lon="3.56812">
        <ele>380.34</ele>
        <time>2011-11-27T11:49:12Z</time>
      </trkpt>
      <trkpt lat="43.85717" lon="3.56811">
        <ele>380.34</ele>
        <time>2011-11-27T11:49:13Z</time>
      </trkpt>
      <trkpt lat="43.8572" lon="3.56807">
        <ele>380.82</ele>
        <time>2011-11-27T11:49:14Z</time>
      </trkpt>
      <trkpt lat="43.85722" lon="3.56801">
        <ele>381.3</ele>
        <time>2011-11-27T11:49:15Z</time>
      </trkpt>
      <trkpt lat="43.85723" lon="3.56792">
        <ele>382.26</ele>
        <time>2011-11-27T11:49:16Z</time>
      </trkpt>
      <trkpt lat="43.85724" lon="3.56781">
        <ele>382.74</ele>
        <time>2011-11-27T11:49:17Z</time>
      </trkpt>
      <trkpt lat="43.85746" lon="3.56675">
        <ele>388.51</ele>
        <time>2011-11-27T11:49:24Z</time>
      </trkpt>
      <trkpt lat="43.85803" lon="3.56547">
        <ele>400.05</ele>
        <time>2011-11-27T11:49:32Z</time>
      </trkpt>
      <trkpt lat="43.85808" lon="3.56529">
        <ele>401.97</ele>
        <time>2011-11-27T11:49:33Z</time>
      </trkpt>
      <trkpt lat="43.85832" lon="3.56428">
        <ele>409.66</ele>
        <time>2011-11-27T11:49:39Z</time>
      </trkpt>
      <trkpt lat="43.85838" lon="3.56414">
        <ele>411.1</ele>
        <time>2011-11-27T11:49:40Z</time>
      </trkpt>
      <trkpt lat="43.85845" lon="3.564">
        <ele>412.54</ele>
        <time>2011-11-27T11:49:41Z</time>
      </trkpt>
      <trkpt lat="43.85868" lon="3.56363">
        <ele>416.87</ele>
        <time>2011-11-27T11:49:44Z</time>
      </trkpt>
      <trkpt lat="43.85877" lon="3.56353">
        <ele>417.83</ele>
        <time>2011-11-27T11:49:45Z</time>
      </trkpt>
      <trkpt lat="43.85886" lon="3.56345">
        <ele>419.27</ele>
        <time>2011-11-27T11:49:46Z</time>
      </trkpt>
      <trkpt lat="43.85896" lon="3.56339">
        <ele>420.23</ele>
        <time>2011-11-27T11:49:47Z</time>
      </trkpt>
      <trkpt lat="43.85906" lon="3.56334">
        <ele>421.19</ele>
        <time>2011-11-27T11:49:48Z</time>
      </trkpt>
      <trkpt lat="43.85916" lon="3.5633">
        <ele>422.64</ele>
        <time>2011-11-27T11:49:49Z</time>
      </trkpt>
      <trkpt lat="43.85925" lon="3.56324">
        <ele>423.6</ele>
        <time>2011-11-27T11:49:50Z</time>
      </trkpt>
      <trkpt lat="43.85932" lon="3.56318">
        <ele>425.04</ele>
        <time>2011-11-27T11:49:51Z</time>
      </trkpt>
      <trkpt lat="43.85938" lon="3.56311">
        <ele>426</ele>
        <time>2011-11-27T11:49:52Z</time>
      </trkpt>
      <trkpt lat="43.85941" lon="3.56303">
        <ele>426.48</ele>
        <time>2011-11-27T11:49:53Z</time>
      </trkpt>
      <trkpt lat="43.85942" lon="3.56296">
        <ele>427.44</ele>
        <time>2011-11-27T11:49:54Z</time>
      </trkpt>
      <trkpt lat="43.85942" lon="3.5629">
        <ele>426.96</ele>
        <time>2011-11-27T11:49:55Z</time>
      </trkpt>
      <trkpt lat="43.85943" lon="3.56285">
        <ele>426.96</ele>
        <time>2011-11-27T11:49:56Z</time>
      </trkpt>
      <trkpt lat="43.85945" lon="3.56283">
        <ele>427.92</ele>
        <time>2011-11-27T11:49:57Z</time>
      </trkpt>
      <trkpt lat="43.85948" lon="3.56284">
        <ele>428.4</ele>
        <time>2011-11-27T11:49:58Z</time>
      </trkpt>
      <trkpt lat="43.85951" lon="3.56287">
        <ele>428.89</ele>
        <time>2011-11-27T11:49:59Z</time>
      </trkpt>
      <trkpt lat="43.85952" lon="3.56293">
        <ele>429.37</ele>
        <time>2011-11-27T11:50:00Z</time>
      </trkpt>
      <trkpt lat="43.85951" lon="3.563">
        <ele>429.85</ele>
        <time>2011-11-27T11:50:01Z</time>
      </trkpt>
      <trkpt lat="43.85949" lon="3.56309">
        <ele>430.33</ele>
        <time>2011-11-27T11:50:02Z</time>
      </trkpt>
      <trkpt lat="43.85945" lon="3.56317">
        <ele>430.33</ele>
        <time>2011-11-27T11:50:03Z</time>
      </trkpt>
      <trkpt lat="43.85939" lon="3.56323">
        <ele>430.81</ele>
        <time>2011-11-27T11:50:04Z</time>
      </trkpt>
      <trkpt lat="43.85934" lon="3.56328">
        <ele>430.81</ele>
        <time>2011-11-27T11:50:05Z</time>
      </trkpt>
      <trkpt lat="43.8593" lon="3.56332">
        <ele>431.29</ele>
        <time>2011-11-27T11:50:06Z</time>
      </trkpt>
      <trkpt lat="43.85927" lon="3.56337">
        <ele>431.77</ele>
        <time>2011-11-27T11:50:07Z</time>
      </trkpt>
      <trkpt lat="43.85926" lon="3.56342">
        <ele>432.25</ele>
        <time>2011-11-27T11:50:08Z</time>
      </trkpt>
      <trkpt lat="43.85928" lon="3.56347">
        <ele>432.25</ele>
        <time>2011-11-27T11:50:09Z</time>
      </trkpt>
      <trkpt lat="43.85931" lon="3.56349">
        <ele>432.73</ele>
        <time>2011-11-27T11:50:10Z</time>
      </trkpt>
      <trkpt lat="43.85937" lon="3.56349">
        <ele>432.73</ele>
        <time>2011-11-27T11:50:11Z</time>
      </trkpt>
      <trkpt lat="43.85943" lon="3.56345">
        <ele>433.69</ele>
        <time>2011-11-27T11:50:12Z</time>
      </trkpt>
      <trkpt lat="43.85949" lon="3.56339">
        <ele>434.65</ele>
        <time>2011-11-27T11:50:13Z</time>
      </trkpt>
      <trkpt lat="43.85954" lon="3.5633">
        <ele>435.61</ele>
        <time>2011-11-27T11:50:14Z</time>
      </trkpt>
      <trkpt lat="43.85958" lon="3.5632">
        <ele>436.1</ele>
        <time>2011-11-27T11:50:15Z</time>
      </trkpt>
      <trkpt lat="43.8596" lon="3.56306">
        <ele>437.06</ele>
        <time>2011-11-27T11:50:16Z</time>
      </trkpt>
      <trkpt lat="43.85962" lon="3.5629">
        <ele>438.02</ele>
        <time>2011-11-27T11:50:17Z</time>
      </trkpt>
      <trkpt lat="43.85963" lon="3.56271">
        <ele>439.94</ele>
        <time>2011-11-27T11:50:18Z</time>
      </trkpt>
      <trkpt lat="43.85978" lon="3.56127">
        <ele>448.11</ele>
        <time>2011-11-27T11:50:26Z</time>
      </trkpt>
      <trkpt lat="43.85982" lon="3.56084">
        <ele>450.52</ele>
        <time>2011-11-27T11:50:29Z</time>
      </trkpt>
      <trkpt lat="43.85985" lon="3.56072">
        <ele>451.48</ele>
        <time>2011-11-27T11:50:30Z</time>
      </trkpt>
      <trkpt lat="43.85989" lon="3.5606">
        <ele>452.44</ele>
        <time>2011-11-27T11:50:31Z</time>
      </trkpt>
      <trkpt lat="43.85994" lon="3.56044">
        <ele>454.36</ele>
        <time>2011-11-27T11:50:33Z</time>
      </trkpt>
      <trkpt lat="43.85995" lon="3.56038">
        <ele>454.84</ele>
        <time>2011-11-27T11:50:34Z</time>
      </trkpt>
      <trkpt lat="43.85994" lon="3.56034">
        <ele>455.32</ele>
        <time>2011-11-27T11:50:35Z</time>
      </trkpt>
      <trkpt lat="43.85994" lon="3.56031">
        <ele>455.32</ele>
        <time>2011-11-27T11:50:36Z</time>
      </trkpt>
      <trkpt lat="43.85994" lon="3.56029">
        <ele>455.32</ele>
        <time>2011-11-27T11:50:37Z</time>
      </trkpt>
      <trkpt lat="43.85995" lon="3.56028">
        <ele>454.84</ele>
        <time>2011-11-27T11:50:44Z</time>
      </trkpt>
      <trkpt lat="43.85995" lon="3.56026">
        <ele>454.84</ele>
        <time>2011-11-27T11:50:45Z</time>
      </trkpt>
      <trkpt lat="43.85996" lon="3.56025">
        <ele>454.84</ele>
        <time>2011-11-27T11:50:46Z</time>
      </trkpt>
      <trkpt lat="43.85996" lon="3.56026">
        <ele>453.88</ele>
        <time>2011-11-27T11:51:06Z</time>
      </trkpt>
      <trkpt lat="43.86004" lon="3.56021">
        <ele>451.96</ele>
        <time>2011-11-27T11:53:40Z</time>
      </trkpt>
      <trkpt lat="43.8601" lon="3.56019">
        <ele>451.96</ele>
        <time>2011-11-27T11:53:41Z</time>
      </trkpt>
      <trkpt lat="43.86017" lon="3.56018">
        <ele>452.44</ele>
        <time>2011-11-27T11:53:42Z</time>
      </trkpt>
      <trkpt lat="43.86024" lon="3.56017">
        <ele>452.92</ele>
        <time>2011-11-27T11:53:43Z</time>
      </trkpt>
      <trkpt lat="43.86032" lon="3.56018">
        <ele>453.4</ele>
        <time>2011-11-27T11:53:44Z</time>
      </trkpt>
      <trkpt lat="43.86041" lon="3.56021">
        <ele>453.4</ele>
        <time>2011-11-27T11:53:45Z</time>
      </trkpt>
      <trkpt lat="43.8605" lon="3.56024">
        <ele>453.4</ele>
        <time>2011-11-27T11:53:46Z</time>
      </trkpt>
      <trkpt lat="43.86094" lon="3.56044">
        <ele>453.88</ele>
        <time>2011-11-27T11:53:50Z</time>
      </trkpt>
      <trkpt lat="43.86104" lon="3.56052">
        <ele>454.36</ele>
        <time>2011-11-27T11:53:51Z</time>
      </trkpt>
      <trkpt lat="43.86115" lon="3.56062">
        <ele>453.88</ele>
        <time>2011-11-27T11:53:52Z</time>
      </trkpt>
      <trkpt lat="43.86204" lon="3.5615">
        <ele>460.13</ele>
        <time>2011-11-27T11:54:00Z</time>
      </trkpt>
      <trkpt lat="43.86217" lon="3.56158">
        <ele>461.57</ele>
        <time>2011-11-27T11:54:01Z</time>
      </trkpt>
      <trkpt lat="43.86293" lon="3.56194">
        <ele>466.86</ele>
        <time>2011-11-27T11:54:07Z</time>
      </trkpt>
      <trkpt lat="43.86304" lon="3.56202">
        <ele>467.34</ele>
        <time>2011-11-27T11:54:08Z</time>
      </trkpt>
      <trkpt lat="43.86314" lon="3.56211">
        <ele>468.3</ele>
        <time>2011-11-27T11:54:09Z</time>
      </trkpt>
      <trkpt lat="43.86324" lon="3.56223">
        <ele>469.26</ele>
        <time>2011-11-27T11:54:10Z</time>
      </trkpt>
      <trkpt lat="43.86332" lon="3.56235">
        <ele>469.74</ele>
        <time>2011-11-27T11:54:11Z</time>
      </trkpt>
      <trkpt lat="43.86339" lon="3.56248">
        <ele>470.22</ele>
        <time>2011-11-27T11:54:12Z</time>
      </trkpt>
      <trkpt lat="43.86346" lon="3.56259">
        <ele>470.7</ele>
        <time>2011-11-27T11:54:13Z</time>
      </trkpt>
      <trkpt lat="43.86353" lon="3.56267">
        <ele>471.18</ele>
        <time>2011-11-27T11:54:14Z</time>
      </trkpt>
      <trkpt lat="43.86361" lon="3.56272">
        <ele>471.66</ele>
        <time>2011-11-27T11:54:15Z</time>
      </trkpt>
      <trkpt lat="43.8637" lon="3.56275">
        <ele>472.63</ele>
        <time>2011-11-27T11:54:16Z</time>
      </trkpt>
      <trkpt lat="43.86378" lon="3.56273">
        <ele>473.11</ele>
        <time>2011-11-27T11:54:17Z</time>
      </trkpt>
      <trkpt lat="43.86386" lon="3.56269">
        <ele>473.59</ele>
        <time>2011-11-27T11:54:18Z</time>
      </trkpt>
      <trkpt lat="43.86393" lon="3.56261">
        <ele>473.59</ele>
        <time>2011-11-27T11:54:19Z</time>
      </trkpt>
      <trkpt lat="43.86399" lon="3.5625">
        <ele>475.03</ele>
        <time>2011-11-27T11:54:20Z</time>
      </trkpt>
      <trkpt lat="43.86405" lon="3.56237">
        <ele>476.47</ele>
        <time>2011-11-27T11:54:21Z</time>
      </trkpt>
      <trkpt lat="43.8641" lon="3.56225">
        <ele>477.91</ele>
        <time>2011-11-27T11:54:22Z</time>
      </trkpt>
      <trkpt lat="43.86416" lon="3.56214">
        <ele>478.87</ele>
        <time>2011-11-27T11:54:23Z</time>
      </trkpt>
      <trkpt lat="43.86422" lon="3.56204">
        <ele>479.84</ele>
        <time>2011-11-27T11:54:24Z</time>
      </trkpt>
      <trkpt lat="43.8643" lon="3.56196">
        <ele>480.8</ele>
        <time>2011-11-27T11:54:25Z</time>
      </trkpt>
      <trkpt lat="43.86439" lon="3.56189">
        <ele>481.28</ele>
        <time>2011-11-27T11:54:26Z</time>
      </trkpt>
      <trkpt lat="43.8645" lon="3.56183">
        <ele>481.76</ele>
        <time>2011-11-27T11:54:27Z</time>
      </trkpt>
      <trkpt lat="43.86548" lon="3.56124">
        <ele>486.56</ele>
        <time>2011-11-27T11:54:35Z</time>
      </trkpt>
      <trkpt lat="43.86559" lon="3.56121">
        <ele>487.05</ele>
        <time>2011-11-27T11:54:36Z</time>
      </trkpt>
      <trkpt lat="43.8657" lon="3.56122">
        <ele>487.53</ele>
        <time>2011-11-27T11:54:37Z</time>
      </trkpt>
      <trkpt lat="43.86579" lon="3.56127">
        <ele>488.01</ele>
        <time>2011-11-27T11:54:38Z</time>
      </trkpt>
      <trkpt lat="43.86586" lon="3.56135">
        <ele>488.97</ele>
        <time>2011-11-27T11:54:39Z</time>
      </trkpt>
      <trkpt lat="43.86593" lon="3.56145">
        <ele>489.93</ele>
        <time>2011-11-27T11:54:40Z</time>
      </trkpt>
      <trkpt lat="43.866" lon="3.56157">
        <ele>490.41</ele>
        <time>2011-11-27T11:54:41Z</time>
      </trkpt>
      <trkpt lat="43.86626" lon="3.5619">
        <ele>492.81</ele>
        <time>2011-11-27T11:54:44Z</time>
      </trkpt>
      <trkpt lat="43.86635" lon="3.56196">
        <ele>493.77</ele>
        <time>2011-11-27T11:54:45Z</time>
      </trkpt>
      <trkpt lat="43.86644" lon="3.56198">
        <ele>494.26</ele>
        <time>2011-11-27T11:54:46Z</time>
      </trkpt>
      <trkpt lat="43.86654" lon="3.56197">
        <ele>495.22</ele>
        <time>2011-11-27T11:54:47Z</time>
      </trkpt>
      <trkpt lat="43.86664" lon="3.56194">
        <ele>496.18</ele>
        <time>2011-11-27T11:54:48Z</time>
      </trkpt>
      <trkpt lat="43.86675" lon="3.56193">
        <ele>496.66</ele>
        <time>2011-11-27T11:54:49Z</time>
      </trkpt>
      <trkpt lat="43.86685" lon="3.56195">
        <ele>497.62</ele>
        <time>2011-11-27T11:54:50Z</time>
      </trkpt>
      <trkpt lat="43.86696" lon="3.56199">
        <ele>498.58</ele>
        <time>2011-11-27T11:54:51Z</time>
      </trkpt>
      <trkpt lat="43.86706" lon="3.56207">
        <ele>499.54</ele>
        <time>2011-11-27T11:54:52Z</time>
      </trkpt>
      <trkpt lat="43.86717" lon="3.56216">
        <ele>500.5</ele>
        <time>2011-11-27T11:54:53Z</time>
      </trkpt>
      <trkpt lat="43.86728" lon="3.56227">
        <ele>501.95</ele>
        <time>2011-11-27T11:54:54Z</time>
      </trkpt>
      <trkpt lat="43.86739" lon="3.56239">
        <ele>502.91</ele>
        <time>2011-11-27T11:54:55Z</time>
      </trkpt>
      <trkpt lat="43.86749" lon="3.56252">
        <ele>503.87</ele>
        <time>2011-11-27T11:54:56Z</time>
      </trkpt>
      <trkpt lat="43.86759" lon="3.56265">
        <ele>504.83</ele>
        <time>2011-11-27T11:54:57Z</time>
      </trkpt>
      <trkpt lat="43.86785" lon="3.56298">
        <ele>508.19</ele>
        <time>2011-11-27T11:55:00Z</time>
      </trkpt>
      <trkpt lat="43.86794" lon="3.56305">
        <ele>509.16</ele>
        <time>2011-11-27T11:55:01Z</time>
      </trkpt>
      <trkpt lat="43.86803" lon="3.56309">
        <ele>509.64</ele>
        <time>2011-11-27T11:55:02Z</time>
      </trkpt>
      <trkpt lat="43.86813" lon="3.56311">
        <ele>510.6</ele>
        <time>2011-11-27T11:55:03Z</time>
      </trkpt>
      <trkpt lat="43.86822" lon="3.56309">
        <ele>511.08</ele>
        <time>2011-11-27T11:55:04Z</time>
      </trkpt>
      <trkpt lat="43.86829" lon="3.56305">
        <ele>512.04</ele>
        <time>2011-11-27T11:55:05Z</time>
      </trkpt>
      <trkpt lat="43.86835" lon="3.56297">
        <ele>512.52</ele>
        <time>2011-11-27T11:55:06Z</time>
      </trkpt>
      <trkpt lat="43.86838" lon="3.56282">
        <ele>513</ele>
        <time>2011-11-27T11:55:07Z</time>
      </trkpt>
      <trkpt lat="43.86839" lon="3.56267">
        <ele>513</ele>
        <time>2011-11-27T11:55:08Z</time>
      </trkpt>
      <trkpt lat="43.8684" lon="3.5625">
        <ele>513.96</ele>
        <time>2011-11-27T11:55:09Z</time>
      </trkpt>
      <trkpt lat="43.86841" lon="3.56236">
        <ele>514.44</ele>
        <time>2011-11-27T11:55:10Z</time>
      </trkpt>
      <trkpt lat="43.86844" lon="3.56224">
        <ele>514.92</ele>
        <time>2011-11-27T11:55:11Z</time>
      </trkpt>
      <trkpt lat="43.86848" lon="3.56215">
        <ele>515.88</ele>
        <time>2011-11-27T11:55:12Z</time>
      </trkpt>
      <trkpt lat="43.86853" lon="3.5621">
        <ele>516.85</ele>
        <time>2011-11-27T11:55:13Z</time>
      </trkpt>
      <trkpt lat="43.8686" lon="3.56209">
        <ele>516.85</ele>
        <time>2011-11-27T11:55:14Z</time>
      </trkpt>
      <trkpt lat="43.86868" lon="3.56212">
        <ele>516.85</ele>
        <time>2011-11-27T11:55:15Z</time>
      </trkpt>
      <trkpt lat="43.86879" lon="3.56215">
        <ele>517.33</ele>
        <time>2011-11-27T11:55:16Z</time>
      </trkpt>
      <trkpt lat="43.86967" lon="3.56242">
        <ele>524.06</ele>
        <time>2011-11-27T11:55:23Z</time>
      </trkpt>
      <trkpt lat="43.86978" lon="3.56243">
        <ele>524.54</ele>
        <time>2011-11-27T11:55:24Z</time>
      </trkpt>
      <trkpt lat="43.86998" lon="3.56242">
        <ele>526.46</ele>
        <time>2011-11-27T11:55:26Z</time>
      </trkpt>
      <trkpt lat="43.87008" lon="3.56245">
        <ele>526.94</ele>
        <time>2011-11-27T11:55:27Z</time>
      </trkpt>
      <trkpt lat="43.87017" lon="3.56251">
        <ele>527.42</ele>
        <time>2011-11-27T11:55:28Z</time>
      </trkpt>
      <trkpt lat="43.87025" lon="3.5626">
        <ele>528.38</ele>
        <time>2011-11-27T11:55:29Z</time>
      </trkpt>
      <trkpt lat="43.87032" lon="3.56271">
        <ele>528.86</ele>
        <time>2011-11-27T11:55:30Z</time>
      </trkpt>
      <trkpt lat="43.87039" lon="3.56282">
        <ele>529.34</ele>
        <time>2011-11-27T11:55:31Z</time>
      </trkpt>
      <trkpt lat="43.87047" lon="3.56293">
        <ele>529.82</ele>
        <time>2011-11-27T11:55:32Z</time>
      </trkpt>
      <trkpt lat="43.87056" lon="3.563">
        <ele>530.3</ele>
        <time>2011-11-27T11:55:33Z</time>
      </trkpt>
      <trkpt lat="43.87066" lon="3.56304">
        <ele>530.79</ele>
        <time>2011-11-27T11:55:34Z</time>
      </trkpt>
      <trkpt lat="43.87077" lon="3.56303">
        <ele>531.75</ele>
        <time>2011-11-27T11:55:35Z</time>
      </trkpt>
      <trkpt lat="43.87089" lon="3.56299">
        <ele>532.71</ele>
        <time>2011-11-27T11:55:36Z</time>
      </trkpt>
      <trkpt lat="43.87101" lon="3.56293">
        <ele>533.67</ele>
        <time>2011-11-27T11:55:37Z</time>
      </trkpt>
      <trkpt lat="43.87114" lon="3.56285">
        <ele>534.63</ele>
        <time>2011-11-27T11:55:38Z</time>
      </trkpt>
      <trkpt lat="43.87148" lon="3.56268">
        <ele>537.99</ele>
        <time>2011-11-27T11:55:41Z</time>
      </trkpt>
      <trkpt lat="43.8716" lon="3.56265">
        <ele>538.96</ele>
        <time>2011-11-27T11:55:42Z</time>
      </trkpt>
      <trkpt lat="43.87173" lon="3.56264">
        <ele>539.44</ele>
        <time>2011-11-27T11:55:43Z</time>
      </trkpt>
      <trkpt lat="43.87223" lon="3.56266">
        <ele>541.84</ele>
        <time>2011-11-27T11:55:47Z</time>
      </trkpt>
      <trkpt lat="43.87234" lon="3.56271">
        <ele>542.32</ele>
        <time>2011-11-27T11:55:48Z</time>
      </trkpt>
      <trkpt lat="43.87245" lon="3.56279">
        <ele>543.28</ele>
        <time>2011-11-27T11:55:49Z</time>
      </trkpt>
      <trkpt lat="43.87256" lon="3.56289">
        <ele>544.24</ele>
        <time>2011-11-27T11:55:50Z</time>
      </trkpt>
      <trkpt lat="43.87267" lon="3.56301">
        <ele>544.24</ele>
        <time>2011-11-27T11:55:51Z</time>
      </trkpt>
      <trkpt lat="43.87366" lon="3.56413">
        <ele>544.72</ele>
        <time>2011-11-27T11:55:59Z</time>
      </trkpt>
      <trkpt lat="43.87412" lon="3.5646">
        <ele>547.13</ele>
        <time>2011-11-27T11:56:03Z</time>
      </trkpt>
      <trkpt lat="43.87426" lon="3.56468">
        <ele>547.61</ele>
        <time>2011-11-27T11:56:04Z</time>
      </trkpt>
      <trkpt lat="43.87439" lon="3.56473">
        <ele>548.09</ele>
        <time>2011-11-27T11:56:05Z</time>
      </trkpt>
      <trkpt lat="43.87464" lon="3.5648">
        <ele>548.09</ele>
        <time>2011-11-27T11:56:07Z</time>
      </trkpt>
      <trkpt lat="43.87475" lon="3.5648">
        <ele>548.09</ele>
        <time>2011-11-27T11:56:08Z</time>
      </trkpt>
      <trkpt lat="43.87487" lon="3.56476">
        <ele>548.09</ele>
        <time>2011-11-27T11:56:09Z</time>
      </trkpt>
      <trkpt lat="43.87498" lon="3.56465">
        <ele>548.09</ele>
        <time>2011-11-27T11:56:10Z</time>
      </trkpt>
      <trkpt lat="43.87507" lon="3.56454">
        <ele>548.57</ele>
        <time>2011-11-27T11:56:11Z</time>
      </trkpt>
      <trkpt lat="43.87516" lon="3.5644">
        <ele>549.53</ele>
        <time>2011-11-27T11:56:12Z</time>
      </trkpt>
      <trkpt lat="43.87545" lon="3.5641">
        <ele>551.93</ele>
        <time>2011-11-27T11:56:15Z</time>
      </trkpt>
      <trkpt lat="43.87554" lon="3.56404">
        <ele>552.9</ele>
        <time>2011-11-27T11:56:16Z</time>
      </trkpt>
      <trkpt lat="43.87565" lon="3.56399">
        <ele>553.38</ele>
        <time>2011-11-27T11:56:17Z</time>
      </trkpt>
      <trkpt lat="43.87576" lon="3.56397">
        <ele>553.86</ele>
        <time>2011-11-27T11:56:18Z</time>
      </trkpt>
      <trkpt lat="43.87588" lon="3.56395">
        <ele>554.34</ele>
        <time>2011-11-27T11:56:19Z</time>
      </trkpt>
      <trkpt lat="43.87601" lon="3.56395">
        <ele>554.82</ele>
        <time>2011-11-27T11:56:20Z</time>
      </trkpt>
      <trkpt lat="43.87615" lon="3.56396">
        <ele>554.82</ele>
        <time>2011-11-27T11:56:21Z</time>
      </trkpt>
      <trkpt lat="43.8763" lon="3.56398">
        <ele>554.34</ele>
        <time>2011-11-27T11:56:22Z</time>
      </trkpt>
      <trkpt lat="43.87773" lon="3.5641">
        <ele>555.78</ele>
        <time>2011-11-27T11:56:30Z</time>
      </trkpt>
      <trkpt lat="43.87884" lon="3.56433">
        <ele>561.07</ele>
        <time>2011-11-27T11:56:37Z</time>
      </trkpt>
      <trkpt lat="43.88025" lon="3.56492">
        <ele>565.39</ele>
        <time>2011-11-27T11:56:45Z</time>
      </trkpt>
      <trkpt lat="43.88184" lon="3.56571">
        <ele>566.83</ele>
        <time>2011-11-27T11:56:55Z</time>
      </trkpt>
      <trkpt lat="43.88375" lon="3.56678">
        <ele>561.55</ele>
        <time>2011-11-27T11:57:05Z</time>
      </trkpt>
      <trkpt lat="43.88511" lon="3.56751">
        <ele>563.95</ele>
        <time>2011-11-27T11:57:13Z</time>
      </trkpt>
      <trkpt lat="43.8865" lon="3.56809">
        <ele>559.14</ele>
        <time>2011-11-27T11:57:21Z</time>
      </trkpt>
      <trkpt lat="43.88738" lon="3.56846">
        <ele>556.26</ele>
        <time>2011-11-27T11:57:27Z</time>
      </trkpt>
      <trkpt lat="43.88947" lon="3.56933">
        <ele>557.7</ele>
        <time>2011-11-27T11:57:37Z</time>
      </trkpt>
      <trkpt lat="43.89316" lon="3.57084">
        <ele>562.99</ele>
        <time>2011-11-27T11:57:55Z</time>
      </trkpt>
      <trkpt lat="43.89543" lon="3.57164">
        <ele>566.35</ele>
        <time>2011-11-27T11:58:07Z</time>
      </trkpt>
      <trkpt lat="43.89715" lon="3.57216">
        <ele>567.32</ele>
        <time>2011-11-27T11:58:15Z</time>
      </trkpt>
      <trkpt lat="43.90035" lon="3.57311">
        <ele>569.72</ele>
        <time>2011-11-27T11:58:28Z</time>
      </trkpt>
      <trkpt lat="43.90407" lon="3.57413">
        <ele>571.64</ele>
        <time>2011-11-27T11:58:44Z</time>
      </trkpt>
      <trkpt lat="43.90582" lon="3.57491">
        <ele>571.16</ele>
        <time>2011-11-27T11:58:52Z</time>
      </trkpt>
      <trkpt lat="43.90868" lon="3.57688">
        <ele>577.89</ele>
        <time>2011-11-27T11:59:05Z</time>
      </trkpt>
      <trkpt lat="43.91109" lon="3.57854">
        <ele>585.1</ele>
        <time>2011-11-27T11:59:17Z</time>
      </trkpt>
      <trkpt lat="43.9144" lon="3.58055">
        <ele>584.14</ele>
        <time>2011-11-27T11:59:34Z</time>
      </trkpt>
      <trkpt lat="43.91621" lon="3.58166">
        <ele>580.29</ele>
        <time>2011-11-27T11:59:44Z</time>
      </trkpt>
      <trkpt lat="43.91897" lon="3.58333">
        <ele>592.31</ele>
        <time>2011-11-27T11:59:58Z</time>
      </trkpt>
      <trkpt lat="43.92121" lon="3.5847">
        <ele>602.4</ele>
        <time>2011-11-27T12:00:10Z</time>
      </trkpt>
      <trkpt lat="43.92335" lon="3.5861">
        <ele>613.94</ele>
        <time>2011-11-27T12:00:22Z</time>
      </trkpt>
      <trkpt lat="43.92417" lon="3.5869">
        <ele>616.82</ele>
        <time>2011-11-27T12:00:28Z</time>
      </trkpt>
      <trkpt lat="43.92423" lon="3.58701">
        <ele>616.82</ele>
        <time>2011-11-27T12:00:29Z</time>
      </trkpt>
      <trkpt lat="43.92427" lon="3.58713">
        <ele>616.82</ele>
        <time>2011-11-27T12:00:30Z</time>
      </trkpt>
      <trkpt lat="43.9243" lon="3.58727">
        <ele>616.82</ele>
        <time>2011-11-27T12:00:31Z</time>
      </trkpt>
      <trkpt lat="43.92433" lon="3.58741">
        <ele>617.3</ele>
        <time>2011-11-27T12:00:32Z</time>
      </trkpt>
      <trkpt lat="43.92435" lon="3.58755">
        <ele>617.3</ele>
        <time>2011-11-27T12:00:33Z</time>
      </trkpt>
      <trkpt lat="43.92451" lon="3.58848">
        <ele>617.3</ele>
        <time>2011-11-27T12:00:41Z</time>
      </trkpt>
      <trkpt lat="43.92499" lon="3.58948">
        <ele>618.26</ele>
        <time>2011-11-27T12:00:49Z</time>
      </trkpt>
      <trkpt lat="43.92504" lon="3.58958">
        <ele>618.26</ele>
        <time>2011-11-27T12:00:50Z</time>
      </trkpt>
      <trkpt lat="43.92509" lon="3.58969">
        <ele>618.75</ele>
        <time>2011-11-27T12:00:51Z</time>
      </trkpt>
      <trkpt lat="43.92513" lon="3.58981">
        <ele>618.75</ele>
        <time>2011-11-27T12:00:52Z</time>
      </trkpt>
      <trkpt lat="43.92516" lon="3.58992">
        <ele>619.23</ele>
        <time>2011-11-27T12:00:53Z</time>
      </trkpt>
      <trkpt lat="43.92518" lon="3.59002">
        <ele>619.23</ele>
        <time>2011-11-27T12:00:54Z</time>
      </trkpt>
      <trkpt lat="43.92519" lon="3.59011">
        <ele>619.23</ele>
        <time>2011-11-27T12:00:55Z</time>
      </trkpt>
      <trkpt lat="43.92521" lon="3.59032">
        <ele>619.71</ele>
        <time>2011-11-27T12:01:02Z</time>
      </trkpt>
      <trkpt lat="43.9252" lon="3.59028">
        <ele>620.19</ele>
        <time>2011-11-27T12:02:35Z</time>
      </trkpt>
      <trkpt lat="43.92527" lon="3.59048">
        <ele>619.71</ele>
        <time>2011-11-27T12:03:14Z</time>
      </trkpt>
      <trkpt lat="43.92532" lon="3.59058">
        <ele>619.71</ele>
        <time>2011-11-27T12:03:15Z</time>
      </trkpt>
      <trkpt lat="43.92538" lon="3.59067">
        <ele>619.23</ele>
        <time>2011-11-27T12:03:16Z</time>
      </trkpt>
      <trkpt lat="43.92546" lon="3.59076">
        <ele>619.23</ele>
        <time>2011-11-27T12:03:17Z</time>
      </trkpt>
      <trkpt lat="43.92597" lon="3.59132">
        <ele>619.71</ele>
        <time>2011-11-27T12:03:23Z</time>
      </trkpt>
      <trkpt lat="43.92604" lon="3.59143">
        <ele>619.71</ele>
        <time>2011-11-27T12:03:24Z</time>
      </trkpt>
      <trkpt lat="43.92651" lon="3.59243">
        <ele>619.71</ele>
        <time>2011-11-27T12:03:34Z</time>
      </trkpt>
      <trkpt lat="43.92671" lon="3.59276">
        <ele>620.67</ele>
        <time>2011-11-27T12:03:38Z</time>
      </trkpt>
      <trkpt lat="43.92704" lon="3.59322">
        <ele>620.19</ele>
        <time>2011-11-27T12:03:45Z</time>
      </trkpt>
      <trkpt lat="43.92707" lon="3.59329">
        <ele>619.71</ele>
        <time>2011-11-27T12:03:46Z</time>
      </trkpt>
      <trkpt lat="43.92708" lon="3.59335">
        <ele>619.71</ele>
        <time>2011-11-27T12:03:47Z</time>
      </trkpt>
      <trkpt lat="43.92709" lon="3.5934">
        <ele>619.23</ele>
        <time>2011-11-27T12:03:48Z</time>
      </trkpt>
      <trkpt lat="43.92711" lon="3.59345">
        <ele>618.26</ele>
        <time>2011-11-27T12:03:49Z</time>
      </trkpt>
      <trkpt lat="43.92714" lon="3.5935">
        <ele>618.26</ele>
        <time>2011-11-27T12:03:50Z</time>
      </trkpt>
      <trkpt lat="43.92719" lon="3.59356">
        <ele>617.78</ele>
        <time>2011-11-27T12:03:51Z</time>
      </trkpt>
      <trkpt lat="43.92725" lon="3.59363">
        <ele>617.3</ele>
        <time>2011-11-27T12:03:52Z</time>
      </trkpt>
      <trkpt lat="43.92789" lon="3.59428">
        <ele>610.57</ele>
        <time>2011-11-27T12:04:02Z</time>
      </trkpt>
      <trkpt lat="43.92797" lon="3.59432">
        <ele>610.09</ele>
        <time>2011-11-27T12:04:03Z</time>
      </trkpt>
      <trkpt lat="43.92805" lon="3.59434">
        <ele>610.09</ele>
        <time>2011-11-27T12:04:04Z</time>
      </trkpt>
      <trkpt lat="43.92813" lon="3.59433">
        <ele>609.13</ele>
        <time>2011-11-27T12:04:05Z</time>
      </trkpt>
      <trkpt lat="43.92822" lon="3.59429">
        <ele>609.13</ele>
        <time>2011-11-27T12:04:06Z</time>
      </trkpt>
      <trkpt lat="43.92832" lon="3.59423">
        <ele>608.65</ele>
        <time>2011-11-27T12:04:07Z</time>
      </trkpt>
      <trkpt lat="43.92844" lon="3.59416">
        <ele>607.69</ele>
        <time>2011-11-27T12:04:08Z</time>
      </trkpt>
      <trkpt lat="43.92885" lon="3.59381">
        <ele>605.77</ele>
        <time>2011-11-27T12:04:12Z</time>
      </trkpt>
      <trkpt lat="43.92894" lon="3.59369">
        <ele>603.85</ele>
        <time>2011-11-27T12:04:13Z</time>
      </trkpt>
      <trkpt lat="43.93017" lon="3.59226">
        <ele>588.46</ele>
        <time>2011-11-27T12:04:25Z</time>
      </trkpt>
      <trkpt lat="43.93099" lon="3.59164">
        <ele>579.33</ele>
        <time>2011-11-27T12:04:32Z</time>
      </trkpt>
      <trkpt lat="43.93112" lon="3.5916">
        <ele>577.89</ele>
        <time>2011-11-27T12:04:33Z</time>
      </trkpt>
      <trkpt lat="43.93125" lon="3.59158">
        <ele>576.45</ele>
        <time>2011-11-27T12:04:34Z</time>
      </trkpt>
      <trkpt lat="43.93139" lon="3.59158">
        <ele>575.01</ele>
        <time>2011-11-27T12:04:35Z</time>
      </trkpt>
      <trkpt lat="43.93154" lon="3.59159">
        <ele>572.6</ele>
        <time>2011-11-27T12:04:36Z</time>
      </trkpt>
      <trkpt lat="43.93168" lon="3.59161">
        <ele>571.64</ele>
        <time>2011-11-27T12:04:37Z</time>
      </trkpt>
      <trkpt lat="43.9324" lon="3.59178">
        <ele>562.03</ele>
        <time>2011-11-27T12:04:44Z</time>
      </trkpt>
      <trkpt lat="43.93244" lon="3.59181">
        <ele>561.55</ele>
        <time>2011-11-27T12:04:45Z</time>
      </trkpt>
      <trkpt lat="43.93247" lon="3.59185">
        <ele>560.59</ele>
        <time>2011-11-27T12:04:46Z</time>
      </trkpt>
      <trkpt lat="43.93247" lon="3.5919">
        <ele>559.62</ele>
        <time>2011-11-27T12:04:47Z</time>
      </trkpt>
      <trkpt lat="43.93244" lon="3.59195">
        <ele>559.14</ele>
        <time>2011-11-27T12:04:48Z</time>
      </trkpt>
      <trkpt lat="43.93239" lon="3.59197">
        <ele>558.18</ele>
        <time>2011-11-27T12:04:49Z</time>
      </trkpt>
      <trkpt lat="43.93233" lon="3.59197">
        <ele>557.7</ele>
        <time>2011-11-27T12:04:50Z</time>
      </trkpt>
      <trkpt lat="43.93224" lon="3.59195">
        <ele>556.74</ele>
        <time>2011-11-27T12:04:51Z</time>
      </trkpt>
      <trkpt lat="43.93216" lon="3.59192">
        <ele>555.78</ele>
        <time>2011-11-27T12:04:52Z</time>
      </trkpt>
      <trkpt lat="43.93194" lon="3.59186">
        <ele>554.82</ele>
        <time>2011-11-27T12:04:55Z</time>
      </trkpt>
      <trkpt lat="43.93188" lon="3.59187">
        <ele>554.34</ele>
        <time>2011-11-27T12:04:56Z</time>
      </trkpt>
      <trkpt lat="43.93184" lon="3.59189">
        <ele>554.34</ele>
        <time>2011-11-27T12:04:57Z</time>
      </trkpt>
      <trkpt lat="43.93182" lon="3.59195">
        <ele>554.34</ele>
        <time>2011-11-27T12:04:58Z</time>
      </trkpt>
      <trkpt lat="43.93182" lon="3.59201">
        <ele>553.86</ele>
        <time>2011-11-27T12:04:59Z</time>
      </trkpt>
      <trkpt lat="43.93184" lon="3.59208">
        <ele>553.38</ele>
        <time>2011-11-27T12:05:00Z</time>
      </trkpt>
      <trkpt lat="43.9319" lon="3.59213">
        <ele>552.9</ele>
        <time>2011-11-27T12:05:01Z</time>
      </trkpt>
      <trkpt lat="43.93198" lon="3.59216">
        <ele>551.45</ele>
        <time>2011-11-27T12:05:02Z</time>
      </trkpt>
      <trkpt lat="43.93209" lon="3.59219">
        <ele>550.49</ele>
        <time>2011-11-27T12:05:03Z</time>
      </trkpt>
      <trkpt lat="43.93222" lon="3.59223">
        <ele>549.05</ele>
        <time>2011-11-27T12:05:04Z</time>
      </trkpt>
      <trkpt lat="43.93261" lon="3.59234">
        <ele>548.09</ele>
        <time>2011-11-27T12:05:07Z</time>
      </trkpt>
      <trkpt lat="43.93273" lon="3.59234">
        <ele>547.61</ele>
        <time>2011-11-27T12:05:08Z</time>
      </trkpt>
      <trkpt lat="43.93283" lon="3.59232">
        <ele>547.13</ele>
        <time>2011-11-27T12:05:09Z</time>
      </trkpt>
      <trkpt lat="43.93291" lon="3.59228">
        <ele>546.65</ele>
        <time>2011-11-27T12:05:10Z</time>
      </trkpt>
      <trkpt lat="43.93298" lon="3.59221">
        <ele>546.17</ele>
        <time>2011-11-27T12:05:11Z</time>
      </trkpt>
      <trkpt lat="43.93305" lon="3.59213">
        <ele>545.69</ele>
        <time>2011-11-27T12:05:12Z</time>
      </trkpt>
      <trkpt lat="43.93311" lon="3.59201">
        <ele>545.2</ele>
        <time>2011-11-27T12:05:13Z</time>
      </trkpt>
      <trkpt lat="43.93318" lon="3.59188">
        <ele>544.72</ele>
        <time>2011-11-27T12:05:14Z</time>
      </trkpt>
      <trkpt lat="43.93323" lon="3.59175">
        <ele>544.72</ele>
        <time>2011-11-27T12:05:15Z</time>
      </trkpt>
      <trkpt lat="43.93335" lon="3.59154">
        <ele>544.24</ele>
        <time>2011-11-27T12:05:17Z</time>
      </trkpt>
      <trkpt lat="43.93341" lon="3.59147">
        <ele>544.24</ele>
        <time>2011-11-27T12:05:18Z</time>
      </trkpt>
      <trkpt lat="43.93349" lon="3.59143">
        <ele>544.24</ele>
        <time>2011-11-27T12:05:19Z</time>
      </trkpt>
      <trkpt lat="43.93361" lon="3.59143">
        <ele>543.28</ele>
        <time>2011-11-27T12:05:20Z</time>
      </trkpt>
      <trkpt lat="43.93373" lon="3.59145">
        <ele>541.84</ele>
        <time>2011-11-27T12:05:21Z</time>
      </trkpt>
      <trkpt lat="43.93386" lon="3.59147">
        <ele>540.4</ele>
        <time>2011-11-27T12:05:22Z</time>
      </trkpt>
      <trkpt lat="43.93463" lon="3.5916">
        <ele>533.19</ele>
        <time>2011-11-27T12:05:27Z</time>
      </trkpt>
      <trkpt lat="43.93478" lon="3.5916">
        <ele>531.75</ele>
        <time>2011-11-27T12:05:28Z</time>
      </trkpt>
      <trkpt lat="43.93494" lon="3.59159">
        <ele>530.3</ele>
        <time>2011-11-27T12:05:29Z</time>
      </trkpt>
      <trkpt lat="43.93509" lon="3.59158">
        <ele>529.34</ele>
        <time>2011-11-27T12:05:30Z</time>
      </trkpt>
      <trkpt lat="43.93523" lon="3.5916">
        <ele>528.38</ele>
        <time>2011-11-27T12:05:31Z</time>
      </trkpt>
      <trkpt lat="43.93538" lon="3.59166">
        <ele>526.94</ele>
        <time>2011-11-27T12:05:32Z</time>
      </trkpt>
      <trkpt lat="43.93553" lon="3.59175">
        <ele>525.5</ele>
        <time>2011-11-27T12:05:33Z</time>
      </trkpt>
      <trkpt lat="43.93569" lon="3.59185">
        <ele>524.06</ele>
        <time>2011-11-27T12:05:34Z</time>
      </trkpt>
      <trkpt lat="43.93694" lon="3.59248">
        <ele>513.48</ele>
        <time>2011-11-27T12:05:42Z</time>
      </trkpt>
      <trkpt lat="43.93704" lon="3.59254">
        <ele>512.04</ele>
        <time>2011-11-27T12:05:43Z</time>
      </trkpt>
      <trkpt lat="43.93712" lon="3.59262">
        <ele>511.08</ele>
        <time>2011-11-27T12:05:44Z</time>
      </trkpt>
      <trkpt lat="43.93717" lon="3.59272">
        <ele>509.64</ele>
        <time>2011-11-27T12:05:45Z</time>
      </trkpt>
      <trkpt lat="43.9372" lon="3.59285">
        <ele>508.19</ele>
        <time>2011-11-27T12:05:46Z</time>
      </trkpt>
      <trkpt lat="43.93721" lon="3.593">
        <ele>506.75</ele>
        <time>2011-11-27T12:05:47Z</time>
      </trkpt>
      <trkpt lat="43.93722" lon="3.59316">
        <ele>505.31</ele>
        <time>2011-11-27T12:05:48Z</time>
      </trkpt>
      <trkpt lat="43.93722" lon="3.59331">
        <ele>503.87</ele>
        <time>2011-11-27T12:05:49Z</time>
      </trkpt>
      <trkpt lat="43.93725" lon="3.59347">
        <ele>502.43</ele>
        <time>2011-11-27T12:05:50Z</time>
      </trkpt>
      <trkpt lat="43.93731" lon="3.5936">
        <ele>501.46</ele>
        <time>2011-11-27T12:05:51Z</time>
      </trkpt>
      <trkpt lat="43.93739" lon="3.5937">
        <ele>500.02</ele>
        <time>2011-11-27T12:05:52Z</time>
      </trkpt>
      <trkpt lat="43.93748" lon="3.59378">
        <ele>499.06</ele>
        <time>2011-11-27T12:05:53Z</time>
      </trkpt>
      <trkpt lat="43.93759" lon="3.59384">
        <ele>498.1</ele>
        <time>2011-11-27T12:05:54Z</time>
      </trkpt>
      <trkpt lat="43.9377" lon="3.59389">
        <ele>497.14</ele>
        <time>2011-11-27T12:05:55Z</time>
      </trkpt>
      <trkpt lat="43.93794" lon="3.59396">
        <ele>495.22</ele>
        <time>2011-11-27T12:05:57Z</time>
      </trkpt>
      <trkpt lat="43.93806" lon="3.59395">
        <ele>493.77</ele>
        <time>2011-11-27T12:05:58Z</time>
      </trkpt>
      <trkpt lat="43.93818" lon="3.59392">
        <ele>493.29</ele>
        <time>2011-11-27T12:05:59Z</time>
      </trkpt>
      <trkpt lat="43.93841" lon="3.59387">
        <ele>491.85</ele>
        <time>2011-11-27T12:06:01Z</time>
      </trkpt>
      <trkpt lat="43.93852" lon="3.59388">
        <ele>491.37</ele>
        <time>2011-11-27T12:06:02Z</time>
      </trkpt>
      <trkpt lat="43.93862" lon="3.5939">
        <ele>490.41</ele>
        <time>2011-11-27T12:06:03Z</time>
      </trkpt>
      <trkpt lat="43.93878" lon="3.59395">
        <ele>488.97</ele>
        <time>2011-11-27T12:06:05Z</time>
      </trkpt>
      <trkpt lat="43.93883" lon="3.59398">
        <ele>488.49</ele>
        <time>2011-11-27T12:06:06Z</time>
      </trkpt>
      <trkpt lat="43.93886" lon="3.59402">
        <ele>488.01</ele>
        <time>2011-11-27T12:06:07Z</time>
      </trkpt>
      <trkpt lat="43.93885" lon="3.59406">
        <ele>487.53</ele>
        <time>2011-11-27T12:06:08Z</time>
      </trkpt>
      <trkpt lat="43.93882" lon="3.5941">
        <ele>486.56</ele>
        <time>2011-11-27T12:06:09Z</time>
      </trkpt>
      <trkpt lat="43.93878" lon="3.59412">
        <ele>486.56</ele>
        <time>2011-11-27T12:06:10Z</time>
      </trkpt>
      <trkpt lat="43.9387" lon="3.59409">
        <ele>486.08</ele>
        <time>2011-11-27T12:06:11Z</time>
      </trkpt>
      <trkpt lat="43.9386" lon="3.59406">
        <ele>485.6</ele>
        <time>2011-11-27T12:06:12Z</time>
      </trkpt>
      <trkpt lat="43.9385" lon="3.59405">
        <ele>484.64</ele>
        <time>2011-11-27T12:06:13Z</time>
      </trkpt>
      <trkpt lat="43.93839" lon="3.59405">
        <ele>483.68</ele>
        <time>2011-11-27T12:06:14Z</time>
      </trkpt>
      <trkpt lat="43.93829" lon="3.59407">
        <ele>483.2</ele>
        <time>2011-11-27T12:06:15Z</time>
      </trkpt>
      <trkpt lat="43.93805" lon="3.59415">
        <ele>482.24</ele>
        <time>2011-11-27T12:06:18Z</time>
      </trkpt>
      <trkpt lat="43.93801" lon="3.5942">
        <ele>481.76</ele>
        <time>2011-11-27T12:06:19Z</time>
      </trkpt>
      <trkpt lat="43.938" lon="3.59426">
        <ele>481.28</ele>
        <time>2011-11-27T12:06:20Z</time>
      </trkpt>
      <trkpt lat="43.93802" lon="3.59432">
        <ele>481.28</ele>
        <time>2011-11-27T12:06:21Z</time>
      </trkpt>
      <trkpt lat="43.93806" lon="3.59436">
        <ele>480.32</ele>
        <time>2011-11-27T12:06:22Z</time>
      </trkpt>
      <trkpt lat="43.93813" lon="3.59438">
        <ele>479.35</ele>
        <time>2011-11-27T12:06:23Z</time>
      </trkpt>
      <trkpt lat="43.93826" lon="3.59439">
        <ele>478.39</ele>
        <time>2011-11-27T12:06:24Z</time>
      </trkpt>
      <trkpt lat="43.93874" lon="3.59449">
        <ele>475.03</ele>
        <time>2011-11-27T12:06:27Z</time>
      </trkpt>
      <trkpt lat="43.9389" lon="3.59448">
        <ele>474.07</ele>
        <time>2011-11-27T12:06:28Z</time>
      </trkpt>
      <trkpt lat="43.93907" lon="3.59446">
        <ele>473.11</ele>
        <time>2011-11-27T12:06:29Z</time>
      </trkpt>
      <trkpt lat="43.93923" lon="3.59442">
        <ele>472.14</ele>
        <time>2011-11-27T12:06:30Z</time>
      </trkpt>
      <trkpt lat="43.93939" lon="3.59436">
        <ele>471.66</ele>
        <time>2011-11-27T12:06:31Z</time>
      </trkpt>
      <trkpt lat="43.93953" lon="3.59429">
        <ele>470.22</ele>
        <time>2011-11-27T12:06:32Z</time>
      </trkpt>
      <trkpt lat="43.93968" lon="3.59423">
        <ele>469.26</ele>
        <time>2011-11-27T12:06:33Z</time>
      </trkpt>
      <trkpt lat="43.93984" lon="3.59422">
        <ele>468.3</ele>
        <time>2011-11-27T12:06:34Z</time>
      </trkpt>
      <trkpt lat="43.94002" lon="3.59423">
        <ele>467.34</ele>
        <time>2011-11-27T12:06:35Z</time>
      </trkpt>
      <trkpt lat="43.9402" lon="3.59427">
        <ele>465.9</ele>
        <time>2011-11-27T12:06:36Z</time>
      </trkpt>
      <trkpt lat="43.94038" lon="3.59431">
        <ele>464.45</ele>
        <time>2011-11-27T12:06:37Z</time>
      </trkpt>
      <trkpt lat="43.94099" lon="3.59452">
        <ele>459.65</ele>
        <time>2011-11-27T12:06:41Z</time>
      </trkpt>
      <trkpt lat="43.94112" lon="3.59462">
        <ele>459.17</ele>
        <time>2011-11-27T12:06:42Z</time>
      </trkpt>
      <trkpt lat="43.94124" lon="3.59473">
        <ele>458.69</ele>
        <time>2011-11-27T12:06:43Z</time>
      </trkpt>
      <trkpt lat="43.94135" lon="3.59486">
        <ele>457.24</ele>
        <time>2011-11-27T12:06:44Z</time>
      </trkpt>
      <trkpt lat="43.94145" lon="3.59501">
        <ele>456.28</ele>
        <time>2011-11-27T12:06:45Z</time>
      </trkpt>
      <trkpt lat="43.94153" lon="3.59518">
        <ele>455.32</ele>
        <time>2011-11-27T12:06:46Z</time>
      </trkpt>
      <trkpt lat="43.94159" lon="3.59535">
        <ele>453.88</ele>
        <time>2011-11-27T12:06:47Z</time>
      </trkpt>
      <trkpt lat="43.94167" lon="3.5955">
        <ele>452.44</ele>
        <time>2011-11-27T12:06:48Z</time>
      </trkpt>
      <trkpt lat="43.94174" lon="3.59562">
        <ele>450.52</ele>
        <time>2011-11-27T12:06:49Z</time>
      </trkpt>
      <trkpt lat="43.94183" lon="3.59571">
        <ele>449.07</ele>
        <time>2011-11-27T12:06:50Z</time>
      </trkpt>
      <trkpt lat="43.94191" lon="3.59575">
        <ele>448.11</ele>
        <time>2011-11-27T12:06:51Z</time>
      </trkpt>
      <trkpt lat="43.942" lon="3.59575">
        <ele>446.67</ele>
        <time>2011-11-27T12:06:52Z</time>
      </trkpt>
      <trkpt lat="43.94211" lon="3.59572">
        <ele>444.75</ele>
        <time>2011-11-27T12:06:53Z</time>
      </trkpt>
      <trkpt lat="43.94224" lon="3.59565">
        <ele>443.31</ele>
        <time>2011-11-27T12:06:54Z</time>
      </trkpt>
      <trkpt lat="43.94238" lon="3.59556">
        <ele>442.34</ele>
        <time>2011-11-27T12:06:55Z</time>
      </trkpt>
      <trkpt lat="43.94253" lon="3.59547">
        <ele>440.9</ele>
        <time>2011-11-27T12:06:56Z</time>
      </trkpt>
      <trkpt lat="43.94334" lon="3.59493">
        <ele>432.73</ele>
        <time>2011-11-27T12:07:02Z</time>
      </trkpt>
      <trkpt lat="43.94345" lon="3.5948">
        <ele>431.29</ele>
        <time>2011-11-27T12:07:03Z</time>
      </trkpt>
      <trkpt lat="43.94355" lon="3.59466">
        <ele>430.33</ele>
        <time>2011-11-27T12:07:04Z</time>
      </trkpt>
      <trkpt lat="43.94363" lon="3.59452">
        <ele>428.89</ele>
        <time>2011-11-27T12:07:05Z</time>
      </trkpt>
      <trkpt lat="43.94369" lon="3.59439">
        <ele>427.92</ele>
        <time>2011-11-27T12:07:06Z</time>
      </trkpt>
      <trkpt lat="43.94373" lon="3.59426">
        <ele>426.48</ele>
        <time>2011-11-27T12:07:07Z</time>
      </trkpt>
      <trkpt lat="43.94373" lon="3.59412">
        <ele>425.04</ele>
        <time>2011-11-27T12:07:08Z</time>
      </trkpt>
      <trkpt lat="43.94372" lon="3.59398">
        <ele>425.52</ele>
        <time>2011-11-27T12:07:09Z</time>
      </trkpt>
      <trkpt lat="43.94371" lon="3.59385">
        <ele>425.04</ele>
        <time>2011-11-27T12:07:10Z</time>
      </trkpt>
      <trkpt lat="43.94372" lon="3.59373">
        <ele>424.56</ele>
        <time>2011-11-27T12:07:11Z</time>
      </trkpt>
      <trkpt lat="43.94375" lon="3.59362">
        <ele>424.08</ele>
        <time>2011-11-27T12:07:12Z</time>
      </trkpt>
      <trkpt lat="43.94381" lon="3.59352">
        <ele>423.6</ele>
        <time>2011-11-27T12:07:13Z</time>
      </trkpt>
      <trkpt lat="43.94391" lon="3.59343">
        <ele>423.12</ele>
        <time>2011-11-27T12:07:14Z</time>
      </trkpt>
      <trkpt lat="43.94403" lon="3.59334">
        <ele>422.16</ele>
        <time>2011-11-27T12:07:15Z</time>
      </trkpt>
      <trkpt lat="43.94416" lon="3.59324">
        <ele>421.19</ele>
        <time>2011-11-27T12:07:16Z</time>
      </trkpt>
      <trkpt lat="43.9449" lon="3.59276">
        <ele>416.39</ele>
        <time>2011-11-27T12:07:23Z</time>
      </trkpt>
      <trkpt lat="43.94494" lon="3.59276">
        <ele>415.43</ele>
        <time>2011-11-27T12:07:24Z</time>
      </trkpt>
      <trkpt lat="43.94496" lon="3.59281">
        <ele>414.47</ele>
        <time>2011-11-27T12:07:25Z</time>
      </trkpt>
      <trkpt lat="43.94496" lon="3.59287">
        <ele>413.98</ele>
        <time>2011-11-27T12:07:26Z</time>
      </trkpt>
      <trkpt lat="43.94493" lon="3.59294">
        <ele>413.98</ele>
        <time>2011-11-27T12:07:27Z</time>
      </trkpt>
      <trkpt lat="43.94488" lon="3.59304">
        <ele>414.47</ele>
        <time>2011-11-27T12:07:28Z</time>
      </trkpt>
      <trkpt lat="43.94479" lon="3.59314">
        <ele>413.98</ele>
        <time>2011-11-27T12:07:29Z</time>
      </trkpt>
      <trkpt lat="43.94469" lon="3.59321">
        <ele>413.5</ele>
        <time>2011-11-27T12:07:30Z</time>
      </trkpt>
      <trkpt lat="43.94461" lon="3.59327">
        <ele>413.5</ele>
        <time>2011-11-27T12:07:31Z</time>
      </trkpt>
      <trkpt lat="43.94454" lon="3.59333">
        <ele>413.02</ele>
        <time>2011-11-27T12:07:32Z</time>
      </trkpt>
      <trkpt lat="43.94448" lon="3.59339">
        <ele>412.54</ele>
        <time>2011-11-27T12:07:33Z</time>
      </trkpt>
      <trkpt lat="43.94446" lon="3.59346">
        <ele>412.06</ele>
        <time>2011-11-27T12:07:34Z</time>
      </trkpt>
      <trkpt lat="43.94447" lon="3.59351">
        <ele>411.58</ele>
        <time>2011-11-27T12:07:35Z</time>
      </trkpt>
      <trkpt lat="43.94452" lon="3.59355">
        <ele>411.1</ele>
        <time>2011-11-27T12:07:36Z</time>
      </trkpt>
      <trkpt lat="43.94459" lon="3.59353">
        <ele>410.14</ele>
        <time>2011-11-27T12:07:37Z</time>
      </trkpt>
      <trkpt lat="43.9447" lon="3.59349">
        <ele>409.18</ele>
        <time>2011-11-27T12:07:38Z</time>
      </trkpt>
      <trkpt lat="43.94482" lon="3.59342">
        <ele>408.22</ele>
        <time>2011-11-27T12:07:39Z</time>
      </trkpt>
      <trkpt lat="43.94494" lon="3.59334">
        <ele>407.74</ele>
        <time>2011-11-27T12:07:40Z</time>
      </trkpt>
      <trkpt lat="43.94504" lon="3.59324">
        <ele>407.26</ele>
        <time>2011-11-27T12:07:41Z</time>
      </trkpt>
      <trkpt lat="43.94512" lon="3.59314">
        <ele>406.77</ele>
        <time>2011-11-27T12:07:42Z</time>
      </trkpt>
      <trkpt lat="43.94519" lon="3.59304">
        <ele>406.77</ele>
        <time>2011-11-27T12:07:43Z</time>
      </trkpt>
      <trkpt lat="43.94527" lon="3.59297">
        <ele>406.29</ele>
        <time>2011-11-27T12:07:44Z</time>
      </trkpt>
      <trkpt lat="43.94535" lon="3.59294">
        <ele>405.81</ele>
        <time>2011-11-27T12:07:45Z</time>
      </trkpt>
      <trkpt lat="43.94543" lon="3.59297">
        <ele>404.85</ele>
        <time>2011-11-27T12:07:46Z</time>
      </trkpt>
      <trkpt lat="43.94553" lon="3.59303">
        <ele>404.37</ele>
        <time>2011-11-27T12:07:47Z</time>
      </trkpt>
      <trkpt lat="43.94562" lon="3.59312">
        <ele>402.93</ele>
        <time>2011-11-27T12:07:48Z</time>
      </trkpt>
      <trkpt lat="43.94571" lon="3.59323">
        <ele>401.97</ele>
        <time>2011-11-27T12:07:49Z</time>
      </trkpt>
      <trkpt lat="43.94578" lon="3.59334">
        <ele>401.01</ele>
        <time>2011-11-27T12:07:50Z</time>
      </trkpt>
      <trkpt lat="43.94585" lon="3.59346">
        <ele>401.01</ele>
        <time>2011-11-27T12:07:51Z</time>
      </trkpt>
      <trkpt lat="43.94591" lon="3.59359">
        <ele>400.53</ele>
        <time>2011-11-27T12:07:52Z</time>
      </trkpt>
      <trkpt lat="43.94596" lon="3.5937">
        <ele>399.57</ele>
        <time>2011-11-27T12:07:53Z</time>
      </trkpt>
      <trkpt lat="43.94602" lon="3.59378">
        <ele>399.08</ele>
        <time>2011-11-27T12:07:54Z</time>
      </trkpt>
      <trkpt lat="43.94611" lon="3.59382">
        <ele>399.08</ele>
        <time>2011-11-27T12:07:55Z</time>
      </trkpt>
      <trkpt lat="43.94621" lon="3.59382">
        <ele>398.12</ele>
        <time>2011-11-27T12:07:56Z</time>
      </trkpt>
      <trkpt lat="43.94634" lon="3.5938">
        <ele>397.16</ele>
        <time>2011-11-27T12:07:57Z</time>
      </trkpt>
      <trkpt lat="43.94646" lon="3.59378">
        <ele>396.2</ele>
        <time>2011-11-27T12:07:58Z</time>
      </trkpt>
      <trkpt lat="43.94657" lon="3.59377">
        <ele>395.72</ele>
        <time>2011-11-27T12:07:59Z</time>
      </trkpt>
      <trkpt lat="43.94669" lon="3.59378">
        <ele>395.72</ele>
        <time>2011-11-27T12:08:00Z</time>
      </trkpt>
      <trkpt lat="43.94679" lon="3.59383">
        <ele>394.76</ele>
        <time>2011-11-27T12:08:01Z</time>
      </trkpt>
      <trkpt lat="43.94688" lon="3.5939">
        <ele>394.28</ele>
        <time>2011-11-27T12:08:02Z</time>
      </trkpt>
      <trkpt lat="43.94696" lon="3.59402">
        <ele>393.8</ele>
        <time>2011-11-27T12:08:03Z</time>
      </trkpt>
      <trkpt lat="43.94702" lon="3.59417">
        <ele>392.84</ele>
        <time>2011-11-27T12:08:04Z</time>
      </trkpt>
      <trkpt lat="43.94707" lon="3.59435">
        <ele>391.87</ele>
        <time>2011-11-27T12:08:05Z</time>
      </trkpt>
      <trkpt lat="43.94713" lon="3.59455">
        <ele>391.39</ele>
        <time>2011-11-27T12:08:06Z</time>
      </trkpt>
      <trkpt lat="43.94721" lon="3.59472">
        <ele>390.43</ele>
        <time>2011-11-27T12:08:07Z</time>
      </trkpt>
      <trkpt lat="43.94731" lon="3.59486">
        <ele>389.95</ele>
        <time>2011-11-27T12:08:08Z</time>
      </trkpt>
      <trkpt lat="43.94741" lon="3.59498">
        <ele>388.99</ele>
        <time>2011-11-27T12:08:09Z</time>
      </trkpt>
      <trkpt lat="43.94751" lon="3.59507">
        <ele>387.55</ele>
        <time>2011-11-27T12:08:10Z</time>
      </trkpt>
      <trkpt lat="43.94763" lon="3.59512">
        <ele>387.07</ele>
        <time>2011-11-27T12:08:11Z</time>
      </trkpt>
      <trkpt lat="43.94774" lon="3.59517">
        <ele>386.11</ele>
        <time>2011-11-27T12:08:12Z</time>
      </trkpt>
      <trkpt lat="43.94785" lon="3.59523">
        <ele>385.15</ele>
        <time>2011-11-27T12:08:13Z</time>
      </trkpt>
      <trkpt lat="43.94794" lon="3.59532">
        <ele>384.66</ele>
        <time>2011-11-27T12:08:14Z</time>
      </trkpt>
      <trkpt lat="43.94801" lon="3.59544">
        <ele>383.7</ele>
        <time>2011-11-27T12:08:15Z</time>
      </trkpt>
      <trkpt lat="43.94805" lon="3.5956">
        <ele>383.22</ele>
        <time>2011-11-27T12:08:16Z</time>
      </trkpt>
      <trkpt lat="43.94805" lon="3.59579">
        <ele>382.26</ele>
        <time>2011-11-27T12:08:17Z</time>
      </trkpt>
      <trkpt lat="43.94802" lon="3.59598">
        <ele>380.82</ele>
        <time>2011-11-27T12:08:18Z</time>
      </trkpt>
      <trkpt lat="43.94797" lon="3.59616">
        <ele>379.86</ele>
        <time>2011-11-27T12:08:19Z</time>
      </trkpt>
      <trkpt lat="43.94794" lon="3.59632">
        <ele>378.9</ele>
        <time>2011-11-27T12:08:20Z</time>
      </trkpt>
      <trkpt lat="43.94791" lon="3.59647">
        <ele>377.94</ele>
        <time>2011-11-27T12:08:21Z</time>
      </trkpt>
      <trkpt lat="43.9479" lon="3.5966">
        <ele>377.45</ele>
        <time>2011-11-27T12:08:22Z</time>
      </trkpt>
      <trkpt lat="43.94792" lon="3.59671">
        <ele>376.49</ele>
        <time>2011-11-27T12:08:23Z</time>
      </trkpt>
      <trkpt lat="43.94796" lon="3.59679">
        <ele>375.53</ele>
        <time>2011-11-27T12:08:24Z</time>
      </trkpt>
      <trkpt lat="43.94803" lon="3.59683">
        <ele>374.57</ele>
        <time>2011-11-27T12:08:25Z</time>
      </trkpt>
      <trkpt lat="43.94815" lon="3.59682">
        <ele>375.05</ele>
        <time>2011-11-27T12:08:26Z</time>
      </trkpt>
      <trkpt lat="43.94829" lon="3.59679">
        <ele>374.57</ele>
        <time>2011-11-27T12:08:27Z</time>
      </trkpt>
      <trkpt lat="43.94843" lon="3.59674">
        <ele>374.57</ele>
        <time>2011-11-27T12:08:28Z</time>
      </trkpt>
      <trkpt lat="43.9486" lon="3.59666">
        <ele>373.61</ele>
        <time>2011-11-27T12:08:29Z</time>
      </trkpt>
      <trkpt lat="43.94877" lon="3.59657">
        <ele>372.65</ele>
        <time>2011-11-27T12:08:30Z</time>
      </trkpt>
      <trkpt lat="43.94892" lon="3.59647">
        <ele>372.17</ele>
        <time>2011-11-27T12:08:31Z</time>
      </trkpt>
      <trkpt lat="43.9494" lon="3.59617">
        <ele>370.24</ele>
        <time>2011-11-27T12:08:35Z</time>
      </trkpt>
      <trkpt lat="43.94949" lon="3.59616">
        <ele>369.28</ele>
        <time>2011-11-27T12:08:36Z</time>
      </trkpt>
      <trkpt lat="43.94959" lon="3.59619">
        <ele>368.32</ele>
        <time>2011-11-27T12:08:37Z</time>
      </trkpt>
      <trkpt lat="43.94969" lon="3.59629">
        <ele>367.36</ele>
        <time>2011-11-27T12:08:38Z</time>
      </trkpt>
      <trkpt lat="43.94977" lon="3.59643">
        <ele>367.36</ele>
        <time>2011-11-27T12:08:39Z</time>
      </trkpt>
      <trkpt lat="43.94983" lon="3.5966">
        <ele>366.4</ele>
        <time>2011-11-27T12:08:40Z</time>
      </trkpt>
      <trkpt lat="43.94983" lon="3.59684">
        <ele>365.44</ele>
        <time>2011-11-27T12:08:41Z</time>
      </trkpt>
      <trkpt lat="43.94983" lon="3.59703">
        <ele>364.48</ele>
        <time>2011-11-27T12:08:42Z</time>
      </trkpt>
      <trkpt lat="43.94982" lon="3.5972">
        <ele>363.52</ele>
        <time>2011-11-27T12:08:43Z</time>
      </trkpt>
      <trkpt lat="43.94984" lon="3.59736">
        <ele>362.55</ele>
        <time>2011-11-27T12:08:44Z</time>
      </trkpt>
      <trkpt lat="43.94988" lon="3.59747">
        <ele>361.11</ele>
        <time>2011-11-27T12:08:45Z</time>
      </trkpt>
      <trkpt lat="43.94994" lon="3.59756">
        <ele>359.67</ele>
        <time>2011-11-27T12:08:46Z</time>
      </trkpt>
      <trkpt lat="43.95003" lon="3.59756">
        <ele>359.19</ele>
        <time>2011-11-27T12:08:47Z</time>
      </trkpt>
      <trkpt lat="43.95013" lon="3.59753">
        <ele>358.23</ele>
        <time>2011-11-27T12:08:48Z</time>
      </trkpt>
      <trkpt lat="43.95023" lon="3.59744">
        <ele>357.75</ele>
        <time>2011-11-27T12:08:49Z</time>
      </trkpt>
      <trkpt lat="43.95034" lon="3.5973">
        <ele>356.31</ele>
        <time>2011-11-27T12:08:50Z</time>
      </trkpt>
      <trkpt lat="43.95045" lon="3.59716">
        <ele>354.86</ele>
        <time>2011-11-27T12:08:51Z</time>
      </trkpt>
      <trkpt lat="43.95056" lon="3.597">
        <ele>353.9</ele>
        <time>2011-11-27T12:08:52Z</time>
      </trkpt>
      <trkpt lat="43.95076" lon="3.59677">
        <ele>354.38</ele>
        <time>2011-11-27T12:08:55Z</time>
      </trkpt>
      <trkpt lat="43.95083" lon="3.59677">
        <ele>354.38</ele>
        <time>2011-11-27T12:08:56Z</time>
      </trkpt>
      <trkpt lat="43.95091" lon="3.59679">
        <ele>353.42</ele>
        <time>2011-11-27T12:08:57Z</time>
      </trkpt>
      <trkpt lat="43.95099" lon="3.59685">
        <ele>351.5</ele>
        <time>2011-11-27T12:08:58Z</time>
      </trkpt>
      <trkpt lat="43.95106" lon="3.59698">
        <ele>350.54</ele>
        <time>2011-11-27T12:08:59Z</time>
      </trkpt>
      <trkpt lat="43.95112" lon="3.59713">
        <ele>348.62</ele>
        <time>2011-11-27T12:09:00Z</time>
      </trkpt>
      <trkpt lat="43.95118" lon="3.59727">
        <ele>346.69</ele>
        <time>2011-11-27T12:09:01Z</time>
      </trkpt>
      <trkpt lat="43.95124" lon="3.59739">
        <ele>345.73</ele>
        <time>2011-11-27T12:09:02Z</time>
      </trkpt>
      <trkpt lat="43.95131" lon="3.59746">
        <ele>343.81</ele>
        <time>2011-11-27T12:09:03Z</time>
      </trkpt>
      <trkpt lat="43.95141" lon="3.5975">
        <ele>343.33</ele>
        <time>2011-11-27T12:09:04Z</time>
      </trkpt>
      <trkpt lat="43.95151" lon="3.59744">
        <ele>342.37</ele>
        <time>2011-11-27T12:09:05Z</time>
      </trkpt>
      <trkpt lat="43.9516" lon="3.59738">
        <ele>342.37</ele>
        <time>2011-11-27T12:09:06Z</time>
      </trkpt>
      <trkpt lat="43.95169" lon="3.59733">
        <ele>341.89</ele>
        <time>2011-11-27T12:09:07Z</time>
      </trkpt>
      <trkpt lat="43.95177" lon="3.59729">
        <ele>340.92</ele>
        <time>2011-11-27T12:09:08Z</time>
      </trkpt>
      <trkpt lat="43.95185" lon="3.59729">
        <ele>339.96</ele>
        <time>2011-11-27T12:09:09Z</time>
      </trkpt>
      <trkpt lat="43.95192" lon="3.59732">
        <ele>339.48</ele>
        <time>2011-11-27T12:09:10Z</time>
      </trkpt>
      <trkpt lat="43.95196" lon="3.59749">
        <ele>339.48</ele>
        <time>2011-11-27T12:09:11Z</time>
      </trkpt>
      <trkpt lat="43.952" lon="3.5976">
        <ele>337.56</ele>
        <time>2011-11-27T12:09:12Z</time>
      </trkpt>
      <trkpt lat="43.95203" lon="3.59778">
        <ele>336.12</ele>
        <time>2011-11-27T12:09:13Z</time>
      </trkpt>
      <trkpt lat="43.95205" lon="3.598">
        <ele>335.16</ele>
        <time>2011-11-27T12:09:14Z</time>
      </trkpt>
      <trkpt lat="43.95208" lon="3.59819">
        <ele>334.68</ele>
        <time>2011-11-27T12:09:15Z</time>
      </trkpt>
      <trkpt lat="43.95212" lon="3.59833">
        <ele>333.71</ele>
        <time>2011-11-27T12:09:16Z</time>
      </trkpt>
      <trkpt lat="43.95218" lon="3.59845">
        <ele>332.75</ele>
        <time>2011-11-27T12:09:17Z</time>
      </trkpt>
      <trkpt lat="43.95226" lon="3.59854">
        <ele>331.79</ele>
        <time>2011-11-27T12:09:18Z</time>
      </trkpt>
      <trkpt lat="43.95236" lon="3.5986">
        <ele>331.31</ele>
        <time>2011-11-27T12:09:19Z</time>
      </trkpt>
      <trkpt lat="43.95249" lon="3.59864">
        <ele>330.35</ele>
        <time>2011-11-27T12:09:20Z</time>
      </trkpt>
      <trkpt lat="43.95261" lon="3.59869">
        <ele>329.87</ele>
        <time>2011-11-27T12:09:21Z</time>
      </trkpt>
      <trkpt lat="43.95273" lon="3.59877">
        <ele>328.91</ele>
        <time>2011-11-27T12:09:22Z</time>
      </trkpt>
      <trkpt lat="43.95285" lon="3.59889">
        <ele>328.43</ele>
        <time>2011-11-27T12:09:23Z</time>
      </trkpt>
      <trkpt lat="43.95296" lon="3.59902">
        <ele>327.47</ele>
        <time>2011-11-27T12:09:24Z</time>
      </trkpt>
      <trkpt lat="43.95306" lon="3.59916">
        <ele>326.5</ele>
        <time>2011-11-27T12:09:25Z</time>
      </trkpt>
      <trkpt lat="43.95317" lon="3.59926">
        <ele>325.54</ele>
        <time>2011-11-27T12:09:26Z</time>
      </trkpt>
      <trkpt lat="43.95329" lon="3.59932">
        <ele>326.02</ele>
        <time>2011-11-27T12:09:27Z</time>
      </trkpt>
      <trkpt lat="43.95343" lon="3.59936">
        <ele>325.54</ele>
        <time>2011-11-27T12:09:28Z</time>
      </trkpt>
      <trkpt lat="43.95357" lon="3.59934">
        <ele>325.06</ele>
        <time>2011-11-27T12:09:29Z</time>
      </trkpt>
      <trkpt lat="43.95371" lon="3.5993">
        <ele>325.06</ele>
        <time>2011-11-27T12:09:30Z</time>
      </trkpt>
      <trkpt lat="43.95383" lon="3.59922">
        <ele>324.58</ele>
        <time>2011-11-27T12:09:31Z</time>
      </trkpt>
      <trkpt lat="43.95395" lon="3.5991">
        <ele>322.66</ele>
        <time>2011-11-27T12:09:32Z</time>
      </trkpt>
      <trkpt lat="43.95405" lon="3.59894">
        <ele>321.7</ele>
        <time>2011-11-27T12:09:33Z</time>
      </trkpt>
      <trkpt lat="43.95413" lon="3.59878">
        <ele>321.7</ele>
        <time>2011-11-27T12:09:34Z</time>
      </trkpt>
      <trkpt lat="43.95417" lon="3.59862">
        <ele>322.18</ele>
        <time>2011-11-27T12:09:35Z</time>
      </trkpt>
      <trkpt lat="43.95421" lon="3.59849">
        <ele>322.18</ele>
        <time>2011-11-27T12:09:36Z</time>
      </trkpt>
      <trkpt lat="43.95426" lon="3.59836">
        <ele>321.22</ele>
        <time>2011-11-27T12:09:37Z</time>
      </trkpt>
      <trkpt lat="43.95432" lon="3.59828">
        <ele>322.18</ele>
        <time>2011-11-27T12:09:38Z</time>
      </trkpt>
      <trkpt lat="43.9544" lon="3.59822">
        <ele>323.62</ele>
        <time>2011-11-27T12:09:39Z</time>
      </trkpt>
      <trkpt lat="43.95447" lon="3.59819">
        <ele>323.62</ele>
        <time>2011-11-27T12:09:40Z</time>
      </trkpt>
      <trkpt lat="43.95455" lon="3.59821">
        <ele>323.14</ele>
        <time>2011-11-27T12:09:41Z</time>
      </trkpt>
      <trkpt lat="43.95461" lon="3.59828">
        <ele>322.66</ele>
        <time>2011-11-27T12:09:42Z</time>
      </trkpt>
      <trkpt lat="43.9546" lon="3.59838">
        <ele>321.22</ele>
        <time>2011-11-27T12:09:43Z</time>
      </trkpt>
      <trkpt lat="43.9546" lon="3.59848">
        <ele>320.26</ele>
        <time>2011-11-27T12:09:44Z</time>
      </trkpt>
      <trkpt lat="43.95457" lon="3.59861">
        <ele>317.37</ele>
        <time>2011-11-27T12:09:45Z</time>
      </trkpt>
      <trkpt lat="43.95456" lon="3.59878">
        <ele>314.97</ele>
        <time>2011-11-27T12:09:46Z</time>
      </trkpt>
      <trkpt lat="43.95458" lon="3.59895">
        <ele>312.57</ele>
        <time>2011-11-27T12:09:47Z</time>
      </trkpt>
      <trkpt lat="43.95462" lon="3.59913">
        <ele>311.12</ele>
        <time>2011-11-27T12:09:48Z</time>
      </trkpt>
      <trkpt lat="43.9547" lon="3.59929">
        <ele>309.2</ele>
        <time>2011-11-27T12:09:49Z</time>
      </trkpt>
      <trkpt lat="43.9548" lon="3.59942">
        <ele>308.24</ele>
        <time>2011-11-27T12:09:50Z</time>
      </trkpt>
      <trkpt lat="43.95493" lon="3.59952">
        <ele>306.8</ele>
        <time>2011-11-27T12:09:51Z</time>
      </trkpt>
      <trkpt lat="43.95507" lon="3.59958">
        <ele>306.32</ele>
        <time>2011-11-27T12:09:52Z</time>
      </trkpt>
      <trkpt lat="43.95526" lon="3.59957">
        <ele>304.88</ele>
        <time>2011-11-27T12:09:53Z</time>
      </trkpt>
      <trkpt lat="43.95547" lon="3.59954">
        <ele>303.91</ele>
        <time>2011-11-27T12:09:54Z</time>
      </trkpt>
      <trkpt lat="43.9557" lon="3.5995">
        <ele>302.47</ele>
        <time>2011-11-27T12:09:55Z</time>
      </trkpt>
      <trkpt lat="43.95594" lon="3.59947">
        <ele>300.55</ele>
        <time>2011-11-27T12:09:56Z</time>
      </trkpt>
      <trkpt lat="43.95691" lon="3.59945">
        <ele>293.82</ele>
        <time>2011-11-27T12:10:01Z</time>
      </trkpt>
      <trkpt lat="43.95705" lon="3.59951">
        <ele>292.86</ele>
        <time>2011-11-27T12:10:02Z</time>
      </trkpt>
      <trkpt lat="43.95719" lon="3.59961">
        <ele>291.42</ele>
        <time>2011-11-27T12:10:03Z</time>
      </trkpt>
      <trkpt lat="43.95731" lon="3.59974">
        <ele>289.97</ele>
        <time>2011-11-27T12:10:04Z</time>
      </trkpt>
      <trkpt lat="43.9574" lon="3.59989">
        <ele>288.05</ele>
        <time>2011-11-27T12:10:05Z</time>
      </trkpt>
      <trkpt lat="43.95746" lon="3.60008">
        <ele>286.61</ele>
        <time>2011-11-27T12:10:06Z</time>
      </trkpt>
      <trkpt lat="43.95749" lon="3.60025">
        <ele>285.17</ele>
        <time>2011-11-27T12:10:07Z</time>
      </trkpt>
      <trkpt lat="43.95751" lon="3.60039">
        <ele>283.73</ele>
        <time>2011-11-27T12:10:08Z</time>
      </trkpt>
      <trkpt lat="43.95755" lon="3.60052">
        <ele>281.8</ele>
        <time>2011-11-27T12:10:09Z</time>
      </trkpt>
      <trkpt lat="43.95762" lon="3.60063">
        <ele>280.36</ele>
        <time>2011-11-27T12:10:10Z</time>
      </trkpt>
      <trkpt lat="43.95775" lon="3.60074">
        <ele>279.88</ele>
        <time>2011-11-27T12:10:11Z</time>
      </trkpt>
      <trkpt lat="43.95789" lon="3.60081">
        <ele>278.44</ele>
        <time>2011-11-27T12:10:12Z</time>
      </trkpt>
      <trkpt lat="43.95805" lon="3.60091">
        <ele>277.96</ele>
        <time>2011-11-27T12:10:13Z</time>
      </trkpt>
      <trkpt lat="43.95905" lon="3.60173">
        <ele>277.48</ele>
        <time>2011-11-27T12:10:20Z</time>
      </trkpt>
      <trkpt lat="43.95948" lon="3.60198">
        <ele>277.48</ele>
        <time>2011-11-27T12:10:23Z</time>
      </trkpt>
      <trkpt lat="43.95962" lon="3.60202">
        <ele>277.96</ele>
        <time>2011-11-27T12:10:24Z</time>
      </trkpt>
      <trkpt lat="43.95975" lon="3.60203">
        <ele>278.44</ele>
        <time>2011-11-27T12:10:25Z</time>
      </trkpt>
      <trkpt lat="43.95987" lon="3.60201">
        <ele>278.92</ele>
        <time>2011-11-27T12:10:26Z</time>
      </trkpt>
      <trkpt lat="43.95998" lon="3.6019">
        <ele>278.44</ele>
        <time>2011-11-27T12:10:27Z</time>
      </trkpt>
      <trkpt lat="43.9601" lon="3.60182">
        <ele>277.96</ele>
        <time>2011-11-27T12:10:28Z</time>
      </trkpt>
      <trkpt lat="43.96021" lon="3.60173">
        <ele>277.96</ele>
        <time>2011-11-27T12:10:29Z</time>
      </trkpt>
      <trkpt lat="43.96032" lon="3.60168">
        <ele>277.96</ele>
        <time>2011-11-27T12:10:30Z</time>
      </trkpt>
      <trkpt lat="43.96042" lon="3.60165">
        <ele>277.96</ele>
        <time>2011-11-27T12:10:31Z</time>
      </trkpt>
      <trkpt lat="43.96051" lon="3.60168">
        <ele>277.96</ele>
        <time>2011-11-27T12:10:32Z</time>
      </trkpt>
      <trkpt lat="43.96061" lon="3.6018">
        <ele>277</ele>
        <time>2011-11-27T12:10:33Z</time>
      </trkpt>
      <trkpt lat="43.96072" lon="3.60192">
        <ele>275.56</ele>
        <time>2011-11-27T12:10:34Z</time>
      </trkpt>
      <trkpt lat="43.96083" lon="3.60206">
        <ele>274.59</ele>
        <time>2011-11-27T12:10:35Z</time>
      </trkpt>
      <trkpt lat="43.96096" lon="3.60221">
        <ele>274.11</ele>
        <time>2011-11-27T12:10:36Z</time>
      </trkpt>
      <trkpt lat="43.96159" lon="3.60269">
        <ele>269.79</ele>
        <time>2011-11-27T12:10:40Z</time>
      </trkpt>
      <trkpt lat="43.96177" lon="3.60277">
        <ele>268.83</ele>
        <time>2011-11-27T12:10:41Z</time>
      </trkpt>
      <trkpt lat="43.96273" lon="3.60302">
        <ele>265.46</ele>
        <time>2011-11-27T12:10:46Z</time>
      </trkpt>
      <trkpt lat="43.96291" lon="3.60299">
        <ele>265.46</ele>
        <time>2011-11-27T12:10:47Z</time>
      </trkpt>
      <trkpt lat="43.9631" lon="3.60294">
        <ele>265.94</ele>
        <time>2011-11-27T12:10:48Z</time>
      </trkpt>
      <trkpt lat="43.96368" lon="3.60277">
        <ele>265.46</ele>
        <time>2011-11-27T12:10:52Z</time>
      </trkpt>
      <trkpt lat="43.9638" lon="3.60279">
        <ele>265.94</ele>
        <time>2011-11-27T12:10:53Z</time>
      </trkpt>
      <trkpt lat="43.96393" lon="3.60282">
        <ele>266.9</ele>
        <time>2011-11-27T12:10:54Z</time>
      </trkpt>
      <trkpt lat="43.96489" lon="3.60303">
        <ele>268.35</ele>
        <time>2011-11-27T12:11:00Z</time>
      </trkpt>
      <trkpt lat="43.96505" lon="3.60301">
        <ele>268.35</ele>
        <time>2011-11-27T12:11:01Z</time>
      </trkpt>
      <trkpt lat="43.96519" lon="3.60295">
        <ele>268.35</ele>
        <time>2011-11-27T12:11:02Z</time>
      </trkpt>
      <trkpt lat="43.96532" lon="3.60287">
        <ele>267.86</ele>
        <time>2011-11-27T12:11:03Z</time>
      </trkpt>
      <trkpt lat="43.96545" lon="3.60277">
        <ele>267.38</ele>
        <time>2011-11-27T12:11:04Z</time>
      </trkpt>
      <trkpt lat="43.96558" lon="3.6027">
        <ele>267.38</ele>
        <time>2011-11-27T12:11:05Z</time>
      </trkpt>
      <trkpt lat="43.96571" lon="3.60266">
        <ele>266.9</ele>
        <time>2011-11-27T12:11:06Z</time>
      </trkpt>
      <trkpt lat="43.96587" lon="3.60265">
        <ele>267.38</ele>
        <time>2011-11-27T12:11:07Z</time>
      </trkpt>
      <trkpt lat="43.96621" lon="3.60262">
        <ele>267.86</ele>
        <time>2011-11-27T12:11:09Z</time>
      </trkpt>
      <trkpt lat="43.96637" lon="3.60257">
        <ele>267.38</ele>
        <time>2011-11-27T12:11:10Z</time>
      </trkpt>
      <trkpt lat="43.96651" lon="3.60249">
        <ele>267.86</ele>
        <time>2011-11-27T12:11:11Z</time>
      </trkpt>
      <trkpt lat="43.96664" lon="3.60239">
        <ele>267.86</ele>
        <time>2011-11-27T12:11:12Z</time>
      </trkpt>
      <trkpt lat="43.96676" lon="3.60231">
        <ele>266.9</ele>
        <time>2011-11-27T12:11:13Z</time>
      </trkpt>
      <trkpt lat="43.96689" lon="3.60224">
        <ele>266.42</ele>
        <time>2011-11-27T12:11:14Z</time>
      </trkpt>
      <trkpt lat="43.96702" lon="3.6022">
        <ele>265.94</ele>
        <time>2011-11-27T12:11:15Z</time>
      </trkpt>
      <trkpt lat="43.96716" lon="3.60218">
        <ele>265.46</ele>
        <time>2011-11-27T12:11:16Z</time>
      </trkpt>
      <trkpt lat="43.96731" lon="3.60218">
        <ele>264.5</ele>
        <time>2011-11-27T12:11:17Z</time>
      </trkpt>
      <trkpt lat="43.96745" lon="3.60218">
        <ele>264.5</ele>
        <time>2011-11-27T12:11:18Z</time>
      </trkpt>
      <trkpt lat="43.96808" lon="3.60215">
        <ele>260.17</ele>
        <time>2011-11-27T12:11:23Z</time>
      </trkpt>
      <trkpt lat="43.96819" lon="3.60211">
        <ele>259.69</ele>
        <time>2011-11-27T12:11:24Z</time>
      </trkpt>
      <trkpt lat="43.96829" lon="3.60206">
        <ele>259.69</ele>
        <time>2011-11-27T12:11:25Z</time>
      </trkpt>
      <trkpt lat="43.96908" lon="3.60163">
        <ele>256.81</ele>
        <time>2011-11-27T12:11:33Z</time>
      </trkpt>
      <trkpt lat="43.96918" lon="3.60155">
        <ele>256.81</ele>
        <time>2011-11-27T12:11:34Z</time>
      </trkpt>
      <trkpt lat="43.96958" lon="3.60122">
        <ele>257.29</ele>
        <time>2011-11-27T12:11:38Z</time>
      </trkpt>
      <trkpt lat="43.96969" lon="3.60117">
        <ele>257.29</ele>
        <time>2011-11-27T12:11:39Z</time>
      </trkpt>
      <trkpt lat="43.97057" lon="3.60088">
        <ele>256.81</ele>
        <time>2011-11-27T12:11:48Z</time>
      </trkpt>
      <trkpt lat="43.97087" lon="3.60077">
        <ele>259.69</ele>
        <time>2011-11-27T12:11:52Z</time>
      </trkpt>
      <trkpt lat="43.97095" lon="3.6007">
        <ele>260.65</ele>
        <time>2011-11-27T12:11:53Z</time>
      </trkpt>
      <trkpt lat="43.97152" lon="3.6002">
        <ele>264.02</ele>
        <time>2011-11-27T12:12:01Z</time>
      </trkpt>
      <trkpt lat="43.97157" lon="3.60017">
        <ele>264.02</ele>
        <time>2011-11-27T12:12:02Z</time>
      </trkpt>
      <trkpt lat="43.97168" lon="3.6002">
        <ele>263.54</ele>
        <time>2011-11-27T12:12:03Z</time>
      </trkpt>
      <trkpt lat="43.97175" lon="3.6002">
        <ele>264.02</ele>
        <time>2011-11-27T12:12:04Z</time>
      </trkpt>
      <trkpt lat="43.97181" lon="3.60021">
        <ele>263.06</ele>
        <time>2011-11-27T12:12:05Z</time>
      </trkpt>
      <trkpt lat="43.97251" lon="3.60006">
        <ele>264.98</ele>
        <time>2011-11-27T12:12:13Z</time>
      </trkpt>
      <trkpt lat="43.97265" lon="3.6">
        <ele>263.54</ele>
        <time>2011-11-27T12:12:15Z</time>
      </trkpt>
      <trkpt lat="43.97272" lon="3.59999">
        <ele>263.54</ele>
        <time>2011-11-27T12:12:16Z</time>
      </trkpt>
      <trkpt lat="43.97288" lon="3.60001">
        <ele>262.58</ele>
        <time>2011-11-27T12:12:18Z</time>
      </trkpt>
      <trkpt lat="43.97329" lon="3.60014">
        <ele>257.77</ele>
        <time>2011-11-27T12:12:23Z</time>
      </trkpt>
      <trkpt lat="43.97417" lon="3.60031">
        <ele>248.64</ele>
        <time>2011-11-27T12:12:31Z</time>
      </trkpt>
      <trkpt lat="43.9744" lon="3.6003">
        <ele>248.16</ele>
        <time>2011-11-27T12:12:33Z</time>
      </trkpt>
      <trkpt lat="43.97452" lon="3.60027">
        <ele>247.68</ele>
        <time>2011-11-27T12:12:34Z</time>
      </trkpt>
      <trkpt lat="43.97466" lon="3.60017">
        <ele>247.68</ele>
        <time>2011-11-27T12:12:35Z</time>
      </trkpt>
      <trkpt lat="43.9748" lon="3.60005">
        <ele>247.2</ele>
        <time>2011-11-27T12:12:36Z</time>
      </trkpt>
      <trkpt lat="43.97494" lon="3.59994">
        <ele>247.2</ele>
        <time>2011-11-27T12:12:37Z</time>
      </trkpt>
      <trkpt lat="43.97543" lon="3.59957">
        <ele>246.23</ele>
        <time>2011-11-27T12:12:41Z</time>
      </trkpt>
      <trkpt lat="43.97554" lon="3.59952">
        <ele>246.23</ele>
        <time>2011-11-27T12:12:42Z</time>
      </trkpt>
      <trkpt lat="43.97566" lon="3.59949">
        <ele>246.23</ele>
        <time>2011-11-27T12:12:43Z</time>
      </trkpt>
      <trkpt lat="43.97577" lon="3.59953">
        <ele>245.27</ele>
        <time>2011-11-27T12:12:44Z</time>
      </trkpt>
      <trkpt lat="43.97588" lon="3.59958">
        <ele>244.79</ele>
        <time>2011-11-27T12:12:45Z</time>
      </trkpt>
      <trkpt lat="43.97602" lon="3.59966">
        <ele>242.87</ele>
        <time>2011-11-27T12:12:46Z</time>
      </trkpt>
      <trkpt lat="43.97616" lon="3.59976">
        <ele>241.43</ele>
        <time>2011-11-27T12:12:47Z</time>
      </trkpt>
      <trkpt lat="43.97697" lon="3.60023">
        <ele>240.95</ele>
        <time>2011-11-27T12:12:53Z</time>
      </trkpt>
      <trkpt lat="43.97707" lon="3.60025">
        <ele>240.95</ele>
        <time>2011-11-27T12:12:54Z</time>
      </trkpt>
      <trkpt lat="43.97718" lon="3.6002">
        <ele>240.95</ele>
        <time>2011-11-27T12:12:55Z</time>
      </trkpt>
      <trkpt lat="43.97728" lon="3.60009">
        <ele>240.47</ele>
        <time>2011-11-27T12:12:56Z</time>
      </trkpt>
      <trkpt lat="43.97736" lon="3.59994">
        <ele>239.99</ele>
        <time>2011-11-27T12:12:57Z</time>
      </trkpt>
      <trkpt lat="43.97743" lon="3.59978">
        <ele>239.99</ele>
        <time>2011-11-27T12:12:58Z</time>
      </trkpt>
      <trkpt lat="43.97748" lon="3.5996">
        <ele>239.99</ele>
        <time>2011-11-27T12:12:59Z</time>
      </trkpt>
      <trkpt lat="43.97753" lon="3.59944">
        <ele>239.51</ele>
        <time>2011-11-27T12:13:00Z</time>
      </trkpt>
      <trkpt lat="43.97759" lon="3.59929">
        <ele>239.51</ele>
        <time>2011-11-27T12:13:01Z</time>
      </trkpt>
      <trkpt lat="43.97773" lon="3.59905">
        <ele>239.99</ele>
        <time>2011-11-27T12:13:03Z</time>
      </trkpt>
      <trkpt lat="43.97783" lon="3.59899">
        <ele>239.99</ele>
        <time>2011-11-27T12:13:04Z</time>
      </trkpt>
      <trkpt lat="43.97797" lon="3.59897">
        <ele>239.02</ele>
        <time>2011-11-27T12:13:05Z</time>
      </trkpt>
      <trkpt lat="43.97857" lon="3.59882">
        <ele>238.54</ele>
        <time>2011-11-27T12:13:10Z</time>
      </trkpt>
      <trkpt lat="43.9791" lon="3.59882">
        <ele>239.02</ele>
        <time>2011-11-27T12:13:17Z</time>
      </trkpt>
      <trkpt lat="43.9792" lon="3.59888">
        <ele>239.51</ele>
        <time>2011-11-27T12:13:22Z</time>
      </trkpt>
      <trkpt lat="43.97929" lon="3.59896">
        <ele>239.02</ele>
        <time>2011-11-27T12:13:23Z</time>
      </trkpt>
      <trkpt lat="43.97992" lon="3.59949">
        <ele>239.02</ele>
        <time>2011-11-27T12:13:27Z</time>
      </trkpt>
      <trkpt lat="43.98132" lon="3.60072">
        <ele>236.14</ele>
        <time>2011-11-27T12:13:33Z</time>
      </trkpt>
      <trkpt lat="43.9828" lon="3.60211">
        <ele>233.74</ele>
        <time>2011-11-27T12:13:40Z</time>
      </trkpt>
      <trkpt lat="43.98375" lon="3.60304">
        <ele>232.78</ele>
        <time>2011-11-27T12:13:47Z</time>
      </trkpt>
      <trkpt lat="43.98521" lon="3.60415">
        <ele>231.33</ele>
        <time>2011-11-27T12:13:59Z</time>
      </trkpt>
      <trkpt lat="43.98559" lon="3.60438">
        <ele>230.37</ele>
        <time>2011-11-27T12:14:04Z</time>
      </trkpt>
      <trkpt lat="43.98562" lon="3.60442">
        <ele>230.37</ele>
        <time>2011-11-27T12:14:05Z</time>
      </trkpt>
      <trkpt lat="43.98565" lon="3.60443">
        <ele>229.89</ele>
        <time>2011-11-27T12:14:06Z</time>
      </trkpt>
      <trkpt lat="43.98569" lon="3.60444">
        <ele>229.89</ele>
        <time>2011-11-27T12:14:07Z</time>
      </trkpt>
      <trkpt lat="43.98574" lon="3.6044">
        <ele>230.37</ele>
        <time>2011-11-27T12:14:08Z</time>
      </trkpt>
      <trkpt lat="43.98579" lon="3.60434">
        <ele>230.37</ele>
        <time>2011-11-27T12:14:09Z</time>
      </trkpt>
      <trkpt lat="43.98579" lon="3.60425">
        <ele>230.85</ele>
        <time>2011-11-27T12:14:10Z</time>
      </trkpt>
      <trkpt lat="43.98577" lon="3.60417">
        <ele>230.85</ele>
        <time>2011-11-27T12:14:11Z</time>
      </trkpt>
      <trkpt lat="43.98576" lon="3.60408">
        <ele>230.85</ele>
        <time>2011-11-27T12:14:12Z</time>
      </trkpt>
      <trkpt lat="43.98576" lon="3.60398">
        <ele>230.85</ele>
        <time>2011-11-27T12:14:13Z</time>
      </trkpt>
      <trkpt lat="43.98578" lon="3.60388">
        <ele>231.33</ele>
        <time>2011-11-27T12:14:14Z</time>
      </trkpt>
      <trkpt lat="43.98582" lon="3.60378">
        <ele>231.33</ele>
        <time>2011-11-27T12:14:15Z</time>
      </trkpt>
      <trkpt lat="43.98585" lon="3.60369">
        <ele>232.3</ele>
        <time>2011-11-27T12:14:16Z</time>
      </trkpt>
      <trkpt lat="43.98606" lon="3.60321">
        <ele>235.66</ele>
        <time>2011-11-27T12:14:22Z</time>
      </trkpt>
      <trkpt lat="43.98608" lon="3.60312">
        <ele>236.14</ele>
        <time>2011-11-27T12:14:23Z</time>
      </trkpt>
      <trkpt lat="43.9861" lon="3.60304">
        <ele>237.1</ele>
        <time>2011-11-27T12:14:24Z</time>
      </trkpt>
      <trkpt lat="43.98611" lon="3.60297">
        <ele>237.1</ele>
        <time>2011-11-27T12:14:25Z</time>
      </trkpt>
      <trkpt lat="43.98613" lon="3.60292">
        <ele>238.06</ele>
        <time>2011-11-27T12:14:26Z</time>
      </trkpt>
      <trkpt lat="43.98614" lon="3.60289">
        <ele>239.02</ele>
        <time>2011-11-27T12:14:27Z</time>
      </trkpt>
      <trkpt lat="43.98615" lon="3.60288">
        <ele>239.99</ele>
        <time>2011-11-27T12:14:28Z</time>
      </trkpt>
      <trkpt lat="43.98616" lon="3.60287">
        <ele>240.47</ele>
        <time>2011-11-27T12:14:29Z</time>
      </trkpt>
      <trkpt lat="43.9862" lon="3.60286">
        <ele>240.47</ele>
        <time>2011-11-27T12:14:30Z</time>
      </trkpt>
      <trkpt lat="43.98625" lon="3.60287">
        <ele>240.47</ele>
        <time>2011-11-27T12:14:31Z</time>
      </trkpt>
      <trkpt lat="43.98631" lon="3.60289">
        <ele>239.99</ele>
        <time>2011-11-27T12:14:32Z</time>
      </trkpt>
      <trkpt lat="43.98737" lon="3.60319">
        <ele>238.06</ele>
        <time>2011-11-27T12:14:45Z</time>
      </trkpt>
      <trkpt lat="43.9881" lon="3.60337">
        <ele>237.58</ele>
        <time>2011-11-27T12:14:55Z</time>
      </trkpt>
      <trkpt lat="43.98818" lon="3.60341">
        <ele>237.1</ele>
        <time>2011-11-27T12:14:56Z</time>
      </trkpt>
      <trkpt lat="43.98826" lon="3.60346">
        <ele>237.1</ele>
        <time>2011-11-27T12:14:57Z</time>
      </trkpt>
      <trkpt lat="43.98833" lon="3.60352">
        <ele>237.58</ele>
        <time>2011-11-27T12:14:58Z</time>
      </trkpt>
      <trkpt lat="43.9884" lon="3.60358">
        <ele>237.1</ele>
        <time>2011-11-27T12:14:59Z</time>
      </trkpt>
      <trkpt lat="43.989" lon="3.60406">
        <ele>238.06</ele>
        <time>2011-11-27T12:15:10Z</time>
      </trkpt>
      <trkpt lat="43.98942" lon="3.60427">
        <ele>244.79</ele>
        <time>2011-11-27T12:15:17Z</time>
      </trkpt>
      <trkpt lat="43.98948" lon="3.60429">
        <ele>245.75</ele>
        <time>2011-11-27T12:15:18Z</time>
      </trkpt>
      <trkpt lat="43.99005" lon="3.60455">
        <ele>240.95</ele>
        <time>2011-11-27T12:15:29Z</time>
      </trkpt>
      <trkpt lat="43.99031" lon="3.60467">
        <ele>242.87</ele>
        <time>2011-11-27T12:15:34Z</time>
      </trkpt>
      <trkpt lat="43.99064" lon="3.60483">
        <ele>242.39</ele>
        <time>2011-11-27T12:15:40Z</time>
      </trkpt>
      <trkpt lat="43.99068" lon="3.60487">
        <ele>244.31</ele>
        <time>2011-11-27T12:15:41Z</time>
      </trkpt>
      <trkpt lat="43.99068" lon="3.60496">
        <ele>246.23</ele>
        <time>2011-11-27T12:15:42Z</time>
      </trkpt>
      <trkpt lat="43.99069" lon="3.60518">
        <ele>247.2</ele>
        <time>2011-11-27T12:15:45Z</time>
      </trkpt>
      <trkpt lat="43.99072" lon="3.60525">
        <ele>248.16</ele>
        <time>2011-11-27T12:15:46Z</time>
      </trkpt>
      <trkpt lat="43.99072" lon="3.60532">
        <ele>247.2</ele>
        <time>2011-11-27T12:15:47Z</time>
      </trkpt>
      <trkpt lat="43.9907" lon="3.60555">
        <ele>244.31</ele>
        <time>2011-11-27T12:15:50Z</time>
      </trkpt>
      <trkpt lat="43.99071" lon="3.60586">
        <ele>237.58</ele>
        <time>2011-11-27T12:15:54Z</time>
      </trkpt>
      <trkpt lat="43.99072" lon="3.60593">
        <ele>236.62</ele>
        <time>2011-11-27T12:15:55Z</time>
      </trkpt>
      <trkpt lat="43.99076" lon="3.60601">
        <ele>236.62</ele>
        <time>2011-11-27T12:15:56Z</time>
      </trkpt>
      <trkpt lat="43.99102" lon="3.6065">
        <ele>233.26</ele>
        <time>2011-11-27T12:16:03Z</time>
      </trkpt>
      <trkpt lat="43.99127" lon="3.6069">
        <ele>232.3</ele>
        <time>2011-11-27T12:16:12Z</time>
      </trkpt>
      <trkpt lat="43.9914" lon="3.60701">
        <ele>232.3</ele>
        <time>2011-11-27T12:16:15Z</time>
      </trkpt>
      <trkpt lat="43.99154" lon="3.60708">
        <ele>234.7</ele>
        <time>2011-11-27T12:16:18Z</time>
      </trkpt>
      <trkpt lat="43.99156" lon="3.60708">
        <ele>235.66</ele>
        <time>2011-11-27T12:16:19Z</time>
      </trkpt>
      <trkpt lat="43.99169" lon="3.60708">
        <ele>237.1</ele>
        <time>2011-11-27T12:16:23Z</time>
      </trkpt>
      <trkpt lat="43.9917" lon="3.60705">
        <ele>237.58</ele>
        <time>2011-11-27T12:16:24Z</time>
      </trkpt>
      <trkpt lat="43.9917" lon="3.60701">
        <ele>238.06</ele>
        <time>2011-11-27T12:16:25Z</time>
      </trkpt>
      <trkpt lat="43.99169" lon="3.60699">
        <ele>238.54</ele>
        <time>2011-11-27T12:16:26Z</time>
      </trkpt>
      <trkpt lat="43.99166" lon="3.60697">
        <ele>238.54</ele>
        <time>2011-11-27T12:16:27Z</time>
      </trkpt>
      <trkpt lat="43.99163" lon="3.60695">
        <ele>239.02</ele>
        <time>2011-11-27T12:16:28Z</time>
      </trkpt>
      <trkpt lat="43.99153" lon="3.60689">
        <ele>239.02</ele>
        <time>2011-11-27T12:16:31Z</time>
      </trkpt>
      <trkpt lat="43.99134" lon="3.60678">
        <ele>240.95</ele>
        <time>2011-11-27T12:16:37Z</time>
      </trkpt>
      <trkpt lat="43.99131" lon="3.60674">
        <ele>234.7</ele>
        <time>2011-11-27T12:16:49Z</time>
      </trkpt>
      <trkpt lat="43.99131" lon="3.60675">
        <ele>231.81</ele>
        <time>2011-11-27T12:17:30Z</time>
      </trkpt>
      <trkpt lat="43.99129" lon="3.60676">
        <ele>230.37</ele>
        <time>2011-11-27T12:18:22Z</time>
      </trkpt>
      <trkpt lat="43.9913" lon="3.60675">
        <ele>230.85</ele>
        <time>2011-11-27T12:18:59Z</time>
      </trkpt>
      <trkpt lat="43.9913" lon="3.60677">
        <ele>232.78</ele>
        <time>2011-11-27T12:21:09Z</time>
      </trkpt>
      <trkpt lat="43.99131" lon="3.60676">
        <ele>232.78</ele>
        <time>2011-11-27T12:21:48Z</time>
      </trkpt>
      <trkpt lat="43.99131" lon="3.60675">
        <ele>232.3</ele>
        <time>2011-11-27T12:22:18Z</time>
      </trkpt>
      <trkpt lat="43.99131" lon="3.60677">
        <ele>230.37</ele>
        <time>2011-11-27T12:22:53Z</time>
      </trkpt>
      <trkpt lat="43.99131" lon="3.60678">
        <ele>232.78</ele>
        <time>2011-11-27T12:23:32Z</time>
      </trkpt>
      <trkpt lat="43.99132" lon="3.6068">
        <ele>234.22</ele>
        <time>2011-11-27T12:24:59Z</time>
      </trkpt>
      <trkpt lat="43.99132" lon="3.60678">
        <ele>228.93</ele>
        <time>2011-11-27T12:26:11Z</time>
      </trkpt>
      <trkpt lat="43.99131" lon="3.60679">
        <ele>229.89</ele>
        <time>2011-11-27T12:26:58Z</time>
      </trkpt>
      <trkpt lat="43.99131" lon="3.60677">
        <ele>228.45</ele>
        <time>2011-11-27T12:28:02Z</time>
      </trkpt>
      <trkpt lat="43.99131" lon="3.60676">
        <ele>228.93</ele>
        <time>2011-11-27T12:28:53Z</time>
      </trkpt>
      <trkpt lat="43.99131" lon="3.60675">
        <ele>229.89</ele>
        <time>2011-11-27T12:29:17Z</time>
      </trkpt>
      <trkpt lat="43.99131" lon="3.60674">
        <ele>230.37</ele>
        <time>2011-11-27T12:29:48Z</time>
      </trkpt>
      <trkpt lat="43.99132" lon="3.60674">
        <ele>229.41</ele>
        <time>2011-11-27T12:30:17Z</time>
      </trkpt>
      <trkpt lat="43.99125" lon="3.60679">
        <ele>241.91</ele>
        <time>2011-11-27T12:31:21Z</time>
      </trkpt>
      <trkpt lat="43.99129" lon="3.60678">
        <ele>234.7</ele>
        <time>2011-11-27T12:31:57Z</time>
      </trkpt>
      <trkpt lat="43.99132" lon="3.60676">
        <ele>229.41</ele>
        <time>2011-11-27T12:32:28Z</time>
      </trkpt>
      <trkpt lat="43.9913" lon="3.60676">
        <ele>231.81</ele>
        <time>2011-11-27T12:33:57Z</time>
      </trkpt>
      <trkpt lat="43.99128" lon="3.60675">
        <ele>232.3</ele>
        <time>2011-11-27T12:34:21Z</time>
      </trkpt>
      <trkpt lat="43.99126" lon="3.60673">
        <ele>232.78</ele>
        <time>2011-11-27T12:34:22Z</time>
      </trkpt>
      <trkpt lat="43.99123" lon="3.6067">
        <ele>232.78</ele>
        <time>2011-11-27T12:34:23Z</time>
      </trkpt>
      <trkpt lat="43.99098" lon="3.60641">
        <ele>234.22</ele>
        <time>2011-11-27T12:34:32Z</time>
      </trkpt>
      <trkpt lat="43.99094" lon="3.60634">
        <ele>234.22</ele>
        <time>2011-11-27T12:34:33Z</time>
      </trkpt>
      <trkpt lat="43.9909" lon="3.60626">
        <ele>234.7</ele>
        <time>2011-11-27T12:34:34Z</time>
      </trkpt>
      <trkpt lat="43.99086" lon="3.60611">
        <ele>234.7</ele>
        <time>2011-11-27T12:34:36Z</time>
      </trkpt>
      <trkpt lat="43.99081" lon="3.60597">
        <ele>234.7</ele>
        <time>2011-11-27T12:34:39Z</time>
      </trkpt>
      <trkpt lat="43.99078" lon="3.60596">
        <ele>235.66</ele>
        <time>2011-11-27T12:34:40Z</time>
      </trkpt>
      <trkpt lat="43.99075" lon="3.60598">
        <ele>234.7</ele>
        <time>2011-11-27T12:34:41Z</time>
      </trkpt>
      <trkpt lat="43.99073" lon="3.60602">
        <ele>234.22</ele>
        <time>2011-11-27T12:34:42Z</time>
      </trkpt>
      <trkpt lat="43.99072" lon="3.60606">
        <ele>233.74</ele>
        <time>2011-11-27T12:34:43Z</time>
      </trkpt>
      <trkpt lat="43.99072" lon="3.60612">
        <ele>232.78</ele>
        <time>2011-11-27T12:34:44Z</time>
      </trkpt>
      <trkpt lat="43.99072" lon="3.60621">
        <ele>231.33</ele>
        <time>2011-11-27T12:34:45Z</time>
      </trkpt>
      <trkpt lat="43.99079" lon="3.6063">
        <ele>229.41</ele>
        <time>2011-11-27T12:34:46Z</time>
      </trkpt>
      <trkpt lat="43.99087" lon="3.60638">
        <ele>228.45</ele>
        <time>2011-11-27T12:34:47Z</time>
      </trkpt>
      <trkpt lat="43.99093" lon="3.60647">
        <ele>228.45</ele>
        <time>2011-11-27T12:34:48Z</time>
      </trkpt>
      <trkpt lat="43.99102" lon="3.60654">
        <ele>229.41</ele>
        <time>2011-11-27T12:34:49Z</time>
      </trkpt>
      <trkpt lat="43.99109" lon="3.60662">
        <ele>229.89</ele>
        <time>2011-11-27T12:34:50Z</time>
      </trkpt>
      <trkpt lat="43.99128" lon="3.60687">
        <ele>228.93</ele>
        <time>2011-11-27T12:34:54Z</time>
      </trkpt>
      <trkpt lat="43.99133" lon="3.60693">
        <ele>228.45</ele>
        <time>2011-11-27T12:34:55Z</time>
      </trkpt>
      <trkpt lat="43.99136" lon="3.60698">
        <ele>227.97</ele>
        <time>2011-11-27T12:34:56Z</time>
      </trkpt>
      <trkpt lat="43.9914" lon="3.60703">
        <ele>227.97</ele>
        <time>2011-11-27T12:34:57Z</time>
      </trkpt>
      <trkpt lat="43.99146" lon="3.60707">
        <ele>227.97</ele>
        <time>2011-11-27T12:34:58Z</time>
      </trkpt>
      <trkpt lat="43.9915" lon="3.6071">
        <ele>228.45</ele>
        <time>2011-11-27T12:34:59Z</time>
      </trkpt>
      <trkpt lat="43.99156" lon="3.60712">
        <ele>228.45</ele>
        <time>2011-11-27T12:35:00Z</time>
      </trkpt>
      <trkpt lat="43.99167" lon="3.60719">
        <ele>229.41</ele>
        <time>2011-11-27T12:35:02Z</time>
      </trkpt>
      <trkpt lat="43.99172" lon="3.60724">
        <ele>228.93</ele>
        <time>2011-11-27T12:35:03Z</time>
      </trkpt>
      <trkpt lat="43.99176" lon="3.60731">
        <ele>228.93</ele>
        <time>2011-11-27T12:35:04Z</time>
      </trkpt>
      <trkpt lat="43.99212" lon="3.60819">
        <ele>226.53</ele>
        <time>2011-11-27T12:35:14Z</time>
      </trkpt>
      <trkpt lat="43.99218" lon="3.60857">
        <ele>224.12</ele>
        <time>2011-11-27T12:35:19Z</time>
      </trkpt>
      <trkpt lat="43.99238" lon="3.60983">
        <ele>223.64</ele>
        <time>2011-11-27T12:35:31Z</time>
      </trkpt>
      <trkpt lat="43.99239" lon="3.61107">
        <ele>222.68</ele>
        <time>2011-11-27T12:35:42Z</time>
      </trkpt>
      <trkpt lat="43.99236" lon="3.61114">
        <ele>222.68</ele>
        <time>2011-11-27T12:35:43Z</time>
      </trkpt>
      <trkpt lat="43.99232" lon="3.61119">
        <ele>222.68</ele>
        <time>2011-11-27T12:35:44Z</time>
      </trkpt>
      <trkpt lat="43.99227" lon="3.61122">
        <ele>222.68</ele>
        <time>2011-11-27T12:35:45Z</time>
      </trkpt>
      <trkpt lat="43.9922" lon="3.61123">
        <ele>222.68</ele>
        <time>2011-11-27T12:35:46Z</time>
      </trkpt>
      <trkpt lat="43.99214" lon="3.61125">
        <ele>222.68</ele>
        <time>2011-11-27T12:35:47Z</time>
      </trkpt>
      <trkpt lat="43.99208" lon="3.61128">
        <ele>223.16</ele>
        <time>2011-11-27T12:35:48Z</time>
      </trkpt>
      <trkpt lat="43.99203" lon="3.61133">
        <ele>223.16</ele>
        <time>2011-11-27T12:35:49Z</time>
      </trkpt>
      <trkpt lat="43.992" lon="3.61141">
        <ele>223.16</ele>
        <time>2011-11-27T12:35:50Z</time>
      </trkpt>
      <trkpt lat="43.99199" lon="3.61149">
        <ele>223.16</ele>
        <time>2011-11-27T12:35:51Z</time>
      </trkpt>
      <trkpt lat="43.99201" lon="3.61159">
        <ele>223.16</ele>
        <time>2011-11-27T12:35:52Z</time>
      </trkpt>
      <trkpt lat="43.99205" lon="3.61169">
        <ele>223.16</ele>
        <time>2011-11-27T12:35:53Z</time>
      </trkpt>
      <trkpt lat="43.9921" lon="3.61181">
        <ele>223.16</ele>
        <time>2011-11-27T12:35:54Z</time>
      </trkpt>
      <trkpt lat="43.99213" lon="3.61195">
        <ele>223.16</ele>
        <time>2011-11-27T12:35:55Z</time>
      </trkpt>
      <trkpt lat="43.99216" lon="3.61211">
        <ele>223.16</ele>
        <time>2011-11-27T12:35:56Z</time>
      </trkpt>
      <trkpt lat="43.99217" lon="3.6123">
        <ele>223.64</ele>
        <time>2011-11-27T12:35:57Z</time>
      </trkpt>
      <trkpt lat="43.99218" lon="3.61251">
        <ele>223.64</ele>
        <time>2011-11-27T12:35:58Z</time>
      </trkpt>
      <trkpt lat="43.99233" lon="3.616">
        <ele>224.12</ele>
        <time>2011-11-27T12:36:14Z</time>
      </trkpt>
      <trkpt lat="43.99223" lon="3.6182">
        <ele>224.12</ele>
        <time>2011-11-27T12:36:24Z</time>
      </trkpt>
      <trkpt lat="43.99183" lon="3.62047">
        <ele>224.61</ele>
        <time>2011-11-27T12:36:34Z</time>
      </trkpt>
      <trkpt lat="43.99187" lon="3.62393">
        <ele>226.05</ele>
        <time>2011-11-27T12:36:48Z</time>
      </trkpt>
      <trkpt lat="43.9919" lon="3.62658">
        <ele>222.68</ele>
        <time>2011-11-27T12:37:00Z</time>
      </trkpt>
      <trkpt lat="43.99189" lon="3.62671">
        <ele>222.68</ele>
        <time>2011-11-27T12:37:01Z</time>
      </trkpt>
      <trkpt lat="43.99187" lon="3.62684">
        <ele>222.2</ele>
        <time>2011-11-27T12:37:02Z</time>
      </trkpt>
      <trkpt lat="43.99184" lon="3.62694">
        <ele>222.2</ele>
        <time>2011-11-27T12:37:03Z</time>
      </trkpt>
      <trkpt lat="43.99179" lon="3.62701">
        <ele>221.24</ele>
        <time>2011-11-27T12:37:04Z</time>
      </trkpt>
      <trkpt lat="43.99173" lon="3.62709">
        <ele>221.24</ele>
        <time>2011-11-27T12:37:05Z</time>
      </trkpt>
      <trkpt lat="43.99171" lon="3.62718">
        <ele>221.24</ele>
        <time>2011-11-27T12:37:06Z</time>
      </trkpt>
      <trkpt lat="43.99171" lon="3.62726">
        <ele>221.24</ele>
        <time>2011-11-27T12:37:07Z</time>
      </trkpt>
      <trkpt lat="43.99175" lon="3.62734">
        <ele>220.76</ele>
        <time>2011-11-27T12:37:08Z</time>
      </trkpt>
      <trkpt lat="43.99182" lon="3.62741">
        <ele>220.28</ele>
        <time>2011-11-27T12:37:09Z</time>
      </trkpt>
      <trkpt lat="43.99189" lon="3.62748">
        <ele>219.8</ele>
        <time>2011-11-27T12:37:10Z</time>
      </trkpt>
      <trkpt lat="43.99197" lon="3.62757">
        <ele>219.8</ele>
        <time>2011-11-27T12:37:11Z</time>
      </trkpt>
      <trkpt lat="43.99203" lon="3.6277">
        <ele>219.8</ele>
        <time>2011-11-27T12:37:12Z</time>
      </trkpt>
      <trkpt lat="43.99209" lon="3.62787">
        <ele>219.8</ele>
        <time>2011-11-27T12:37:13Z</time>
      </trkpt>
      <trkpt lat="43.99267" lon="3.62952">
        <ele>220.76</ele>
        <time>2011-11-27T12:37:21Z</time>
      </trkpt>
      <trkpt lat="43.99335" lon="3.63192">
        <ele>221.72</ele>
        <time>2011-11-27T12:37:32Z</time>
      </trkpt>
      <trkpt lat="43.99385" lon="3.63368">
        <ele>219.8</ele>
        <time>2011-11-27T12:37:40Z</time>
      </trkpt>
      <trkpt lat="43.99386" lon="3.63393">
        <ele>219.8</ele>
        <time>2011-11-27T12:37:41Z</time>
      </trkpt>
      <trkpt lat="43.99385" lon="3.6342">
        <ele>219.8</ele>
        <time>2011-11-27T12:37:42Z</time>
      </trkpt>
      <trkpt lat="43.99382" lon="3.63448">
        <ele>219.8</ele>
        <time>2011-11-27T12:37:43Z</time>
      </trkpt>
      <trkpt lat="43.99378" lon="3.63477">
        <ele>219.32</ele>
        <time>2011-11-27T12:37:44Z</time>
      </trkpt>
      <trkpt lat="43.99346" lon="3.63714">
        <ele>217.88</ele>
        <time>2011-11-27T12:37:53Z</time>
      </trkpt>
      <trkpt lat="43.99348" lon="3.63764">
        <ele>217.88</ele>
        <time>2011-11-27T12:37:55Z</time>
      </trkpt>
      <trkpt lat="43.99351" lon="3.63788">
        <ele>217.88</ele>
        <time>2011-11-27T12:37:56Z</time>
      </trkpt>
      <trkpt lat="43.99356" lon="3.63813">
        <ele>217.88</ele>
        <time>2011-11-27T12:37:57Z</time>
      </trkpt>
      <trkpt lat="43.99363" lon="3.63837">
        <ele>217.88</ele>
        <time>2011-11-27T12:37:58Z</time>
      </trkpt>
      <trkpt lat="43.9937" lon="3.6386">
        <ele>217.88</ele>
        <time>2011-11-27T12:37:59Z</time>
      </trkpt>
      <trkpt lat="43.99415" lon="3.63984">
        <ele>216.43</ele>
        <time>2011-11-27T12:38:05Z</time>
      </trkpt>
      <trkpt lat="43.99424" lon="3.63998">
        <ele>215.95</ele>
        <time>2011-11-27T12:38:06Z</time>
      </trkpt>
      <trkpt lat="43.99435" lon="3.64006">
        <ele>214.99</ele>
        <time>2011-11-27T12:38:07Z</time>
      </trkpt>
      <trkpt lat="43.99449" lon="3.64008">
        <ele>214.51</ele>
        <time>2011-11-27T12:38:08Z</time>
      </trkpt>
      <trkpt lat="43.99464" lon="3.64007">
        <ele>214.03</ele>
        <time>2011-11-27T12:38:09Z</time>
      </trkpt>
      <trkpt lat="43.9948" lon="3.64005">
        <ele>214.03</ele>
        <time>2011-11-27T12:38:10Z</time>
      </trkpt>
      <trkpt lat="43.99495" lon="3.64001">
        <ele>214.03</ele>
        <time>2011-11-27T12:38:11Z</time>
      </trkpt>
      <trkpt lat="43.99511" lon="3.63995">
        <ele>213.55</ele>
        <time>2011-11-27T12:38:12Z</time>
      </trkpt>
      <trkpt lat="43.99528" lon="3.63991">
        <ele>213.55</ele>
        <time>2011-11-27T12:38:13Z</time>
      </trkpt>
      <trkpt lat="43.99546" lon="3.63992">
        <ele>212.59</ele>
        <time>2011-11-27T12:38:14Z</time>
      </trkpt>
      <trkpt lat="43.99562" lon="3.64002">
        <ele>212.59</ele>
        <time>2011-11-27T12:38:15Z</time>
      </trkpt>
      <trkpt lat="43.99578" lon="3.64014">
        <ele>213.07</ele>
        <time>2011-11-27T12:38:16Z</time>
      </trkpt>
      <trkpt lat="43.99594" lon="3.64029">
        <ele>212.59</ele>
        <time>2011-11-27T12:38:17Z</time>
      </trkpt>
      <trkpt lat="43.9961" lon="3.64048">
        <ele>211.15</ele>
        <time>2011-11-27T12:38:18Z</time>
      </trkpt>
      <trkpt lat="43.99626" lon="3.64069">
        <ele>210.67</ele>
        <time>2011-11-27T12:38:19Z</time>
      </trkpt>
      <trkpt lat="43.99733" lon="3.64236">
        <ele>209.7</ele>
        <time>2011-11-27T12:38:27Z</time>
      </trkpt>
      <trkpt lat="43.99741" lon="3.64258">
        <ele>209.7</ele>
        <time>2011-11-27T12:38:28Z</time>
      </trkpt>
      <trkpt lat="43.99746" lon="3.64283">
        <ele>209.7</ele>
        <time>2011-11-27T12:38:29Z</time>
      </trkpt>
      <trkpt lat="43.99749" lon="3.64309">
        <ele>210.19</ele>
        <time>2011-11-27T12:38:30Z</time>
      </trkpt>
      <trkpt lat="43.99749" lon="3.64336">
        <ele>209.22</ele>
        <time>2011-11-27T12:38:31Z</time>
      </trkpt>
      <trkpt lat="43.99745" lon="3.64364">
        <ele>209.22</ele>
        <time>2011-11-27T12:38:32Z</time>
      </trkpt>
      <trkpt lat="43.99739" lon="3.6439">
        <ele>208.74</ele>
        <time>2011-11-27T12:38:33Z</time>
      </trkpt>
      <trkpt lat="43.99732" lon="3.64416">
        <ele>208.74</ele>
        <time>2011-11-27T12:38:34Z</time>
      </trkpt>
      <trkpt lat="43.99697" lon="3.64599">
        <ele>208.74</ele>
        <time>2011-11-27T12:38:41Z</time>
      </trkpt>
      <trkpt lat="43.99698" lon="3.64625">
        <ele>208.74</ele>
        <time>2011-11-27T12:38:42Z</time>
      </trkpt>
      <trkpt lat="43.997" lon="3.64649">
        <ele>207.78</ele>
        <time>2011-11-27T12:38:43Z</time>
      </trkpt>
      <trkpt lat="43.99706" lon="3.64672">
        <ele>207.3</ele>
        <time>2011-11-27T12:38:44Z</time>
      </trkpt>
      <trkpt lat="43.99717" lon="3.6469">
        <ele>206.34</ele>
        <time>2011-11-27T12:38:45Z</time>
      </trkpt>
      <trkpt lat="43.99732" lon="3.64705">
        <ele>205.86</ele>
        <time>2011-11-27T12:38:46Z</time>
      </trkpt>
      <trkpt lat="43.99753" lon="3.64716">
        <ele>206.34</ele>
        <time>2011-11-27T12:38:47Z</time>
      </trkpt>
      <trkpt lat="43.99774" lon="3.64727">
        <ele>205.86</ele>
        <time>2011-11-27T12:38:48Z</time>
      </trkpt>
      <trkpt lat="43.99888" lon="3.6482">
        <ele>201.53</ele>
        <time>2011-11-27T12:38:53Z</time>
      </trkpt>
      <trkpt lat="44.00002" lon="3.64955">
        <ele>200.57</ele>
        <time>2011-11-27T12:38:59Z</time>
      </trkpt>
      <trkpt lat="44.00015" lon="3.64984">
        <ele>200.57</ele>
        <time>2011-11-27T12:39:00Z</time>
      </trkpt>
      <trkpt lat="44.00025" lon="3.65014">
        <ele>200.09</ele>
        <time>2011-11-27T12:39:01Z</time>
      </trkpt>
      <trkpt lat="44.00032" lon="3.65047">
        <ele>200.09</ele>
        <time>2011-11-27T12:39:02Z</time>
      </trkpt>
      <trkpt lat="44.00038" lon="3.65081">
        <ele>200.09</ele>
        <time>2011-11-27T12:39:03Z</time>
      </trkpt>
      <trkpt lat="44.00062" lon="3.65186">
        <ele>199.61</ele>
        <time>2011-11-27T12:39:06Z</time>
      </trkpt>
      <trkpt lat="44.00073" lon="3.65218">
        <ele>199.61</ele>
        <time>2011-11-27T12:39:07Z</time>
      </trkpt>
      <trkpt lat="44.00106" lon="3.65303">
        <ele>198.17</ele>
        <time>2011-11-27T12:39:10Z</time>
      </trkpt>
      <trkpt lat="44.00112" lon="3.65333">
        <ele>197.69</ele>
        <time>2011-11-27T12:39:11Z</time>
      </trkpt>
      <trkpt lat="44.00116" lon="3.65366">
        <ele>197.21</ele>
        <time>2011-11-27T12:39:12Z</time>
      </trkpt>
      <trkpt lat="44.00145" lon="3.65601">
        <ele>195.77</ele>
        <time>2011-11-27T12:39:19Z</time>
      </trkpt>
      <trkpt lat="44.00144" lon="3.65635">
        <ele>195.28</ele>
        <time>2011-11-27T12:39:20Z</time>
      </trkpt>
      <trkpt lat="44.0014" lon="3.65668">
        <ele>195.28</ele>
        <time>2011-11-27T12:39:21Z</time>
      </trkpt>
      <trkpt lat="44.00133" lon="3.657">
        <ele>195.28</ele>
        <time>2011-11-27T12:39:22Z</time>
      </trkpt>
      <trkpt lat="44.00125" lon="3.65729">
        <ele>194.8</ele>
        <time>2011-11-27T12:39:23Z</time>
      </trkpt>
      <trkpt lat="44.00113" lon="3.65754">
        <ele>195.28</ele>
        <time>2011-11-27T12:39:24Z</time>
      </trkpt>
      <trkpt lat="44.00099" lon="3.65772">
        <ele>194.8</ele>
        <time>2011-11-27T12:39:25Z</time>
      </trkpt>
      <trkpt lat="44.00084" lon="3.65785">
        <ele>194.8</ele>
        <time>2011-11-27T12:39:26Z</time>
      </trkpt>
      <trkpt lat="44.00069" lon="3.65797">
        <ele>194.8</ele>
        <time>2011-11-27T12:39:27Z</time>
      </trkpt>
      <trkpt lat="44.00057" lon="3.6581">
        <ele>195.28</ele>
        <time>2011-11-27T12:39:28Z</time>
      </trkpt>
      <trkpt lat="44.00048" lon="3.65824">
        <ele>195.77</ele>
        <time>2011-11-27T12:39:29Z</time>
      </trkpt>
      <trkpt lat="44.00041" lon="3.65839">
        <ele>196.25</ele>
        <time>2011-11-27T12:39:30Z</time>
      </trkpt>
      <trkpt lat="44.00038" lon="3.65855">
        <ele>197.21</ele>
        <time>2011-11-27T12:39:31Z</time>
      </trkpt>
      <trkpt lat="44.0004" lon="3.65874">
        <ele>197.69</ele>
        <time>2011-11-27T12:39:32Z</time>
      </trkpt>
      <trkpt lat="44.00044" lon="3.65892">
        <ele>198.17</ele>
        <time>2011-11-27T12:39:33Z</time>
      </trkpt>
      <trkpt lat="44.00048" lon="3.6591">
        <ele>198.17</ele>
        <time>2011-11-27T12:39:34Z</time>
      </trkpt>
      <trkpt lat="44.00053" lon="3.65926">
        <ele>198.17</ele>
        <time>2011-11-27T12:39:35Z</time>
      </trkpt>
      <trkpt lat="44.0006" lon="3.65941">
        <ele>198.17</ele>
        <time>2011-11-27T12:39:36Z</time>
      </trkpt>
      <trkpt lat="44.00067" lon="3.65955">
        <ele>197.21</ele>
        <time>2011-11-27T12:39:37Z</time>
      </trkpt>
      <trkpt lat="44.00074" lon="3.6597">
        <ele>196.25</ele>
        <time>2011-11-27T12:39:38Z</time>
      </trkpt>
      <trkpt lat="44.00079" lon="3.65986">
        <ele>195.77</ele>
        <time>2011-11-27T12:39:39Z</time>
      </trkpt>
      <trkpt lat="44.00083" lon="3.66004">
        <ele>195.28</ele>
        <time>2011-11-27T12:39:40Z</time>
      </trkpt>
      <trkpt lat="44.00089" lon="3.66035">
        <ele>194.8</ele>
        <time>2011-11-27T12:39:42Z</time>
      </trkpt>
      <trkpt lat="44.00093" lon="3.66047">
        <ele>194.32</ele>
        <time>2011-11-27T12:39:43Z</time>
      </trkpt>
      <trkpt lat="44.00098" lon="3.66056">
        <ele>193.84</ele>
        <time>2011-11-27T12:39:44Z</time>
      </trkpt>
      <trkpt lat="44.00104" lon="3.66066">
        <ele>193.84</ele>
        <time>2011-11-27T12:39:45Z</time>
      </trkpt>
      <trkpt lat="44.00106" lon="3.66076">
        <ele>193.84</ele>
        <time>2011-11-27T12:39:46Z</time>
      </trkpt>
      <trkpt lat="44.00104" lon="3.66086">
        <ele>193.36</ele>
        <time>2011-11-27T12:39:47Z</time>
      </trkpt>
      <trkpt lat="44.00099" lon="3.66098">
        <ele>193.84</ele>
        <time>2011-11-27T12:39:48Z</time>
      </trkpt>
      <trkpt lat="44.00092" lon="3.6611">
        <ele>193.36</ele>
        <time>2011-11-27T12:39:49Z</time>
      </trkpt>
      <trkpt lat="44.00083" lon="3.66125">
        <ele>193.84</ele>
        <time>2011-11-27T12:39:50Z</time>
      </trkpt>
      <trkpt lat="44.00014" lon="3.66268">
        <ele>195.77</ele>
        <time>2011-11-27T12:40:00Z</time>
      </trkpt>
      <trkpt lat="43.99972" lon="3.6634">
        <ele>201.05</ele>
        <time>2011-11-27T12:40:07Z</time>
      </trkpt>
      <trkpt lat="43.99968" lon="3.66352">
        <ele>201.53</ele>
        <time>2011-11-27T12:40:08Z</time>
      </trkpt>
      <trkpt lat="43.99964" lon="3.66365">
        <ele>202.01</ele>
        <time>2011-11-27T12:40:09Z</time>
      </trkpt>
      <trkpt lat="43.99962" lon="3.66379">
        <ele>202.49</ele>
        <time>2011-11-27T12:40:10Z</time>
      </trkpt>
      <trkpt lat="43.99959" lon="3.66395">
        <ele>202.98</ele>
        <time>2011-11-27T12:40:11Z</time>
      </trkpt>
      <trkpt lat="43.99929" lon="3.66586">
        <ele>205.38</ele>
        <time>2011-11-27T12:40:23Z</time>
      </trkpt>
      <trkpt lat="43.99897" lon="3.66828">
        <ele>203.46</ele>
        <time>2011-11-27T12:40:37Z</time>
      </trkpt>
      <trkpt lat="43.99875" lon="3.67081">
        <ele>200.57</ele>
        <time>2011-11-27T12:40:49Z</time>
      </trkpt>
      <trkpt lat="43.99854" lon="3.67274">
        <ele>196.25</ele>
        <time>2011-11-27T12:40:58Z</time>
      </trkpt>
      <trkpt lat="43.99848" lon="3.67296">
        <ele>195.77</ele>
        <time>2011-11-27T12:40:59Z</time>
      </trkpt>
      <trkpt lat="43.9984" lon="3.67318">
        <ele>195.28</ele>
        <time>2011-11-27T12:41:00Z</time>
      </trkpt>
      <trkpt lat="43.99777" lon="3.67489">
        <ele>193.84</ele>
        <time>2011-11-27T12:41:07Z</time>
      </trkpt>
      <trkpt lat="43.99723" lon="3.67634">
        <ele>194.32</ele>
        <time>2011-11-27T12:41:15Z</time>
      </trkpt>
      <trkpt lat="43.99701" lon="3.67681">
        <ele>195.28</ele>
        <time>2011-11-27T12:41:19Z</time>
      </trkpt>
      <trkpt lat="43.99692" lon="3.6769">
        <ele>195.28</ele>
        <time>2011-11-27T12:41:20Z</time>
      </trkpt>
      <trkpt lat="43.99682" lon="3.67699">
        <ele>194.8</ele>
        <time>2011-11-27T12:41:21Z</time>
      </trkpt>
      <trkpt lat="43.99586" lon="3.67788">
        <ele>195.28</ele>
        <time>2011-11-27T12:41:31Z</time>
      </trkpt>
      <trkpt lat="43.99578" lon="3.67792">
        <ele>195.28</ele>
        <time>2011-11-27T12:41:32Z</time>
      </trkpt>
      <trkpt lat="43.99572" lon="3.6779">
        <ele>194.8</ele>
        <time>2011-11-27T12:41:33Z</time>
      </trkpt>
      <trkpt lat="43.99564" lon="3.67783">
        <ele>194.8</ele>
        <time>2011-11-27T12:41:34Z</time>
      </trkpt>
      <trkpt lat="43.99557" lon="3.67773">
        <ele>194.8</ele>
        <time>2011-11-27T12:41:35Z</time>
      </trkpt>
      <trkpt lat="43.99549" lon="3.6776">
        <ele>194.8</ele>
        <time>2011-11-27T12:41:36Z</time>
      </trkpt>
      <trkpt lat="43.99541" lon="3.67746">
        <ele>194.8</ele>
        <time>2011-11-27T12:41:37Z</time>
      </trkpt>
      <trkpt lat="43.99517" lon="3.67709">
        <ele>194.8</ele>
        <time>2011-11-27T12:41:40Z</time>
      </trkpt>
      <trkpt lat="43.99507" lon="3.67699">
        <ele>194.8</ele>
        <time>2011-11-27T12:41:41Z</time>
      </trkpt>
      <trkpt lat="43.99497" lon="3.67692">
        <ele>194.32</ele>
        <time>2011-11-27T12:41:42Z</time>
      </trkpt>
      <trkpt lat="43.99486" lon="3.67686">
        <ele>194.32</ele>
        <time>2011-11-27T12:41:43Z</time>
      </trkpt>
      <trkpt lat="43.99475" lon="3.67683">
        <ele>194.32</ele>
        <time>2011-11-27T12:41:44Z</time>
      </trkpt>
      <trkpt lat="43.99463" lon="3.67683">
        <ele>194.32</ele>
        <time>2011-11-27T12:41:45Z</time>
      </trkpt>
      <trkpt lat="43.9945" lon="3.67684">
        <ele>194.32</ele>
        <time>2011-11-27T12:41:46Z</time>
      </trkpt>
      <trkpt lat="43.99436" lon="3.67686">
        <ele>194.32</ele>
        <time>2011-11-27T12:41:47Z</time>
      </trkpt>
      <trkpt lat="43.99387" lon="3.677">
        <ele>194.32</ele>
        <time>2011-11-27T12:41:51Z</time>
      </trkpt>
      <trkpt lat="43.99376" lon="3.67707">
        <ele>194.32</ele>
        <time>2011-11-27T12:41:52Z</time>
      </trkpt>
      <trkpt lat="43.99365" lon="3.67715">
        <ele>194.32</ele>
        <time>2011-11-27T12:41:53Z</time>
      </trkpt>
      <trkpt lat="43.9925" lon="3.67841">
        <ele>193.36</ele>
        <time>2011-11-27T12:42:04Z</time>
      </trkpt>
      <trkpt lat="43.99242" lon="3.67856">
        <ele>193.84</ele>
        <time>2011-11-27T12:42:05Z</time>
      </trkpt>
      <trkpt lat="43.99235" lon="3.67873">
        <ele>193.36</ele>
        <time>2011-11-27T12:42:06Z</time>
      </trkpt>
      <trkpt lat="43.99229" lon="3.6789">
        <ele>193.84</ele>
        <time>2011-11-27T12:42:07Z</time>
      </trkpt>
      <trkpt lat="43.99224" lon="3.6791">
        <ele>193.84</ele>
        <time>2011-11-27T12:42:08Z</time>
      </trkpt>
      <trkpt lat="43.99219" lon="3.67932">
        <ele>194.32</ele>
        <time>2011-11-27T12:42:09Z</time>
      </trkpt>
      <trkpt lat="43.99215" lon="3.67954">
        <ele>194.8</ele>
        <time>2011-11-27T12:42:10Z</time>
      </trkpt>
      <trkpt lat="43.99187" lon="3.6811">
        <ele>194.32</ele>
        <time>2011-11-27T12:42:17Z</time>
      </trkpt>
      <trkpt lat="43.99186" lon="3.68132">
        <ele>194.32</ele>
        <time>2011-11-27T12:42:18Z</time>
      </trkpt>
      <trkpt lat="43.99187" lon="3.68154">
        <ele>193.84</ele>
        <time>2011-11-27T12:42:19Z</time>
      </trkpt>
      <trkpt lat="43.9919" lon="3.68176">
        <ele>193.84</ele>
        <time>2011-11-27T12:42:20Z</time>
      </trkpt>
      <trkpt lat="43.99195" lon="3.68198">
        <ele>193.36</ele>
        <time>2011-11-27T12:42:21Z</time>
      </trkpt>
      <trkpt lat="43.99203" lon="3.6822">
        <ele>192.88</ele>
        <time>2011-11-27T12:42:22Z</time>
      </trkpt>
      <trkpt lat="43.99211" lon="3.68244">
        <ele>192.4</ele>
        <time>2011-11-27T12:42:23Z</time>
      </trkpt>
      <trkpt lat="43.99312" lon="3.68508">
        <ele>189.04</ele>
        <time>2011-11-27T12:42:33Z</time>
      </trkpt>
      <trkpt lat="43.99351" lon="3.68631">
        <ele>189.04</ele>
        <time>2011-11-27T12:42:38Z</time>
      </trkpt>
      <trkpt lat="43.99353" lon="3.68656">
        <ele>188.56</ele>
        <time>2011-11-27T12:42:39Z</time>
      </trkpt>
      <trkpt lat="43.99353" lon="3.68682">
        <ele>188.56</ele>
        <time>2011-11-27T12:42:40Z</time>
      </trkpt>
      <trkpt lat="43.9935" lon="3.68708">
        <ele>188.56</ele>
        <time>2011-11-27T12:42:41Z</time>
      </trkpt>
      <trkpt lat="43.99343" lon="3.68733">
        <ele>188.56</ele>
        <time>2011-11-27T12:42:42Z</time>
      </trkpt>
      <trkpt lat="43.99334" lon="3.68757">
        <ele>189.04</ele>
        <time>2011-11-27T12:42:43Z</time>
      </trkpt>
      <trkpt lat="43.99321" lon="3.68778">
        <ele>189.04</ele>
        <time>2011-11-27T12:42:44Z</time>
      </trkpt>
      <trkpt lat="43.99304" lon="3.68798">
        <ele>188.56</ele>
        <time>2011-11-27T12:42:45Z</time>
      </trkpt>
      <trkpt lat="43.99285" lon="3.68816">
        <ele>188.56</ele>
        <time>2011-11-27T12:42:46Z</time>
      </trkpt>
      <trkpt lat="43.99265" lon="3.68832">
        <ele>188.56</ele>
        <time>2011-11-27T12:42:47Z</time>
      </trkpt>
      <trkpt lat="43.99245" lon="3.68846">
        <ele>188.08</ele>
        <time>2011-11-27T12:42:48Z</time>
      </trkpt>
      <trkpt lat="43.99225" lon="3.68858">
        <ele>188.08</ele>
        <time>2011-11-27T12:42:49Z</time>
      </trkpt>
      <trkpt lat="43.99188" lon="3.68878">
        <ele>187.11</ele>
        <time>2011-11-27T12:42:51Z</time>
      </trkpt>
      <trkpt lat="43.99169" lon="3.68883">
        <ele>186.15</ele>
        <time>2011-11-27T12:42:52Z</time>
      </trkpt>
      <trkpt lat="43.9915" lon="3.68884">
        <ele>186.15</ele>
        <time>2011-11-27T12:42:53Z</time>
      </trkpt>
      <trkpt lat="43.9913" lon="3.68881">
        <ele>186.63</ele>
        <time>2011-11-27T12:42:54Z</time>
      </trkpt>
      <trkpt lat="43.99109" lon="3.68875">
        <ele>186.63</ele>
        <time>2011-11-27T12:42:55Z</time>
      </trkpt>
      <trkpt lat="43.99086" lon="3.68867">
        <ele>187.11</ele>
        <time>2011-11-27T12:42:56Z</time>
      </trkpt>
      <trkpt lat="43.98924" lon="3.68831">
        <ele>187.11</ele>
        <time>2011-11-27T12:43:03Z</time>
      </trkpt>
      <trkpt lat="43.98838" lon="3.6881">
        <ele>186.15</ele>
        <time>2011-11-27T12:43:07Z</time>
      </trkpt>
      <trkpt lat="43.98817" lon="3.688">
        <ele>186.15</ele>
        <time>2011-11-27T12:43:08Z</time>
      </trkpt>
      <trkpt lat="43.98796" lon="3.68787">
        <ele>186.15</ele>
        <time>2011-11-27T12:43:09Z</time>
      </trkpt>
      <trkpt lat="43.98564" lon="3.68599">
        <ele>187.59</ele>
        <time>2011-11-27T12:43:20Z</time>
      </trkpt>
      <trkpt lat="43.98426" lon="3.68495">
        <ele>187.11</ele>
        <time>2011-11-27T12:43:27Z</time>
      </trkpt>
      <trkpt lat="43.98387" lon="3.68479">
        <ele>187.59</ele>
        <time>2011-11-27T12:43:29Z</time>
      </trkpt>
      <trkpt lat="43.98368" lon="3.68476">
        <ele>187.59</ele>
        <time>2011-11-27T12:43:30Z</time>
      </trkpt>
      <trkpt lat="43.98349" lon="3.68476">
        <ele>187.59</ele>
        <time>2011-11-27T12:43:31Z</time>
      </trkpt>
      <trkpt lat="43.98329" lon="3.68478">
        <ele>187.59</ele>
        <time>2011-11-27T12:43:32Z</time>
      </trkpt>
      <trkpt lat="43.9831" lon="3.68485">
        <ele>187.59</ele>
        <time>2011-11-27T12:43:33Z</time>
      </trkpt>
      <trkpt lat="43.98291" lon="3.68494">
        <ele>187.59</ele>
        <time>2011-11-27T12:43:34Z</time>
      </trkpt>
      <trkpt lat="43.98273" lon="3.68507">
        <ele>187.59</ele>
        <time>2011-11-27T12:43:35Z</time>
      </trkpt>
      <trkpt lat="43.98255" lon="3.68524">
        <ele>187.59</ele>
        <time>2011-11-27T12:43:36Z</time>
      </trkpt>
      <trkpt lat="43.9824" lon="3.68543">
        <ele>187.11</ele>
        <time>2011-11-27T12:43:37Z</time>
      </trkpt>
      <trkpt lat="43.98226" lon="3.68565">
        <ele>186.63</ele>
        <time>2011-11-27T12:43:38Z</time>
      </trkpt>
      <trkpt lat="43.98213" lon="3.68589">
        <ele>186.15</ele>
        <time>2011-11-27T12:43:39Z</time>
      </trkpt>
      <trkpt lat="43.98203" lon="3.68616">
        <ele>186.15</ele>
        <time>2011-11-27T12:43:40Z</time>
      </trkpt>
      <trkpt lat="43.98196" lon="3.68644">
        <ele>185.67</ele>
        <time>2011-11-27T12:43:41Z</time>
      </trkpt>
      <trkpt lat="43.98191" lon="3.68673">
        <ele>184.71</ele>
        <time>2011-11-27T12:43:42Z</time>
      </trkpt>
      <trkpt lat="43.98189" lon="3.68703">
        <ele>184.23</ele>
        <time>2011-11-27T12:43:43Z</time>
      </trkpt>
      <trkpt lat="43.98191" lon="3.68734">
        <ele>183.75</ele>
        <time>2011-11-27T12:43:44Z</time>
      </trkpt>
      <trkpt lat="43.98194" lon="3.68766">
        <ele>183.27</ele>
        <time>2011-11-27T12:43:45Z</time>
      </trkpt>
      <trkpt lat="43.982" lon="3.68797">
        <ele>183.27</ele>
        <time>2011-11-27T12:43:46Z</time>
      </trkpt>
      <trkpt lat="43.98205" lon="3.68828">
        <ele>182.79</ele>
        <time>2011-11-27T12:43:47Z</time>
      </trkpt>
      <trkpt lat="43.98249" lon="3.69093">
        <ele>181.83</ele>
        <time>2011-11-27T12:43:56Z</time>
      </trkpt>
      <trkpt lat="43.98246" lon="3.6912">
        <ele>181.83</ele>
        <time>2011-11-27T12:43:57Z</time>
      </trkpt>
      <trkpt lat="43.9824" lon="3.69145">
        <ele>181.83</ele>
        <time>2011-11-27T12:43:58Z</time>
      </trkpt>
      <trkpt lat="43.98231" lon="3.69169">
        <ele>182.31</ele>
        <time>2011-11-27T12:43:59Z</time>
      </trkpt>
      <trkpt lat="43.9822" lon="3.6919">
        <ele>181.83</ele>
        <time>2011-11-27T12:44:00Z</time>
      </trkpt>
      <trkpt lat="43.98205" lon="3.69208">
        <ele>182.31</ele>
        <time>2011-11-27T12:44:01Z</time>
      </trkpt>
      <trkpt lat="43.98184" lon="3.69218">
        <ele>181.83</ele>
        <time>2011-11-27T12:44:02Z</time>
      </trkpt>
      <trkpt lat="43.98163" lon="3.69224">
        <ele>181.35</ele>
        <time>2011-11-27T12:44:03Z</time>
      </trkpt>
      <trkpt lat="43.98142" lon="3.69226">
        <ele>181.35</ele>
        <time>2011-11-27T12:44:04Z</time>
      </trkpt>
      <trkpt lat="43.98121" lon="3.69223">
        <ele>180.87</ele>
        <time>2011-11-27T12:44:05Z</time>
      </trkpt>
      <trkpt lat="43.98099" lon="3.69218">
        <ele>180.87</ele>
        <time>2011-11-27T12:44:06Z</time>
      </trkpt>
      <trkpt lat="43.98078" lon="3.6921">
        <ele>180.87</ele>
        <time>2011-11-27T12:44:07Z</time>
      </trkpt>
      <trkpt lat="43.98056" lon="3.692">
        <ele>180.87</ele>
        <time>2011-11-27T12:44:08Z</time>
      </trkpt>
      <trkpt lat="43.98034" lon="3.6919">
        <ele>180.87</ele>
        <time>2011-11-27T12:44:09Z</time>
      </trkpt>
      <trkpt lat="43.98013" lon="3.69177">
        <ele>180.87</ele>
        <time>2011-11-27T12:44:10Z</time>
      </trkpt>
      <trkpt lat="43.97993" lon="3.6916">
        <ele>180.87</ele>
        <time>2011-11-27T12:44:11Z</time>
      </trkpt>
      <trkpt lat="43.97973" lon="3.69143">
        <ele>180.87</ele>
        <time>2011-11-27T12:44:12Z</time>
      </trkpt>
      <trkpt lat="43.97856" lon="3.6899">
        <ele>179.42</ele>
        <time>2011-11-27T12:44:19Z</time>
      </trkpt>
      <trkpt lat="43.97781" lon="3.68789">
        <ele>179.42</ele>
        <time>2011-11-27T12:44:26Z</time>
      </trkpt>
      <trkpt lat="43.97725" lon="3.68664">
        <ele>179.9</ele>
        <time>2011-11-27T12:44:31Z</time>
      </trkpt>
      <trkpt lat="43.97711" lon="3.68647">
        <ele>179.9</ele>
        <time>2011-11-27T12:44:32Z</time>
      </trkpt>
      <trkpt lat="43.97695" lon="3.68632">
        <ele>179.9</ele>
        <time>2011-11-27T12:44:33Z</time>
      </trkpt>
      <trkpt lat="43.97675" lon="3.68626">
        <ele>179.9</ele>
        <time>2011-11-27T12:44:34Z</time>
      </trkpt>
      <trkpt lat="43.97656" lon="3.68622">
        <ele>179.9</ele>
        <time>2011-11-27T12:44:35Z</time>
      </trkpt>
      <trkpt lat="43.97635" lon="3.6862">
        <ele>179.9</ele>
        <time>2011-11-27T12:44:36Z</time>
      </trkpt>
      <trkpt lat="43.97613" lon="3.68623">
        <ele>179.9</ele>
        <time>2011-11-27T12:44:37Z</time>
      </trkpt>
      <trkpt lat="43.9759" lon="3.6863">
        <ele>179.9</ele>
        <time>2011-11-27T12:44:38Z</time>
      </trkpt>
      <trkpt lat="43.97566" lon="3.68638">
        <ele>179.9</ele>
        <time>2011-11-27T12:44:39Z</time>
      </trkpt>
      <trkpt lat="43.97367" lon="3.68713">
        <ele>176.54</ele>
        <time>2011-11-27T12:44:48Z</time>
      </trkpt>
      <trkpt lat="43.9735" lon="3.68729">
        <ele>176.06</ele>
        <time>2011-11-27T12:44:49Z</time>
      </trkpt>
      <trkpt lat="43.97334" lon="3.68749">
        <ele>176.06</ele>
        <time>2011-11-27T12:44:50Z</time>
      </trkpt>
      <trkpt lat="43.97195" lon="3.68933">
        <ele>176.54</ele>
        <time>2011-11-27T12:44:58Z</time>
      </trkpt>
      <trkpt lat="43.97054" lon="3.69147">
        <ele>174.62</ele>
        <time>2011-11-27T12:45:07Z</time>
      </trkpt>
      <trkpt lat="43.96982" lon="3.69256">
        <ele>172.69</ele>
        <time>2011-11-27T12:45:13Z</time>
      </trkpt>
      <trkpt lat="43.96969" lon="3.69268">
        <ele>172.21</ele>
        <time>2011-11-27T12:45:14Z</time>
      </trkpt>
      <trkpt lat="43.96955" lon="3.69277">
        <ele>171.73</ele>
        <time>2011-11-27T12:45:15Z</time>
      </trkpt>
      <trkpt lat="43.9694" lon="3.69283">
        <ele>171.73</ele>
        <time>2011-11-27T12:45:16Z</time>
      </trkpt>
      <trkpt lat="43.96923" lon="3.69285">
        <ele>171.25</ele>
        <time>2011-11-27T12:45:17Z</time>
      </trkpt>
      <trkpt lat="43.96905" lon="3.69284">
        <ele>171.25</ele>
        <time>2011-11-27T12:45:18Z</time>
      </trkpt>
      <trkpt lat="43.96884" lon="3.69279">
        <ele>171.25</ele>
        <time>2011-11-27T12:45:19Z</time>
      </trkpt>
      <trkpt lat="43.9686" lon="3.69271">
        <ele>171.25</ele>
        <time>2011-11-27T12:45:20Z</time>
      </trkpt>
      <trkpt lat="43.96836" lon="3.69261">
        <ele>171.73</ele>
        <time>2011-11-27T12:45:21Z</time>
      </trkpt>
      <trkpt lat="43.96688" lon="3.69175">
        <ele>171.73</ele>
        <time>2011-11-27T12:45:28Z</time>
      </trkpt>
      <trkpt lat="43.9667" lon="3.69157">
        <ele>171.73</ele>
        <time>2011-11-27T12:45:29Z</time>
      </trkpt>
      <trkpt lat="43.96654" lon="3.69136">
        <ele>171.25</ele>
        <time>2011-11-27T12:45:30Z</time>
      </trkpt>
      <trkpt lat="43.96639" lon="3.69113">
        <ele>170.29</ele>
        <time>2011-11-27T12:45:31Z</time>
      </trkpt>
      <trkpt lat="43.96627" lon="3.69087">
        <ele>169.81</ele>
        <time>2011-11-27T12:45:32Z</time>
      </trkpt>
      <trkpt lat="43.96618" lon="3.69051">
        <ele>168.85</ele>
        <time>2011-11-27T12:45:33Z</time>
      </trkpt>
      <trkpt lat="43.9661" lon="3.6902">
        <ele>168.85</ele>
        <time>2011-11-27T12:45:34Z</time>
      </trkpt>
      <trkpt lat="43.96605" lon="3.68988">
        <ele>168.85</ele>
        <time>2011-11-27T12:45:35Z</time>
      </trkpt>
      <trkpt lat="43.96599" lon="3.68957">
        <ele>168.85</ele>
        <time>2011-11-27T12:45:36Z</time>
      </trkpt>
      <trkpt lat="43.96575" lon="3.68833">
        <ele>167.89</ele>
        <time>2011-11-27T12:45:41Z</time>
      </trkpt>
      <trkpt lat="43.96568" lon="3.68817">
        <ele>167.89</ele>
        <time>2011-11-27T12:45:42Z</time>
      </trkpt>
      <trkpt lat="43.96559" lon="3.68803">
        <ele>167.89</ele>
        <time>2011-11-27T12:45:43Z</time>
      </trkpt>
      <trkpt lat="43.96548" lon="3.68792">
        <ele>167.41</ele>
        <time>2011-11-27T12:45:44Z</time>
      </trkpt>
      <trkpt lat="43.96533" lon="3.68788">
        <ele>167.41</ele>
        <time>2011-11-27T12:45:45Z</time>
      </trkpt>
      <trkpt lat="43.96517" lon="3.68788">
        <ele>167.41</ele>
        <time>2011-11-27T12:45:46Z</time>
      </trkpt>
      <trkpt lat="43.96501" lon="3.68789">
        <ele>166.93</ele>
        <time>2011-11-27T12:45:47Z</time>
      </trkpt>
      <trkpt lat="43.96483" lon="3.6879">
        <ele>167.41</ele>
        <time>2011-11-27T12:45:48Z</time>
      </trkpt>
      <trkpt lat="43.96427" lon="3.68797">
        <ele>166.93</ele>
        <time>2011-11-27T12:45:51Z</time>
      </trkpt>
      <trkpt lat="43.96405" lon="3.68808">
        <ele>166.93</ele>
        <time>2011-11-27T12:45:52Z</time>
      </trkpt>
      <trkpt lat="43.96383" lon="3.68821">
        <ele>166.93</ele>
        <time>2011-11-27T12:45:53Z</time>
      </trkpt>
      <trkpt lat="43.96236" lon="3.68877">
        <ele>168.37</ele>
        <time>2011-11-27T12:45:59Z</time>
      </trkpt>
      <trkpt lat="43.96124" lon="3.68892">
        <ele>169.33</ele>
        <time>2011-11-27T12:46:04Z</time>
      </trkpt>
      <trkpt lat="43.96102" lon="3.68889">
        <ele>169.81</ele>
        <time>2011-11-27T12:46:05Z</time>
      </trkpt>
      <trkpt lat="43.96081" lon="3.68882">
        <ele>170.29</ele>
        <time>2011-11-27T12:46:06Z</time>
      </trkpt>
      <trkpt lat="43.9606" lon="3.68867">
        <ele>170.77</ele>
        <time>2011-11-27T12:46:07Z</time>
      </trkpt>
      <trkpt lat="43.9604" lon="3.6885">
        <ele>170.77</ele>
        <time>2011-11-27T12:46:08Z</time>
      </trkpt>
      <trkpt lat="43.9602" lon="3.68832">
        <ele>170.77</ele>
        <time>2011-11-27T12:46:09Z</time>
      </trkpt>
      <trkpt lat="43.9586" lon="3.68682">
        <ele>173.17</ele>
        <time>2011-11-27T12:46:17Z</time>
      </trkpt>
      <trkpt lat="43.95842" lon="3.68673">
        <ele>173.17</ele>
        <time>2011-11-27T12:46:18Z</time>
      </trkpt>
      <trkpt lat="43.95823" lon="3.6867">
        <ele>173.17</ele>
        <time>2011-11-27T12:46:19Z</time>
      </trkpt>
      <trkpt lat="43.95803" lon="3.68672">
        <ele>173.66</ele>
        <time>2011-11-27T12:46:20Z</time>
      </trkpt>
      <trkpt lat="43.95781" lon="3.68676">
        <ele>174.14</ele>
        <time>2011-11-27T12:46:21Z</time>
      </trkpt>
      <trkpt lat="43.95758" lon="3.68681">
        <ele>174.14</ele>
        <time>2011-11-27T12:46:22Z</time>
      </trkpt>
      <trkpt lat="43.95596" lon="3.687">
        <ele>173.66</ele>
        <time>2011-11-27T12:46:28Z</time>
      </trkpt>
      <trkpt lat="43.95495" lon="3.68707">
        <ele>173.17</ele>
        <time>2011-11-27T12:46:32Z</time>
      </trkpt>
      <trkpt lat="43.95469" lon="3.68702">
        <ele>172.69</ele>
        <time>2011-11-27T12:46:33Z</time>
      </trkpt>
      <trkpt lat="43.95444" lon="3.68692">
        <ele>172.69</ele>
        <time>2011-11-27T12:46:34Z</time>
      </trkpt>
      <trkpt lat="43.9542" lon="3.68678">
        <ele>172.21</ele>
        <time>2011-11-27T12:46:35Z</time>
      </trkpt>
      <trkpt lat="43.95396" lon="3.68665">
        <ele>171.73</ele>
        <time>2011-11-27T12:46:36Z</time>
      </trkpt>
      <trkpt lat="43.95373" lon="3.68648">
        <ele>170.77</ele>
        <time>2011-11-27T12:46:37Z</time>
      </trkpt>
      <trkpt lat="43.95351" lon="3.6863">
        <ele>169.81</ele>
        <time>2011-11-27T12:46:38Z</time>
      </trkpt>
      <trkpt lat="43.95169" lon="3.68535">
        <ele>163.08</ele>
        <time>2011-11-27T12:46:45Z</time>
      </trkpt>
      <trkpt lat="43.95009" lon="3.68496">
        <ele>160.68</ele>
        <time>2011-11-27T12:46:51Z</time>
      </trkpt>
      <trkpt lat="43.94825" lon="3.68407">
        <ele>160.68</ele>
        <time>2011-11-27T12:46:59Z</time>
      </trkpt>
      <trkpt lat="43.94727" lon="3.6837">
        <ele>161.16</ele>
        <time>2011-11-27T12:47:04Z</time>
      </trkpt>
      <trkpt lat="43.9471" lon="3.6837">
        <ele>161.16</ele>
        <time>2011-11-27T12:47:05Z</time>
      </trkpt>
      <trkpt lat="43.94696" lon="3.68377">
        <ele>161.16</ele>
        <time>2011-11-27T12:47:06Z</time>
      </trkpt>
      <trkpt lat="43.94683" lon="3.68389">
        <ele>161.64</ele>
        <time>2011-11-27T12:47:07Z</time>
      </trkpt>
      <trkpt lat="43.9467" lon="3.68405">
        <ele>162.12</ele>
        <time>2011-11-27T12:47:08Z</time>
      </trkpt>
      <trkpt lat="43.94658" lon="3.68426">
        <ele>163.08</ele>
        <time>2011-11-27T12:47:09Z</time>
      </trkpt>
      <trkpt lat="43.94645" lon="3.68449">
        <ele>164.04</ele>
        <time>2011-11-27T12:47:10Z</time>
      </trkpt>
      <trkpt lat="43.94633" lon="3.68473">
        <ele>165.48</ele>
        <time>2011-11-27T12:47:11Z</time>
      </trkpt>
      <trkpt lat="43.9459" lon="3.68611">
        <ele>170.29</ele>
        <time>2011-11-27T12:47:16Z</time>
      </trkpt>
      <trkpt lat="43.94587" lon="3.68642">
        <ele>171.25</ele>
        <time>2011-11-27T12:47:17Z</time>
      </trkpt>
      <trkpt lat="43.94568" lon="3.68817">
        <ele>177.02</ele>
        <time>2011-11-27T12:47:23Z</time>
      </trkpt>
      <trkpt lat="43.94561" lon="3.68842">
        <ele>177.5</ele>
        <time>2011-11-27T12:47:24Z</time>
      </trkpt>
      <trkpt lat="43.94551" lon="3.68866">
        <ele>178.46</ele>
        <time>2011-11-27T12:47:25Z</time>
      </trkpt>
      <trkpt lat="43.9454" lon="3.68888">
        <ele>179.42</ele>
        <time>2011-11-27T12:47:26Z</time>
      </trkpt>
      <trkpt lat="43.94527" lon="3.68906">
        <ele>179.9</ele>
        <time>2011-11-27T12:47:27Z</time>
      </trkpt>
      <trkpt lat="43.94512" lon="3.68921">
        <ele>180.38</ele>
        <time>2011-11-27T12:47:28Z</time>
      </trkpt>
      <trkpt lat="43.94495" lon="3.68932">
        <ele>180.87</ele>
        <time>2011-11-27T12:47:29Z</time>
      </trkpt>
      <trkpt lat="43.94476" lon="3.68939">
        <ele>181.35</ele>
        <time>2011-11-27T12:47:30Z</time>
      </trkpt>
      <trkpt lat="43.94454" lon="3.68942">
        <ele>181.35</ele>
        <time>2011-11-27T12:47:31Z</time>
      </trkpt>
      <trkpt lat="43.9443" lon="3.68943">
        <ele>181.35</ele>
        <time>2011-11-27T12:47:32Z</time>
      </trkpt>
      <trkpt lat="43.94405" lon="3.68942">
        <ele>180.38</ele>
        <time>2011-11-27T12:47:33Z</time>
      </trkpt>
      <trkpt lat="43.94379" lon="3.68939">
        <ele>178.94</ele>
        <time>2011-11-27T12:47:34Z</time>
      </trkpt>
      <trkpt lat="43.94276" lon="3.68938">
        <ele>174.62</ele>
        <time>2011-11-27T12:47:38Z</time>
      </trkpt>
      <trkpt lat="43.9425" lon="3.68945">
        <ele>173.66</ele>
        <time>2011-11-27T12:47:39Z</time>
      </trkpt>
      <trkpt lat="43.94225" lon="3.68955">
        <ele>172.69</ele>
        <time>2011-11-27T12:47:40Z</time>
      </trkpt>
      <trkpt lat="43.94028" lon="3.69045">
        <ele>164.52</ele>
        <time>2011-11-27T12:47:48Z</time>
      </trkpt>
      <trkpt lat="43.94004" lon="3.69047">
        <ele>163.56</ele>
        <time>2011-11-27T12:47:49Z</time>
      </trkpt>
      <trkpt lat="43.93897" lon="3.6905">
        <ele>159.72</ele>
        <time>2011-11-27T12:47:54Z</time>
      </trkpt>
      <trkpt lat="43.93879" lon="3.69056">
        <ele>159.24</ele>
        <time>2011-11-27T12:47:55Z</time>
      </trkpt>
      <trkpt lat="43.93863" lon="3.69067">
        <ele>158.27</ele>
        <time>2011-11-27T12:47:56Z</time>
      </trkpt>
      <trkpt lat="43.93848" lon="3.69082">
        <ele>157.79</ele>
        <time>2011-11-27T12:47:57Z</time>
      </trkpt>
      <trkpt lat="43.93836" lon="3.69101">
        <ele>155.87</ele>
        <time>2011-11-27T12:47:58Z</time>
      </trkpt>
      <trkpt lat="43.93828" lon="3.69124">
        <ele>154.91</ele>
        <time>2011-11-27T12:47:59Z</time>
      </trkpt>
      <trkpt lat="43.93824" lon="3.69151">
        <ele>153.95</ele>
        <time>2011-11-27T12:48:00Z</time>
      </trkpt>
      <trkpt lat="43.93821" lon="3.6918">
        <ele>152.99</ele>
        <time>2011-11-27T12:48:01Z</time>
      </trkpt>
      <trkpt lat="43.93823" lon="3.69214">
        <ele>152.99</ele>
        <time>2011-11-27T12:48:02Z</time>
      </trkpt>
      <trkpt lat="43.93823" lon="3.69247">
        <ele>152.51</ele>
        <time>2011-11-27T12:48:03Z</time>
      </trkpt>
      <trkpt lat="43.93822" lon="3.69277">
        <ele>152.51</ele>
        <time>2011-11-27T12:48:04Z</time>
      </trkpt>
      <trkpt lat="43.93819" lon="3.69306">
        <ele>152.03</ele>
        <time>2011-11-27T12:48:05Z</time>
      </trkpt>
      <trkpt lat="43.93814" lon="3.69334">
        <ele>151.54</ele>
        <time>2011-11-27T12:48:06Z</time>
      </trkpt>
      <trkpt lat="43.93806" lon="3.6936">
        <ele>151.54</ele>
        <time>2011-11-27T12:48:07Z</time>
      </trkpt>
      <trkpt lat="43.93798" lon="3.69384">
        <ele>151.06</ele>
        <time>2011-11-27T12:48:08Z</time>
      </trkpt>
      <trkpt lat="43.93789" lon="3.69406">
        <ele>151.06</ele>
        <time>2011-11-27T12:48:09Z</time>
      </trkpt>
      <trkpt lat="43.93759" lon="3.69469">
        <ele>150.1</ele>
        <time>2011-11-27T12:48:14Z</time>
      </trkpt>
      <trkpt lat="43.93704" lon="3.69569">
        <ele>151.54</ele>
        <time>2011-11-27T12:48:20Z</time>
      </trkpt>
      <trkpt lat="43.93617" lon="3.69707">
        <ele>151.54</ele>
        <time>2011-11-27T12:48:29Z</time>
      </trkpt>
      <trkpt lat="43.93548" lon="3.69809">
        <ele>152.99</ele>
        <time>2011-11-27T12:48:37Z</time>
      </trkpt>
      <trkpt lat="43.93478" lon="3.69917">
        <ele>154.43</ele>
        <time>2011-11-27T12:48:45Z</time>
      </trkpt>
      <trkpt lat="43.9342" lon="3.70015">
        <ele>154.43</ele>
        <time>2011-11-27T12:48:52Z</time>
      </trkpt>
      <trkpt lat="43.93357" lon="3.70166">
        <ele>156.83</ele>
        <time>2011-11-27T12:49:01Z</time>
      </trkpt>
      <trkpt lat="43.93303" lon="3.70294">
        <ele>156.83</ele>
        <time>2011-11-27T12:49:10Z</time>
      </trkpt>
      <trkpt lat="43.93286" lon="3.70325">
        <ele>156.35</ele>
        <time>2011-11-27T12:49:12Z</time>
      </trkpt>
      <trkpt lat="43.93276" lon="3.70339">
        <ele>155.87</ele>
        <time>2011-11-27T12:49:13Z</time>
      </trkpt>
      <trkpt lat="43.93265" lon="3.70351">
        <ele>155.39</ele>
        <time>2011-11-27T12:49:14Z</time>
      </trkpt>
      <trkpt lat="43.93252" lon="3.70361">
        <ele>154.91</ele>
        <time>2011-11-27T12:49:15Z</time>
      </trkpt>
      <trkpt lat="43.9324" lon="3.7037">
        <ele>154.43</ele>
        <time>2011-11-27T12:49:16Z</time>
      </trkpt>
      <trkpt lat="43.93159" lon="3.70429">
        <ele>151.54</ele>
        <time>2011-11-27T12:49:24Z</time>
      </trkpt>
      <trkpt lat="43.93152" lon="3.70436">
        <ele>151.54</ele>
        <time>2011-11-27T12:49:25Z</time>
      </trkpt>
      <trkpt lat="43.93144" lon="3.70445">
        <ele>151.54</ele>
        <time>2011-11-27T12:49:26Z</time>
      </trkpt>
      <trkpt lat="43.93136" lon="3.70454">
        <ele>151.54</ele>
        <time>2011-11-27T12:49:27Z</time>
      </trkpt>
      <trkpt lat="43.93127" lon="3.70463">
        <ele>151.54</ele>
        <time>2011-11-27T12:49:28Z</time>
      </trkpt>
      <trkpt lat="43.93116" lon="3.70473">
        <ele>151.54</ele>
        <time>2011-11-27T12:49:29Z</time>
      </trkpt>
      <trkpt lat="43.93065" lon="3.70521">
        <ele>150.58</ele>
        <time>2011-11-27T12:49:34Z</time>
      </trkpt>
      <trkpt lat="43.93058" lon="3.70524">
        <ele>150.58</ele>
        <time>2011-11-27T12:49:35Z</time>
      </trkpt>
      <trkpt lat="43.9305" lon="3.70523">
        <ele>150.58</ele>
        <time>2011-11-27T12:49:36Z</time>
      </trkpt>
      <trkpt lat="43.93041" lon="3.70524">
        <ele>150.58</ele>
        <time>2011-11-27T12:49:37Z</time>
      </trkpt>
      <trkpt lat="43.93033" lon="3.70526">
        <ele>150.1</ele>
        <time>2011-11-27T12:49:38Z</time>
      </trkpt>
      <trkpt lat="43.93026" lon="3.70532">
        <ele>150.1</ele>
        <time>2011-11-27T12:49:39Z</time>
      </trkpt>
      <trkpt lat="43.93021" lon="3.70541">
        <ele>150.1</ele>
        <time>2011-11-27T12:49:40Z</time>
      </trkpt>
      <trkpt lat="43.9302" lon="3.70552">
        <ele>149.62</ele>
        <time>2011-11-27T12:49:41Z</time>
      </trkpt>
      <trkpt lat="43.93021" lon="3.70562">
        <ele>149.62</ele>
        <time>2011-11-27T12:49:42Z</time>
      </trkpt>
      <trkpt lat="43.93026" lon="3.70572">
        <ele>149.62</ele>
        <time>2011-11-27T12:49:43Z</time>
      </trkpt>
      <trkpt lat="43.93032" lon="3.70581">
        <ele>149.62</ele>
        <time>2011-11-27T12:49:44Z</time>
      </trkpt>
      <trkpt lat="43.93036" lon="3.7059">
        <ele>150.1</ele>
        <time>2011-11-27T12:49:45Z</time>
      </trkpt>
      <trkpt lat="43.93038" lon="3.70599">
        <ele>150.1</ele>
        <time>2011-11-27T12:49:46Z</time>
      </trkpt>
      <trkpt lat="43.93039" lon="3.7061">
        <ele>150.1</ele>
        <time>2011-11-27T12:49:47Z</time>
      </trkpt>
      <trkpt lat="43.93038" lon="3.70624">
        <ele>150.1</ele>
        <time>2011-11-27T12:49:48Z</time>
      </trkpt>
      <trkpt lat="43.93035" lon="3.70639">
        <ele>150.1</ele>
        <time>2011-11-27T12:49:49Z</time>
      </trkpt>
      <trkpt lat="43.93033" lon="3.70676">
        <ele>149.62</ele>
        <time>2011-11-27T12:49:51Z</time>
      </trkpt>
      <trkpt lat="43.93034" lon="3.70696">
        <ele>149.62</ele>
        <time>2011-11-27T12:49:52Z</time>
      </trkpt>
      <trkpt lat="43.93036" lon="3.70716">
        <ele>149.62</ele>
        <time>2011-11-27T12:49:53Z</time>
      </trkpt>
      <trkpt lat="43.93039" lon="3.70736">
        <ele>149.62</ele>
        <time>2011-11-27T12:49:54Z</time>
      </trkpt>
      <trkpt lat="43.93044" lon="3.70756">
        <ele>149.62</ele>
        <time>2011-11-27T12:49:55Z</time>
      </trkpt>
      <trkpt lat="43.9305" lon="3.70774">
        <ele>149.62</ele>
        <time>2011-11-27T12:49:56Z</time>
      </trkpt>
      <trkpt lat="43.93057" lon="3.70792">
        <ele>149.14</ele>
        <time>2011-11-27T12:49:57Z</time>
      </trkpt>
      <trkpt lat="43.93065" lon="3.70809">
        <ele>149.14</ele>
        <time>2011-11-27T12:49:58Z</time>
      </trkpt>
      <trkpt lat="43.93074" lon="3.70824">
        <ele>148.66</ele>
        <time>2011-11-27T12:49:59Z</time>
      </trkpt>
      <trkpt lat="43.93191" lon="3.71017">
        <ele>149.14</ele>
        <time>2011-11-27T12:50:11Z</time>
      </trkpt>
      <trkpt lat="43.9321" lon="3.71053">
        <ele>150.1</ele>
        <time>2011-11-27T12:50:14Z</time>
      </trkpt>
      <trkpt lat="43.93214" lon="3.71064">
        <ele>150.58</ele>
        <time>2011-11-27T12:50:15Z</time>
      </trkpt>
      <trkpt lat="43.93215" lon="3.71074">
        <ele>151.06</ele>
        <time>2011-11-27T12:50:16Z</time>
      </trkpt>
      <trkpt lat="43.93215" lon="3.71084">
        <ele>151.06</ele>
        <time>2011-11-27T12:50:17Z</time>
      </trkpt>
      <trkpt lat="43.93214" lon="3.71095">
        <ele>151.06</ele>
        <time>2011-11-27T12:50:18Z</time>
      </trkpt>
      <trkpt lat="43.93212" lon="3.71106">
        <ele>151.06</ele>
        <time>2011-11-27T12:50:19Z</time>
      </trkpt>
      <trkpt lat="43.93209" lon="3.71117">
        <ele>151.54</ele>
        <time>2011-11-27T12:50:20Z</time>
      </trkpt>
      <trkpt lat="43.93204" lon="3.71126">
        <ele>151.06</ele>
        <time>2011-11-27T12:50:21Z</time>
      </trkpt>
      <trkpt lat="43.93196" lon="3.71134">
        <ele>151.54</ele>
        <time>2011-11-27T12:50:22Z</time>
      </trkpt>
      <trkpt lat="43.93187" lon="3.7114">
        <ele>151.06</ele>
        <time>2011-11-27T12:50:23Z</time>
      </trkpt>
      <trkpt lat="43.93177" lon="3.71148">
        <ele>151.06</ele>
        <time>2011-11-27T12:50:24Z</time>
      </trkpt>
      <trkpt lat="43.93083" lon="3.71221">
        <ele>150.58</ele>
        <time>2011-11-27T12:50:35Z</time>
      </trkpt>
      <trkpt lat="43.92973" lon="3.71305">
        <ele>150.58</ele>
        <time>2011-11-27T12:50:45Z</time>
      </trkpt>
      <trkpt lat="43.92893" lon="3.71366">
        <ele>150.58</ele>
        <time>2011-11-27T12:50:54Z</time>
      </trkpt>
      <trkpt lat="43.92778" lon="3.7146">
        <ele>149.14</ele>
        <time>2011-11-27T12:51:05Z</time>
      </trkpt>
      <trkpt lat="43.92661" lon="3.71551">
        <ele>147.22</ele>
        <time>2011-11-27T12:51:16Z</time>
      </trkpt>
      <trkpt lat="43.92647" lon="3.71559">
        <ele>147.22</ele>
        <time>2011-11-27T12:51:18Z</time>
      </trkpt>
      <trkpt lat="43.92641" lon="3.71567">
        <ele>147.22</ele>
        <time>2011-11-27T12:51:19Z</time>
      </trkpt>
      <trkpt lat="43.92592" lon="3.71658">
        <ele>146.74</ele>
        <time>2011-11-27T12:51:25Z</time>
      </trkpt>
      <trkpt lat="43.92533" lon="3.71837">
        <ele>145.3</ele>
        <time>2011-11-27T12:51:34Z</time>
      </trkpt>
      <trkpt lat="43.92449" lon="3.72074">
        <ele>141.93</ele>
        <time>2011-11-27T12:51:47Z</time>
      </trkpt>
      <trkpt lat="43.92378" lon="3.722">
        <ele>140.49</ele>
        <time>2011-11-27T12:51:55Z</time>
      </trkpt>
      <trkpt lat="43.92353" lon="3.72242">
        <ele>141.45</ele>
        <time>2011-11-27T12:51:58Z</time>
      </trkpt>
      <trkpt lat="43.92344" lon="3.72253">
        <ele>140.97</ele>
        <time>2011-11-27T12:51:59Z</time>
      </trkpt>
      <trkpt lat="43.92334" lon="3.72263">
        <ele>140.49</ele>
        <time>2011-11-27T12:52:00Z</time>
      </trkpt>
      <trkpt lat="43.92324" lon="3.72271">
        <ele>140.01</ele>
        <time>2011-11-27T12:52:01Z</time>
      </trkpt>
      <trkpt lat="43.92312" lon="3.72279">
        <ele>139.53</ele>
        <time>2011-11-27T12:52:02Z</time>
      </trkpt>
      <trkpt lat="43.923" lon="3.72284">
        <ele>139.53</ele>
        <time>2011-11-27T12:52:03Z</time>
      </trkpt>
      <trkpt lat="43.92287" lon="3.72288">
        <ele>139.05</ele>
        <time>2011-11-27T12:52:04Z</time>
      </trkpt>
      <trkpt lat="43.92275" lon="3.7229">
        <ele>139.05</ele>
        <time>2011-11-27T12:52:05Z</time>
      </trkpt>
      <trkpt lat="43.92244" lon="3.72298">
        <ele>139.05</ele>
        <time>2011-11-27T12:52:08Z</time>
      </trkpt>
      <trkpt lat="43.92236" lon="3.72303">
        <ele>139.05</ele>
        <time>2011-11-27T12:52:09Z</time>
      </trkpt>
      <trkpt lat="43.92229" lon="3.72311">
        <ele>139.53</ele>
        <time>2011-11-27T12:52:10Z</time>
      </trkpt>
      <trkpt lat="43.92222" lon="3.7232">
        <ele>139.53</ele>
        <time>2011-11-27T12:52:11Z</time>
      </trkpt>
      <trkpt lat="43.92216" lon="3.7233">
        <ele>139.53</ele>
        <time>2011-11-27T12:52:12Z</time>
      </trkpt>
      <trkpt lat="43.92199" lon="3.72363">
        <ele>140.49</ele>
        <time>2011-11-27T12:52:15Z</time>
      </trkpt>
      <trkpt lat="43.92195" lon="3.72376">
        <ele>140.97</ele>
        <time>2011-11-27T12:52:16Z</time>
      </trkpt>
      <trkpt lat="43.92192" lon="3.72389">
        <ele>141.45</ele>
        <time>2011-11-27T12:52:17Z</time>
      </trkpt>
      <trkpt lat="43.92191" lon="3.72403">
        <ele>141.45</ele>
        <time>2011-11-27T12:52:18Z</time>
      </trkpt>
      <trkpt lat="43.9219" lon="3.72416">
        <ele>141.45</ele>
        <time>2011-11-27T12:52:19Z</time>
      </trkpt>
      <trkpt lat="43.92189" lon="3.7243">
        <ele>141.45</ele>
        <time>2011-11-27T12:52:20Z</time>
      </trkpt>
      <trkpt lat="43.92188" lon="3.72462">
        <ele>141.45</ele>
        <time>2011-11-27T12:52:25Z</time>
      </trkpt>
      <trkpt lat="43.92191" lon="3.72463">
        <ele>140.97</ele>
        <time>2011-11-27T12:52:26Z</time>
      </trkpt>
      <trkpt lat="43.92196" lon="3.72465">
        <ele>140.49</ele>
        <time>2011-11-27T12:52:27Z</time>
      </trkpt>
      <trkpt lat="43.92203" lon="3.72469">
        <ele>140.49</ele>
        <time>2011-11-27T12:52:28Z</time>
      </trkpt>
      <trkpt lat="43.92216" lon="3.72476">
        <ele>141.45</ele>
        <time>2011-11-27T12:52:29Z</time>
      </trkpt>
      <trkpt lat="43.92224" lon="3.72483">
        <ele>140.49</ele>
        <time>2011-11-27T12:52:30Z</time>
      </trkpt>
      <trkpt lat="43.92229" lon="3.72489">
        <ele>139.53</ele>
        <time>2011-11-27T12:52:31Z</time>
      </trkpt>
      <trkpt lat="43.92235" lon="3.72497">
        <ele>138.57</ele>
        <time>2011-11-27T12:52:32Z</time>
      </trkpt>
      <trkpt lat="43.9224" lon="3.72505">
        <ele>139.53</ele>
        <time>2011-11-27T12:52:33Z</time>
      </trkpt>
      <trkpt lat="43.92246" lon="3.72512">
        <ele>139.53</ele>
        <time>2011-11-27T12:52:34Z</time>
      </trkpt>
      <trkpt lat="43.92249" lon="3.72522">
        <ele>140.97</ele>
        <time>2011-11-27T12:52:35Z</time>
      </trkpt>
      <trkpt lat="43.92249" lon="3.72537">
        <ele>143.85</ele>
        <time>2011-11-27T12:52:36Z</time>
      </trkpt>
      <trkpt lat="43.92252" lon="3.72548">
        <ele>144.82</ele>
        <time>2011-11-27T12:52:37Z</time>
      </trkpt>
      <trkpt lat="43.92272" lon="3.72604">
        <ele>149.14</ele>
        <time>2011-11-27T12:52:42Z</time>
      </trkpt>
      <trkpt lat="43.92317" lon="3.72726">
        <ele>157.79</ele>
        <time>2011-11-27T12:52:54Z</time>
      </trkpt>
      <trkpt lat="43.92319" lon="3.7273">
        <ele>157.79</ele>
        <time>2011-11-27T12:52:55Z</time>
      </trkpt>
      <trkpt lat="43.92321" lon="3.72732">
        <ele>158.27</ele>
        <time>2011-11-27T12:52:56Z</time>
      </trkpt>
      <trkpt lat="43.92324" lon="3.72731">
        <ele>158.27</ele>
        <time>2011-11-27T12:52:57Z</time>
      </trkpt>
      <trkpt lat="43.92325" lon="3.72727">
        <ele>158.27</ele>
        <time>2011-11-27T12:52:58Z</time>
      </trkpt>
      <trkpt lat="43.92325" lon="3.72721">
        <ele>158.27</ele>
        <time>2011-11-27T12:52:59Z</time>
      </trkpt>
      <trkpt lat="43.92324" lon="3.72714">
        <ele>158.27</ele>
        <time>2011-11-27T12:53:00Z</time>
      </trkpt>
      <trkpt lat="43.92311" lon="3.72616">
        <ele>161.64</ele>
        <time>2011-11-27T12:53:12Z</time>
      </trkpt>
      <trkpt lat="43.92301" lon="3.72574">
        <ele>160.68</ele>
        <time>2011-11-27T12:53:21Z</time>
      </trkpt>
      <trkpt lat="43.92276" lon="3.72482">
        <ele>161.64</ele>
        <time>2011-11-27T12:53:34Z</time>
      </trkpt>
      <trkpt lat="43.92265" lon="3.72461">
        <ele>162.12</ele>
        <time>2011-11-27T12:53:39Z</time>
      </trkpt>
      <trkpt lat="43.92263" lon="3.72459">
        <ele>162.12</ele>
        <time>2011-11-27T12:53:40Z</time>
      </trkpt>
      <trkpt lat="43.92261" lon="3.72459">
        <ele>162.12</ele>
        <time>2011-11-27T12:53:41Z</time>
      </trkpt>
      <trkpt lat="43.92256" lon="3.72456">
        <ele>162.12</ele>
        <time>2011-11-27T12:53:54Z</time>
      </trkpt>
      <trkpt lat="43.92256" lon="3.72453">
        <ele>162.12</ele>
        <time>2011-11-27T12:54:13Z</time>
      </trkpt>
      <trkpt lat="43.92257" lon="3.72455">
        <ele>161.64</ele>
        <time>2011-11-27T12:54:31Z</time>
      </trkpt>
      <trkpt lat="43.92259" lon="3.72455">
        <ele>161.64</ele>
        <time>2011-11-27T12:54:32Z</time>
      </trkpt>
      <trkpt lat="43.9227" lon="3.72467">
        <ele>161.16</ele>
        <time>2011-11-27T12:54:36Z</time>
      </trkpt>
      <trkpt lat="43.92271" lon="3.72473">
        <ele>161.16</ele>
        <time>2011-11-27T12:54:37Z</time>
      </trkpt>
      <trkpt lat="43.92275" lon="3.72487">
        <ele>161.64</ele>
        <time>2011-11-27T12:54:39Z</time>
      </trkpt>
      <trkpt lat="43.92278" lon="3.72494">
        <ele>161.16</ele>
        <time>2011-11-27T12:54:40Z</time>
      </trkpt>
      <trkpt lat="43.92304" lon="3.72596">
        <ele>162.12</ele>
        <time>2011-11-27T12:54:53Z</time>
      </trkpt>
      <trkpt lat="43.92313" lon="3.72652">
        <ele>161.64</ele>
        <time>2011-11-27T12:55:01Z</time>
      </trkpt>
      <trkpt lat="43.92321" lon="3.72726">
        <ele>159.24</ele>
        <time>2011-11-27T12:55:12Z</time>
      </trkpt>
      <trkpt lat="43.92318" lon="3.72728">
        <ele>159.24</ele>
        <time>2011-11-27T12:55:14Z</time>
      </trkpt>
      <trkpt lat="43.92316" lon="3.72727">
        <ele>158.75</ele>
        <time>2011-11-27T12:55:15Z</time>
      </trkpt>
      <trkpt lat="43.92315" lon="3.72725">
        <ele>158.27</ele>
        <time>2011-11-27T12:55:16Z</time>
      </trkpt>
      <trkpt lat="43.92314" lon="3.72722">
        <ele>158.27</ele>
        <time>2011-11-27T12:55:17Z</time>
      </trkpt>
      <trkpt lat="43.92314" lon="3.72717">
        <ele>157.79</ele>
        <time>2011-11-27T12:55:18Z</time>
      </trkpt>
      <trkpt lat="43.92313" lon="3.7271">
        <ele>157.31</ele>
        <time>2011-11-27T12:55:19Z</time>
      </trkpt>
      <trkpt lat="43.92311" lon="3.727">
        <ele>156.83</ele>
        <time>2011-11-27T12:55:20Z</time>
      </trkpt>
      <trkpt lat="43.92308" lon="3.72689">
        <ele>155.87</ele>
        <time>2011-11-27T12:55:21Z</time>
      </trkpt>
      <trkpt lat="43.92304" lon="3.72679">
        <ele>155.87</ele>
        <time>2011-11-27T12:55:22Z</time>
      </trkpt>
      <trkpt lat="43.923" lon="3.72669">
        <ele>155.39</ele>
        <time>2011-11-27T12:55:23Z</time>
      </trkpt>
      <trkpt lat="43.92249" lon="3.72547">
        <ele>148.18</ele>
        <time>2011-11-27T12:55:36Z</time>
      </trkpt>
      <trkpt lat="43.92238" lon="3.72517">
        <ele>145.78</ele>
        <time>2011-11-27T12:55:40Z</time>
      </trkpt>
      <trkpt lat="43.92235" lon="3.72511">
        <ele>145.3</ele>
        <time>2011-11-27T12:55:41Z</time>
      </trkpt>
      <trkpt lat="43.92214" lon="3.72477">
        <ele>143.85</ele>
        <time>2011-11-27T12:55:46Z</time>
      </trkpt>
      <trkpt lat="43.92201" lon="3.72466">
        <ele>144.34</ele>
        <time>2011-11-27T12:55:49Z</time>
      </trkpt>
      <trkpt lat="43.92197" lon="3.72462">
        <ele>143.85</ele>
        <time>2011-11-27T12:55:50Z</time>
      </trkpt>
      <trkpt lat="43.92193" lon="3.72462">
        <ele>144.34</ele>
        <time>2011-11-27T12:55:51Z</time>
      </trkpt>
      <trkpt lat="43.9219" lon="3.72462">
        <ele>144.34</ele>
        <time>2011-11-27T12:55:52Z</time>
      </trkpt>
      <trkpt lat="43.92184" lon="3.72466">
        <ele>149.62</ele>
        <time>2011-11-27T12:55:59Z</time>
      </trkpt>
      <trkpt lat="43.92183" lon="3.72467">
        <ele>150.1</ele>
        <time>2011-11-27T12:56:00Z</time>
      </trkpt>
      <trkpt lat="43.92181" lon="3.72471">
        <ele>149.62</ele>
        <time>2011-11-27T12:56:01Z</time>
      </trkpt>
      <trkpt lat="43.92179" lon="3.72478">
        <ele>149.62</ele>
        <time>2011-11-27T12:56:02Z</time>
      </trkpt>
      <trkpt lat="43.92177" lon="3.72488">
        <ele>149.14</ele>
        <time>2011-11-27T12:56:03Z</time>
      </trkpt>
      <trkpt lat="43.92165" lon="3.72515">
        <ele>149.62</ele>
        <time>2011-11-27T12:56:05Z</time>
      </trkpt>
      <trkpt lat="43.92157" lon="3.72527">
        <ele>149.14</ele>
        <time>2011-11-27T12:56:06Z</time>
      </trkpt>
      <trkpt lat="43.92149" lon="3.72538">
        <ele>148.18</ele>
        <time>2011-11-27T12:56:07Z</time>
      </trkpt>
      <trkpt lat="43.92139" lon="3.72548">
        <ele>147.7</ele>
        <time>2011-11-27T12:56:08Z</time>
      </trkpt>
      <trkpt lat="43.9213" lon="3.72557">
        <ele>147.22</ele>
        <time>2011-11-27T12:56:09Z</time>
      </trkpt>
      <trkpt lat="43.92119" lon="3.72564">
        <ele>146.74</ele>
        <time>2011-11-27T12:56:10Z</time>
      </trkpt>
      <trkpt lat="43.92107" lon="3.72569">
        <ele>146.74</ele>
        <time>2011-11-27T12:56:11Z</time>
      </trkpt>
      <trkpt lat="43.92094" lon="3.72571">
        <ele>146.74</ele>
        <time>2011-11-27T12:56:12Z</time>
      </trkpt>
      <trkpt lat="43.9208" lon="3.72568">
        <ele>146.74</ele>
        <time>2011-11-27T12:56:13Z</time>
      </trkpt>
      <trkpt lat="43.92066" lon="3.72563">
        <ele>146.74</ele>
        <time>2011-11-27T12:56:14Z</time>
      </trkpt>
      <trkpt lat="43.92052" lon="3.72558">
        <ele>147.22</ele>
        <time>2011-11-27T12:56:15Z</time>
      </trkpt>
      <trkpt lat="43.92039" lon="3.72557">
        <ele>146.74</ele>
        <time>2011-11-27T12:56:16Z</time>
      </trkpt>
      <trkpt lat="43.92023" lon="3.72563">
        <ele>146.74</ele>
        <time>2011-11-27T12:56:17Z</time>
      </trkpt>
      <trkpt lat="43.92008" lon="3.72574">
        <ele>146.74</ele>
        <time>2011-11-27T12:56:18Z</time>
      </trkpt>
      <trkpt lat="43.91992" lon="3.72584">
        <ele>146.26</ele>
        <time>2011-11-27T12:56:19Z</time>
      </trkpt>
      <trkpt lat="43.91901" lon="3.72647">
        <ele>144.82</ele>
        <time>2011-11-27T12:56:25Z</time>
      </trkpt>
      <trkpt lat="43.91887" lon="3.72662">
        <ele>144.82</ele>
        <time>2011-11-27T12:56:26Z</time>
      </trkpt>
      <trkpt lat="43.91875" lon="3.72679">
        <ele>143.85</ele>
        <time>2011-11-27T12:56:27Z</time>
      </trkpt>
      <trkpt lat="43.91864" lon="3.72697">
        <ele>143.85</ele>
        <time>2011-11-27T12:56:28Z</time>
      </trkpt>
      <trkpt lat="43.91854" lon="3.72715">
        <ele>143.37</ele>
        <time>2011-11-27T12:56:29Z</time>
      </trkpt>
      <trkpt lat="43.91834" lon="3.7275">
        <ele>143.37</ele>
        <time>2011-11-27T12:56:31Z</time>
      </trkpt>
      <trkpt lat="43.91822" lon="3.72763">
        <ele>142.89</ele>
        <time>2011-11-27T12:56:32Z</time>
      </trkpt>
      <trkpt lat="43.91809" lon="3.72775">
        <ele>142.89</ele>
        <time>2011-11-27T12:56:33Z</time>
      </trkpt>
      <trkpt lat="43.91794" lon="3.72786">
        <ele>142.89</ele>
        <time>2011-11-27T12:56:34Z</time>
      </trkpt>
      <trkpt lat="43.9178" lon="3.72793">
        <ele>142.41</ele>
        <time>2011-11-27T12:56:35Z</time>
      </trkpt>
      <trkpt lat="43.91764" lon="3.72796">
        <ele>142.41</ele>
        <time>2011-11-27T12:56:36Z</time>
      </trkpt>
      <trkpt lat="43.91749" lon="3.72797">
        <ele>142.41</ele>
        <time>2011-11-27T12:56:37Z</time>
      </trkpt>
      <trkpt lat="43.91734" lon="3.72795">
        <ele>142.89</ele>
        <time>2011-11-27T12:56:38Z</time>
      </trkpt>
      <trkpt lat="43.91719" lon="3.72792">
        <ele>142.89</ele>
        <time>2011-11-27T12:56:39Z</time>
      </trkpt>
      <trkpt lat="43.91705" lon="3.72788">
        <ele>142.89</ele>
        <time>2011-11-27T12:56:40Z</time>
      </trkpt>
      <trkpt lat="43.91604" lon="3.72767">
        <ele>141.45</ele>
        <time>2011-11-27T12:56:48Z</time>
      </trkpt>
      <trkpt lat="43.91591" lon="3.72771">
        <ele>141.45</ele>
        <time>2011-11-27T12:56:49Z</time>
      </trkpt>
      <trkpt lat="43.9158" lon="3.72777">
        <ele>141.93</ele>
        <time>2011-11-27T12:56:50Z</time>
      </trkpt>
      <trkpt lat="43.91572" lon="3.72787">
        <ele>141.45</ele>
        <time>2011-11-27T12:56:51Z</time>
      </trkpt>
      <trkpt lat="43.91565" lon="3.728">
        <ele>140.97</ele>
        <time>2011-11-27T12:56:52Z</time>
      </trkpt>
      <trkpt lat="43.91561" lon="3.72814">
        <ele>139.53</ele>
        <time>2011-11-27T12:56:53Z</time>
      </trkpt>
      <trkpt lat="43.91562" lon="3.7283">
        <ele>138.57</ele>
        <time>2011-11-27T12:56:54Z</time>
      </trkpt>
      <trkpt lat="43.91574" lon="3.72851">
        <ele>138.09</ele>
        <time>2011-11-27T12:56:55Z</time>
      </trkpt>
      <trkpt lat="43.91585" lon="3.72869">
        <ele>138.09</ele>
        <time>2011-11-27T12:56:56Z</time>
      </trkpt>
      <trkpt lat="43.91596" lon="3.72889">
        <ele>138.09</ele>
        <time>2011-11-27T12:56:57Z</time>
      </trkpt>
      <trkpt lat="43.91646" lon="3.73034">
        <ele>137.61</ele>
        <time>2011-11-27T12:57:04Z</time>
      </trkpt>
      <trkpt lat="43.91671" lon="3.7314">
        <ele>137.61</ele>
        <time>2011-11-27T12:57:10Z</time>
      </trkpt>
      <trkpt lat="43.91683" lon="3.73214">
        <ele>138.09</ele>
        <time>2011-11-27T12:57:14Z</time>
      </trkpt>
      <trkpt lat="43.91684" lon="3.73235">
        <ele>138.09</ele>
        <time>2011-11-27T12:57:15Z</time>
      </trkpt>
      <trkpt lat="43.91683" lon="3.73257">
        <ele>138.09</ele>
        <time>2011-11-27T12:57:16Z</time>
      </trkpt>
      <trkpt lat="43.91668" lon="3.73387">
        <ele>138.09</ele>
        <time>2011-11-27T12:57:22Z</time>
      </trkpt>
      <trkpt lat="43.91664" lon="3.73404">
        <ele>138.09</ele>
        <time>2011-11-27T12:57:23Z</time>
      </trkpt>
      <trkpt lat="43.91658" lon="3.7342">
        <ele>138.09</ele>
        <time>2011-11-27T12:57:24Z</time>
      </trkpt>
      <trkpt lat="43.91607" lon="3.73553">
        <ele>138.09</ele>
        <time>2011-11-27T12:57:31Z</time>
      </trkpt>
      <trkpt lat="43.91532" lon="3.73691">
        <ele>139.53</ele>
        <time>2011-11-27T12:57:39Z</time>
      </trkpt>
      <trkpt lat="43.91502" lon="3.73735">
        <ele>140.01</ele>
        <time>2011-11-27T12:57:42Z</time>
      </trkpt>
      <trkpt lat="43.91488" lon="3.73747">
        <ele>140.49</ele>
        <time>2011-11-27T12:57:43Z</time>
      </trkpt>
      <trkpt lat="43.91473" lon="3.73758">
        <ele>140.01</ele>
        <time>2011-11-27T12:57:44Z</time>
      </trkpt>
      <trkpt lat="43.91395" lon="3.73808">
        <ele>139.05</ele>
        <time>2011-11-27T12:57:49Z</time>
      </trkpt>
      <trkpt lat="43.91379" lon="3.73813">
        <ele>138.57</ele>
        <time>2011-11-27T12:57:50Z</time>
      </trkpt>
      <trkpt lat="43.91363" lon="3.73816">
        <ele>138.09</ele>
        <time>2011-11-27T12:57:51Z</time>
      </trkpt>
      <trkpt lat="43.91347" lon="3.73817">
        <ele>137.61</ele>
        <time>2011-11-27T12:57:52Z</time>
      </trkpt>
      <trkpt lat="43.91332" lon="3.73816">
        <ele>137.13</ele>
        <time>2011-11-27T12:57:53Z</time>
      </trkpt>
      <trkpt lat="43.91317" lon="3.73811">
        <ele>136.64</ele>
        <time>2011-11-27T12:57:54Z</time>
      </trkpt>
      <trkpt lat="43.91301" lon="3.73799">
        <ele>139.05</ele>
        <time>2011-11-27T12:57:55Z</time>
      </trkpt>
      <trkpt lat="43.91285" lon="3.73782">
        <ele>141.45</ele>
        <time>2011-11-27T12:57:56Z</time>
      </trkpt>
      <trkpt lat="43.9127" lon="3.73765">
        <ele>141.93</ele>
        <time>2011-11-27T12:57:57Z</time>
      </trkpt>
      <trkpt lat="43.91147" lon="3.73667">
        <ele>140.97</ele>
        <time>2011-11-27T12:58:05Z</time>
      </trkpt>
      <trkpt lat="43.9106" lon="3.73648">
        <ele>140.49</ele>
        <time>2011-11-27T12:58:10Z</time>
      </trkpt>
      <trkpt lat="43.91043" lon="3.73649">
        <ele>140.49</ele>
        <time>2011-11-27T12:58:11Z</time>
      </trkpt>
      <trkpt lat="43.91026" lon="3.73653">
        <ele>140.01</ele>
        <time>2011-11-27T12:58:12Z</time>
      </trkpt>
      <trkpt lat="43.91011" lon="3.73658">
        <ele>140.01</ele>
        <time>2011-11-27T12:58:13Z</time>
      </trkpt>
      <trkpt lat="43.90995" lon="3.73665">
        <ele>139.53</ele>
        <time>2011-11-27T12:58:14Z</time>
      </trkpt>
      <trkpt lat="43.90981" lon="3.73673">
        <ele>139.53</ele>
        <time>2011-11-27T12:58:15Z</time>
      </trkpt>
      <trkpt lat="43.90966" lon="3.73683">
        <ele>139.05</ele>
        <time>2011-11-27T12:58:16Z</time>
      </trkpt>
      <trkpt lat="43.90952" lon="3.73694">
        <ele>138.57</ele>
        <time>2011-11-27T12:58:17Z</time>
      </trkpt>
      <trkpt lat="43.90848" lon="3.73771">
        <ele>138.09</ele>
        <time>2011-11-27T12:58:24Z</time>
      </trkpt>
      <trkpt lat="43.90832" lon="3.73777">
        <ele>138.09</ele>
        <time>2011-11-27T12:58:25Z</time>
      </trkpt>
      <trkpt lat="43.90815" lon="3.73779">
        <ele>138.09</ele>
        <time>2011-11-27T12:58:26Z</time>
      </trkpt>
      <trkpt lat="43.90797" lon="3.73777">
        <ele>138.57</ele>
        <time>2011-11-27T12:58:27Z</time>
      </trkpt>
      <trkpt lat="43.90779" lon="3.73774">
        <ele>139.05</ele>
        <time>2011-11-27T12:58:28Z</time>
      </trkpt>
      <trkpt lat="43.90656" lon="3.73754">
        <ele>141.93</ele>
        <time>2011-11-27T12:58:36Z</time>
      </trkpt>
      <trkpt lat="43.9054" lon="3.73768">
        <ele>144.34</ele>
        <time>2011-11-27T12:58:44Z</time>
      </trkpt>
      <trkpt lat="43.90445" lon="3.73795">
        <ele>144.34</ele>
        <time>2011-11-27T12:58:52Z</time>
      </trkpt>
      <trkpt lat="43.90388" lon="3.73806">
        <ele>142.89</ele>
        <time>2011-11-27T12:58:57Z</time>
      </trkpt>
      <trkpt lat="43.90377" lon="3.73805">
        <ele>142.89</ele>
        <time>2011-11-27T12:58:58Z</time>
      </trkpt>
      <trkpt lat="43.90278" lon="3.73779">
        <ele>142.41</ele>
        <time>2011-11-27T12:59:06Z</time>
      </trkpt>
      <trkpt lat="43.90188" lon="3.73755">
        <ele>141.45</ele>
        <time>2011-11-27T12:59:15Z</time>
      </trkpt>
      <trkpt lat="43.90078" lon="3.73725">
        <ele>140.01</ele>
        <time>2011-11-27T12:59:25Z</time>
      </trkpt>
      <trkpt lat="43.89966" lon="3.73695">
        <ele>139.05</ele>
        <time>2011-11-27T12:59:35Z</time>
      </trkpt>
      <trkpt lat="43.89875" lon="3.73671">
        <ele>137.61</ele>
        <time>2011-11-27T12:59:44Z</time>
      </trkpt>
      <trkpt lat="43.89864" lon="3.73671">
        <ele>137.13</ele>
        <time>2011-11-27T12:59:45Z</time>
      </trkpt>
      <trkpt lat="43.89853" lon="3.73674">
        <ele>137.13</ele>
        <time>2011-11-27T12:59:46Z</time>
      </trkpt>
      <trkpt lat="43.89729" lon="3.73715">
        <ele>136.64</ele>
        <time>2011-11-27T12:59:58Z</time>
      </trkpt>
      <trkpt lat="43.89601" lon="3.73755">
        <ele>137.13</ele>
        <time>2011-11-27T13:00:10Z</time>
      </trkpt>
      <trkpt lat="43.89473" lon="3.73797">
        <ele>138.57</ele>
        <time>2011-11-27T13:00:23Z</time>
      </trkpt>
      <trkpt lat="43.89337" lon="3.73842">
        <ele>136.64</ele>
        <time>2011-11-27T13:00:36Z</time>
      </trkpt>
      <trkpt lat="43.8924" lon="3.73872">
        <ele>133.28</ele>
        <time>2011-11-27T13:00:46Z</time>
      </trkpt>
      <trkpt lat="43.89142" lon="3.73903">
        <ele>132.32</ele>
        <time>2011-11-27T13:00:57Z</time>
      </trkpt>
      <trkpt lat="43.88987" lon="3.73951">
        <ele>130.88</ele>
        <time>2011-11-27T13:01:10Z</time>
      </trkpt>
      <trkpt lat="43.88959" lon="3.73959">
        <ele>130.88</ele>
        <time>2011-11-27T13:01:13Z</time>
      </trkpt>
      <trkpt lat="43.88952" lon="3.73958">
        <ele>130.88</ele>
        <time>2011-11-27T13:01:14Z</time>
      </trkpt>
      <trkpt lat="43.88946" lon="3.73956">
        <ele>130.88</ele>
        <time>2011-11-27T13:01:15Z</time>
      </trkpt>
      <trkpt lat="43.88941" lon="3.73952">
        <ele>131.36</ele>
        <time>2011-11-27T13:01:16Z</time>
      </trkpt>
      <trkpt lat="43.88936" lon="3.73949">
        <ele>131.36</ele>
        <time>2011-11-27T13:01:17Z</time>
      </trkpt>
      <trkpt lat="43.8893" lon="3.7395">
        <ele>131.84</ele>
        <time>2011-11-27T13:01:18Z</time>
      </trkpt>
      <trkpt lat="43.88925" lon="3.73954">
        <ele>131.84</ele>
        <time>2011-11-27T13:01:19Z</time>
      </trkpt>
      <trkpt lat="43.88919" lon="3.73962">
        <ele>131.84</ele>
        <time>2011-11-27T13:01:20Z</time>
      </trkpt>
      <trkpt lat="43.88913" lon="3.73972">
        <ele>131.36</ele>
        <time>2011-11-27T13:01:21Z</time>
      </trkpt>
      <trkpt lat="43.88904" lon="3.73981">
        <ele>131.84</ele>
        <time>2011-11-27T13:01:22Z</time>
      </trkpt>
      <trkpt lat="43.88894" lon="3.73988">
        <ele>131.84</ele>
        <time>2011-11-27T13:01:23Z</time>
      </trkpt>
      <trkpt lat="43.88883" lon="3.73995">
        <ele>132.32</ele>
        <time>2011-11-27T13:01:24Z</time>
      </trkpt>
      <trkpt lat="43.88798" lon="3.74041">
        <ele>134.72</ele>
        <time>2011-11-27T13:01:33Z</time>
      </trkpt>
      <trkpt lat="43.88696" lon="3.7406">
        <ele>138.57</ele>
        <time>2011-11-27T13:01:41Z</time>
      </trkpt>
      <trkpt lat="43.88553" lon="3.74046">
        <ele>144.34</ele>
        <time>2011-11-27T13:01:50Z</time>
      </trkpt>
      <trkpt lat="43.88416" lon="3.74076">
        <ele>149.62</ele>
        <time>2011-11-27T13:01:57Z</time>
      </trkpt>
      <trkpt lat="43.88314" lon="3.74181">
        <ele>154.43</ele>
        <time>2011-11-27T13:02:03Z</time>
      </trkpt>
      <trkpt lat="43.88211" lon="3.74354">
        <ele>159.24</ele>
        <time>2011-11-27T13:02:10Z</time>
      </trkpt>
      <trkpt lat="43.8809" lon="3.74457">
        <ele>163.56</ele>
        <time>2011-11-27T13:02:16Z</time>
      </trkpt>
      <trkpt lat="43.87943" lon="3.74502">
        <ele>168.37</ele>
        <time>2011-11-27T13:02:22Z</time>
      </trkpt>
      <trkpt lat="43.87919" lon="3.74501">
        <ele>169.33</ele>
        <time>2011-11-27T13:02:23Z</time>
      </trkpt>
      <trkpt lat="43.87895" lon="3.74496">
        <ele>170.29</ele>
        <time>2011-11-27T13:02:24Z</time>
      </trkpt>
      <trkpt lat="43.87873" lon="3.74488">
        <ele>171.25</ele>
        <time>2011-11-27T13:02:25Z</time>
      </trkpt>
      <trkpt lat="43.8785" lon="3.74475">
        <ele>172.21</ele>
        <time>2011-11-27T13:02:26Z</time>
      </trkpt>
      <trkpt lat="43.87829" lon="3.74457">
        <ele>172.69</ele>
        <time>2011-11-27T13:02:27Z</time>
      </trkpt>
      <trkpt lat="43.8781" lon="3.74436">
        <ele>173.66</ele>
        <time>2011-11-27T13:02:28Z</time>
      </trkpt>
      <trkpt lat="43.87793" lon="3.74411">
        <ele>174.14</ele>
        <time>2011-11-27T13:02:29Z</time>
      </trkpt>
      <trkpt lat="43.87779" lon="3.74382">
        <ele>174.14</ele>
        <time>2011-11-27T13:02:30Z</time>
      </trkpt>
      <trkpt lat="43.87766" lon="3.74353">
        <ele>174.62</ele>
        <time>2011-11-27T13:02:31Z</time>
      </trkpt>
      <trkpt lat="43.87723" lon="3.74275">
        <ele>176.06</ele>
        <time>2011-11-27T13:02:34Z</time>
      </trkpt>
      <trkpt lat="43.87706" lon="3.74254">
        <ele>176.54</ele>
        <time>2011-11-27T13:02:35Z</time>
      </trkpt>
      <trkpt lat="43.87687" lon="3.74235">
        <ele>177.02</ele>
        <time>2011-11-27T13:02:36Z</time>
      </trkpt>
      <trkpt lat="43.87668" lon="3.74219">
        <ele>177.98</ele>
        <time>2011-11-27T13:02:37Z</time>
      </trkpt>
      <trkpt lat="43.87647" lon="3.74205">
        <ele>178.46</ele>
        <time>2011-11-27T13:02:38Z</time>
      </trkpt>
      <trkpt lat="43.87625" lon="3.74196">
        <ele>178.94</ele>
        <time>2011-11-27T13:02:39Z</time>
      </trkpt>
      <trkpt lat="43.87601" lon="3.74189">
        <ele>179.42</ele>
        <time>2011-11-27T13:02:40Z</time>
      </trkpt>
      <trkpt lat="43.87577" lon="3.74186">
        <ele>179.9</ele>
        <time>2011-11-27T13:02:41Z</time>
      </trkpt>
      <trkpt lat="43.87552" lon="3.74186">
        <ele>180.38</ele>
        <time>2011-11-27T13:02:42Z</time>
      </trkpt>
      <trkpt lat="43.87527" lon="3.7419">
        <ele>181.35</ele>
        <time>2011-11-27T13:02:43Z</time>
      </trkpt>
      <trkpt lat="43.87501" lon="3.74196">
        <ele>182.31</ele>
        <time>2011-11-27T13:02:44Z</time>
      </trkpt>
      <trkpt lat="43.87476" lon="3.74204">
        <ele>182.79</ele>
        <time>2011-11-27T13:02:45Z</time>
      </trkpt>
      <trkpt lat="43.87305" lon="3.74243">
        <ele>186.15</ele>
        <time>2011-11-27T13:02:53Z</time>
      </trkpt>
      <trkpt lat="43.8711" lon="3.74229">
        <ele>191.44</ele>
        <time>2011-11-27T13:03:02Z</time>
      </trkpt>
      <trkpt lat="43.8691" lon="3.7415">
        <ele>199.61</ele>
        <time>2011-11-27T13:03:11Z</time>
      </trkpt>
      <trkpt lat="43.86733" lon="3.74042">
        <ele>207.3</ele>
        <time>2011-11-27T13:03:19Z</time>
      </trkpt>
      <trkpt lat="43.8671" lon="3.74035">
        <ele>208.26</ele>
        <time>2011-11-27T13:03:20Z</time>
      </trkpt>
      <trkpt lat="43.86687" lon="3.74032">
        <ele>208.74</ele>
        <time>2011-11-27T13:03:21Z</time>
      </trkpt>
      <trkpt lat="43.86664" lon="3.74031">
        <ele>209.7</ele>
        <time>2011-11-27T13:03:22Z</time>
      </trkpt>
      <trkpt lat="43.86641" lon="3.74033">
        <ele>210.67</ele>
        <time>2011-11-27T13:03:23Z</time>
      </trkpt>
      <trkpt lat="43.86618" lon="3.74038">
        <ele>211.15</ele>
        <time>2011-11-27T13:03:24Z</time>
      </trkpt>
      <trkpt lat="43.86595" lon="3.74044">
        <ele>212.11</ele>
        <time>2011-11-27T13:03:25Z</time>
      </trkpt>
      <trkpt lat="43.86572" lon="3.74054">
        <ele>212.59</ele>
        <time>2011-11-27T13:03:26Z</time>
      </trkpt>
      <trkpt lat="43.8655" lon="3.74065">
        <ele>213.55</ele>
        <time>2011-11-27T13:03:27Z</time>
      </trkpt>
      <trkpt lat="43.86529" lon="3.74078">
        <ele>214.03</ele>
        <time>2011-11-27T13:03:28Z</time>
      </trkpt>
      <trkpt lat="43.86311" lon="3.74241">
        <ele>220.28</ele>
        <time>2011-11-27T13:03:38Z</time>
      </trkpt>
      <trkpt lat="43.86181" lon="3.74313">
        <ele>227.01</ele>
        <time>2011-11-27T13:03:43Z</time>
      </trkpt>
      <trkpt lat="43.86152" lon="3.74314">
        <ele>228.93</ele>
        <time>2011-11-27T13:03:44Z</time>
      </trkpt>
      <trkpt lat="43.86124" lon="3.74312">
        <ele>230.85</ele>
        <time>2011-11-27T13:03:45Z</time>
      </trkpt>
      <trkpt lat="43.86096" lon="3.74306">
        <ele>233.74</ele>
        <time>2011-11-27T13:03:46Z</time>
      </trkpt>
      <trkpt lat="43.86068" lon="3.74297">
        <ele>236.14</ele>
        <time>2011-11-27T13:03:47Z</time>
      </trkpt>
      <trkpt lat="43.8604" lon="3.7428">
        <ele>239.02</ele>
        <time>2011-11-27T13:03:48Z</time>
      </trkpt>
      <trkpt lat="43.86013" lon="3.74262">
        <ele>241.43</ele>
        <time>2011-11-27T13:03:49Z</time>
      </trkpt>
      <trkpt lat="43.85986" lon="3.74242">
        <ele>244.31</ele>
        <time>2011-11-27T13:03:50Z</time>
      </trkpt>
      <trkpt lat="43.85845" lon="3.74178">
        <ele>257.77</ele>
        <time>2011-11-27T13:03:55Z</time>
      </trkpt>
      <trkpt lat="43.85815" lon="3.74176">
        <ele>260.17</ele>
        <time>2011-11-27T13:03:56Z</time>
      </trkpt>
      <trkpt lat="43.85784" lon="3.74177">
        <ele>262.58</ele>
        <time>2011-11-27T13:03:57Z</time>
      </trkpt>
      <trkpt lat="43.85551" lon="3.74209">
        <ele>282.28</ele>
        <time>2011-11-27T13:04:04Z</time>
      </trkpt>
      <trkpt lat="43.8535" lon="3.74191">
        <ele>300.07</ele>
        <time>2011-11-27T13:04:10Z</time>
      </trkpt>
      <trkpt lat="43.8513" lon="3.74089">
        <ele>319.78</ele>
        <time>2011-11-27T13:04:17Z</time>
      </trkpt>
      <trkpt lat="43.84966" lon="3.74004">
        <ele>325.54</ele>
        <time>2011-11-27T13:04:23Z</time>
      </trkpt>
      <trkpt lat="43.84834" lon="3.73989">
        <ele>322.66</ele>
        <time>2011-11-27T13:04:28Z</time>
      </trkpt>
      <trkpt lat="43.84666" lon="3.74056">
        <ele>311.6</ele>
        <time>2011-11-27T13:04:34Z</time>
      </trkpt>
      <trkpt lat="43.84235" lon="3.74292">
        <ele>278.44</ele>
        <time>2011-11-27T13:04:48Z</time>
      </trkpt>
      <trkpt lat="43.8397" lon="3.74422">
        <ele>257.29</ele>
        <time>2011-11-27T13:04:57Z</time>
      </trkpt>
      <trkpt lat="43.83815" lon="3.74419">
        <ele>249.6</ele>
        <time>2011-11-27T13:05:02Z</time>
      </trkpt>
      <trkpt lat="43.83676" lon="3.74351">
        <ele>245.75</ele>
        <time>2011-11-27T13:05:07Z</time>
      </trkpt>
      <trkpt lat="43.83452" lon="3.74237">
        <ele>237.58</ele>
        <time>2011-11-27T13:05:15Z</time>
      </trkpt>
      <trkpt lat="43.83426" lon="3.74235">
        <ele>236.14</ele>
        <time>2011-11-27T13:05:16Z</time>
      </trkpt>
      <trkpt lat="43.83401" lon="3.74236">
        <ele>235.18</ele>
        <time>2011-11-27T13:05:17Z</time>
      </trkpt>
      <trkpt lat="43.83376" lon="3.74242">
        <ele>233.74</ele>
        <time>2011-11-27T13:05:18Z</time>
      </trkpt>
      <trkpt lat="43.83351" lon="3.74252">
        <ele>232.3</ele>
        <time>2011-11-27T13:05:19Z</time>
      </trkpt>
      <trkpt lat="43.83328" lon="3.7427">
        <ele>230.85</ele>
        <time>2011-11-27T13:05:20Z</time>
      </trkpt>
      <trkpt lat="43.83303" lon="3.74291">
        <ele>229.41</ele>
        <time>2011-11-27T13:05:21Z</time>
      </trkpt>
      <trkpt lat="43.83279" lon="3.74313">
        <ele>227.97</ele>
        <time>2011-11-27T13:05:22Z</time>
      </trkpt>
      <trkpt lat="43.83255" lon="3.74336">
        <ele>226.53</ele>
        <time>2011-11-27T13:05:23Z</time>
      </trkpt>
      <trkpt lat="43.83105" lon="3.74484">
        <ele>219.8</ele>
        <time>2011-11-27T13:05:30Z</time>
      </trkpt>
      <trkpt lat="43.83086" lon="3.74497">
        <ele>218.84</ele>
        <time>2011-11-27T13:05:31Z</time>
      </trkpt>
      <trkpt lat="43.83067" lon="3.74506">
        <ele>217.88</ele>
        <time>2011-11-27T13:05:32Z</time>
      </trkpt>
      <trkpt lat="43.83048" lon="3.74513">
        <ele>217.88</ele>
        <time>2011-11-27T13:05:33Z</time>
      </trkpt>
      <trkpt lat="43.83027" lon="3.74517">
        <ele>217.4</ele>
        <time>2011-11-27T13:05:34Z</time>
      </trkpt>
      <trkpt lat="43.83005" lon="3.74518">
        <ele>216.91</ele>
        <time>2011-11-27T13:05:35Z</time>
      </trkpt>
      <trkpt lat="43.82981" lon="3.74516">
        <ele>216.43</ele>
        <time>2011-11-27T13:05:36Z</time>
      </trkpt>
      <trkpt lat="43.82956" lon="3.74514">
        <ele>215.95</ele>
        <time>2011-11-27T13:05:37Z</time>
      </trkpt>
      <trkpt lat="43.82751" lon="3.74495">
        <ele>213.55</ele>
        <time>2011-11-27T13:05:45Z</time>
      </trkpt>
      <trkpt lat="43.82516" lon="3.74474">
        <ele>213.07</ele>
        <time>2011-11-27T13:05:52Z</time>
      </trkpt>
      <trkpt lat="43.82275" lon="3.74456">
        <ele>215.95</ele>
        <time>2011-11-27T13:05:59Z</time>
      </trkpt>
      <trkpt lat="43.82016" lon="3.74461">
        <ele>208.26</ele>
        <time>2011-11-27T13:06:07Z</time>
      </trkpt>
      <trkpt lat="43.819" lon="3.74449">
        <ele>203.46</ele>
        <time>2011-11-27T13:06:11Z</time>
      </trkpt>
      <trkpt lat="43.81871" lon="3.74452">
        <ele>202.01</ele>
        <time>2011-11-27T13:06:12Z</time>
      </trkpt>
      <trkpt lat="43.81793" lon="3.74452">
        <ele>198.17</ele>
        <time>2011-11-27T13:06:15Z</time>
      </trkpt>
      <trkpt lat="43.81767" lon="3.74443">
        <ele>197.21</ele>
        <time>2011-11-27T13:06:16Z</time>
      </trkpt>
      <trkpt lat="43.8174" lon="3.7443">
        <ele>195.77</ele>
        <time>2011-11-27T13:06:17Z</time>
      </trkpt>
      <trkpt lat="43.81586" lon="3.74348">
        <ele>188.56</ele>
        <time>2011-11-27T13:06:23Z</time>
      </trkpt>
      <trkpt lat="43.81566" lon="3.74342">
        <ele>187.59</ele>
        <time>2011-11-27T13:06:24Z</time>
      </trkpt>
      <trkpt lat="43.81545" lon="3.74341">
        <ele>186.63</ele>
        <time>2011-11-27T13:06:25Z</time>
      </trkpt>
      <trkpt lat="43.81521" lon="3.74343">
        <ele>185.67</ele>
        <time>2011-11-27T13:06:26Z</time>
      </trkpt>
      <trkpt lat="43.81496" lon="3.74348">
        <ele>184.71</ele>
        <time>2011-11-27T13:06:27Z</time>
      </trkpt>
      <trkpt lat="43.81469" lon="3.74355">
        <ele>183.27</ele>
        <time>2011-11-27T13:06:28Z</time>
      </trkpt>
      <trkpt lat="43.81327" lon="3.7439">
        <ele>177.5</ele>
        <time>2011-11-27T13:06:34Z</time>
      </trkpt>
      <trkpt lat="43.81309" lon="3.74386">
        <ele>176.54</ele>
        <time>2011-11-27T13:06:35Z</time>
      </trkpt>
      <trkpt lat="43.81292" lon="3.74376">
        <ele>175.58</ele>
        <time>2011-11-27T13:06:36Z</time>
      </trkpt>
      <trkpt lat="43.81274" lon="3.74362">
        <ele>174.62</ele>
        <time>2011-11-27T13:06:37Z</time>
      </trkpt>
      <trkpt lat="43.81257" lon="3.74344">
        <ele>174.14</ele>
        <time>2011-11-27T13:06:38Z</time>
      </trkpt>
      <trkpt lat="43.81243" lon="3.74322">
        <ele>173.66</ele>
        <time>2011-11-27T13:06:39Z</time>
      </trkpt>
      <trkpt lat="43.8123" lon="3.74299">
        <ele>173.17</ele>
        <time>2011-11-27T13:06:40Z</time>
      </trkpt>
      <trkpt lat="43.81219" lon="3.74277">
        <ele>173.17</ele>
        <time>2011-11-27T13:06:41Z</time>
      </trkpt>
      <trkpt lat="43.81168" lon="3.74178">
        <ele>173.17</ele>
        <time>2011-11-27T13:06:46Z</time>
      </trkpt>
      <trkpt lat="43.81153" lon="3.74162">
        <ele>173.17</ele>
        <time>2011-11-27T13:06:47Z</time>
      </trkpt>
      <trkpt lat="43.81134" lon="3.74149">
        <ele>173.17</ele>
        <time>2011-11-27T13:06:48Z</time>
      </trkpt>
      <trkpt lat="43.81113" lon="3.74137">
        <ele>173.66</ele>
        <time>2011-11-27T13:06:49Z</time>
      </trkpt>
      <trkpt lat="43.8109" lon="3.74128">
        <ele>173.66</ele>
        <time>2011-11-27T13:06:50Z</time>
      </trkpt>
      <trkpt lat="43.81066" lon="3.74125">
        <ele>173.66</ele>
        <time>2011-11-27T13:06:51Z</time>
      </trkpt>
      <trkpt lat="43.81042" lon="3.74127">
        <ele>173.66</ele>
        <time>2011-11-27T13:06:52Z</time>
      </trkpt>
      <trkpt lat="43.81017" lon="3.74132">
        <ele>174.62</ele>
        <time>2011-11-27T13:06:53Z</time>
      </trkpt>
      <trkpt lat="43.80992" lon="3.74141">
        <ele>175.58</ele>
        <time>2011-11-27T13:06:54Z</time>
      </trkpt>
      <trkpt lat="43.80967" lon="3.74149">
        <ele>176.54</ele>
        <time>2011-11-27T13:06:55Z</time>
      </trkpt>
      <trkpt lat="43.80918" lon="3.74161">
        <ele>177.5</ele>
        <time>2011-11-27T13:06:57Z</time>
      </trkpt>
      <trkpt lat="43.80894" lon="3.74162">
        <ele>177.98</ele>
        <time>2011-11-27T13:06:58Z</time>
      </trkpt>
      <trkpt lat="43.8087" lon="3.74157">
        <ele>178.94</ele>
        <time>2011-11-27T13:06:59Z</time>
      </trkpt>
      <trkpt lat="43.80847" lon="3.74146">
        <ele>179.42</ele>
        <time>2011-11-27T13:07:00Z</time>
      </trkpt>
      <trkpt lat="43.80825" lon="3.74132">
        <ele>179.9</ele>
        <time>2011-11-27T13:07:01Z</time>
      </trkpt>
      <trkpt lat="43.80802" lon="3.74114">
        <ele>180.87</ele>
        <time>2011-11-27T13:07:02Z</time>
      </trkpt>
      <trkpt lat="43.80779" lon="3.74095">
        <ele>181.83</ele>
        <time>2011-11-27T13:07:03Z</time>
      </trkpt>
      <trkpt lat="43.80577" lon="3.73911">
        <ele>188.08</ele>
        <time>2011-11-27T13:07:11Z</time>
      </trkpt>
      <trkpt lat="43.80482" lon="3.7384">
        <ele>191.44</ele>
        <time>2011-11-27T13:07:15Z</time>
      </trkpt>
      <trkpt lat="43.80455" lon="3.7383">
        <ele>191.92</ele>
        <time>2011-11-27T13:07:16Z</time>
      </trkpt>
      <trkpt lat="43.80427" lon="3.73822">
        <ele>192.88</ele>
        <time>2011-11-27T13:07:17Z</time>
      </trkpt>
      <trkpt lat="43.80231" lon="3.73787">
        <ele>198.17</ele>
        <time>2011-11-27T13:07:24Z</time>
      </trkpt>
      <trkpt lat="43.80086" lon="3.73803">
        <ele>200.57</ele>
        <time>2011-11-27T13:07:30Z</time>
      </trkpt>
      <trkpt lat="43.79992" lon="3.73847">
        <ele>200.09</ele>
        <time>2011-11-27T13:07:36Z</time>
      </trkpt>
      <trkpt lat="43.79876" lon="3.73921">
        <ele>196.25</ele>
        <time>2011-11-27T13:07:41Z</time>
      </trkpt>
      <trkpt lat="43.79675" lon="3.73997">
        <ele>184.71</ele>
        <time>2011-11-27T13:07:48Z</time>
      </trkpt>
      <trkpt lat="43.79592" lon="3.73989">
        <ele>180.87</ele>
        <time>2011-11-27T13:07:51Z</time>
      </trkpt>
      <trkpt lat="43.79568" lon="3.73981">
        <ele>180.38</ele>
        <time>2011-11-27T13:07:52Z</time>
      </trkpt>
      <trkpt lat="43.79546" lon="3.73971">
        <ele>180.38</ele>
        <time>2011-11-27T13:07:53Z</time>
      </trkpt>
      <trkpt lat="43.79523" lon="3.73959">
        <ele>180.87</ele>
        <time>2011-11-27T13:07:54Z</time>
      </trkpt>
      <trkpt lat="43.79502" lon="3.73946">
        <ele>181.35</ele>
        <time>2011-11-27T13:07:55Z</time>
      </trkpt>
      <trkpt lat="43.79482" lon="3.73932">
        <ele>181.83</ele>
        <time>2011-11-27T13:07:56Z</time>
      </trkpt>
      <trkpt lat="43.79462" lon="3.73916">
        <ele>182.79</ele>
        <time>2011-11-27T13:07:57Z</time>
      </trkpt>
      <trkpt lat="43.79443" lon="3.73898">
        <ele>183.27</ele>
        <time>2011-11-27T13:07:58Z</time>
      </trkpt>
      <trkpt lat="43.79425" lon="3.7388">
        <ele>183.75</ele>
        <time>2011-11-27T13:07:59Z</time>
      </trkpt>
      <trkpt lat="43.79225" lon="3.73701">
        <ele>187.59</ele>
        <time>2011-11-27T13:08:10Z</time>
      </trkpt>
      <trkpt lat="43.79119" lon="3.73669">
        <ele>189.04</ele>
        <time>2011-11-27T13:08:16Z</time>
      </trkpt>
      <trkpt lat="43.78999" lon="3.73667">
        <ele>190</ele>
        <time>2011-11-27T13:08:23Z</time>
      </trkpt>
      <trkpt lat="43.78975" lon="3.73665">
        <ele>190</ele>
        <time>2011-11-27T13:08:25Z</time>
      </trkpt>
      <trkpt lat="43.78965" lon="3.73661">
        <ele>190</ele>
        <time>2011-11-27T13:08:26Z</time>
      </trkpt>
      <trkpt lat="43.78956" lon="3.73656">
        <ele>190</ele>
        <time>2011-11-27T13:08:27Z</time>
      </trkpt>
      <trkpt lat="43.78948" lon="3.73649">
        <ele>190</ele>
        <time>2011-11-27T13:08:28Z</time>
      </trkpt>
      <trkpt lat="43.7894" lon="3.73646">
        <ele>190</ele>
        <time>2011-11-27T13:08:29Z</time>
      </trkpt>
      <trkpt lat="43.78931" lon="3.73649">
        <ele>190.48</ele>
        <time>2011-11-27T13:08:30Z</time>
      </trkpt>
      <trkpt lat="43.78921" lon="3.73654">
        <ele>190.48</ele>
        <time>2011-11-27T13:08:31Z</time>
      </trkpt>
      <trkpt lat="43.7891" lon="3.73658">
        <ele>190.48</ele>
        <time>2011-11-27T13:08:32Z</time>
      </trkpt>
      <trkpt lat="43.78895" lon="3.7366">
        <ele>190.48</ele>
        <time>2011-11-27T13:08:33Z</time>
      </trkpt>
      <trkpt lat="43.78879" lon="3.73659">
        <ele>190.96</ele>
        <time>2011-11-27T13:08:34Z</time>
      </trkpt>
      <trkpt lat="43.78861" lon="3.73656">
        <ele>190.96</ele>
        <time>2011-11-27T13:08:35Z</time>
      </trkpt>
      <trkpt lat="43.78842" lon="3.73652">
        <ele>190.96</ele>
        <time>2011-11-27T13:08:36Z</time>
      </trkpt>
      <trkpt lat="43.78655" lon="3.73617">
        <ele>193.84</ele>
        <time>2011-11-27T13:08:46Z</time>
      </trkpt>
      <trkpt lat="43.78511" lon="3.73654">
        <ele>197.21</ele>
        <time>2011-11-27T13:08:53Z</time>
      </trkpt>
      <trkpt lat="43.78434" lon="3.73681">
        <ele>199.13</ele>
        <time>2011-11-27T13:08:57Z</time>
      </trkpt>
      <trkpt lat="43.78417" lon="3.73682">
        <ele>199.13</ele>
        <time>2011-11-27T13:08:58Z</time>
      </trkpt>
      <trkpt lat="43.78402" lon="3.73679">
        <ele>199.61</ele>
        <time>2011-11-27T13:08:59Z</time>
      </trkpt>
      <trkpt lat="43.78389" lon="3.73675">
        <ele>200.09</ele>
        <time>2011-11-27T13:09:00Z</time>
      </trkpt>
      <trkpt lat="43.78377" lon="3.73668">
        <ele>200.09</ele>
        <time>2011-11-27T13:09:01Z</time>
      </trkpt>
      <trkpt lat="43.78366" lon="3.73661">
        <ele>200.57</ele>
        <time>2011-11-27T13:09:02Z</time>
      </trkpt>
      <trkpt lat="43.78358" lon="3.73653">
        <ele>200.57</ele>
        <time>2011-11-27T13:09:03Z</time>
      </trkpt>
      <trkpt lat="43.78351" lon="3.73646">
        <ele>201.05</ele>
        <time>2011-11-27T13:09:04Z</time>
      </trkpt>
      <trkpt lat="43.78346" lon="3.73638">
        <ele>201.05</ele>
        <time>2011-11-27T13:09:05Z</time>
      </trkpt>
      <trkpt lat="43.78343" lon="3.73628">
        <ele>201.05</ele>
        <time>2011-11-27T13:09:06Z</time>
      </trkpt>
      <trkpt lat="43.78342" lon="3.73616">
        <ele>201.05</ele>
        <time>2011-11-27T13:09:07Z</time>
      </trkpt>
      <trkpt lat="43.78339" lon="3.73604">
        <ele>201.05</ele>
        <time>2011-11-27T13:09:08Z</time>
      </trkpt>
      <trkpt lat="43.78335" lon="3.73591">
        <ele>201.53</ele>
        <time>2011-11-27T13:09:09Z</time>
      </trkpt>
      <trkpt lat="43.78328" lon="3.73584">
        <ele>201.53</ele>
        <time>2011-11-27T13:09:10Z</time>
      </trkpt>
      <trkpt lat="43.78319" lon="3.73582">
        <ele>201.05</ele>
        <time>2011-11-27T13:09:11Z</time>
      </trkpt>
      <trkpt lat="43.7831" lon="3.73587">
        <ele>201.53</ele>
        <time>2011-11-27T13:09:12Z</time>
      </trkpt>
      <trkpt lat="43.78302" lon="3.73595">
        <ele>201.53</ele>
        <time>2011-11-27T13:09:13Z</time>
      </trkpt>
      <trkpt lat="43.78293" lon="3.73604">
        <ele>201.53</ele>
        <time>2011-11-27T13:09:14Z</time>
      </trkpt>
      <trkpt lat="43.78282" lon="3.73612">
        <ele>201.05</ele>
        <time>2011-11-27T13:09:15Z</time>
      </trkpt>
      <trkpt lat="43.7827" lon="3.73617">
        <ele>201.05</ele>
        <time>2011-11-27T13:09:16Z</time>
      </trkpt>
      <trkpt lat="43.7815" lon="3.73667">
        <ele>203.94</ele>
        <time>2011-11-27T13:09:23Z</time>
      </trkpt>
      <trkpt lat="43.77991" lon="3.73765">
        <ele>208.26</ele>
        <time>2011-11-27T13:09:30Z</time>
      </trkpt>
      <trkpt lat="43.77944" lon="3.73801">
        <ele>210.67</ele>
        <time>2011-11-27T13:09:32Z</time>
      </trkpt>
      <trkpt lat="43.77922" lon="3.73823">
        <ele>211.63</ele>
        <time>2011-11-27T13:09:33Z</time>
      </trkpt>
      <trkpt lat="43.77903" lon="3.73848">
        <ele>213.07</ele>
        <time>2011-11-27T13:09:34Z</time>
      </trkpt>
      <trkpt lat="43.77775" lon="3.7402">
        <ele>222.2</ele>
        <time>2011-11-27T13:09:40Z</time>
      </trkpt>
      <trkpt lat="43.77683" lon="3.74134">
        <ele>229.41</ele>
        <time>2011-11-27T13:09:45Z</time>
      </trkpt>
      <trkpt lat="43.7766" lon="3.74151">
        <ele>230.85</ele>
        <time>2011-11-27T13:09:46Z</time>
      </trkpt>
      <trkpt lat="43.77531" lon="3.74248">
        <ele>238.54</ele>
        <time>2011-11-27T13:09:51Z</time>
      </trkpt>
      <trkpt lat="43.77429" lon="3.74383">
        <ele>246.72</ele>
        <time>2011-11-27T13:09:56Z</time>
      </trkpt>
      <trkpt lat="43.77409" lon="3.74409">
        <ele>248.16</ele>
        <time>2011-11-27T13:09:57Z</time>
      </trkpt>
      <trkpt lat="43.77388" lon="3.74434">
        <ele>250.08</ele>
        <time>2011-11-27T13:09:58Z</time>
      </trkpt>
      <trkpt lat="43.77364" lon="3.74456">
        <ele>252</ele>
        <time>2011-11-27T13:09:59Z</time>
      </trkpt>
      <trkpt lat="43.77177" lon="3.74596">
        <ele>264.5</ele>
        <time>2011-11-27T13:10:06Z</time>
      </trkpt>
      <trkpt lat="43.77037" lon="3.74626">
        <ele>270.27</ele>
        <time>2011-11-27T13:10:11Z</time>
      </trkpt>
      <trkpt lat="43.76843" lon="3.74585">
        <ele>268.83</ele>
        <time>2011-11-27T13:10:18Z</time>
      </trkpt>
      <trkpt lat="43.76682" lon="3.74559">
        <ele>264.5</ele>
        <time>2011-11-27T13:10:25Z</time>
      </trkpt>
      <trkpt lat="43.76479" lon="3.74612">
        <ele>258.73</ele>
        <time>2011-11-27T13:10:34Z</time>
      </trkpt>
      <trkpt lat="43.76328" lon="3.74691">
        <ele>254.41</ele>
        <time>2011-11-27T13:10:40Z</time>
      </trkpt>
      <trkpt lat="43.76071" lon="3.74842">
        <ele>246.72</ele>
        <time>2011-11-27T13:10:52Z</time>
      </trkpt>
      <trkpt lat="43.75925" lon="3.74987">
        <ele>241.43</ele>
        <time>2011-11-27T13:11:01Z</time>
      </trkpt>
      <trkpt lat="43.75819" lon="3.75084">
        <ele>238.54</ele>
        <time>2011-11-27T13:11:09Z</time>
      </trkpt>
      <trkpt lat="43.75807" lon="3.75089">
        <ele>238.54</ele>
        <time>2011-11-27T13:11:10Z</time>
      </trkpt>
      <trkpt lat="43.75796" lon="3.75092">
        <ele>238.06</ele>
        <time>2011-11-27T13:11:11Z</time>
      </trkpt>
      <trkpt lat="43.75785" lon="3.75094">
        <ele>238.54</ele>
        <time>2011-11-27T13:11:12Z</time>
      </trkpt>
      <trkpt lat="43.75775" lon="3.75099">
        <ele>238.06</ele>
        <time>2011-11-27T13:11:13Z</time>
      </trkpt>
      <trkpt lat="43.75768" lon="3.75107">
        <ele>238.06</ele>
        <time>2011-11-27T13:11:14Z</time>
      </trkpt>
      <trkpt lat="43.75763" lon="3.75119">
        <ele>237.58</ele>
        <time>2011-11-27T13:11:15Z</time>
      </trkpt>
      <trkpt lat="43.75756" lon="3.75132">
        <ele>237.1</ele>
        <time>2011-11-27T13:11:16Z</time>
      </trkpt>
      <trkpt lat="43.75749" lon="3.75147">
        <ele>237.1</ele>
        <time>2011-11-27T13:11:17Z</time>
      </trkpt>
      <trkpt lat="43.75736" lon="3.75162">
        <ele>236.62</ele>
        <time>2011-11-27T13:11:18Z</time>
      </trkpt>
      <trkpt lat="43.75721" lon="3.7518">
        <ele>236.14</ele>
        <time>2011-11-27T13:11:19Z</time>
      </trkpt>
      <trkpt lat="43.75595" lon="3.75307">
        <ele>232.78</ele>
        <time>2011-11-27T13:11:25Z</time>
      </trkpt>
      <trkpt lat="43.75339" lon="3.75555">
        <ele>230.85</ele>
        <time>2011-11-27T13:11:34Z</time>
      </trkpt>
      <trkpt lat="43.75003" lon="3.75885">
        <ele>227.97</ele>
        <time>2011-11-27T13:11:45Z</time>
      </trkpt>
      <trkpt lat="43.74864" lon="3.76031">
        <ele>225.09</ele>
        <time>2011-11-27T13:11:51Z</time>
      </trkpt>
      <trkpt lat="43.74585" lon="3.76329">
        <ele>221.24</ele>
        <time>2011-11-27T13:12:03Z</time>
      </trkpt>
      <trkpt lat="43.74409" lon="3.76627">
        <ele>222.68</ele>
        <time>2011-11-27T13:12:12Z</time>
      </trkpt>
      <trkpt lat="43.74317" lon="3.76791">
        <ele>224.12</ele>
        <time>2011-11-27T13:12:18Z</time>
      </trkpt>
      <trkpt lat="43.74205" lon="3.77031">
        <ele>227.01</ele>
        <time>2011-11-27T13:12:26Z</time>
      </trkpt>
      <trkpt lat="43.74128" lon="3.7725">
        <ele>229.41</ele>
        <time>2011-11-27T13:12:33Z</time>
      </trkpt>
      <trkpt lat="43.74004" lon="3.77598">
        <ele>231.81</ele>
        <time>2011-11-27T13:12:46Z</time>
      </trkpt>
      <trkpt lat="43.73979" lon="3.777">
        <ele>230.37</ele>
        <time>2011-11-27T13:12:50Z</time>
      </trkpt>
      <trkpt lat="43.73977" lon="3.77731">
        <ele>229.89</ele>
        <time>2011-11-27T13:12:51Z</time>
      </trkpt>
      <trkpt lat="43.73977" lon="3.77763">
        <ele>228.93</ele>
        <time>2011-11-27T13:12:52Z</time>
      </trkpt>
      <trkpt lat="43.73985" lon="3.78025">
        <ele>222.2</ele>
        <time>2011-11-27T13:13:01Z</time>
      </trkpt>
      <trkpt lat="43.73995" lon="3.78328">
        <ele>214.03</ele>
        <time>2011-11-27T13:13:12Z</time>
      </trkpt>
      <trkpt lat="43.73992" lon="3.78384">
        <ele>212.59</ele>
        <time>2011-11-27T13:13:14Z</time>
      </trkpt>
      <trkpt lat="43.73988" lon="3.78413">
        <ele>212.11</ele>
        <time>2011-11-27T13:13:15Z</time>
      </trkpt>
      <trkpt lat="43.73979" lon="3.78443">
        <ele>211.15</ele>
        <time>2011-11-27T13:13:16Z</time>
      </trkpt>
      <trkpt lat="43.73968" lon="3.78471">
        <ele>210.19</ele>
        <time>2011-11-27T13:13:17Z</time>
      </trkpt>
      <trkpt lat="43.73953" lon="3.78499">
        <ele>209.22</ele>
        <time>2011-11-27T13:13:18Z</time>
      </trkpt>
      <trkpt lat="43.73937" lon="3.78524">
        <ele>208.26</ele>
        <time>2011-11-27T13:13:19Z</time>
      </trkpt>
      <trkpt lat="43.73921" lon="3.78547">
        <ele>207.78</ele>
        <time>2011-11-27T13:13:20Z</time>
      </trkpt>
      <trkpt lat="43.7381" lon="3.78687">
        <ele>202.49</ele>
        <time>2011-11-27T13:13:27Z</time>
      </trkpt>
      <trkpt lat="43.7354" lon="3.7899">
        <ele>196.25</ele>
        <time>2011-11-27T13:13:43Z</time>
      </trkpt>
      <trkpt lat="43.73362" lon="3.79213">
        <ele>191.44</ele>
        <time>2011-11-27T13:13:54Z</time>
      </trkpt>
      <trkpt lat="43.73149" lon="3.79453">
        <ele>188.08</ele>
        <time>2011-11-27T13:14:07Z</time>
      </trkpt>
      <trkpt lat="43.72965" lon="3.79574">
        <ele>190.48</ele>
        <time>2011-11-27T13:14:17Z</time>
      </trkpt>
      <trkpt lat="43.72946" lon="3.79579">
        <ele>190.96</ele>
        <time>2011-11-27T13:14:18Z</time>
      </trkpt>
      <trkpt lat="43.72925" lon="3.79581">
        <ele>190.96</ele>
        <time>2011-11-27T13:14:19Z</time>
      </trkpt>
      <trkpt lat="43.72903" lon="3.7958">
        <ele>190.48</ele>
        <time>2011-11-27T13:14:20Z</time>
      </trkpt>
      <trkpt lat="43.7288" lon="3.79576">
        <ele>190.48</ele>
        <time>2011-11-27T13:14:21Z</time>
      </trkpt>
      <trkpt lat="43.72858" lon="3.79571">
        <ele>190</ele>
        <time>2011-11-27T13:14:22Z</time>
      </trkpt>
      <trkpt lat="43.72672" lon="3.79489">
        <ele>183.75</ele>
        <time>2011-11-27T13:14:31Z</time>
      </trkpt>
      <trkpt lat="43.72633" lon="3.79467">
        <ele>182.79</ele>
        <time>2011-11-27T13:14:33Z</time>
      </trkpt>
      <trkpt lat="43.72613" lon="3.79461">
        <ele>181.83</ele>
        <time>2011-11-27T13:14:34Z</time>
      </trkpt>
      <trkpt lat="43.72592" lon="3.79457">
        <ele>180.87</ele>
        <time>2011-11-27T13:14:35Z</time>
      </trkpt>
      <trkpt lat="43.7257" lon="3.79457">
        <ele>179.42</ele>
        <time>2011-11-27T13:14:36Z</time>
      </trkpt>
      <trkpt lat="43.72549" lon="3.7946">
        <ele>178.46</ele>
        <time>2011-11-27T13:14:37Z</time>
      </trkpt>
      <trkpt lat="43.72528" lon="3.79465">
        <ele>177.5</ele>
        <time>2011-11-27T13:14:38Z</time>
      </trkpt>
      <trkpt lat="43.72252" lon="3.79506">
        <ele>163.08</ele>
        <time>2011-11-27T13:14:50Z</time>
      </trkpt>
      <trkpt lat="43.72019" lon="3.79472">
        <ele>156.35</ele>
        <time>2011-11-27T13:15:00Z</time>
      </trkpt>
      <trkpt lat="43.7184" lon="3.79448">
        <ele>153.47</ele>
        <time>2011-11-27T13:15:07Z</time>
      </trkpt>
      <trkpt lat="43.71634" lon="3.79418">
        <ele>149.62</ele>
        <time>2011-11-27T13:15:15Z</time>
      </trkpt>
      <trkpt lat="43.71588" lon="3.79422">
        <ele>148.18</ele>
        <time>2011-11-27T13:15:17Z</time>
      </trkpt>
      <trkpt lat="43.71564" lon="3.79428">
        <ele>147.22</ele>
        <time>2011-11-27T13:15:18Z</time>
      </trkpt>
      <trkpt lat="43.71391" lon="3.79503">
        <ele>143.85</ele>
        <time>2011-11-27T13:15:26Z</time>
      </trkpt>
      <trkpt lat="43.71372" lon="3.79519">
        <ele>144.34</ele>
        <time>2011-11-27T13:15:27Z</time>
      </trkpt>
      <trkpt lat="43.71353" lon="3.79536">
        <ele>144.82</ele>
        <time>2011-11-27T13:15:28Z</time>
      </trkpt>
      <trkpt lat="43.71184" lon="3.79712">
        <ele>154.91</ele>
        <time>2011-11-27T13:15:38Z</time>
      </trkpt>
      <trkpt lat="43.71001" lon="3.79941">
        <ele>160.68</ele>
        <time>2011-11-27T13:15:50Z</time>
      </trkpt>
      <trkpt lat="43.70913" lon="3.80158">
        <ele>154.43</ele>
        <time>2011-11-27T13:15:58Z</time>
      </trkpt>
      <trkpt lat="43.70876" lon="3.80387">
        <ele>144.82</ele>
        <time>2011-11-27T13:16:05Z</time>
      </trkpt>
      <trkpt lat="43.70864" lon="3.8063">
        <ele>139.05</ele>
        <time>2011-11-27T13:16:11Z</time>
      </trkpt>
      <trkpt lat="43.70812" lon="3.80886">
        <ele>137.61</ele>
        <time>2011-11-27T13:16:17Z</time>
      </trkpt>
      <trkpt lat="43.70715" lon="3.81328">
        <ele>136.16</ele>
        <time>2011-11-27T13:16:28Z</time>
      </trkpt>
      <trkpt lat="43.70716" lon="3.81364">
        <ele>135.68</ele>
        <time>2011-11-27T13:16:29Z</time>
      </trkpt>
      <trkpt lat="43.70719" lon="3.814">
        <ele>135.68</ele>
        <time>2011-11-27T13:16:30Z</time>
      </trkpt>
      <trkpt lat="43.70725" lon="3.81435">
        <ele>135.68</ele>
        <time>2011-11-27T13:16:31Z</time>
      </trkpt>
      <trkpt lat="43.70733" lon="3.81469">
        <ele>135.2</ele>
        <time>2011-11-27T13:16:32Z</time>
      </trkpt>
      <trkpt lat="43.70744" lon="3.81501">
        <ele>135.2</ele>
        <time>2011-11-27T13:16:33Z</time>
      </trkpt>
      <trkpt lat="43.70755" lon="3.8153">
        <ele>134.72</ele>
        <time>2011-11-27T13:16:34Z</time>
      </trkpt>
      <trkpt lat="43.70766" lon="3.81557">
        <ele>133.28</ele>
        <time>2011-11-27T13:16:35Z</time>
      </trkpt>
      <trkpt lat="43.70824" lon="3.81681">
        <ele>126.55</ele>
        <time>2011-11-27T13:16:41Z</time>
      </trkpt>
      <trkpt lat="43.70845" lon="3.81766">
        <ele>123.19</ele>
        <time>2011-11-27T13:16:47Z</time>
      </trkpt>
      <trkpt lat="43.70845" lon="3.81785">
        <ele>122.22</ele>
        <time>2011-11-27T13:16:50Z</time>
      </trkpt>
      <trkpt lat="43.70842" lon="3.81793">
        <ele>122.71</ele>
        <time>2011-11-27T13:16:51Z</time>
      </trkpt>
      <trkpt lat="43.70837" lon="3.81803">
        <ele>122.71</ele>
        <time>2011-11-27T13:16:52Z</time>
      </trkpt>
      <trkpt lat="43.70831" lon="3.81815">
        <ele>122.22</ele>
        <time>2011-11-27T13:16:53Z</time>
      </trkpt>
      <trkpt lat="43.70824" lon="3.81829">
        <ele>121.74</ele>
        <time>2011-11-27T13:16:54Z</time>
      </trkpt>
      <trkpt lat="43.70816" lon="3.81843">
        <ele>121.26</ele>
        <time>2011-11-27T13:16:55Z</time>
      </trkpt>
      <trkpt lat="43.70806" lon="3.81856">
        <ele>120.78</ele>
        <time>2011-11-27T13:16:56Z</time>
      </trkpt>
      <trkpt lat="43.70793" lon="3.81866">
        <ele>119.82</ele>
        <time>2011-11-27T13:16:57Z</time>
      </trkpt>
      <trkpt lat="43.70777" lon="3.81874">
        <ele>119.34</ele>
        <time>2011-11-27T13:16:58Z</time>
      </trkpt>
      <trkpt lat="43.7076" lon="3.81879">
        <ele>118.86</ele>
        <time>2011-11-27T13:16:59Z</time>
      </trkpt>
      <trkpt lat="43.70742" lon="3.81882">
        <ele>118.38</ele>
        <time>2011-11-27T13:17:00Z</time>
      </trkpt>
      <trkpt lat="43.70723" lon="3.81883">
        <ele>117.9</ele>
        <time>2011-11-27T13:17:01Z</time>
      </trkpt>
      <trkpt lat="43.70703" lon="3.81884">
        <ele>117.9</ele>
        <time>2011-11-27T13:17:02Z</time>
      </trkpt>
      <trkpt lat="43.70443" lon="3.81909">
        <ele>118.38</ele>
        <time>2011-11-27T13:17:15Z</time>
      </trkpt>
      <trkpt lat="43.70249" lon="3.81985">
        <ele>111.65</ele>
        <time>2011-11-27T13:17:24Z</time>
      </trkpt>
      <trkpt lat="43.70113" lon="3.82109">
        <ele>105.88</ele>
        <time>2011-11-27T13:17:31Z</time>
      </trkpt>
      <trkpt lat="43.70012" lon="3.82278">
        <ele>103.96</ele>
        <time>2011-11-27T13:17:38Z</time>
      </trkpt>
      <trkpt lat="43.69877" lon="3.82513">
        <ele>105.4</ele>
        <time>2011-11-27T13:17:48Z</time>
      </trkpt>
      <trkpt lat="43.6974" lon="3.82609">
        <ele>106.36</ele>
        <time>2011-11-27T13:17:55Z</time>
      </trkpt>
      <trkpt lat="43.69563" lon="3.82654">
        <ele>106.36</ele>
        <time>2011-11-27T13:18:03Z</time>
      </trkpt>
      <trkpt lat="43.69424" lon="3.82654">
        <ele>106.36</ele>
        <time>2011-11-27T13:18:09Z</time>
      </trkpt>
      <trkpt lat="43.6925" lon="3.82598">
        <ele>106.36</ele>
        <time>2011-11-27T13:18:16Z</time>
      </trkpt>
      <trkpt lat="43.69015" lon="3.82456">
        <ele>106.84</ele>
        <time>2011-11-27T13:18:27Z</time>
      </trkpt>
      <trkpt lat="43.68699" lon="3.82271">
        <ele>103</ele>
        <time>2011-11-27T13:18:41Z</time>
      </trkpt>
      <trkpt lat="43.68409" lon="3.82182">
        <ele>97.23</ele>
        <time>2011-11-27T13:18:53Z</time>
      </trkpt>
      <trkpt lat="43.68114" lon="3.82141">
        <ele>99.15</ele>
        <time>2011-11-27T13:19:06Z</time>
      </trkpt>
      <trkpt lat="43.67759" lon="3.82091">
        <ele>112.61</ele>
        <time>2011-11-27T13:19:23Z</time>
      </trkpt>
      <trkpt lat="43.67554" lon="3.8203">
        <ele>122.22</ele>
        <time>2011-11-27T13:19:34Z</time>
      </trkpt>
      <trkpt lat="43.67423" lon="3.81949">
        <ele>126.07</ele>
        <time>2011-11-27T13:19:42Z</time>
      </trkpt>
      <trkpt lat="43.67358" lon="3.81894">
        <ele>126.55</ele>
        <time>2011-11-27T13:19:48Z</time>
      </trkpt>
      <trkpt lat="43.6735" lon="3.81882">
        <ele>126.07</ele>
        <time>2011-11-27T13:19:49Z</time>
      </trkpt>
      <trkpt lat="43.67343" lon="3.81868">
        <ele>126.07</ele>
        <time>2011-11-27T13:19:50Z</time>
      </trkpt>
      <trkpt lat="43.6734" lon="3.8185">
        <ele>126.07</ele>
        <time>2011-11-27T13:19:51Z</time>
      </trkpt>
      <trkpt lat="43.6734" lon="3.81832">
        <ele>125.59</ele>
        <time>2011-11-27T13:19:52Z</time>
      </trkpt>
      <trkpt lat="43.67343" lon="3.81815">
        <ele>125.11</ele>
        <time>2011-11-27T13:19:53Z</time>
      </trkpt>
      <trkpt lat="43.67349" lon="3.81799">
        <ele>124.15</ele>
        <time>2011-11-27T13:19:54Z</time>
      </trkpt>
      <trkpt lat="43.67357" lon="3.81785">
        <ele>123.19</ele>
        <time>2011-11-27T13:19:55Z</time>
      </trkpt>
      <trkpt lat="43.67368" lon="3.81774">
        <ele>122.71</ele>
        <time>2011-11-27T13:19:56Z</time>
      </trkpt>
      <trkpt lat="43.67381" lon="3.8177">
        <ele>122.22</ele>
        <time>2011-11-27T13:19:57Z</time>
      </trkpt>
      <trkpt lat="43.67394" lon="3.8177">
        <ele>121.26</ele>
        <time>2011-11-27T13:19:58Z</time>
      </trkpt>
      <trkpt lat="43.67406" lon="3.81773">
        <ele>120.3</ele>
        <time>2011-11-27T13:19:59Z</time>
      </trkpt>
      <trkpt lat="43.67416" lon="3.81782">
        <ele>119.82</ele>
        <time>2011-11-27T13:20:00Z</time>
      </trkpt>
      <trkpt lat="43.67426" lon="3.81794">
        <ele>118.86</ele>
        <time>2011-11-27T13:20:01Z</time>
      </trkpt>
      <trkpt lat="43.67433" lon="3.81809">
        <ele>118.38</ele>
        <time>2011-11-27T13:20:02Z</time>
      </trkpt>
      <trkpt lat="43.67437" lon="3.81827">
        <ele>117.9</ele>
        <time>2011-11-27T13:20:03Z</time>
      </trkpt>
      <trkpt lat="43.67438" lon="3.81845">
        <ele>116.94</ele>
        <time>2011-11-27T13:20:04Z</time>
      </trkpt>
      <trkpt lat="43.67434" lon="3.81862">
        <ele>116.46</ele>
        <time>2011-11-27T13:20:05Z</time>
      </trkpt>
      <trkpt lat="43.67426" lon="3.81878">
        <ele>115.98</ele>
        <time>2011-11-27T13:20:06Z</time>
      </trkpt>
      <trkpt lat="43.67416" lon="3.81894">
        <ele>115.5</ele>
        <time>2011-11-27T13:20:07Z</time>
      </trkpt>
      <trkpt lat="43.67402" lon="3.81907">
        <ele>115.5</ele>
        <time>2011-11-27T13:20:08Z</time>
      </trkpt>
      <trkpt lat="43.67388" lon="3.81921">
        <ele>115.5</ele>
        <time>2011-11-27T13:20:09Z</time>
      </trkpt>
      <trkpt lat="43.67293" lon="3.82007">
        <ele>119.82</ele>
        <time>2011-11-27T13:20:14Z</time>
      </trkpt>
      <trkpt lat="43.6716" lon="3.82176">
        <ele>121.26</ele>
        <time>2011-11-27T13:20:21Z</time>
      </trkpt>
      <trkpt lat="43.67023" lon="3.82429">
        <ele>113.09</ele>
        <time>2011-11-27T13:20:29Z</time>
      </trkpt>
      <trkpt lat="43.66895" lon="3.82578">
        <ele>109.73</ele>
        <time>2011-11-27T13:20:34Z</time>
      </trkpt>
      <trkpt lat="43.66661" lon="3.82759">
        <ele>112.13</ele>
        <time>2011-11-27T13:20:41Z</time>
      </trkpt>
      <trkpt lat="43.66328" lon="3.83003">
        <ele>115.5</ele>
        <time>2011-11-27T13:20:51Z</time>
      </trkpt>
      <trkpt lat="43.66241" lon="3.83048">
        <ele>112.13</ele>
        <time>2011-11-27T13:20:54Z</time>
      </trkpt>
      <trkpt lat="43.66209" lon="3.83057">
        <ele>110.69</ele>
        <time>2011-11-27T13:20:55Z</time>
      </trkpt>
      <trkpt lat="43.6593" lon="3.83112">
        <ele>91.46</ele>
        <time>2011-11-27T13:21:03Z</time>
      </trkpt>
      <trkpt lat="43.65698" lon="3.83201">
        <ele>86.66</ele>
        <time>2011-11-27T13:21:10Z</time>
      </trkpt>
      <trkpt lat="43.65564" lon="3.83351">
        <ele>84.73</ele>
        <time>2011-11-27T13:21:15Z</time>
      </trkpt>
      <trkpt lat="43.65387" lon="3.8354">
        <ele>85.21</ele>
        <time>2011-11-27T13:21:21Z</time>
      </trkpt>
      <trkpt lat="43.65176" lon="3.83712">
        <ele>88.58</ele>
        <time>2011-11-27T13:21:28Z</time>
      </trkpt>
      <trkpt lat="43.65028" lon="3.83889">
        <ele>87.14</ele>
        <time>2011-11-27T13:21:34Z</time>
      </trkpt>
      <trkpt lat="43.6487" lon="3.84037">
        <ele>85.21</ele>
        <time>2011-11-27T13:21:41Z</time>
      </trkpt>
      <trkpt lat="43.64663" lon="3.84192">
        <ele>75.12</ele>
        <time>2011-11-27T13:21:51Z</time>
      </trkpt>
      <trkpt lat="43.64447" lon="3.8435">
        <ele>66.47</ele>
        <time>2011-11-27T13:22:03Z</time>
      </trkpt>
      <trkpt lat="43.64321" lon="3.84482">
        <ele>62.14</ele>
        <time>2011-11-27T13:22:11Z</time>
      </trkpt>
      <trkpt lat="43.64174" lon="3.84627">
        <ele>58.3</ele>
        <time>2011-11-27T13:22:20Z</time>
      </trkpt>
      <trkpt lat="43.63978" lon="3.84694">
        <ele>50.61</ele>
        <time>2011-11-27T13:22:32Z</time>
      </trkpt>
      <trkpt lat="43.63827" lon="3.84624">
        <ele>50.13</ele>
        <time>2011-11-27T13:22:39Z</time>
      </trkpt>
      <trkpt lat="43.63731" lon="3.8454">
        <ele>52.05</ele>
        <time>2011-11-27T13:22:45Z</time>
      </trkpt>
      <trkpt lat="43.63697" lon="3.84503">
        <ele>52.53</ele>
        <time>2011-11-27T13:22:50Z</time>
      </trkpt>
      <trkpt lat="43.63699" lon="3.84504">
        <ele>53.01</ele>
        <time>2011-11-27T13:23:03Z</time>
      </trkpt>
      <trkpt lat="43.63678" lon="3.84481">
        <ele>52.53</ele>
        <time>2011-11-27T13:23:26Z</time>
      </trkpt>
      <trkpt lat="43.63655" lon="3.84461">
        <ele>52.05</ele>
        <time>2011-11-27T13:23:28Z</time>
      </trkpt>
      <trkpt lat="43.6364" lon="3.84453">
        <ele>51.57</ele>
        <time>2011-11-27T13:23:29Z</time>
      </trkpt>
      <trkpt lat="43.63499" lon="3.84375">
        <ele>52.53</ele>
        <time>2011-11-27T13:23:37Z</time>
      </trkpt>
      <trkpt lat="43.6331" lon="3.84304">
        <ele>53.49</ele>
        <time>2011-11-27T13:23:47Z</time>
      </trkpt>
      <trkpt lat="43.63188" lon="3.84246">
        <ele>53.01</ele>
        <time>2011-11-27T13:23:54Z</time>
      </trkpt>
      <trkpt lat="43.63168" lon="3.84226">
        <ele>53.49</ele>
        <time>2011-11-27T13:23:56Z</time>
      </trkpt>
      <trkpt lat="43.63164" lon="3.8421">
        <ele>53.97</ele>
        <time>2011-11-27T13:23:57Z</time>
      </trkpt>
      <trkpt lat="43.63161" lon="3.84194">
        <ele>54.45</ele>
        <time>2011-11-27T13:23:58Z</time>
      </trkpt>
      <trkpt lat="43.63155" lon="3.84178">
        <ele>54.45</ele>
        <time>2011-11-27T13:23:59Z</time>
      </trkpt>
      <trkpt lat="43.63146" lon="3.84164">
        <ele>54.93</ele>
        <time>2011-11-27T13:24:00Z</time>
      </trkpt>
      <trkpt lat="43.63134" lon="3.84155">
        <ele>54.93</ele>
        <time>2011-11-27T13:24:01Z</time>
      </trkpt>
      <trkpt lat="43.63121" lon="3.84152">
        <ele>54.93</ele>
        <time>2011-11-27T13:24:02Z</time>
      </trkpt>
      <trkpt lat="43.63107" lon="3.84156">
        <ele>54.93</ele>
        <time>2011-11-27T13:24:03Z</time>
      </trkpt>
      <trkpt lat="43.63093" lon="3.84164">
        <ele>54.93</ele>
        <time>2011-11-27T13:24:04Z</time>
      </trkpt>
      <trkpt lat="43.6308" lon="3.84173">
        <ele>54.45</ele>
        <time>2011-11-27T13:24:05Z</time>
      </trkpt>
      <trkpt lat="43.63066" lon="3.84179">
        <ele>53.97</ele>
        <time>2011-11-27T13:24:06Z</time>
      </trkpt>
      <trkpt lat="43.63049" lon="3.84181">
        <ele>53.97</ele>
        <time>2011-11-27T13:24:07Z</time>
      </trkpt>
      <trkpt lat="43.63031" lon="3.8418">
        <ele>53.97</ele>
        <time>2011-11-27T13:24:08Z</time>
      </trkpt>
      <trkpt lat="43.63011" lon="3.84178">
        <ele>53.97</ele>
        <time>2011-11-27T13:24:09Z</time>
      </trkpt>
      <trkpt lat="43.62989" lon="3.84175">
        <ele>53.97</ele>
        <time>2011-11-27T13:24:10Z</time>
      </trkpt>
      <trkpt lat="43.62919" lon="3.84147">
        <ele>54.45</ele>
        <time>2011-11-27T13:24:13Z</time>
      </trkpt>
      <trkpt lat="43.62896" lon="3.84131">
        <ele>54.45</ele>
        <time>2011-11-27T13:24:14Z</time>
      </trkpt>
      <trkpt lat="43.62873" lon="3.84113">
        <ele>54.45</ele>
        <time>2011-11-27T13:24:15Z</time>
      </trkpt>
      <trkpt lat="43.62709" lon="3.83927">
        <ele>61.18</ele>
        <time>2011-11-27T13:24:23Z</time>
      </trkpt>
      <trkpt lat="43.62621" lon="3.83783">
        <ele>66.47</ele>
        <time>2011-11-27T13:24:29Z</time>
      </trkpt>
      <trkpt lat="43.62552" lon="3.8368">
        <ele>70.31</ele>
        <time>2011-11-27T13:24:36Z</time>
      </trkpt>
      <trkpt lat="43.62549" lon="3.83668">
        <ele>70.79</ele>
        <time>2011-11-27T13:24:37Z</time>
      </trkpt>
      <trkpt lat="43.62553" lon="3.83657">
        <ele>71.27</ele>
        <time>2011-11-27T13:24:38Z</time>
      </trkpt>
      <trkpt lat="43.62555" lon="3.83625">
        <ele>71.27</ele>
        <time>2011-11-27T13:24:40Z</time>
      </trkpt>
      <trkpt lat="43.62552" lon="3.83608">
        <ele>71.76</ele>
        <time>2011-11-27T13:24:41Z</time>
      </trkpt>
      <trkpt lat="43.62546" lon="3.83594">
        <ele>71.76</ele>
        <time>2011-11-27T13:24:42Z</time>
      </trkpt>
      <trkpt lat="43.62536" lon="3.83584">
        <ele>71.76</ele>
        <time>2011-11-27T13:24:43Z</time>
      </trkpt>
      <trkpt lat="43.62524" lon="3.8358">
        <ele>71.76</ele>
        <time>2011-11-27T13:24:44Z</time>
      </trkpt>
      <trkpt lat="43.6251" lon="3.83581">
        <ele>71.76</ele>
        <time>2011-11-27T13:24:45Z</time>
      </trkpt>
      <trkpt lat="43.62498" lon="3.83589">
        <ele>71.27</ele>
        <time>2011-11-27T13:24:46Z</time>
      </trkpt>
      <trkpt lat="43.62486" lon="3.83596">
        <ele>71.27</ele>
        <time>2011-11-27T13:24:47Z</time>
      </trkpt>
      <trkpt lat="43.62479" lon="3.83609">
        <ele>70.79</ele>
        <time>2011-11-27T13:24:48Z</time>
      </trkpt>
      <trkpt lat="43.62474" lon="3.83621">
        <ele>70.79</ele>
        <time>2011-11-27T13:24:49Z</time>
      </trkpt>
      <trkpt lat="43.62469" lon="3.83632">
        <ele>70.31</ele>
        <time>2011-11-27T13:24:50Z</time>
      </trkpt>
      <trkpt lat="43.62463" lon="3.83641">
        <ele>70.31</ele>
        <time>2011-11-27T13:24:51Z</time>
      </trkpt>
      <trkpt lat="43.62457" lon="3.83646">
        <ele>70.31</ele>
        <time>2011-11-27T13:24:52Z</time>
      </trkpt>
      <trkpt lat="43.62451" lon="3.83649">
        <ele>70.31</ele>
        <time>2011-11-27T13:24:53Z</time>
      </trkpt>
      <trkpt lat="43.62446" lon="3.8365">
        <ele>70.31</ele>
        <time>2011-11-27T13:24:54Z</time>
      </trkpt>
      <trkpt lat="43.62443" lon="3.83651">
        <ele>70.31</ele>
        <time>2011-11-27T13:24:55Z</time>
      </trkpt>
      <trkpt lat="43.62437" lon="3.83651">
        <ele>70.79</ele>
        <time>2011-11-27T13:24:57Z</time>
      </trkpt>
      <trkpt lat="43.62432" lon="3.8365">
        <ele>71.27</ele>
        <time>2011-11-27T13:24:58Z</time>
      </trkpt>
      <trkpt lat="43.62426" lon="3.8365">
        <ele>71.27</ele>
        <time>2011-11-27T13:24:59Z</time>
      </trkpt>
      <trkpt lat="43.6242" lon="3.83651">
        <ele>71.27</ele>
        <time>2011-11-27T13:25:00Z</time>
      </trkpt>
      <trkpt lat="43.62415" lon="3.83655">
        <ele>71.27</ele>
        <time>2011-11-27T13:25:01Z</time>
      </trkpt>
      <trkpt lat="43.62411" lon="3.8366">
        <ele>71.76</ele>
        <time>2011-11-27T13:25:02Z</time>
      </trkpt>
      <trkpt lat="43.62409" lon="3.83666">
        <ele>71.76</ele>
        <time>2011-11-27T13:25:03Z</time>
      </trkpt>
      <trkpt lat="43.62408" lon="3.83671">
        <ele>71.76</ele>
        <time>2011-11-27T13:25:04Z</time>
      </trkpt>
      <trkpt lat="43.62407" lon="3.83676">
        <ele>71.27</ele>
        <time>2011-11-27T13:25:05Z</time>
      </trkpt>
      <trkpt lat="43.62408" lon="3.83681">
        <ele>71.27</ele>
        <time>2011-11-27T13:25:06Z</time>
      </trkpt>
      <trkpt lat="43.6241" lon="3.83686">
        <ele>70.79</ele>
        <time>2011-11-27T13:25:07Z</time>
      </trkpt>
      <trkpt lat="43.62413" lon="3.8369">
        <ele>70.79</ele>
        <time>2011-11-27T13:25:08Z</time>
      </trkpt>
      <trkpt lat="43.62416" lon="3.83694">
        <ele>70.79</ele>
        <time>2011-11-27T13:25:09Z</time>
      </trkpt>
      <trkpt lat="43.6242" lon="3.83697">
        <ele>70.79</ele>
        <time>2011-11-27T13:25:10Z</time>
      </trkpt>
      <trkpt lat="43.62423" lon="3.83701">
        <ele>70.31</ele>
        <time>2011-11-27T13:25:11Z</time>
      </trkpt>
      <trkpt lat="43.62426" lon="3.83708">
        <ele>70.31</ele>
        <time>2011-11-27T13:25:12Z</time>
      </trkpt>
      <trkpt lat="43.62429" lon="3.83718">
        <ele>70.31</ele>
        <time>2011-11-27T13:25:13Z</time>
      </trkpt>
      <trkpt lat="43.62431" lon="3.83729">
        <ele>70.31</ele>
        <time>2011-11-27T13:25:14Z</time>
      </trkpt>
      <trkpt lat="43.62433" lon="3.8374">
        <ele>70.31</ele>
        <time>2011-11-27T13:25:15Z</time>
      </trkpt>
      <trkpt lat="43.62436" lon="3.83778">
        <ele>70.79</ele>
        <time>2011-11-27T13:25:19Z</time>
      </trkpt>
      <trkpt lat="43.62429" lon="3.83791">
        <ele>70.79</ele>
        <time>2011-11-27T13:25:22Z</time>
      </trkpt>
      <trkpt lat="43.62433" lon="3.83796">
        <ele>70.31</ele>
        <time>2011-11-27T13:25:33Z</time>
      </trkpt>
      <trkpt lat="43.62437" lon="3.83798">
        <ele>75.12</ele>
        <time>2011-11-27T13:26:08Z</time>
      </trkpt>
      <trkpt lat="43.62437" lon="3.83799">
        <ele>74.16</ele>
        <time>2011-11-27T13:27:07Z</time>
      </trkpt>
      <trkpt lat="43.62434" lon="3.83794">
        <ele>80.41</ele>
        <time>2011-11-27T13:27:32Z</time>
      </trkpt>
    </trkseg>
  </trk>
</gpx>